GFSSW_prec_precacc12_015.txt.gz
Total_Precipitation_Accumulation
0.00 0.00 0.00 0.00 0.00 0.00 0.00 0.00 0.00 0.00 0.02 0.03 0.02 0.04 0.12 0.14 0.07 0.01 0.00 0.00 0.00 0.00 0.00 0.00 0.00 0.00 0.00 0.00 0.00 0.00 0.00 0.00 0.00 0.00 0.00 0.00 0.00 0.00 0.00 0.00 0.00 0.00 0.00 0.00 0.00
0.00 0.00 0.00 0.00 0.00 0.00 0.00 0.00 0.00 0.00 0.00 0.00 0.01 0.03 0.04 0.03 0.02 0.03 0.00 0.00 0.00 0.00 0.00 0.00 0.00 0.00 0.00 0.00 0.00 0.00 0.00 0.00 0.00 0.00 0.00 0.00 0.00 0.00 0.00 0.00 0.00 0.00 0.00 0.00 0.00
0.00 0.00 0.00 0.00 0.00 0.00 0.00 0.00 0.00 0.00 0.00 0.00 0.00 0.00 0.03 0.02 0.02 0.01 0.00 0.00 0.00 0.01 0.00 0.00 0.00 0.00 0.00 0.00 0.00 0.00 0.00 0.00 0.00 0.00 0.00 0.00 0.00 0.00 0.00 0.00 0.00 0.00 0.00 0.00 0.00
0.01 0.00 0.00 0.00 0.00 0.00 0.00 0.00 0.00 0.00 0.00 0.00 0.00 0.00 0.01 0.04 0.01 0.00 0.00 0.00 0.00 0.02 0.00 0.00 0.00 0.00 0.00 0.00 0.00 0.00 0.00 0.00 0.00 0.00 0.00 0.00 0.00 0.00 0.00 0.00 0.00 0.00 0.00 0.00 0.00
0.02 0.01 0.00 0.00 0.00 0.00 0.00 0.00 0.00 0.00 0.00 0.00 0.01 0.01 0.01 0.02 0.00 0.00 0.00 0.00 0.00 0.01 0.01 0.00 0.00 0.00 0.00 0.00 0.00 0.00 0.00 0.00 0.00 0.00 0.00 0.00 0.00 0.00 0.00 0.00 0.00 0.00 0.00 0.00 0.00
0.02 0.01 0.00 0.00 0.00 0.00 0.00 0.00 0.00 0.00 0.00 0.00 0.00 0.02 0.01 0.01 0.00 0.00 0.00 0.00 0.00 0.00 0.00 0.01 0.01 0.00 0.00 0.00 0.02 0.00 0.00 0.00 0.00 0.00 0.00 0.00 0.00 0.00 0.00 0.00 0.00 0.00 0.00 0.00 0.00
0.03 0.03 0.01 0.00 0.00 0.00 0.01 0.00 0.01 0.00 0.00 0.00 0.02 0.01 0.02 0.00 0.00 0.00 0.00 0.00 0.00 0.00 0.00 0.00 0.01 0.04 0.03 0.02 0.00 0.01 0.03 0.01 0.00 0.00 0.00 0.00 0.00 0.00 0.00 0.00 0.00 0.00 0.00 0.00 0.00
0.03 0.03 0.02 0.00 0.00 0.01 0.00 0.01 0.02 0.02 0.01 0.02 0.01 0.02 0.02 0.00 0.00 0.00 0.00 0.00 0.00 0.00 0.00 0.00 0.00 0.00 0.01 0.03 0.02 0.06 0.08 0.02 0.00 0.00 0.00 0.00 0.00 0.00 0.00 0.00 0.00 0.00 0.00 0.00 0.00
0.05 0.05 0.03 0.02 0.00 0.01 0.03 0.02 0.01 0.02 0.03 0.02 0.00 0.01 0.00 0.00 0.00 0.00 0.00 0.00 0.00 0.00 0.00 0.00 0.00 0.01 0.01 0.04 0.06 0.07 0.03 0.01 0.00 0.00 0.00 0.00 0.00 0.00 0.00 0.00 0.00 0.00 0.00 0.00 0.00
0.08 0.08 0.06 0.03 0.01 0.01 0.04 0.04 0.03 0.05 0.07 0.05 0.02 0.03 0.00 0.00 0.00 0.00 0.00 0.00 0.00 0.00 0.00 0.00 0.00 0.01 0.01 0.05 0.04 0.03 0.02 0.01 0.01 0.00 0.01 0.00 0.00 0.00 0.00 0.00 0.00 0.00 0.00 0.00 0.00
0.12 0.11 0.10 0.06 0.02 0.03 0.02 0.01 0.00 0.01 0.04 0.01 0.01 0.00 0.00 0.00 0.00 0.00 0.00 0.00 0.00 0.00 0.00 0.01 0.03 0.01 0.00 0.00 0.00 0.01 0.04 0.03 0.00 0.01 0.02 0.00 0.00 0.00 0.00 0.00 0.00 0.00 0.00 0.00 0.00
0.12 0.11 0.11 0.07 0.04 0.05 0.03 0.01 0.00 0.00 0.02 0.01 0.00 0.00 0.00 0.00 0.00 0.00 0.00 0.00 0.00 0.00 0.00 0.03 0.03 0.00 0.00 0.00 0.01 0.06 0.07 0.04 0.02 0.02 0.04 0.01 0.00 0.00 0.00 0.00 0.00 0.00 0.00 0.00 0.00
0.17 0.17 0.11 0.11 0.07 0.06 0.02 0.00 0.00 0.02 0.11 0.05 0.00 0.00 0.00 0.01 0.00 0.00 0.00 0.00 0.00 0.00 0.01 0.01 0.00 0.00 0.00 0.00 0.03 0.06 0.11 0.09 0.04 0.06 0.05 0.04 0.01 0.00 0.00 0.00 0.00 0.00 0.00 0.00 0.00
0.28 0.24 0.15 0.10 0.07 0.01 0.02 0.00 0.00 0.05 0.22 0.04 0.00 0.01 0.01 0.06 0.07 0.00 0.00 0.01 0.02 0.01 0.02 0.05 0.00 0.05 0.03 0.01 0.04 0.05 0.05 0.11 0.16 0.14 0.03 0.06 0.03 0.00 0.00 0.00 0.00 0.00 0.00 0.00 0.00
0.42 0.29 0.16 0.05 0.02 0.01 0.00 0.00 0.00 0.11 0.16 0.01 0.01 0.00 0.01 0.05 0.05 0.01 0.00 0.08 0.06 0.01 0.08 0.08 0.00 0.01 0.05 0.01 0.01 0.08 0.06 0.11 0.23 0.34 0.32 0.06 0.07 0.01 0.00 0.00 0.00 0.00 0.00 0.00 0.00
0.52 0.45 0.29 0.07 0.01 0.01 0.00 0.01 0.02 0.08 0.06 0.00 0.00 0.01 0.04 0.03 0.03 0.03 0.01 0.07 0.14 0.29 0.27 0.05 0.04 0.09 0.04 0.02 0.04 0.12 0.20 0.23 0.44 0.42 0.60 0.29 0.06 0.01 0.00 0.00 0.00 0.00 0.00 0.00 0.00
0.63 0.63 0.43 0.04 0.01 0.00 0.00 0.03 0.05 0.05 0.00 0.02 0.01 0.02 0.02 0.03 0.04 0.08 0.10 0.10 0.25 0.35 0.40 0.27 0.08 0.08 0.10 0.11 0.18 0.31 0.42 0.64 0.56 0.71 0.37 0.15 0.16 0.06 0.00 0.00 0.00 0.00 0.00 0.00 0.00
0.80 0.86 0.57 0.06 0.04 0.00 0.00 0.03 0.06 0.00 0.00 0.01 0.03 0.05 0.09 0.06 0.07 0.07 0.25 0.13 0.08 0.21 0.34 0.16 0.08 0.07 0.06 0.11 0.31 0.41 0.47 0.51 0.32 0.27 0.17 0.08 0.26 0.05 0.00 0.00 0.00 0.00 0.00 0.00 0.00
1.12 1.36 0.78 0.11 0.03 0.01 0.04 0.05 0.02 0.03 0.03 0.05 0.09 0.12 0.11 0.06 0.07 0.07 0.12 0.10 0.01 0.04 0.28 0.16 0.07 0.03 0.03 0.08 0.33 0.49 0.51 0.31 0.40 0.11 0.14 0.08 0.08 0.04 0.01 0.00 0.00 0.00 0.00 0.00 0.00
1.57 1.88 0.82 0.13 0.10 0.08 0.07 0.05 0.02 0.05 0.07 0.13 0.08 0.03 0.02 0.01 0.03 0.02 0.02 0.00 0.00 0.00 0.06 0.15 0.17 0.14 0.14 0.29 0.29 0.44 0.28 0.34 0.69 0.45 0.12 0.05 0.02 0.04 0.00 0.00 0.00 0.00 0.00 0.00 0.00
1.32 1.61 0.83 0.31 0.45 0.42 0.15 0.02 0.02 0.04 0.08 0.12 0.05 0.02 0.00 0.00 0.00 0.00 0.00 0.00 0.00 0.00 0.03 0.18 0.23 0.37 0.69 0.49 0.25 0.47 0.51 0.30 0.37 0.31 0.22 0.09 0.02 0.00 0.00 0.01 0.01 0.01 0.00 0.00 0.00
1.29 1.10 0.75 0.56 0.72 0.36 0.06 0.04 0.07 0.07 0.14 0.13 0.10 0.02 0.00 0.00 0.00 0.00 0.00 0.00 0.00 0.01 0.10 0.26 0.43 0.56 0.42 0.16 0.10 0.17 0.22 0.14 0.36 0.33 0.22 0.18 0.07 0.00 0.00 0.00 0.01 0.01 0.01 0.01 0.00
1.25 0.90 0.98 0.43 0.31 0.10 0.02 0.09 0.12 0.06 0.12 0.15 0.07 0.01 0.00 0.00 0.00 0.00 0.00 0.00 0.00 0.01 0.18 0.43 0.87 0.65 0.53 0.38 0.40 0.46 0.25 0.24 0.30 0.42 0.30 0.22 0.10 0.00 0.00 0.00 0.00 0.00 0.00 0.00 0.00
1.22 0.95 1.37 0.99 0.25 0.02 0.03 0.10 0.11 0.05 0.07 0.13 0.09 0.02 0.01 0.00 0.00 0.00 0.00 0.00 0.00 0.00 0.16 0.71 0.76 0.78 0.56 0.47 0.50 0.25 0.19 0.30 0.44 0.37 0.22 0.11 0.06 0.02 0.01 0.00 0.00 0.00 0.00 0.00 0.00
0.84 0.47 0.31 0.39 0.22 0.02 0.06 0.09 0.15 0.17 0.12 0.14 0.08 0.02 0.01 0.00 0.00 0.00 0.00 0.00 0.00 0.00 0.16 0.61 1.06 1.18 0.42 0.16 0.30 0.20 0.12 0.26 0.50 0.31 0.18 0.05 0.05 0.02 0.02 0.00 0.00 0.00 0.00 0.00 0.00
0.43 0.20 0.04 0.02 0.01 0.01 0.03 0.09 0.17 0.24 0.24 0.15 0.10 0.02 0.01 0.01 0.00 0.00 0.00 0.00 0.00 0.01 0.12 0.48 0.84 0.69 0.25 0.05 0.06 0.10 0.10 0.18 0.43 0.35 0.22 0.10 0.08 0.02 0.00 0.00 0.00 0.00 0.00 0.00 0.00
0.26 0.11 0.02 0.02 0.02 0.02 0.02 0.02 0.09 0.26 0.17 0.07 0.06 0.05 0.03 0.01 0.00 0.00 0.00 0.00 0.00 0.01 0.04 0.24 0.48 0.52 0.44 0.16 0.28 0.21 0.08 0.20 0.36 0.32 0.20 0.10 0.07 0.00 0.00 0.00 0.00 0.00 0.00 0.00 0.00

GFSSW_prec_precacc12_018.txt.gz
Total_Precipitation_Accumulation
0.00 0.00 0.00 0.00 0.00 0.00 0.00 0.00 0.00 0.00 0.00 0.01 0.02 0.03 0.10 0.13 0.09 0.02 0.00 0.00 0.00 0.00 0.00 0.00 0.00 0.00 0.00 0.00 0.00 0.00 0.00 0.00 0.00 0.00 0.00 0.00 0.00 0.00 0.00 0.00 0.00 0.00 0.00 0.00 0.00
0.01 0.00 0.00 0.00 0.00 0.00 0.00 0.00 0.00 0.00 0.00 0.00 0.01 0.03 0.03 0.04 0.04 0.04 0.00 0.00 0.00 0.00 0.00 0.00 0.00 0.00 0.00 0.00 0.00 0.00 0.00 0.00 0.00 0.00 0.00 0.00 0.00 0.00 0.00 0.00 0.00 0.00 0.00 0.00 0.00
0.03 0.01 0.00 0.00 0.00 0.00 0.00 0.00 0.00 0.00 0.00 0.00 0.00 0.00 0.02 0.02 0.02 0.00 0.00 0.00 0.01 0.03 0.00 0.00 0.00 0.00 0.00 0.00 0.00 0.00 0.00 0.00 0.00 0.00 0.00 0.00 0.00 0.00 0.00 0.00 0.00 0.00 0.00 0.00 0.00
0.03 0.02 0.00 0.00 0.00 0.00 0.00 0.00 0.00 0.00 0.00 0.00 0.00 0.00 0.02 0.04 0.00 0.00 0.00 0.00 0.00 0.07 0.00 0.00 0.00 0.00 0.00 0.00 0.00 0.00 0.00 0.00 0.00 0.00 0.00 0.00 0.00 0.00 0.00 0.00 0.00 0.00 0.00 0.00 0.00
0.05 0.04 0.02 0.01 0.00 0.00 0.00 0.00 0.00 0.00 0.00 0.00 0.00 0.01 0.01 0.01 0.00 0.00 0.00 0.00 0.00 0.03 0.01 0.00 0.00 0.00 0.00 0.00 0.00 0.00 0.00 0.00 0.00 0.00 0.00 0.00 0.00 0.00 0.00 0.00 0.00 0.00 0.00 0.00 0.00
0.06 0.05 0.04 0.02 0.00 0.00 0.00 0.00 0.00 0.00 0.00 0.00 0.00 0.02 0.01 0.00 0.00 0.00 0.00 0.00 0.00 0.00 0.01 0.01 0.00 0.00 0.00 0.00 0.00 0.00 0.00 0.00 0.00 0.00 0.00 0.00 0.00 0.00 0.00 0.00 0.00 0.00 0.00 0.00 0.00
0.07 0.08 0.06 0.03 0.01 0.00 0.01 0.00 0.02 0.01 0.00 0.00 0.01 0.01 0.01 0.00 0.00 0.00 0.00 0.00 0.00 0.00 0.00 0.00 0.01 0.04 0.03 0.01 0.00 0.00 0.01 0.00 0.00 0.00 0.00 0.00 0.00 0.00 0.00 0.00 0.00 0.00 0.00 0.00 0.00
0.10 0.07 0.08 0.05 0.03 0.01 0.00 0.01 0.03 0.04 0.01 0.00 0.00 0.01 0.01 0.00 0.00 0.00 0.00 0.00 0.00 0.00 0.00 0.00 0.00 0.00 0.01 0.01 0.00 0.01 0.02 0.00 0.00 0.00 0.00 0.00 0.00 0.00 0.00 0.00 0.00 0.00 0.00 0.00 0.00
0.14 0.11 0.09 0.09 0.06 0.02 0.03 0.02 0.02 0.01 0.04 0.02 0.00 0.01 0.00 0.00 0.00 0.00 0.00 0.00 0.00 0.00 0.00 0.00 0.00 0.00 0.00 0.02 0.02 0.01 0.01 0.00 0.00 0.00 0.00 0.00 0.00 0.00 0.00 0.00 0.00 0.00 0.00 0.00 0.00
0.13 0.13 0.11 0.12 0.10 0.03 0.03 0.07 0.03 0.01 0.07 0.07 0.02 0.02 0.00 0.00 0.00 0.00 0.00 0.00 0.00 0.00 0.00 0.00 0.00 0.00 0.00 0.02 0.02 0.01 0.01 0.00 0.00 0.00 0.01 0.00 0.00 0.00 0.00 0.00 0.00 0.00 0.00 0.00 0.00
0.16 0.17 0.16 0.14 0.09 0.04 0.03 0.02 0.00 0.00 0.04 0.01 0.00 0.00 0.00 0.00 0.00 0.00 0.00 0.00 0.00 0.00 0.00 0.00 0.00 0.00 0.00 0.00 0.00 0.00 0.00 0.01 0.00 0.00 0.02 0.00 0.00 0.00 0.00 0.00 0.00 0.00 0.00 0.00 0.00
0.15 0.20 0.21 0.16 0.14 0.07 0.01 0.00 0.00 0.00 0.00 0.00 0.00 0.00 0.00 0.00 0.00 0.00 0.00 0.00 0.00 0.00 0.00 0.00 0.00 0.00 0.00 0.00 0.00 0.00 0.00 0.00 0.00 0.01 0.04 0.01 0.00 0.00 0.00 0.00 0.00 0.00 0.00 0.00 0.00
0.18 0.22 0.25 0.27 0.23 0.14 0.02 0.00 0.00 0.00 0.01 0.01 0.00 0.00 0.00 0.00 0.01 0.00 0.00 0.00 0.00 0.00 0.00 0.00 0.00 0.00 0.00 0.00 0.00 0.00 0.00 0.00 0.00 0.03 0.04 0.04 0.01 0.00 0.00 0.00 0.00 0.00 0.00 0.00 0.00
0.29 0.28 0.31 0.37 0.57 0.08 0.04 0.01 0.00 0.00 0.01 0.00 0.00 0.01 0.01 0.03 0.03 0.00 0.00 0.00 0.01 0.00 0.01 0.02 0.00 0.00 0.00 0.00 0.00 0.00 0.00 0.00 0.01 0.07 0.02 0.06 0.03 0.00 0.00 0.00 0.00 0.00 0.00 0.00 0.00
0.45 0.36 0.33 0.55 0.50 0.11 0.00 0.00 0.00 0.00 0.01 0.00 0.00 0.00 0.02 0.02 0.01 0.00 0.00 0.05 0.04 0.00 0.03 0.05 0.00 0.00 0.00 0.00 0.00 0.00 0.00 0.01 0.04 0.29 0.27 0.05 0.07 0.01 0.00 0.00 0.00 0.00 0.00 0.00 0.00
0.56 0.69 0.57 0.64 0.43 0.07 0.00 0.00 0.00 0.00 0.01 0.00 0.00 0.01 0.03 0.02 0.01 0.01 0.01 0.05 0.12 0.23 0.22 0.04 0.00 0.01 0.00 0.00 0.00 0.01 0.03 0.05 0.16 0.26 0.55 0.24 0.06 0.01 0.00 0.00 0.00 0.00 0.00 0.00 0.00
0.65 0.85 0.87 0.51 0.35 0.06 0.01 0.01 0.01 0.01 0.00 0.00 0.00 0.01 0.00 0.01 0.02 0.03 0.08 0.08 0.23 0.34 0.35 0.23 0.06 0.01 0.03 0.02 0.01 0.02 0.11 0.20 0.31 0.56 0.33 0.14 0.16 0.06 0.00 0.00 0.00 0.00 0.00 0.00 0.00
0.83 0.96 1.01 0.69 0.28 0.03 0.01 0.00 0.01 0.00 0.00 0.00 0.00 0.01 0.02 0.01 0.03 0.04 0.21 0.11 0.07 0.21 0.23 0.13 0.07 0.03 0.01 0.01 0.03 0.03 0.04 0.20 0.15 0.19 0.17 0.08 0.26 0.05 0.00 0.00 0.00 0.00 0.00 0.00 0.00
1.07 1.38 1.09 0.95 0.40 0.06 0.00 0.01 0.00 0.00 0.01 0.01 0.03 0.07 0.03 0.02 0.06 0.06 0.10 0.08 0.01 0.03 0.09 0.07 0.06 0.01 0.00 0.00 0.10 0.19 0.19 0.13 0.38 0.14 0.21 0.08 0.08 0.04 0.01 0.00 0.00 0.00 0.00 0.00 0.00
1.54 1.88 1.01 0.69 0.51 0.09 0.03 0.01 0.00 0.01 0.01 0.05 0.06 0.03 0.00 0.00 0.03 0.02 0.01 0.00 0.00 0.00 0.00 0.02 0.13 0.09 0.05 0.04 0.05 0.16 0.09 0.26 0.81 0.52 0.14 0.05 0.02 0.04 0.00 0.00 0.00 0.00 0.00 0.00 0.00
1.38 1.61 1.03 0.79 0.78 0.43 0.12 0.00 0.00 0.00 0.03 0.07 0.05 0.02 0.00 0.00 0.00 0.00 0.00 0.00 0.00 0.00 0.00 0.03 0.10 0.12 0.34 0.13 0.04 0.23 0.27 0.23 0.37 0.35 0.21 0.09 0.02 0.00 0.00 0.01 0.01 0.01 0.00 0.00 0.00
1.30 1.10 1.13 1.15 1.08 0.42 0.06 0.00 0.00 0.01 0.04 0.10 0.10 0.02 0.00 0.00 0.00 0.00 0.00 0.00 0.00 0.00 0.01 0.04 0.18 0.18 0.10 0.05 0.04 0.06 0.16 0.12 0.37 0.33 0.21 0.17 0.06 0.00 0.00 0.01 0.01 0.01 0.01 0.01 0.01
1.26 0.90 1.33 0.76 0.47 0.18 0.02 0.01 0.01 0.03 0.07 0.12 0.07 0.01 0.00 0.00 0.00 0.00 0.00 0.00 0.00 0.01 0.08 0.25 0.49 0.32 0.21 0.34 0.39 0.45 0.25 0.27 0.31 0.44 0.30 0.22 0.10 0.00 0.00 0.00 0.01 0.01 0.01 0.01 0.01
1.26 1.09 1.83 1.36 0.36 0.01 0.00 0.01 0.02 0.03 0.06 0.12 0.09 0.02 0.04 0.01 0.00 0.00 0.00 0.00 0.00 0.00 0.10 0.56 0.52 0.61 0.57 0.55 0.64 0.37 0.26 0.37 0.50 0.40 0.23 0.11 0.06 0.02 0.01 0.01 0.01 0.01 0.01 0.01 0.01
0.85 0.54 0.44 0.58 0.33 0.02 0.01 0.02 0.03 0.09 0.11 0.14 0.08 0.03 0.05 0.02 0.00 0.00 0.00 0.00 0.00 0.00 0.14 0.59 1.02 1.22 0.52 0.29 0.51 0.34 0.17 0.28 0.53 0.32 0.18 0.05 0.05 0.03 0.03 0.01 0.00 0.03 0.01 0.00 0.00
0.49 0.31 0.03 0.02 0.02 0.01 0.01 0.02 0.03 0.09 0.18 0.15 0.10 0.03 0.03 0.03 0.00 0.00 0.00 0.00 0.00 0.01 0.14 0.53 0.92 0.78 0.31 0.16 0.20 0.19 0.13 0.20 0.43 0.35 0.23 0.10 0.10 0.06 0.03 0.00 0.00 0.06 0.00 0.00 0.00
0.51 0.31 0.03 0.03 0.02 0.02 0.01 0.00 0.01 0.11 0.08 0.06 0.06 0.07 0.04 0.02 0.00 0.00 0.00 0.00 0.00 0.01 0.06 0.31 0.59 0.71 0.59 0.37 0.37 0.29 0.09 0.21 0.36 0.32 0.20 0.10 0.09 0.02 0.01 0.00 0.01 0.01 0.00 0.00 0.00

GFSSW_prec_precacc12_021.txt.gz
Total_Precipitation_Accumulation
0.03 0.02 0.00 0.00 0.00 0.00 0.00 0.00 0.00 0.00 0.00 0.00 0.01 0.03 0.08 0.13 0.13 0.04 0.00 0.00 0.00 0.00 0.00 0.00 0.00 0.00 0.00 0.00 0.00 0.00 0.00 0.00 0.00 0.00 0.00 0.00 0.00 0.00 0.00 0.00 0.00 0.00 0.00 0.00 0.00
0.04 0.03 0.02 0.00 0.00 0.00 0.00 0.00 0.00 0.00 0.00 0.00 0.00 0.01 0.03 0.06 0.07 0.05 0.00 0.00 0.00 0.00 0.00 0.00 0.00 0.00 0.00 0.00 0.00 0.00 0.00 0.00 0.00 0.00 0.00 0.00 0.00 0.00 0.00 0.00 0.00 0.00 0.00 0.00 0.00
0.05 0.04 0.03 0.01 0.00 0.00 0.00 0.00 0.00 0.00 0.00 0.00 0.00 0.00 0.02 0.04 0.02 0.01 0.00 0.00 0.04 0.08 0.00 0.00 0.00 0.00 0.00 0.00 0.00 0.00 0.00 0.00 0.00 0.00 0.00 0.00 0.00 0.00 0.00 0.00 0.00 0.00 0.00 0.00 0.00
0.06 0.05 0.04 0.03 0.01 0.00 0.00 0.00 0.00 0.00 0.00 0.00 0.00 0.00 0.01 0.02 0.00 0.00 0.00 0.00 0.00 0.13 0.01 0.00 0.00 0.00 0.00 0.00 0.00 0.00 0.00 0.00 0.00 0.00 0.00 0.00 0.00 0.00 0.00 0.00 0.00 0.00 0.00 0.00 0.00
0.09 0.08 0.07 0.06 0.03 0.01 0.00 0.00 0.00 0.00 0.00 0.00 0.00 0.01 0.00 0.01 0.00 0.00 0.00 0.00 0.00 0.05 0.03 0.00 0.00 0.00 0.00 0.00 0.00 0.00 0.00 0.00 0.00 0.00 0.00 0.00 0.00 0.00 0.00 0.00 0.00 0.00 0.00 0.00 0.00
0.10 0.10 0.07 0.07 0.06 0.02 0.00 0.00 0.01 0.00 0.00 0.00 0.00 0.01 0.00 0.00 0.00 0.00 0.00 0.00 0.00 0.01 0.02 0.01 0.00 0.00 0.00 0.00 0.00 0.00 0.00 0.00 0.00 0.00 0.00 0.00 0.00 0.00 0.00 0.00 0.00 0.00 0.00 0.00 0.00
0.12 0.13 0.10 0.07 0.07 0.03 0.01 0.00 0.02 0.01 0.00 0.00 0.00 0.00 0.00 0.00 0.00 0.00 0.00 0.00 0.00 0.00 0.01 0.02 0.02 0.03 0.03 0.01 0.00 0.00 0.00 0.00 0.00 0.00 0.00 0.00 0.00 0.00 0.00 0.00 0.00 0.00 0.00 0.00 0.00
0.13 0.12 0.12 0.10 0.09 0.07 0.02 0.01 0.03 0.06 0.02 0.00 0.00 0.00 0.00 0.00 0.00 0.00 0.00 0.00 0.00 0.00 0.00 0.00 0.01 0.01 0.00 0.00 0.00 0.00 0.00 0.00 0.00 0.00 0.00 0.00 0.00 0.00 0.00 0.00 0.00 0.00 0.00 0.00 0.00
0.14 0.13 0.14 0.16 0.12 0.09 0.06 0.03 0.02 0.02 0.08 0.04 0.00 0.00 0.00 0.00 0.00 0.00 0.00 0.00 0.00 0.00 0.00 0.00 0.00 0.00 0.00 0.01 0.01 0.00 0.00 0.00 0.00 0.00 0.00 0.00 0.00 0.00 0.00 0.00 0.00 0.00 0.00 0.00 0.00
0.14 0.14 0.17 0.19 0.18 0.11 0.07 0.10 0.05 0.03 0.08 0.10 0.01 0.00 0.00 0.00 0.00 0.00 0.00 0.00 0.00 0.00 0.00 0.00 0.00 0.00 0.00 0.01 0.01 0.00 0.00 0.00 0.00 0.00 0.00 0.00 0.00 0.00 0.00 0.00 0.00 0.00 0.00 0.00 0.00
0.16 0.16 0.18 0.24 0.23 0.16 0.10 0.04 0.01 0.00 0.04 0.01 0.00 0.00 0.00 0.00 0.00 0.00 0.00 0.00 0.00 0.00 0.00 0.00 0.00 0.00 0.00 0.00 0.00 0.00 0.00 0.00 0.00 0.00 0.00 0.00 0.00 0.00 0.00 0.00 0.00 0.00 0.00 0.00 0.00
0.17 0.20 0.22 0.21 0.28 0.38 0.16 0.00 0.00 0.00 0.00 0.00 0.00 0.00 0.00 0.00 0.00 0.00 0.00 0.00 0.00 0.00 0.00 0.00 0.00 0.00 0.00 0.00 0.00 0.00 0.00 0.00 0.00 0.00 0.01 0.00 0.00 0.00 0.00 0.00 0.00 0.00 0.00 0.00 0.00
0.17 0.22 0.25 0.33 0.46 0.64 0.25 0.02 0.00 0.00 0.00 0.00 0.00 0.00 0.00 0.00 0.00 0.00 0.00 0.00 0.00 0.00 0.00 0.00 0.00 0.00 0.00 0.00 0.00 0.00 0.00 0.00 0.00 0.00 0.00 0.01 0.00 0.00 0.00 0.00 0.00 0.00 0.00 0.00 0.00
0.27 0.28 0.32 0.43 0.95 0.59 0.32 0.05 0.00 0.00 0.00 0.00 0.00 0.00 0.01 0.02 0.01 0.00 0.00 0.00 0.01 0.00 0.00 0.01 0.00 0.00 0.00 0.00 0.00 0.00 0.00 0.00 0.00 0.01 0.00 0.03 0.02 0.00 0.00 0.00 0.00 0.00 0.00 0.00 0.00
0.50 0.38 0.35 0.65 0.90 0.74 0.25 0.05 0.00 0.00 0.00 0.00 0.00 0.00 0.03 0.02 0.00 0.00 0.00 0.01 0.01 0.00 0.02 0.03 0.00 0.00 0.00 0.00 0.00 0.00 0.00 0.00 0.01 0.02 0.04 0.01 0.05 0.01 0.00 0.00 0.00 0.00 0.00 0.00 0.00
0.62 0.70 0.60 0.68 0.72 0.62 0.21 0.04 0.00 0.00 0.00 0.00 0.00 0.02 0.04 0.02 0.01 0.00 0.01 0.03 0.07 0.16 0.17 0.03 0.00 0.00 0.00 0.00 0.00 0.01 0.03 0.04 0.06 0.11 0.10 0.01 0.02 0.01 0.00 0.00 0.00 0.00 0.00 0.00 0.00
0.69 0.95 0.93 0.53 0.55 0.48 0.40 0.13 0.01 0.01 0.00 0.01 0.00 0.01 0.01 0.01 0.01 0.01 0.03 0.07 0.16 0.24 0.31 0.22 0.06 0.00 0.00 0.00 0.00 0.02 0.12 0.19 0.18 0.19 0.06 0.00 0.01 0.02 0.00 0.00 0.00 0.00 0.00 0.00 0.00
0.83 1.05 1.09 0.73 0.51 0.46 0.49 0.11 0.01 0.00 0.00 0.00 0.00 0.01 0.01 0.00 0.01 0.02 0.05 0.06 0.05 0.19 0.23 0.13 0.07 0.02 0.01 0.00 0.00 0.01 0.03 0.12 0.07 0.02 0.00 0.01 0.03 0.03 0.00 0.00 0.00 0.00 0.00 0.00 0.00
1.03 1.27 1.14 0.99 0.74 0.62 0.34 0.09 0.00 0.00 0.00 0.00 0.00 0.02 0.01 0.00 0.01 0.02 0.03 0.02 0.01 0.03 0.07 0.03 0.01 0.00 0.00 0.00 0.04 0.15 0.18 0.06 0.11 0.10 0.18 0.01 0.02 0.02 0.01 0.00 0.00 0.00 0.00 0.00 0.00
1.40 1.70 0.95 0.75 0.99 0.60 0.27 0.04 0.00 0.00 0.00 0.00 0.01 0.02 0.00 0.00 0.01 0.02 0.00 0.00 0.00 0.00 0.00 0.00 0.01 0.00 0.02 0.01 0.01 0.05 0.06 0.14 0.41 0.23 0.10 0.01 0.01 0.04 0.00 0.00 0.00 0.00 0.00 0.00 0.00
1.37 1.52 0.96 0.78 1.17 0.89 0.30 0.01 0.00 0.00 0.00 0.00 0.02 0.01 0.00 0.00 0.00 0.00 0.00 0.00 0.00 0.00 0.00 0.00 0.03 0.04 0.22 0.08 0.00 0.02 0.11 0.10 0.09 0.13 0.13 0.05 0.01 0.00 0.00 0.01 0.01 0.01 0.00 0.00 0.00
1.30 1.05 1.09 1.16 1.39 0.77 0.11 0.00 0.00 0.00 0.00 0.01 0.05 0.02 0.00 0.00 0.00 0.00 0.00 0.00 0.00 0.00 0.00 0.01 0.11 0.10 0.03 0.02 0.02 0.02 0.04 0.04 0.12 0.02 0.12 0.17 0.07 0.00 0.01 0.01 0.01 0.01 0.01 0.01 0.01
1.18 0.86 1.35 0.77 0.54 0.31 0.03 0.00 0.00 0.00 0.01 0.04 0.05 0.01 0.00 0.00 0.00 0.00 0.00 0.00 0.00 0.00 0.04 0.11 0.34 0.25 0.13 0.25 0.25 0.32 0.11 0.11 0.15 0.29 0.32 0.22 0.10 0.00 0.00 0.00 0.01 0.01 0.01 0.01 0.01
1.29 1.06 2.12 1.39 0.42 0.02 0.00 0.00 0.00 0.00 0.01 0.08 0.07 0.02 0.04 0.02 0.00 0.00 0.00 0.00 0.00 0.00 0.04 0.23 0.30 0.30 0.37 0.47 0.72 0.41 0.12 0.18 0.33 0.48 0.25 0.11 0.06 0.02 0.01 0.01 0.01 0.02 0.03 0.02 0.01
0.86 0.51 0.53 0.64 0.36 0.01 0.00 0.00 0.00 0.01 0.03 0.12 0.08 0.03 0.06 0.02 0.00 0.00 0.00 0.00 0.00 0.00 0.10 0.40 0.55 0.61 0.41 0.28 0.68 0.52 0.16 0.16 0.45 0.33 0.19 0.06 0.05 0.03 0.03 0.01 0.01 0.06 0.05 0.01 0.00
0.53 0.43 0.04 0.01 0.02 0.01 0.01 0.01 0.01 0.01 0.06 0.12 0.09 0.03 0.03 0.04 0.00 0.00 0.00 0.00 0.00 0.01 0.13 0.46 0.70 0.66 0.31 0.19 0.36 0.36 0.18 0.24 0.45 0.36 0.23 0.10 0.10 0.06 0.03 0.00 0.01 0.15 0.06 0.02 0.01
0.51 0.40 0.09 0.03 0.01 0.01 0.01 0.00 0.00 0.01 0.01 0.03 0.06 0.07 0.04 0.02 0.01 0.00 0.00 0.00 0.00 0.01 0.06 0.30 0.57 0.78 0.62 0.41 0.52 0.41 0.14 0.23 0.37 0.32 0.20 0.10 0.09 0.02 0.02 0.06 0.12 0.23 0.02 0.01 0.00

GFSSW_prec_precacc12_024.txt.gz
Total_Precipitation_Accumulation
0.04 0.05 0.06 0.03 0.00 0.00 0.00 0.00 0.00 0.00 0.00 0.00 0.01 0.02 0.06 0.10 0.15 0.05 0.00 0.00 0.00 0.00 0.00 0.00 0.00 0.00 0.00 0.00 0.00 0.00 0.00 0.00 0.00 0.00 0.00 0.00 0.00 0.00 0.00 0.00 0.00 0.00 0.00 0.00 0.00
0.04 0.03 0.05 0.05 0.03 0.00 0.00 0.00 0.00 0.00 0.00 0.00 0.00 0.00 0.01 0.05 0.10 0.07 0.00 0.00 0.01 0.00 0.00 0.00 0.00 0.00 0.00 0.00 0.00 0.00 0.00 0.00 0.00 0.00 0.00 0.00 0.00 0.00 0.00 0.00 0.00 0.00 0.00 0.00 0.00
0.05 0.05 0.05 0.06 0.06 0.02 0.00 0.00 0.00 0.00 0.00 0.00 0.00 0.00 0.01 0.03 0.03 0.01 0.00 0.01 0.08 0.12 0.00 0.00 0.00 0.00 0.00 0.00 0.00 0.00 0.00 0.00 0.00 0.00 0.00 0.00 0.00 0.00 0.00 0.00 0.00 0.00 0.00 0.00 0.00
0.08 0.08 0.07 0.07 0.07 0.06 0.01 0.00 0.00 0.00 0.00 0.00 0.00 0.00 0.01 0.03 0.00 0.00 0.00 0.00 0.04 0.22 0.01 0.00 0.00 0.00 0.00 0.00 0.00 0.00 0.00 0.00 0.00 0.00 0.00 0.00 0.00 0.00 0.00 0.00 0.00 0.00 0.00 0.00 0.00
0.11 0.10 0.10 0.09 0.08 0.08 0.04 0.00 0.00 0.00 0.00 0.00 0.00 0.00 0.00 0.01 0.00 0.00 0.00 0.00 0.00 0.10 0.04 0.00 0.00 0.00 0.00 0.00 0.00 0.00 0.00 0.00 0.00 0.00 0.00 0.00 0.00 0.00 0.00 0.00 0.00 0.00 0.00 0.00 0.00
0.10 0.10 0.09 0.08 0.09 0.08 0.07 0.01 0.01 0.00 0.00 0.00 0.00 0.00 0.00 0.00 0.00 0.00 0.00 0.00 0.00 0.02 0.04 0.02 0.00 0.00 0.00 0.00 0.00 0.00 0.00 0.00 0.00 0.00 0.00 0.00 0.00 0.00 0.00 0.00 0.00 0.00 0.00 0.00 0.00
0.11 0.12 0.11 0.11 0.12 0.10 0.08 0.02 0.02 0.01 0.00 0.00 0.00 0.00 0.00 0.00 0.00 0.00 0.00 0.00 0.00 0.02 0.04 0.03 0.02 0.02 0.02 0.00 0.00 0.00 0.00 0.00 0.00 0.00 0.00 0.00 0.00 0.00 0.00 0.00 0.00 0.00 0.00 0.00 0.00
0.12 0.12 0.13 0.13 0.15 0.14 0.11 0.05 0.03 0.06 0.03 0.00 0.00 0.00 0.00 0.00 0.00 0.00 0.00 0.00 0.00 0.00 0.01 0.01 0.01 0.01 0.00 0.00 0.00 0.00 0.00 0.00 0.00 0.00 0.00 0.00 0.00 0.00 0.00 0.00 0.00 0.00 0.00 0.00 0.00
0.14 0.12 0.14 0.18 0.19 0.19 0.16 0.13 0.06 0.02 0.11 0.08 0.00 0.00 0.00 0.00 0.00 0.00 0.00 0.00 0.00 0.00 0.00 0.00 0.00 0.00 0.00 0.01 0.01 0.00 0.00 0.00 0.00 0.00 0.00 0.00 0.00 0.00 0.00 0.00 0.00 0.00 0.00 0.00 0.00
0.13 0.14 0.17 0.19 0.24 0.26 0.23 0.32 0.12 0.04 0.11 0.12 0.01 0.00 0.00 0.00 0.00 0.00 0.00 0.00 0.00 0.00 0.00 0.00 0.00 0.00 0.00 0.00 0.00 0.00 0.00 0.00 0.00 0.00 0.00 0.00 0.00 0.00 0.00 0.00 0.00 0.00 0.00 0.00 0.00
0.17 0.16 0.16 0.24 0.28 0.32 0.48 0.50 0.07 0.01 0.05 0.03 0.00 0.00 0.00 0.00 0.00 0.00 0.00 0.00 0.00 0.00 0.00 0.00 0.00 0.00 0.00 0.00 0.00 0.00 0.00 0.00 0.00 0.00 0.00 0.00 0.00 0.00 0.00 0.00 0.00 0.00 0.00 0.00 0.00
0.19 0.18 0.19 0.20 0.29 0.58 0.75 0.41 0.03 0.00 0.00 0.00 0.00 0.00 0.00 0.00 0.00 0.00 0.00 0.00 0.00 0.00 0.00 0.00 0.00 0.00 0.00 0.00 0.00 0.00 0.00 0.00 0.00 0.00 0.00 0.00 0.00 0.00 0.00 0.00 0.00 0.00 0.00 0.00 0.00
0.14 0.19 0.23 0.32 0.45 0.77 0.78 0.31 0.02 0.00 0.00 0.00 0.00 0.00 0.00 0.00 0.00 0.00 0.00 0.00 0.00 0.00 0.00 0.00 0.00 0.00 0.00 0.00 0.00 0.00 0.00 0.00 0.00 0.00 0.00 0.00 0.00 0.00 0.00 0.00 0.00 0.00 0.00 0.00 0.00
0.22 0.25 0.34 0.44 0.97 0.66 0.61 0.30 0.11 0.01 0.00 0.00 0.00 0.00 0.01 0.02 0.01 0.00 0.00 0.00 0.00 0.00 0.00 0.01 0.00 0.00 0.00 0.00 0.00 0.00 0.00 0.00 0.00 0.01 0.00 0.00 0.00 0.00 0.00 0.00 0.00 0.00 0.00 0.00 0.00
0.63 0.47 0.41 0.71 0.92 0.81 0.45 0.24 0.16 0.07 0.01 0.00 0.00 0.00 0.03 0.01 0.00 0.00 0.00 0.00 0.00 0.00 0.01 0.02 0.00 0.00 0.00 0.00 0.00 0.00 0.00 0.00 0.00 0.01 0.03 0.00 0.02 0.00 0.00 0.00 0.00 0.00 0.00 0.00 0.00
0.68 0.71 0.65 0.72 0.75 0.66 0.40 0.32 0.32 0.11 0.00 0.00 0.00 0.03 0.05 0.02 0.01 0.00 0.01 0.03 0.03 0.05 0.05 0.01 0.00 0.00 0.00 0.00 0.00 0.00 0.02 0.03 0.04 0.08 0.10 0.00 0.01 0.00 0.00 0.00 0.00 0.00 0.00 0.00 0.00
0.48 0.96 1.01 0.56 0.56 0.57 0.86 0.67 0.39 0.05 0.00 0.01 0.01 0.02 0.01 0.01 0.02 0.01 0.02 0.04 0.05 0.08 0.11 0.10 0.04 0.00 0.00 0.00 0.00 0.02 0.11 0.17 0.17 0.19 0.05 0.00 0.00 0.00 0.00 0.00 0.00 0.00 0.00 0.00 0.00
0.54 0.90 1.14 0.76 0.54 0.69 1.08 0.59 0.13 0.00 0.00 0.00 0.00 0.01 0.01 0.00 0.01 0.01 0.03 0.03 0.02 0.09 0.15 0.06 0.03 0.02 0.01 0.00 0.00 0.01 0.03 0.12 0.06 0.01 0.00 0.00 0.00 0.00 0.00 0.00 0.00 0.00 0.00 0.00 0.00
0.50 1.08 1.07 1.01 0.79 1.03 0.82 0.36 0.03 0.00 0.00 0.00 0.00 0.01 0.01 0.00 0.00 0.01 0.01 0.00 0.00 0.01 0.04 0.03 0.01 0.00 0.00 0.00 0.04 0.14 0.16 0.06 0.11 0.09 0.17 0.01 0.00 0.00 0.00 0.00 0.00 0.00 0.00 0.00 0.00
0.46 1.24 0.86 0.77 1.08 0.97 0.53 0.18 0.00 0.00 0.00 0.00 0.00 0.00 0.00 0.00 0.00 0.00 0.00 0.00 0.00 0.00 0.00 0.00 0.01 0.00 0.00 0.00 0.00 0.04 0.05 0.16 0.42 0.20 0.10 0.00 0.00 0.00 0.00 0.00 0.00 0.00 0.00 0.00 0.00
0.68 1.11 0.78 0.83 1.21 0.95 0.53 0.11 0.00 0.00 0.00 0.00 0.00 0.00 0.00 0.00 0.00 0.00 0.00 0.00 0.00 0.00 0.00 0.00 0.01 0.00 0.00 0.01 0.00 0.01 0.06 0.10 0.13 0.10 0.03 0.01 0.00 0.00 0.00 0.00 0.00 0.00 0.00 0.00 0.00
0.57 0.73 1.01 1.17 1.38 0.82 0.23 0.01 0.00 0.00 0.00 0.00 0.00 0.00 0.00 0.00 0.00 0.00 0.00 0.00 0.00 0.00 0.00 0.00 0.06 0.03 0.00 0.00 0.01 0.02 0.00 0.04 0.26 0.07 0.09 0.09 0.04 0.00 0.00 0.01 0.00 0.01 0.01 0.01 0.01
0.47 0.66 1.22 0.64 0.59 0.39 0.08 0.01 0.00 0.00 0.00 0.00 0.00 0.00 0.00 0.00 0.00 0.00 0.00 0.00 0.00 0.00 0.00 0.04 0.19 0.14 0.08 0.11 0.13 0.28 0.08 0.11 0.26 0.39 0.33 0.13 0.04 0.00 0.00 0.00 0.01 0.01 0.01 0.01 0.01
0.63 0.91 2.03 1.09 0.33 0.03 0.01 0.01 0.01 0.00 0.00 0.01 0.02 0.02 0.04 0.01 0.00 0.00 0.00 0.00 0.00 0.00 0.01 0.12 0.20 0.17 0.22 0.34 0.61 0.48 0.15 0.21 0.40 0.41 0.07 0.04 0.02 0.01 0.01 0.01 0.01 0.02 0.03 0.02 0.01
0.46 0.39 0.57 0.56 0.31 0.01 0.00 0.00 0.00 0.01 0.01 0.03 0.04 0.02 0.06 0.02 0.00 0.00 0.00 0.00 0.00 0.00 0.05 0.24 0.27 0.30 0.30 0.26 0.62 0.53 0.20 0.17 0.33 0.10 0.07 0.02 0.03 0.03 0.03 0.01 0.01 0.06 0.05 0.01 0.00
0.39 0.44 0.07 0.01 0.02 0.01 0.00 0.00 0.00 0.00 0.02 0.04 0.03 0.02 0.03 0.04 0.00 0.00 0.00 0.00 0.00 0.01 0.11 0.28 0.32 0.38 0.25 0.18 0.36 0.42 0.13 0.12 0.13 0.04 0.02 0.01 0.05 0.05 0.03 0.00 0.01 0.15 0.07 0.03 0.01
0.47 0.44 0.10 0.04 0.01 0.01 0.01 0.00 0.00 0.01 0.00 0.01 0.01 0.05 0.04 0.02 0.01 0.00 0.00 0.00 0.00 0.01 0.05 0.21 0.36 0.65 0.48 0.35 0.38 0.38 0.13 0.05 0.07 0.10 0.05 0.04 0.07 0.02 0.02 0.07 0.23 0.43 0.09 0.03 0.01

GFSSW_prec_precacc12_027.txt.gz
Total_Precipitation_Accumulation
0.05 0.05 0.07 0.07 0.06 0.03 0.00 0.00 0.00 0.00 0.00 0.00 0.01 0.01 0.04 0.08 0.16 0.06 0.01 0.00 0.00 0.00 0.00 0.00 0.00 0.00 0.00 0.00 0.00 0.00 0.00 0.00 0.00 0.00 0.00 0.00 0.00 0.00 0.00 0.00 0.00 0.00 0.00 0.00 0.00
0.04 0.04 0.06 0.08 0.08 0.05 0.01 0.00 0.00 0.00 0.00 0.00 0.00 0.00 0.01 0.05 0.11 0.08 0.00 0.00 0.01 0.00 0.00 0.00 0.00 0.00 0.00 0.00 0.00 0.00 0.00 0.00 0.00 0.00 0.00 0.00 0.00 0.00 0.00 0.00 0.00 0.00 0.00 0.00 0.00
0.05 0.05 0.05 0.07 0.09 0.09 0.06 0.01 0.00 0.00 0.00 0.00 0.00 0.00 0.01 0.04 0.05 0.01 0.00 0.01 0.11 0.13 0.00 0.00 0.00 0.00 0.00 0.00 0.00 0.00 0.00 0.00 0.00 0.00 0.00 0.00 0.00 0.00 0.00 0.00 0.00 0.00 0.00 0.00 0.00
0.07 0.07 0.07 0.07 0.08 0.10 0.09 0.05 0.00 0.00 0.00 0.00 0.00 0.00 0.01 0.04 0.01 0.00 0.00 0.00 0.11 0.26 0.01 0.00 0.00 0.00 0.00 0.00 0.00 0.00 0.00 0.00 0.00 0.00 0.00 0.00 0.00 0.00 0.00 0.00 0.00 0.00 0.00 0.00 0.00
0.10 0.10 0.10 0.10 0.08 0.09 0.10 0.08 0.02 0.00 0.00 0.00 0.00 0.00 0.00 0.02 0.01 0.00 0.00 0.00 0.01 0.17 0.04 0.00 0.00 0.00 0.00 0.00 0.00 0.00 0.00 0.00 0.00 0.00 0.00 0.00 0.00 0.00 0.00 0.00 0.00 0.00 0.00 0.00 0.00
0.08 0.09 0.09 0.08 0.09 0.09 0.10 0.08 0.02 0.00 0.00 0.00 0.00 0.00 0.00 0.00 0.00 0.00 0.00 0.00 0.00 0.05 0.08 0.02 0.00 0.00 0.00 0.00 0.00 0.00 0.00 0.00 0.00 0.00 0.00 0.00 0.00 0.00 0.00 0.00 0.00 0.00 0.00 0.00 0.00
0.10 0.10 0.10 0.11 0.12 0.10 0.10 0.10 0.08 0.02 0.00 0.00 0.00 0.00 0.00 0.00 0.00 0.00 0.00 0.00 0.00 0.04 0.07 0.05 0.01 0.00 0.00 0.00 0.00 0.00 0.00 0.00 0.00 0.00 0.00 0.00 0.00 0.00 0.00 0.00 0.00 0.00 0.00 0.00 0.00
0.11 0.11 0.12 0.13 0.15 0.16 0.15 0.12 0.15 0.11 0.03 0.00 0.00 0.00 0.00 0.00 0.00 0.00 0.00 0.00 0.00 0.01 0.07 0.05 0.01 0.01 0.00 0.00 0.00 0.00 0.00 0.00 0.00 0.00 0.00 0.00 0.00 0.00 0.00 0.00 0.00 0.00 0.00 0.00 0.00
0.11 0.10 0.14 0.19 0.20 0.19 0.21 0.22 0.27 0.15 0.13 0.08 0.00 0.00 0.00 0.00 0.00 0.00 0.00 0.00 0.00 0.00 0.02 0.03 0.01 0.00 0.00 0.00 0.00 0.00 0.00 0.00 0.00 0.00 0.00 0.00 0.00 0.00 0.00 0.00 0.00 0.00 0.00 0.00 0.00
0.09 0.11 0.16 0.19 0.24 0.27 0.28 0.49 0.43 0.26 0.17 0.14 0.00 0.00 0.00 0.00 0.00 0.00 0.00 0.00 0.00 0.00 0.00 0.00 0.00 0.00 0.00 0.00 0.00 0.00 0.00 0.00 0.00 0.00 0.00 0.00 0.00 0.00 0.00 0.00 0.00 0.00 0.00 0.00 0.00
0.15 0.15 0.13 0.21 0.28 0.32 0.57 1.06 0.76 0.39 0.16 0.04 0.00 0.00 0.00 0.00 0.00 0.00 0.00 0.00 0.00 0.00 0.00 0.00 0.00 0.00 0.00 0.00 0.00 0.00 0.00 0.00 0.00 0.00 0.00 0.00 0.00 0.00 0.00 0.00 0.00 0.00 0.00 0.00 0.00
0.16 0.14 0.14 0.16 0.27 0.58 0.87 1.02 0.50 0.10 0.05 0.00 0.00 0.00 0.00 0.00 0.00 0.00 0.00 0.00 0.00 0.00 0.00 0.00 0.00 0.00 0.00 0.00 0.00 0.00 0.00 0.00 0.00 0.00 0.00 0.00 0.00 0.00 0.00 0.00 0.00 0.00 0.00 0.00 0.00
0.04 0.11 0.17 0.26 0.46 0.76 0.82 0.53 0.18 0.17 0.05 0.00 0.00 0.00 0.00 0.00 0.00 0.00 0.00 0.00 0.00 0.00 0.00 0.00 0.00 0.00 0.00 0.00 0.00 0.00 0.00 0.00 0.00 0.00 0.00 0.00 0.00 0.00 0.00 0.00 0.00 0.00 0.00 0.00 0.00
0.06 0.13 0.34 0.55 1.00 0.66 0.62 0.35 0.36 0.32 0.05 0.00 0.00 0.00 0.00 0.01 0.00 0.00 0.00 0.00 0.00 0.00 0.00 0.00 0.00 0.00 0.00 0.00 0.00 0.00 0.00 0.00 0.00 0.00 0.00 0.00 0.00 0.00 0.00 0.00 0.00 0.00 0.00 0.00 0.00
0.34 0.34 0.33 0.73 0.96 0.84 0.48 0.31 0.53 0.41 0.15 0.01 0.00 0.00 0.03 0.01 0.00 0.00 0.00 0.00 0.00 0.00 0.00 0.00 0.00 0.00 0.00 0.00 0.00 0.00 0.00 0.00 0.00 0.01 0.02 0.00 0.02 0.00 0.00 0.00 0.00 0.00 0.00 0.00 0.00
0.35 0.36 0.40 0.71 0.80 0.69 0.52 0.45 0.85 0.55 0.11 0.01 0.01 0.04 0.06 0.02 0.01 0.01 0.01 0.03 0.01 0.02 0.01 0.00 0.00 0.00 0.00 0.00 0.00 0.00 0.01 0.01 0.03 0.06 0.09 0.00 0.00 0.00 0.00 0.00 0.00 0.00 0.00 0.00 0.00
0.19 0.40 0.62 0.57 0.59 0.59 1.06 0.90 0.87 0.31 0.02 0.01 0.01 0.04 0.02 0.01 0.02 0.01 0.03 0.04 0.03 0.03 0.03 0.02 0.00 0.00 0.00 0.00 0.00 0.02 0.10 0.13 0.14 0.17 0.05 0.00 0.00 0.00 0.00 0.00 0.00 0.00 0.00 0.00 0.00
0.23 0.28 0.65 0.75 0.57 0.74 1.45 0.82 0.36 0.06 0.00 0.00 0.01 0.02 0.02 0.00 0.01 0.01 0.02 0.03 0.02 0.03 0.04 0.02 0.00 0.00 0.00 0.00 0.00 0.01 0.03 0.09 0.03 0.00 0.00 0.00 0.00 0.00 0.00 0.00 0.00 0.00 0.00 0.00 0.00
0.19 0.24 0.57 1.01 0.84 1.07 1.02 0.61 0.13 0.00 0.00 0.00 0.01 0.02 0.02 0.01 0.00 0.01 0.01 0.01 0.01 0.01 0.03 0.02 0.00 0.00 0.00 0.00 0.01 0.08 0.09 0.04 0.10 0.07 0.13 0.01 0.00 0.00 0.00 0.00 0.00 0.00 0.00 0.00 0.00
0.19 0.27 0.36 0.78 1.10 1.02 0.66 0.34 0.01 0.00 0.00 0.00 0.00 0.00 0.00 0.00 0.00 0.00 0.00 0.00 0.00 0.00 0.00 0.00 0.00 0.00 0.00 0.00 0.00 0.04 0.03 0.13 0.33 0.16 0.08 0.00 0.00 0.00 0.00 0.00 0.00 0.00 0.00 0.00 0.00
0.50 0.38 0.31 0.78 1.21 1.04 0.62 0.20 0.00 0.00 0.00 0.00 0.00 0.00 0.00 0.00 0.00 0.00 0.00 0.00 0.00 0.00 0.00 0.00 0.01 0.00 0.00 0.00 0.00 0.01 0.04 0.08 0.13 0.12 0.03 0.01 0.00 0.00 0.00 0.00 0.00 0.00 0.00 0.00 0.00
0.36 0.37 0.58 0.99 1.20 0.83 0.28 0.04 0.00 0.00 0.00 0.00 0.00 0.00 0.00 0.00 0.00 0.00 0.00 0.00 0.00 0.00 0.00 0.00 0.04 0.02 0.00 0.00 0.00 0.01 0.00 0.04 0.28 0.09 0.15 0.13 0.05 0.00 0.00 0.01 0.00 0.00 0.00 0.00 0.00
0.24 0.33 0.87 0.61 0.49 0.40 0.11 0.03 0.00 0.00 0.00 0.00 0.00 0.00 0.00 0.00 0.00 0.00 0.00 0.00 0.00 0.00 0.00 0.00 0.05 0.06 0.04 0.05 0.08 0.18 0.07 0.12 0.30 0.48 0.40 0.16 0.06 0.00 0.00 0.00 0.01 0.01 0.00 0.00 0.01
0.29 0.45 1.35 0.80 0.24 0.03 0.02 0.03 0.01 0.00 0.00 0.00 0.00 0.01 0.03 0.01 0.00 0.00 0.00 0.00 0.00 0.00 0.00 0.00 0.04 0.06 0.12 0.14 0.37 0.47 0.14 0.22 0.55 0.57 0.10 0.05 0.01 0.00 0.01 0.01 0.01 0.02 0.03 0.02 0.01
0.18 0.19 0.37 0.39 0.18 0.01 0.01 0.02 0.02 0.00 0.00 0.00 0.01 0.01 0.04 0.02 0.00 0.00 0.00 0.00 0.00 0.00 0.00 0.05 0.09 0.10 0.13 0.16 0.39 0.39 0.19 0.17 0.40 0.18 0.14 0.04 0.00 0.01 0.01 0.01 0.01 0.06 0.05 0.01 0.00
0.21 0.34 0.06 0.02 0.01 0.00 0.00 0.00 0.00 0.00 0.00 0.00 0.00 0.01 0.02 0.04 0.00 0.00 0.00 0.00 0.00 0.00 0.02 0.07 0.11 0.12 0.09 0.15 0.33 0.37 0.13 0.15 0.12 0.04 0.03 0.01 0.01 0.04 0.02 0.00 0.01 0.15 0.07 0.03 0.02
0.36 0.37 0.10 0.04 0.01 0.01 0.00 0.00 0.00 0.00 0.00 0.00 0.00 0.04 0.03 0.02 0.01 0.00 0.00 0.00 0.00 0.00 0.02 0.10 0.15 0.29 0.21 0.25 0.27 0.31 0.18 0.10 0.04 0.01 0.00 0.01 0.02 0.01 0.02 0.08 0.24 0.44 0.09 0.03 0.02

GFSSW_prec_precacc12_030.txt.gz
Total_Precipitation_Accumulation
0.05 0.05 0.07 0.07 0.07 0.07 0.06 0.02 0.00 0.00 0.00 0.00 0.00 0.01 0.01 0.05 0.13 0.05 0.01 0.00 0.00 0.00 0.00 0.00 0.00 0.00 0.00 0.00 0.00 0.00 0.00 0.00 0.00 0.00 0.00 0.00 0.00 0.00 0.00 0.00 0.00 0.00 0.00 0.00 0.00
0.03 0.04 0.06 0.08 0.08 0.06 0.06 0.05 0.01 0.00 0.00 0.00 0.00 0.00 0.01 0.04 0.10 0.06 0.00 0.00 0.01 0.00 0.00 0.00 0.00 0.00 0.00 0.00 0.00 0.00 0.00 0.00 0.00 0.00 0.00 0.00 0.00 0.00 0.00 0.00 0.00 0.00 0.00 0.00 0.00
0.02 0.05 0.05 0.07 0.09 0.09 0.07 0.06 0.04 0.00 0.00 0.00 0.00 0.00 0.01 0.03 0.05 0.01 0.00 0.01 0.10 0.12 0.00 0.00 0.00 0.00 0.00 0.00 0.00 0.00 0.00 0.00 0.00 0.00 0.00 0.00 0.00 0.00 0.00 0.00 0.00 0.00 0.00 0.00 0.00
0.05 0.06 0.07 0.07 0.08 0.10 0.09 0.09 0.08 0.04 0.00 0.00 0.00 0.00 0.01 0.04 0.02 0.01 0.00 0.02 0.15 0.25 0.01 0.00 0.00 0.00 0.00 0.00 0.00 0.00 0.00 0.00 0.00 0.00 0.00 0.00 0.00 0.00 0.00 0.00 0.00 0.00 0.00 0.00 0.00
0.07 0.06 0.08 0.09 0.09 0.09 0.10 0.09 0.09 0.08 0.02 0.00 0.00 0.00 0.00 0.02 0.01 0.00 0.00 0.00 0.03 0.22 0.05 0.00 0.00 0.00 0.00 0.00 0.00 0.00 0.00 0.00 0.00 0.00 0.00 0.00 0.00 0.00 0.00 0.00 0.00 0.00 0.00 0.00 0.00
0.05 0.06 0.05 0.08 0.09 0.09 0.11 0.09 0.08 0.09 0.04 0.00 0.00 0.00 0.00 0.00 0.00 0.00 0.00 0.00 0.00 0.08 0.10 0.01 0.00 0.00 0.00 0.00 0.00 0.00 0.00 0.00 0.00 0.00 0.00 0.00 0.00 0.00 0.00 0.00 0.00 0.00 0.00 0.00 0.00
0.05 0.06 0.05 0.08 0.13 0.11 0.10 0.12 0.13 0.10 0.12 0.00 0.00 0.00 0.00 0.00 0.00 0.00 0.00 0.00 0.00 0.05 0.12 0.06 0.01 0.00 0.00 0.00 0.00 0.00 0.00 0.00 0.00 0.00 0.00 0.00 0.00 0.00 0.00 0.00 0.00 0.00 0.00 0.00 0.00
0.04 0.07 0.06 0.08 0.14 0.18 0.16 0.12 0.17 0.21 0.26 0.05 0.00 0.00 0.00 0.00 0.00 0.00 0.00 0.00 0.00 0.02 0.14 0.11 0.01 0.01 0.00 0.00 0.00 0.00 0.00 0.00 0.00 0.00 0.00 0.00 0.00 0.00 0.00 0.00 0.00 0.00 0.00 0.00 0.00
0.03 0.04 0.08 0.14 0.18 0.21 0.21 0.22 0.26 0.25 0.32 0.20 0.02 0.00 0.00 0.00 0.00 0.00 0.00 0.00 0.00 0.07 0.12 0.07 0.01 0.00 0.00 0.00 0.00 0.00 0.00 0.00 0.00 0.00 0.00 0.00 0.00 0.00 0.00 0.00 0.00 0.00 0.00 0.00 0.00
0.06 0.07 0.16 0.15 0.21 0.29 0.29 0.45 0.41 0.44 0.47 0.31 0.03 0.00 0.00 0.00 0.00 0.00 0.00 0.00 0.00 0.02 0.06 0.04 0.01 0.00 0.00 0.00 0.00 0.00 0.00 0.00 0.00 0.00 0.00 0.00 0.00 0.00 0.00 0.00 0.00 0.00 0.00 0.00 0.00
0.13 0.10 0.08 0.15 0.23 0.31 0.57 1.05 0.84 0.73 0.63 0.23 0.02 0.00 0.00 0.00 0.00 0.00 0.00 0.00 0.00 0.01 0.01 0.01 0.01 0.01 0.00 0.00 0.00 0.00 0.00 0.00 0.00 0.00 0.00 0.00 0.00 0.00 0.00 0.00 0.00 0.00 0.00 0.00 0.00
0.15 0.06 0.07 0.10 0.18 0.56 0.88 1.04 0.68 0.49 0.42 0.12 0.00 0.00 0.00 0.00 0.00 0.00 0.00 0.00 0.00 0.01 0.00 0.00 0.00 0.00 0.00 0.00 0.00 0.00 0.00 0.00 0.00 0.00 0.00 0.00 0.00 0.00 0.00 0.00 0.00 0.00 0.00 0.00 0.00
0.05 0.06 0.07 0.13 0.35 0.70 0.82 0.53 0.32 0.62 0.43 0.17 0.01 0.00 0.00 0.00 0.00 0.00 0.00 0.00 0.00 0.00 0.00 0.00 0.00 0.00 0.00 0.00 0.00 0.00 0.00 0.00 0.00 0.00 0.00 0.00 0.00 0.00 0.00 0.00 0.00 0.00 0.00 0.00 0.00
0.05 0.11 0.21 0.34 0.57 0.67 0.61 0.36 0.53 0.78 0.35 0.18 0.02 0.00 0.00 0.00 0.00 0.00 0.00 0.00 0.00 0.00 0.00 0.00 0.00 0.00 0.00 0.00 0.00 0.00 0.00 0.00 0.00 0.00 0.00 0.00 0.00 0.00 0.00 0.00 0.00 0.00 0.00 0.00 0.00
0.31 0.28 0.17 0.28 0.52 0.77 0.55 0.34 0.68 0.87 0.40 0.11 0.01 0.00 0.02 0.00 0.00 0.00 0.00 0.00 0.00 0.00 0.00 0.00 0.00 0.00 0.00 0.00 0.00 0.00 0.00 0.00 0.00 0.00 0.01 0.00 0.01 0.00 0.00 0.00 0.00 0.00 0.00 0.00 0.00
0.31 0.13 0.14 0.14 0.40 0.69 0.64 0.49 1.08 0.90 0.37 0.11 0.03 0.04 0.05 0.02 0.01 0.01 0.01 0.02 0.00 0.01 0.00 0.00 0.00 0.00 0.00 0.00 0.00 0.00 0.00 0.00 0.01 0.04 0.07 0.00 0.00 0.00 0.00 0.00 0.00 0.00 0.00 0.00 0.00
0.17 0.18 0.18 0.12 0.29 0.62 1.14 0.94 1.13 0.52 0.12 0.03 0.02 0.04 0.02 0.01 0.02 0.01 0.03 0.03 0.01 0.01 0.01 0.01 0.00 0.00 0.00 0.00 0.00 0.02 0.07 0.06 0.07 0.11 0.03 0.00 0.00 0.00 0.00 0.00 0.00 0.00 0.00 0.00 0.00
0.18 0.15 0.23 0.17 0.43 0.77 1.57 0.89 0.49 0.15 0.04 0.00 0.01 0.03 0.02 0.01 0.02 0.02 0.02 0.03 0.01 0.01 0.01 0.00 0.00 0.00 0.00 0.00 0.00 0.01 0.02 0.04 0.01 0.00 0.00 0.00 0.00 0.00 0.00 0.00 0.00 0.00 0.00 0.00 0.00
0.16 0.17 0.35 0.30 0.54 1.03 1.14 0.67 0.29 0.03 0.00 0.00 0.03 0.03 0.04 0.01 0.01 0.01 0.02 0.01 0.00 0.01 0.00 0.00 0.00 0.00 0.00 0.00 0.00 0.02 0.04 0.01 0.06 0.03 0.06 0.00 0.00 0.00 0.00 0.00 0.00 0.00 0.00 0.00 0.00
0.17 0.28 0.24 0.31 0.67 0.98 0.75 0.48 0.11 0.00 0.00 0.00 0.01 0.01 0.01 0.01 0.01 0.01 0.00 0.00 0.00 0.00 0.00 0.00 0.00 0.00 0.00 0.00 0.00 0.01 0.01 0.05 0.15 0.08 0.04 0.00 0.00 0.00 0.00 0.00 0.00 0.00 0.00 0.00 0.00
0.45 0.35 0.20 0.33 0.85 0.95 0.80 0.46 0.03 0.00 0.00 0.00 0.00 0.00 0.00 0.00 0.00 0.00 0.00 0.00 0.00 0.00 0.00 0.00 0.01 0.00 0.00 0.00 0.00 0.01 0.03 0.06 0.10 0.07 0.03 0.00 0.00 0.00 0.00 0.00 0.00 0.00 0.00 0.00 0.00
0.33 0.42 0.25 0.43 0.80 0.75 0.37 0.15 0.02 0.00 0.00 0.00 0.00 0.00 0.00 0.00 0.00 0.00 0.00 0.00 0.00 0.00 0.00 0.00 0.02 0.01 0.00 0.00 0.00 0.00 0.00 0.04 0.27 0.09 0.15 0.14 0.06 0.00 0.00 0.01 0.00 0.00 0.00 0.00 0.00
0.21 0.40 0.50 0.28 0.31 0.34 0.22 0.06 0.01 0.00 0.00 0.00 0.00 0.00 0.00 0.00 0.00 0.00 0.00 0.00 0.00 0.00 0.00 0.00 0.02 0.01 0.01 0.01 0.03 0.06 0.02 0.09 0.30 0.52 0.43 0.17 0.06 0.00 0.00 0.00 0.00 0.00 0.00 0.00 0.00
0.23 0.30 0.75 0.31 0.12 0.05 0.08 0.06 0.02 0.00 0.00 0.00 0.00 0.00 0.00 0.00 0.00 0.00 0.00 0.00 0.00 0.00 0.00 0.00 0.00 0.01 0.03 0.04 0.21 0.32 0.07 0.15 0.55 0.66 0.12 0.06 0.01 0.00 0.00 0.00 0.00 0.01 0.01 0.00 0.00
0.15 0.11 0.22 0.17 0.07 0.02 0.02 0.03 0.03 0.00 0.00 0.00 0.00 0.00 0.00 0.01 0.00 0.00 0.00 0.00 0.00 0.00 0.00 0.01 0.02 0.01 0.01 0.03 0.18 0.26 0.14 0.15 0.43 0.22 0.24 0.08 0.00 0.00 0.00 0.01 0.01 0.02 0.04 0.01 0.00
0.12 0.24 0.06 0.01 0.00 0.00 0.00 0.03 0.01 0.00 0.00 0.00 0.00 0.00 0.00 0.01 0.00 0.00 0.00 0.00 0.00 0.00 0.00 0.01 0.03 0.03 0.02 0.04 0.19 0.28 0.10 0.15 0.12 0.06 0.07 0.02 0.01 0.00 0.00 0.02 0.01 0.10 0.08 0.03 0.01
0.08 0.17 0.09 0.02 0.01 0.01 0.01 0.00 0.00 0.00 0.00 0.00 0.00 0.00 0.01 0.00 0.01 0.00 0.00 0.00 0.00 0.00 0.00 0.02 0.04 0.11 0.05 0.04 0.18 0.23 0.17 0.11 0.05 0.03 0.02 0.01 0.02 0.00 0.02 0.09 0.25 0.43 0.09 0.03 0.02

GFSSW_prec_precacc12_033.txt.gz
Total_Precipitation_Accumulation
0.02 0.03 0.07 0.07 0.07 0.07 0.06 0.05 0.04 0.02 0.00 0.00 0.00 0.00 0.00 0.02 0.08 0.04 0.02 0.00 0.00 0.00 0.00 0.00 0.00 0.00 0.00 0.00 0.00 0.00 0.00 0.00 0.00 0.00 0.00 0.00 0.00 0.00 0.00 0.00 0.00 0.00 0.00 0.00 0.00
0.00 0.01 0.04 0.08 0.08 0.06 0.06 0.05 0.04 0.04 0.01 0.00 0.00 0.00 0.00 0.02 0.07 0.05 0.00 0.00 0.01 0.00 0.00 0.00 0.00 0.00 0.00 0.00 0.00 0.00 0.00 0.00 0.00 0.00 0.00 0.00 0.00 0.00 0.00 0.00 0.00 0.00 0.00 0.00 0.00
0.00 0.02 0.02 0.06 0.09 0.09 0.08 0.06 0.05 0.04 0.03 0.00 0.00 0.00 0.00 0.02 0.05 0.01 0.00 0.01 0.07 0.06 0.00 0.00 0.00 0.00 0.00 0.00 0.00 0.00 0.00 0.00 0.00 0.00 0.00 0.00 0.00 0.00 0.00 0.00 0.00 0.00 0.00 0.00 0.00
0.02 0.02 0.03 0.04 0.08 0.10 0.10 0.09 0.09 0.07 0.06 0.03 0.00 0.00 0.00 0.04 0.02 0.01 0.00 0.03 0.16 0.20 0.01 0.00 0.00 0.00 0.00 0.00 0.00 0.00 0.00 0.00 0.00 0.00 0.00 0.00 0.00 0.00 0.00 0.00 0.00 0.00 0.00 0.00 0.00
0.03 0.03 0.04 0.04 0.06 0.09 0.11 0.10 0.09 0.11 0.10 0.05 0.00 0.00 0.00 0.02 0.01 0.00 0.00 0.02 0.10 0.24 0.05 0.00 0.00 0.00 0.00 0.00 0.00 0.00 0.00 0.00 0.00 0.00 0.00 0.00 0.00 0.00 0.00 0.00 0.00 0.00 0.00 0.00 0.00
0.01 0.02 0.02 0.03 0.04 0.08 0.11 0.09 0.08 0.12 0.12 0.09 0.02 0.00 0.00 0.00 0.00 0.00 0.00 0.00 0.01 0.13 0.11 0.02 0.00 0.00 0.00 0.00 0.00 0.00 0.00 0.00 0.00 0.00 0.00 0.00 0.00 0.00 0.00 0.00 0.00 0.00 0.00 0.00 0.00
0.02 0.01 0.02 0.05 0.07 0.08 0.11 0.13 0.14 0.12 0.19 0.24 0.07 0.00 0.00 0.00 0.00 0.00 0.00 0.00 0.00 0.06 0.15 0.07 0.01 0.00 0.00 0.00 0.00 0.00 0.00 0.00 0.00 0.00 0.00 0.00 0.00 0.00 0.00 0.00 0.00 0.00 0.00 0.00 0.00
0.04 0.03 0.01 0.04 0.09 0.14 0.19 0.15 0.17 0.22 0.31 0.30 0.12 0.00 0.00 0.00 0.00 0.00 0.00 0.00 0.00 0.02 0.16 0.20 0.02 0.01 0.00 0.00 0.00 0.00 0.00 0.00 0.00 0.00 0.00 0.00 0.00 0.00 0.00 0.00 0.00 0.00 0.00 0.00 0.00
0.08 0.05 0.05 0.10 0.18 0.21 0.23 0.22 0.26 0.26 0.33 0.59 0.23 0.02 0.00 0.00 0.00 0.00 0.00 0.00 0.00 0.09 0.19 0.17 0.07 0.01 0.00 0.00 0.00 0.00 0.00 0.00 0.00 0.00 0.00 0.00 0.00 0.00 0.00 0.00 0.00 0.00 0.00 0.00 0.00
0.09 0.09 0.12 0.12 0.15 0.26 0.27 0.42 0.39 0.44 0.53 0.81 0.24 0.02 0.00 0.00 0.00 0.00 0.00 0.00 0.00 0.09 0.11 0.10 0.07 0.06 0.02 0.00 0.00 0.00 0.00 0.00 0.00 0.00 0.00 0.00 0.00 0.00 0.00 0.00 0.00 0.00 0.00 0.00 0.00
0.14 0.10 0.07 0.08 0.11 0.22 0.51 1.03 0.84 0.76 0.88 0.66 0.14 0.01 0.00 0.00 0.00 0.00 0.00 0.00 0.01 0.04 0.05 0.05 0.04 0.03 0.01 0.00 0.00 0.00 0.00 0.00 0.00 0.00 0.00 0.00 0.00 0.00 0.00 0.00 0.00 0.00 0.00 0.00 0.00
0.15 0.06 0.06 0.09 0.10 0.31 0.83 1.06 0.68 0.57 0.69 0.36 0.02 0.00 0.00 0.00 0.00 0.00 0.00 0.00 0.01 0.01 0.01 0.03 0.04 0.01 0.00 0.00 0.00 0.00 0.00 0.00 0.00 0.00 0.00 0.00 0.00 0.00 0.00 0.00 0.00 0.00 0.00 0.00 0.00
0.05 0.05 0.07 0.11 0.16 0.31 0.70 0.53 0.33 0.65 0.66 0.44 0.09 0.01 0.00 0.00 0.00 0.00 0.00 0.00 0.00 0.00 0.00 0.00 0.00 0.00 0.00 0.00 0.00 0.00 0.00 0.00 0.00 0.00 0.00 0.00 0.00 0.00 0.00 0.00 0.00 0.00 0.00 0.00 0.00
0.05 0.11 0.22 0.31 0.22 0.22 0.36 0.34 0.54 0.85 0.47 0.39 0.17 0.03 0.00 0.00 0.00 0.00 0.00 0.00 0.00 0.00 0.00 0.00 0.00 0.00 0.00 0.00 0.00 0.00 0.00 0.00 0.00 0.00 0.00 0.00 0.00 0.00 0.00 0.00 0.00 0.00 0.00 0.00 0.00
0.24 0.26 0.16 0.23 0.15 0.15 0.36 0.31 0.71 1.03 0.55 0.29 0.14 0.01 0.01 0.00 0.00 0.00 0.00 0.00 0.00 0.00 0.00 0.00 0.00 0.00 0.00 0.00 0.00 0.00 0.00 0.00 0.00 0.00 0.01 0.00 0.01 0.00 0.00 0.00 0.00 0.00 0.00 0.00 0.00
0.23 0.11 0.11 0.11 0.13 0.16 0.52 0.46 1.11 1.05 0.63 0.38 0.10 0.04 0.04 0.02 0.01 0.01 0.01 0.01 0.00 0.00 0.00 0.00 0.00 0.00 0.00 0.00 0.00 0.00 0.00 0.00 0.01 0.02 0.04 0.00 0.00 0.00 0.00 0.00 0.00 0.00 0.00 0.00 0.00
0.12 0.10 0.15 0.12 0.12 0.23 0.78 0.82 1.14 0.62 0.36 0.17 0.05 0.04 0.02 0.02 0.02 0.01 0.02 0.02 0.01 0.01 0.01 0.00 0.00 0.00 0.00 0.00 0.00 0.01 0.03 0.01 0.03 0.06 0.01 0.00 0.00 0.00 0.00 0.00 0.00 0.00 0.00 0.00 0.00
0.13 0.05 0.16 0.16 0.24 0.35 1.10 0.79 0.53 0.27 0.18 0.04 0.02 0.03 0.03 0.01 0.02 0.02 0.02 0.02 0.01 0.00 0.00 0.00 0.00 0.00 0.00 0.00 0.00 0.01 0.01 0.01 0.00 0.00 0.00 0.00 0.00 0.00 0.00 0.00 0.00 0.00 0.00 0.00 0.00
0.09 0.12 0.31 0.33 0.24 0.47 0.81 0.58 0.39 0.18 0.03 0.02 0.05 0.04 0.06 0.01 0.01 0.02 0.02 0.01 0.00 0.00 0.00 0.00 0.00 0.00 0.00 0.00 0.00 0.01 0.02 0.00 0.03 0.01 0.02 0.00 0.00 0.00 0.00 0.00 0.00 0.00 0.00 0.00 0.00
0.11 0.26 0.26 0.31 0.16 0.45 0.55 0.48 0.25 0.08 0.00 0.00 0.04 0.02 0.02 0.01 0.01 0.01 0.01 0.00 0.00 0.00 0.00 0.00 0.00 0.00 0.00 0.00 0.00 0.00 0.00 0.03 0.08 0.03 0.01 0.00 0.00 0.00 0.00 0.00 0.00 0.00 0.00 0.00 0.00
0.33 0.31 0.21 0.28 0.27 0.40 0.72 0.62 0.12 0.02 0.00 0.00 0.00 0.00 0.00 0.00 0.00 0.00 0.00 0.00 0.00 0.00 0.00 0.00 0.00 0.00 0.00 0.00 0.00 0.00 0.02 0.04 0.07 0.04 0.01 0.00 0.00 0.00 0.00 0.00 0.00 0.00 0.00 0.00 0.00
0.17 0.39 0.24 0.32 0.29 0.44 0.60 0.39 0.12 0.01 0.00 0.00 0.00 0.00 0.00 0.00 0.00 0.00 0.00 0.00 0.00 0.00 0.00 0.00 0.01 0.01 0.00 0.00 0.00 0.00 0.00 0.03 0.20 0.07 0.14 0.14 0.06 0.00 0.00 0.00 0.00 0.00 0.00 0.00 0.00
0.14 0.35 0.32 0.22 0.21 0.29 0.28 0.08 0.03 0.01 0.00 0.00 0.00 0.00 0.00 0.00 0.00 0.00 0.00 0.00 0.00 0.00 0.00 0.00 0.01 0.00 0.00 0.01 0.02 0.01 0.00 0.03 0.17 0.37 0.33 0.17 0.07 0.00 0.00 0.00 0.00 0.00 0.01 0.00 0.00
0.09 0.23 0.20 0.09 0.05 0.09 0.14 0.09 0.03 0.00 0.00 0.00 0.00 0.00 0.00 0.00 0.00 0.00 0.00 0.00 0.00 0.00 0.00 0.00 0.00 0.00 0.00 0.00 0.05 0.12 0.03 0.08 0.39 0.53 0.10 0.06 0.01 0.00 0.00 0.00 0.00 0.00 0.00 0.00 0.01
0.09 0.09 0.09 0.04 0.03 0.02 0.03 0.04 0.03 0.00 0.00 0.00 0.00 0.00 0.00 0.00 0.00 0.00 0.00 0.00 0.00 0.00 0.00 0.00 0.01 0.00 0.00 0.00 0.00 0.04 0.04 0.09 0.34 0.20 0.31 0.10 0.00 0.00 0.00 0.02 0.01 0.01 0.02 0.03 0.04
0.06 0.10 0.03 0.01 0.00 0.00 0.01 0.04 0.01 0.00 0.00 0.00 0.00 0.00 0.00 0.00 0.00 0.00 0.00 0.00 0.00 0.00 0.00 0.01 0.01 0.01 0.00 0.00 0.02 0.08 0.03 0.11 0.10 0.05 0.07 0.02 0.01 0.00 0.01 0.03 0.02 0.03 0.04 0.05 0.06
0.05 0.05 0.03 0.01 0.00 0.01 0.01 0.00 0.00 0.00 0.00 0.00 0.00 0.00 0.00 0.00 0.00 0.00 0.00 0.00 0.00 0.00 0.00 0.01 0.01 0.03 0.01 0.00 0.02 0.11 0.12 0.09 0.04 0.03 0.03 0.03 0.03 0.02 0.03 0.04 0.14 0.23 0.08 0.02 0.01

GFSSW_prec_precacc12_036.txt.gz
Total_Precipitation_Accumulation
0.00 0.00 0.01 0.05 0.07 0.07 0.06 0.05 0.04 0.05 0.09 0.05 0.00 0.00 0.00 0.01 0.04 0.03 0.02 0.00 0.00 0.00 0.00 0.00 0.00 0.00 0.00 0.00 0.00 0.00 0.00 0.00 0.00 0.00 0.00 0.00 0.00 0.00 0.00 0.00 0.00 0.00 0.00 0.00 0.00
0.00 0.00 0.01 0.03 0.06 0.07 0.06 0.05 0.04 0.04 0.06 0.11 0.02 0.00 0.00 0.01 0.03 0.03 0.00 0.00 0.00 0.00 0.00 0.00 0.00 0.00 0.00 0.00 0.00 0.00 0.00 0.00 0.00 0.00 0.00 0.00 0.00 0.00 0.00 0.00 0.00 0.00 0.00 0.00 0.00
0.01 0.01 0.00 0.01 0.03 0.07 0.08 0.06 0.05 0.04 0.05 0.09 0.07 0.00 0.00 0.01 0.04 0.00 0.00 0.00 0.03 0.02 0.00 0.00 0.00 0.00 0.00 0.00 0.00 0.00 0.00 0.00 0.00 0.00 0.00 0.00 0.00 0.00 0.00 0.00 0.00 0.00 0.00 0.00 0.00
0.02 0.02 0.02 0.01 0.01 0.05 0.09 0.10 0.09 0.07 0.06 0.09 0.12 0.01 0.00 0.03 0.02 0.01 0.00 0.03 0.12 0.11 0.00 0.00 0.00 0.00 0.00 0.00 0.00 0.00 0.00 0.00 0.00 0.00 0.00 0.00 0.00 0.00 0.00 0.00 0.00 0.00 0.00 0.00 0.00
0.04 0.05 0.03 0.02 0.02 0.02 0.07 0.10 0.10 0.11 0.11 0.09 0.13 0.06 0.01 0.02 0.01 0.00 0.00 0.02 0.11 0.22 0.04 0.00 0.00 0.00 0.00 0.00 0.00 0.00 0.00 0.00 0.00 0.00 0.00 0.00 0.00 0.00 0.00 0.00 0.00 0.00 0.00 0.00 0.00
0.05 0.05 0.04 0.04 0.04 0.02 0.05 0.09 0.09 0.13 0.13 0.11 0.17 0.12 0.01 0.00 0.00 0.00 0.01 0.01 0.03 0.14 0.10 0.02 0.00 0.00 0.00 0.00 0.00 0.00 0.00 0.00 0.00 0.00 0.00 0.00 0.00 0.00 0.00 0.00 0.00 0.00 0.00 0.00 0.00
0.05 0.05 0.01 0.03 0.05 0.03 0.04 0.12 0.15 0.13 0.20 0.25 0.23 0.23 0.00 0.00 0.00 0.00 0.01 0.02 0.03 0.07 0.13 0.06 0.02 0.00 0.00 0.00 0.00 0.00 0.00 0.00 0.00 0.00 0.00 0.00 0.00 0.00 0.00 0.00 0.00 0.00 0.00 0.00 0.00
0.08 0.06 0.02 0.04 0.05 0.09 0.15 0.14 0.17 0.23 0.31 0.30 0.36 0.23 0.02 0.00 0.00 0.00 0.00 0.00 0.00 0.03 0.16 0.23 0.04 0.00 0.00 0.00 0.00 0.00 0.00 0.00 0.00 0.00 0.00 0.00 0.00 0.00 0.00 0.00 0.00 0.00 0.00 0.00 0.00
0.09 0.07 0.08 0.11 0.12 0.15 0.17 0.12 0.22 0.26 0.31 0.56 0.61 0.22 0.01 0.00 0.00 0.00 0.00 0.00 0.00 0.10 0.28 0.22 0.11 0.02 0.00 0.00 0.00 0.00 0.00 0.00 0.00 0.00 0.00 0.00 0.00 0.00 0.00 0.00 0.00 0.00 0.00 0.00 0.00
0.09 0.09 0.15 0.13 0.11 0.15 0.14 0.20 0.32 0.42 0.49 0.88 0.71 0.25 0.01 0.00 0.00 0.00 0.00 0.00 0.02 0.11 0.16 0.16 0.16 0.10 0.03 0.01 0.00 0.00 0.00 0.00 0.00 0.00 0.00 0.00 0.00 0.00 0.00 0.00 0.00 0.00 0.00 0.00 0.00
0.13 0.09 0.08 0.09 0.09 0.11 0.18 0.58 0.78 0.76 0.87 0.85 0.34 0.08 0.00 0.00 0.00 0.00 0.00 0.00 0.05 0.12 0.07 0.06 0.08 0.13 0.05 0.01 0.00 0.00 0.00 0.00 0.00 0.00 0.00 0.00 0.00 0.00 0.00 0.00 0.00 0.00 0.00 0.00 0.00
0.11 0.05 0.07 0.11 0.13 0.18 0.35 0.73 0.65 0.57 0.72 0.52 0.11 0.03 0.00 0.00 0.00 0.00 0.00 0.00 0.02 0.05 0.05 0.04 0.06 0.03 0.04 0.02 0.00 0.00 0.00 0.00 0.00 0.00 0.00 0.00 0.00 0.00 0.00 0.00 0.00 0.00 0.00 0.00 0.00
0.04 0.05 0.08 0.13 0.16 0.18 0.19 0.25 0.31 0.66 0.81 0.64 0.26 0.10 0.00 0.00 0.00 0.00 0.00 0.00 0.00 0.01 0.02 0.02 0.00 0.00 0.01 0.00 0.00 0.00 0.00 0.00 0.00 0.00 0.00 0.00 0.00 0.00 0.00 0.00 0.00 0.00 0.00 0.00 0.00
0.02 0.06 0.17 0.29 0.19 0.16 0.08 0.12 0.43 0.85 0.65 0.73 0.37 0.10 0.00 0.00 0.00 0.00 0.00 0.00 0.00 0.00 0.01 0.01 0.00 0.00 0.00 0.00 0.00 0.00 0.00 0.00 0.00 0.00 0.00 0.00 0.00 0.00 0.00 0.00 0.00 0.00 0.00 0.00 0.00
0.02 0.10 0.08 0.22 0.14 0.09 0.17 0.13 0.54 0.99 0.69 0.59 0.30 0.04 0.00 0.00 0.00 0.03 0.01 0.00 0.00 0.00 0.00 0.00 0.00 0.00 0.00 0.00 0.00 0.00 0.00 0.00 0.00 0.00 0.00 0.00 0.00 0.00 0.00 0.00 0.00 0.00 0.00 0.00 0.00
0.03 0.08 0.10 0.08 0.10 0.15 0.35 0.17 0.79 0.97 0.86 0.75 0.22 0.03 0.04 0.02 0.00 0.01 0.01 0.00 0.00 0.00 0.00 0.00 0.00 0.00 0.00 0.00 0.00 0.00 0.00 0.00 0.00 0.01 0.01 0.00 0.00 0.00 0.00 0.00 0.00 0.00 0.00 0.00 0.00
0.04 0.07 0.07 0.11 0.14 0.15 0.33 0.28 0.77 0.61 0.50 0.43 0.13 0.03 0.02 0.02 0.02 0.02 0.02 0.01 0.00 0.02 0.03 0.00 0.00 0.00 0.00 0.00 0.00 0.01 0.01 0.00 0.01 0.03 0.00 0.00 0.00 0.00 0.00 0.00 0.00 0.00 0.00 0.00 0.00
0.04 0.04 0.09 0.14 0.21 0.13 0.51 0.31 0.42 0.32 0.34 0.20 0.02 0.03 0.03 0.01 0.02 0.02 0.01 0.01 0.00 0.00 0.00 0.00 0.00 0.00 0.00 0.00 0.00 0.00 0.01 0.00 0.00 0.00 0.00 0.00 0.00 0.00 0.00 0.00 0.00 0.00 0.00 0.00 0.00
0.04 0.04 0.28 0.33 0.19 0.06 0.33 0.33 0.40 0.34 0.29 0.07 0.06 0.05 0.06 0.01 0.02 0.02 0.02 0.00 0.00 0.00 0.00 0.00 0.00 0.00 0.00 0.00 0.00 0.00 0.00 0.00 0.01 0.00 0.00 0.00 0.00 0.00 0.00 0.00 0.00 0.00 0.00 0.00 0.00
0.08 0.16 0.24 0.30 0.07 0.07 0.33 0.40 0.31 0.18 0.03 0.00 0.06 0.02 0.02 0.02 0.02 0.01 0.01 0.00 0.00 0.00 0.00 0.00 0.00 0.00 0.00 0.00 0.00 0.00 0.00 0.01 0.03 0.01 0.00 0.00 0.00 0.00 0.00 0.00 0.00 0.00 0.00 0.00 0.00
0.19 0.19 0.20 0.16 0.10 0.24 0.57 0.70 0.23 0.08 0.01 0.00 0.00 0.00 0.00 0.01 0.01 0.00 0.00 0.00 0.00 0.00 0.00 0.00 0.00 0.00 0.00 0.00 0.00 0.00 0.01 0.01 0.02 0.02 0.01 0.00 0.00 0.00 0.00 0.00 0.00 0.00 0.00 0.00 0.00
0.09 0.24 0.19 0.11 0.14 0.42 0.66 0.51 0.21 0.03 0.00 0.00 0.00 0.00 0.00 0.00 0.00 0.00 0.00 0.00 0.00 0.00 0.00 0.00 0.00 0.00 0.00 0.00 0.00 0.00 0.00 0.00 0.05 0.01 0.07 0.07 0.03 0.00 0.00 0.00 0.00 0.00 0.00 0.00 0.00
0.09 0.22 0.23 0.17 0.10 0.20 0.24 0.08 0.04 0.02 0.00 0.00 0.00 0.00 0.00 0.00 0.00 0.00 0.00 0.00 0.00 0.00 0.00 0.00 0.00 0.00 0.00 0.01 0.01 0.00 0.00 0.00 0.05 0.18 0.12 0.07 0.03 0.00 0.00 0.00 0.00 0.00 0.01 0.00 0.00
0.04 0.08 0.06 0.04 0.03 0.08 0.13 0.08 0.03 0.00 0.00 0.00 0.00 0.00 0.00 0.00 0.00 0.00 0.00 0.00 0.00 0.00 0.00 0.00 0.00 0.00 0.00 0.00 0.01 0.02 0.00 0.02 0.21 0.34 0.07 0.03 0.00 0.00 0.00 0.00 0.00 0.01 0.01 0.00 0.01
0.03 0.04 0.01 0.01 0.02 0.02 0.03 0.04 0.03 0.00 0.00 0.00 0.00 0.00 0.00 0.00 0.00 0.00 0.00 0.00 0.00 0.00 0.00 0.00 0.00 0.00 0.00 0.00 0.00 0.00 0.00 0.01 0.16 0.15 0.27 0.09 0.00 0.00 0.00 0.04 0.05 0.03 0.03 0.04 0.06
0.01 0.02 0.01 0.01 0.00 0.00 0.01 0.04 0.01 0.00 0.00 0.00 0.00 0.00 0.00 0.00 0.00 0.00 0.00 0.00 0.00 0.00 0.00 0.00 0.01 0.01 0.00 0.00 0.00 0.00 0.00 0.05 0.04 0.03 0.06 0.02 0.01 0.00 0.02 0.05 0.03 0.02 0.04 0.05 0.06
0.01 0.01 0.01 0.01 0.00 0.01 0.01 0.00 0.00 0.00 0.00 0.00 0.00 0.00 0.00 0.00 0.00 0.00 0.00 0.00 0.00 0.00 0.00 0.01 0.01 0.01 0.00 0.00 0.00 0.04 0.06 0.07 0.03 0.02 0.03 0.03 0.03 0.02 0.03 0.04 0.04 0.04 0.02 0.02 0.01

GFSSW_prec_precacc12_039.txt.gz
Total_Precipitation_Accumulation
0.01 0.00 0.00 0.00 0.02 0.04 0.06 0.05 0.04 0.05 0.09 0.14 0.15 0.05 0.00 0.00 0.02 0.03 0.01 0.00 0.00 0.00 0.00 0.00 0.00 0.00 0.00 0.00 0.00 0.00 0.00 0.00 0.00 0.00 0.00 0.00 0.00 0.00 0.00 0.00 0.00 0.00 0.00 0.00 0.00
0.02 0.02 0.02 0.02 0.02 0.03 0.05 0.05 0.04 0.04 0.06 0.14 0.18 0.13 0.01 0.01 0.02 0.01 0.00 0.00 0.00 0.00 0.00 0.00 0.00 0.00 0.00 0.00 0.00 0.00 0.00 0.00 0.00 0.00 0.00 0.00 0.00 0.00 0.00 0.00 0.00 0.00 0.00 0.00 0.00
0.03 0.04 0.03 0.03 0.02 0.02 0.03 0.06 0.05 0.04 0.05 0.09 0.19 0.20 0.05 0.01 0.02 0.00 0.00 0.00 0.00 0.00 0.00 0.00 0.00 0.00 0.00 0.00 0.00 0.00 0.00 0.00 0.00 0.00 0.00 0.00 0.00 0.00 0.00 0.00 0.00 0.00 0.00 0.00 0.00
0.04 0.04 0.04 0.03 0.03 0.02 0.02 0.06 0.09 0.07 0.06 0.09 0.16 0.25 0.13 0.01 0.01 0.01 0.00 0.03 0.06 0.05 0.00 0.00 0.00 0.00 0.00 0.00 0.00 0.00 0.00 0.00 0.00 0.00 0.00 0.00 0.00 0.00 0.00 0.00 0.00 0.00 0.00 0.00 0.00
0.06 0.08 0.06 0.03 0.03 0.05 0.03 0.04 0.09 0.12 0.11 0.10 0.15 0.46 0.28 0.01 0.00 0.00 0.01 0.02 0.12 0.15 0.03 0.00 0.00 0.00 0.00 0.00 0.00 0.00 0.00 0.00 0.00 0.00 0.00 0.00 0.00 0.00 0.00 0.00 0.00 0.00 0.00 0.00 0.00
0.06 0.08 0.06 0.05 0.09 0.05 0.03 0.03 0.08 0.14 0.14 0.12 0.17 0.39 0.29 0.02 0.00 0.00 0.02 0.04 0.05 0.13 0.06 0.01 0.00 0.00 0.00 0.00 0.00 0.00 0.00 0.00 0.00 0.00 0.00 0.00 0.00 0.00 0.00 0.00 0.00 0.00 0.00 0.00 0.00
0.08 0.07 0.03 0.06 0.09 0.06 0.04 0.06 0.09 0.13 0.21 0.25 0.23 0.39 0.21 0.02 0.00 0.00 0.03 0.11 0.09 0.08 0.10 0.04 0.02 0.00 0.00 0.00 0.00 0.00 0.00 0.00 0.00 0.00 0.00 0.00 0.00 0.00 0.00 0.00 0.00 0.00 0.00 0.00 0.00
0.10 0.08 0.05 0.07 0.07 0.13 0.13 0.15 0.14 0.22 0.32 0.30 0.37 0.39 0.16 0.00 0.00 0.00 0.02 0.06 0.13 0.15 0.16 0.22 0.07 0.00 0.00 0.00 0.00 0.00 0.00 0.00 0.00 0.00 0.00 0.00 0.00 0.00 0.00 0.00 0.00 0.00 0.00 0.00 0.00
0.10 0.08 0.10 0.11 0.15 0.18 0.13 0.04 0.02 0.14 0.28 0.56 0.62 0.32 0.11 0.00 0.00 0.00 0.00 0.01 0.03 0.16 0.36 0.26 0.14 0.02 0.00 0.00 0.00 0.00 0.00 0.00 0.00 0.00 0.00 0.00 0.00 0.00 0.00 0.00 0.00 0.00 0.00 0.00 0.00
0.10 0.08 0.12 0.12 0.14 0.19 0.14 0.02 0.01 0.21 0.40 0.84 0.72 0.44 0.07 0.00 0.00 0.00 0.00 0.00 0.03 0.16 0.22 0.22 0.22 0.11 0.03 0.01 0.00 0.00 0.00 0.00 0.00 0.00 0.00 0.00 0.00 0.00 0.00 0.00 0.00 0.00 0.00 0.00 0.00
0.10 0.04 0.05 0.07 0.12 0.14 0.15 0.03 0.09 0.38 0.76 0.84 0.35 0.16 0.00 0.00 0.01 0.00 0.00 0.00 0.12 0.19 0.11 0.12 0.12 0.16 0.06 0.01 0.00 0.00 0.00 0.00 0.00 0.00 0.00 0.00 0.00 0.00 0.00 0.00 0.00 0.00 0.00 0.00 0.00
0.08 0.02 0.05 0.11 0.16 0.20 0.28 0.14 0.20 0.47 0.67 0.52 0.12 0.06 0.00 0.00 0.01 0.00 0.00 0.01 0.06 0.08 0.07 0.07 0.10 0.06 0.11 0.04 0.01 0.00 0.00 0.00 0.00 0.00 0.00 0.00 0.00 0.00 0.00 0.00 0.00 0.00 0.00 0.00 0.00
0.03 0.02 0.07 0.10 0.13 0.16 0.16 0.04 0.16 0.49 0.75 0.64 0.27 0.15 0.01 0.00 0.00 0.00 0.00 0.01 0.03 0.04 0.04 0.02 0.02 0.04 0.08 0.07 0.01 0.00 0.00 0.00 0.00 0.00 0.00 0.00 0.00 0.00 0.00 0.00 0.00 0.00 0.00 0.00 0.00
0.03 0.03 0.07 0.13 0.12 0.16 0.06 0.08 0.18 0.54 0.62 0.81 0.46 0.18 0.02 0.00 0.00 0.00 0.01 0.01 0.01 0.04 0.03 0.04 0.00 0.00 0.01 0.04 0.01 0.00 0.00 0.00 0.00 0.00 0.00 0.00 0.00 0.00 0.00 0.00 0.00 0.00 0.00 0.00 0.00
0.04 0.04 0.06 0.25 0.12 0.05 0.16 0.07 0.17 0.67 0.64 0.73 0.48 0.13 0.01 0.00 0.00 0.04 0.02 0.00 0.00 0.01 0.02 0.03 0.00 0.00 0.00 0.00 0.00 0.00 0.00 0.00 0.00 0.00 0.00 0.00 0.00 0.00 0.00 0.00 0.00 0.00 0.00 0.00 0.00
0.03 0.04 0.10 0.07 0.06 0.12 0.24 0.05 0.27 0.61 0.98 1.09 0.47 0.07 0.04 0.02 0.00 0.02 0.02 0.00 0.00 0.00 0.00 0.01 0.00 0.00 0.00 0.00 0.00 0.00 0.00 0.00 0.00 0.00 0.00 0.00 0.00 0.00 0.00 0.00 0.00 0.00 0.00 0.00 0.00
0.03 0.06 0.07 0.06 0.12 0.13 0.14 0.04 0.30 0.44 0.68 0.71 0.26 0.03 0.02 0.02 0.03 0.03 0.03 0.01 0.00 0.03 0.04 0.00 0.00 0.00 0.00 0.00 0.00 0.00 0.00 0.00 0.00 0.00 0.00 0.00 0.00 0.00 0.00 0.00 0.00 0.00 0.00 0.00 0.00
0.02 0.03 0.05 0.09 0.16 0.08 0.14 0.08 0.22 0.36 0.58 0.33 0.03 0.03 0.02 0.02 0.03 0.03 0.01 0.00 0.00 0.00 0.01 0.00 0.00 0.00 0.00 0.00 0.00 0.00 0.00 0.00 0.00 0.00 0.00 0.00 0.00 0.00 0.00 0.00 0.00 0.00 0.00 0.00 0.00
0.03 0.02 0.18 0.23 0.13 0.02 0.13 0.09 0.39 0.53 0.54 0.13 0.06 0.04 0.05 0.01 0.03 0.05 0.01 0.00 0.00 0.00 0.00 0.00 0.00 0.00 0.00 0.00 0.00 0.00 0.00 0.00 0.00 0.00 0.00 0.00 0.00 0.00 0.00 0.00 0.00 0.00 0.00 0.00 0.00
0.03 0.08 0.15 0.21 0.03 0.01 0.20 0.27 0.37 0.26 0.06 0.00 0.08 0.04 0.02 0.01 0.02 0.03 0.01 0.00 0.00 0.00 0.00 0.00 0.00 0.00 0.00 0.00 0.00 0.00 0.00 0.00 0.01 0.00 0.00 0.00 0.00 0.00 0.00 0.00 0.00 0.00 0.00 0.00 0.00
0.04 0.07 0.14 0.08 0.03 0.13 0.47 0.63 0.25 0.10 0.01 0.00 0.00 0.00 0.00 0.01 0.01 0.00 0.00 0.00 0.00 0.00 0.00 0.00 0.00 0.00 0.00 0.00 0.00 0.00 0.00 0.00 0.00 0.00 0.00 0.00 0.00 0.00 0.00 0.00 0.00 0.00 0.00 0.00 0.00
0.02 0.11 0.08 0.05 0.09 0.31 0.61 0.49 0.22 0.03 0.00 0.00 0.00 0.00 0.00 0.00 0.00 0.00 0.00 0.00 0.00 0.00 0.00 0.00 0.00 0.00 0.00 0.00 0.00 0.00 0.00 0.00 0.00 0.00 0.00 0.01 0.01 0.00 0.00 0.00 0.00 0.00 0.00 0.00 0.00
0.02 0.13 0.08 0.03 0.05 0.15 0.20 0.06 0.04 0.02 0.00 0.00 0.00 0.00 0.00 0.00 0.00 0.00 0.00 0.00 0.00 0.00 0.00 0.00 0.00 0.00 0.00 0.00 0.00 0.00 0.00 0.00 0.01 0.07 0.05 0.02 0.00 0.00 0.00 0.00 0.00 0.00 0.01 0.00 0.00
0.00 0.03 0.02 0.01 0.02 0.07 0.11 0.06 0.02 0.00 0.00 0.00 0.00 0.00 0.00 0.00 0.00 0.00 0.00 0.00 0.00 0.00 0.00 0.00 0.00 0.00 0.00 0.00 0.00 0.00 0.00 0.00 0.07 0.17 0.04 0.01 0.00 0.00 0.00 0.00 0.00 0.02 0.01 0.01 0.01
0.00 0.00 0.00 0.01 0.01 0.01 0.02 0.03 0.01 0.00 0.00 0.00 0.00 0.00 0.00 0.00 0.00 0.00 0.00 0.00 0.00 0.00 0.00 0.00 0.00 0.00 0.00 0.00 0.00 0.00 0.00 0.00 0.06 0.06 0.19 0.06 0.00 0.00 0.00 0.04 0.06 0.03 0.03 0.04 0.06
0.00 0.00 0.00 0.00 0.00 0.00 0.01 0.03 0.00 0.00 0.00 0.00 0.00 0.00 0.00 0.00 0.00 0.00 0.00 0.00 0.00 0.00 0.00 0.00 0.00 0.00 0.00 0.00 0.00 0.00 0.00 0.02 0.01 0.02 0.04 0.02 0.01 0.00 0.02 0.06 0.05 0.02 0.04 0.05 0.06
0.00 0.00 0.00 0.00 0.00 0.01 0.01 0.00 0.00 0.00 0.00 0.00 0.00 0.00 0.00 0.00 0.00 0.00 0.00 0.00 0.00 0.00 0.00 0.00 0.00 0.00 0.00 0.00 0.00 0.01 0.00 0.01 0.01 0.02 0.03 0.03 0.03 0.02 0.03 0.04 0.04 0.03 0.01 0.01 0.00

GFSSW_prec_precacc12_042.txt.gz
Total_Precipitation_Accumulation
0.03 0.03 0.03 0.03 0.04 0.02 0.01 0.04 0.05 0.05 0.09 0.14 0.16 0.14 0.11 0.03 0.01 0.03 0.02 0.00 0.00 0.00 0.00 0.00 0.00 0.00 0.00 0.00 0.00 0.00 0.00 0.00 0.00 0.00 0.00 0.00 0.00 0.00 0.00 0.00 0.00 0.00 0.00 0.00 0.00
0.03 0.04 0.04 0.04 0.04 0.04 0.03 0.03 0.03 0.04 0.06 0.14 0.19 0.19 0.15 0.08 0.02 0.01 0.00 0.00 0.00 0.00 0.00 0.00 0.00 0.00 0.00 0.00 0.00 0.00 0.00 0.00 0.00 0.00 0.00 0.00 0.00 0.00 0.00 0.00 0.00 0.00 0.00 0.00 0.00
0.04 0.04 0.04 0.05 0.04 0.04 0.04 0.04 0.02 0.04 0.05 0.09 0.19 0.22 0.24 0.21 0.02 0.00 0.00 0.00 0.00 0.00 0.01 0.00 0.00 0.00 0.00 0.00 0.00 0.00 0.00 0.00 0.00 0.00 0.00 0.00 0.00 0.00 0.00 0.00 0.00 0.00 0.00 0.00 0.00
0.05 0.05 0.05 0.05 0.05 0.05 0.06 0.05 0.05 0.04 0.06 0.09 0.16 0.26 0.39 0.22 0.02 0.00 0.00 0.00 0.02 0.02 0.02 0.01 0.00 0.00 0.00 0.00 0.00 0.00 0.00 0.00 0.00 0.00 0.00 0.00 0.00 0.00 0.00 0.00 0.00 0.00 0.00 0.00 0.00
0.07 0.09 0.07 0.04 0.05 0.09 0.06 0.05 0.04 0.04 0.09 0.10 0.16 0.48 0.55 0.28 0.02 0.01 0.01 0.02 0.09 0.10 0.03 0.01 0.00 0.00 0.00 0.00 0.00 0.00 0.00 0.00 0.00 0.00 0.00 0.00 0.00 0.00 0.00 0.00 0.00 0.00 0.00 0.00 0.00
0.08 0.09 0.07 0.06 0.11 0.09 0.04 0.05 0.05 0.05 0.10 0.12 0.19 0.42 0.43 0.16 0.01 0.00 0.02 0.04 0.06 0.10 0.03 0.02 0.00 0.00 0.00 0.00 0.00 0.00 0.00 0.00 0.00 0.00 0.00 0.00 0.00 0.00 0.00 0.00 0.00 0.00 0.00 0.00 0.00
0.09 0.08 0.04 0.06 0.10 0.10 0.05 0.08 0.07 0.06 0.10 0.26 0.26 0.44 0.27 0.06 0.02 0.01 0.03 0.13 0.11 0.07 0.04 0.03 0.01 0.00 0.00 0.00 0.00 0.00 0.00 0.00 0.00 0.00 0.00 0.00 0.00 0.00 0.00 0.00 0.00 0.00 0.00 0.00 0.00
0.12 0.08 0.07 0.09 0.09 0.14 0.14 0.22 0.19 0.17 0.14 0.32 0.42 0.43 0.19 0.01 0.04 0.02 0.04 0.13 0.24 0.29 0.12 0.17 0.07 0.00 0.00 0.00 0.00 0.00 0.00 0.00 0.00 0.00 0.00 0.00 0.00 0.00 0.00 0.00 0.00 0.00 0.00 0.00 0.00
0.13 0.10 0.11 0.11 0.13 0.17 0.15 0.06 0.04 0.07 0.13 0.45 0.63 0.34 0.14 0.00 0.02 0.00 0.03 0.10 0.12 0.28 0.38 0.32 0.17 0.03 0.00 0.00 0.00 0.00 0.00 0.00 0.00 0.00 0.00 0.00 0.00 0.00 0.00 0.00 0.00 0.00 0.00 0.00 0.00
0.11 0.07 0.08 0.07 0.10 0.21 0.24 0.08 0.04 0.03 0.09 0.66 0.72 0.47 0.08 0.01 0.01 0.01 0.04 0.05 0.07 0.25 0.30 0.26 0.27 0.12 0.03 0.01 0.00 0.00 0.00 0.00 0.00 0.00 0.00 0.00 0.00 0.00 0.00 0.00 0.00 0.00 0.00 0.00 0.00
0.09 0.03 0.04 0.05 0.11 0.14 0.16 0.03 0.01 0.05 0.29 0.65 0.34 0.19 0.01 0.03 0.03 0.02 0.02 0.03 0.20 0.32 0.44 0.27 0.13 0.16 0.06 0.01 0.00 0.00 0.00 0.00 0.00 0.00 0.00 0.00 0.00 0.00 0.00 0.00 0.00 0.00 0.00 0.00 0.00
0.07 0.04 0.03 0.08 0.15 0.21 0.26 0.12 0.03 0.10 0.31 0.41 0.11 0.15 0.01 0.03 0.06 0.02 0.01 0.02 0.08 0.12 0.29 0.36 0.13 0.07 0.11 0.04 0.01 0.00 0.00 0.00 0.00 0.00 0.00 0.00 0.00 0.00 0.00 0.00 0.00 0.00 0.00 0.00 0.00
0.07 0.06 0.09 0.09 0.09 0.13 0.15 0.03 0.01 0.05 0.38 0.47 0.26 0.22 0.03 0.02 0.09 0.00 0.01 0.03 0.05 0.06 0.07 0.13 0.07 0.06 0.12 0.09 0.02 0.01 0.00 0.00 0.00 0.00 0.00 0.00 0.00 0.00 0.00 0.00 0.00 0.00 0.00 0.00 0.00
0.06 0.05 0.11 0.15 0.06 0.06 0.04 0.08 0.01 0.09 0.33 0.63 0.45 0.20 0.05 0.01 0.10 0.00 0.02 0.05 0.04 0.07 0.05 0.04 0.00 0.04 0.05 0.10 0.04 0.01 0.00 0.00 0.00 0.00 0.00 0.00 0.00 0.00 0.00 0.00 0.00 0.00 0.00 0.00 0.00
0.05 0.06 0.08 0.24 0.07 0.03 0.10 0.04 0.02 0.22 0.40 0.64 0.50 0.22 0.09 0.02 0.04 0.05 0.04 0.02 0.01 0.02 0.03 0.04 0.01 0.02 0.04 0.02 0.04 0.02 0.00 0.00 0.00 0.00 0.00 0.00 0.00 0.00 0.00 0.00 0.00 0.00 0.00 0.00 0.00
0.04 0.06 0.09 0.05 0.03 0.06 0.11 0.00 0.04 0.28 0.79 1.08 0.58 0.28 0.11 0.04 0.00 0.03 0.06 0.01 0.01 0.03 0.02 0.03 0.00 0.00 0.01 0.01 0.00 0.00 0.00 0.00 0.00 0.00 0.00 0.00 0.00 0.00 0.00 0.00 0.00 0.00 0.00 0.00 0.00
0.03 0.06 0.07 0.05 0.07 0.05 0.05 0.01 0.05 0.25 0.62 0.76 0.42 0.12 0.02 0.04 0.04 0.06 0.12 0.01 0.02 0.06 0.09 0.05 0.03 0.00 0.00 0.00 0.01 0.00 0.00 0.00 0.00 0.00 0.00 0.00 0.00 0.00 0.00 0.00 0.00 0.00 0.00 0.00 0.00
0.02 0.03 0.03 0.04 0.04 0.02 0.02 0.01 0.14 0.32 0.66 0.49 0.07 0.02 0.03 0.04 0.04 0.11 0.06 0.01 0.00 0.00 0.01 0.01 0.01 0.00 0.00 0.00 0.00 0.00 0.00 0.00 0.00 0.00 0.00 0.00 0.00 0.00 0.00 0.00 0.00 0.00 0.00 0.00 0.00
0.02 0.02 0.07 0.10 0.05 0.00 0.03 0.06 0.31 0.66 0.76 0.25 0.05 0.04 0.05 0.01 0.05 0.11 0.01 0.00 0.00 0.00 0.00 0.00 0.00 0.00 0.00 0.00 0.00 0.00 0.00 0.00 0.00 0.00 0.00 0.00 0.00 0.00 0.00 0.00 0.00 0.00 0.00 0.00 0.00
0.00 0.01 0.06 0.10 0.01 0.00 0.10 0.18 0.30 0.28 0.08 0.00 0.10 0.04 0.02 0.01 0.03 0.03 0.01 0.00 0.00 0.00 0.00 0.00 0.00 0.00 0.00 0.00 0.00 0.00 0.00 0.00 0.00 0.00 0.00 0.00 0.00 0.00 0.00 0.00 0.00 0.00 0.00 0.00 0.00
0.00 0.03 0.03 0.03 0.02 0.10 0.27 0.37 0.22 0.10 0.01 0.00 0.00 0.00 0.00 0.00 0.00 0.00 0.00 0.00 0.00 0.00 0.00 0.00 0.00 0.00 0.00 0.00 0.00 0.00 0.00 0.00 0.00 0.00 0.00 0.00 0.00 0.00 0.00 0.00 0.00 0.00 0.00 0.00 0.00
0.00 0.02 0.01 0.01 0.08 0.30 0.51 0.38 0.20 0.03 0.00 0.00 0.00 0.00 0.00 0.00 0.00 0.00 0.00 0.00 0.00 0.00 0.00 0.00 0.00 0.00 0.00 0.00 0.00 0.00 0.00 0.00 0.00 0.00 0.00 0.00 0.00 0.00 0.00 0.00 0.00 0.00 0.00 0.00 0.00
0.00 0.00 0.00 0.00 0.04 0.11 0.09 0.03 0.03 0.01 0.00 0.00 0.00 0.00 0.00 0.00 0.00 0.00 0.00 0.00 0.00 0.00 0.00 0.00 0.00 0.00 0.00 0.00 0.00 0.00 0.00 0.00 0.00 0.01 0.01 0.00 0.00 0.00 0.00 0.00 0.00 0.00 0.01 0.00 0.00
0.00 0.00 0.00 0.00 0.01 0.05 0.06 0.03 0.01 0.00 0.00 0.00 0.00 0.00 0.00 0.00 0.00 0.00 0.00 0.00 0.00 0.00 0.00 0.00 0.00 0.00 0.00 0.00 0.00 0.00 0.00 0.00 0.00 0.05 0.01 0.00 0.00 0.00 0.00 0.00 0.00 0.01 0.01 0.01 0.01
0.00 0.00 0.00 0.00 0.00 0.00 0.01 0.01 0.00 0.00 0.00 0.00 0.00 0.00 0.00 0.00 0.00 0.00 0.00 0.00 0.00 0.00 0.00 0.00 0.00 0.00 0.00 0.00 0.00 0.00 0.00 0.00 0.01 0.01 0.09 0.02 0.00 0.00 0.00 0.03 0.06 0.03 0.03 0.04 0.05
0.00 0.00 0.00 0.00 0.00 0.00 0.01 0.01 0.00 0.00 0.00 0.00 0.00 0.00 0.00 0.00 0.00 0.00 0.00 0.00 0.00 0.00 0.00 0.00 0.00 0.00 0.00 0.00 0.00 0.00 0.00 0.00 0.00 0.00 0.00 0.00 0.00 0.00 0.01 0.04 0.04 0.02 0.03 0.05 0.06
0.00 0.00 0.00 0.00 0.00 0.00 0.00 0.00 0.00 0.00 0.00 0.00 0.00 0.00 0.00 0.00 0.00 0.00 0.00 0.00 0.00 0.00 0.00 0.00 0.00 0.00 0.00 0.00 0.00 0.00 0.00 0.00 0.00 0.00 0.01 0.02 0.01 0.02 0.02 0.02 0.01 0.02 0.01 0.01 0.00

GFSSW_prec_precacc12_045.txt.gz
Total_Precipitation_Accumulation
0.04 0.05 0.05 0.04 0.04 0.03 0.03 0.04 0.05 0.05 0.09 0.14 0.16 0.14 0.14 0.11 0.09 0.04 0.02 0.00 0.00 0.00 0.00 0.00 0.00 0.00 0.00 0.00 0.00 0.00 0.00 0.00 0.00 0.00 0.00 0.00 0.00 0.00 0.00 0.00 0.00 0.00 0.00 0.00 0.00
0.05 0.05 0.05 0.04 0.04 0.05 0.05 0.05 0.05 0.04 0.06 0.14 0.19 0.19 0.15 0.19 0.12 0.02 0.00 0.00 0.00 0.00 0.00 0.00 0.01 0.00 0.00 0.00 0.00 0.00 0.00 0.00 0.00 0.00 0.00 0.00 0.00 0.00 0.00 0.00 0.00 0.00 0.00 0.00 0.00
0.05 0.05 0.05 0.07 0.05 0.05 0.05 0.06 0.04 0.03 0.03 0.09 0.19 0.22 0.24 0.25 0.11 0.01 0.00 0.00 0.00 0.00 0.01 0.00 0.00 0.00 0.00 0.00 0.00 0.00 0.00 0.00 0.00 0.00 0.00 0.00 0.00 0.00 0.00 0.00 0.00 0.00 0.00 0.00 0.00
0.06 0.06 0.07 0.06 0.06 0.06 0.07 0.06 0.07 0.04 0.04 0.07 0.16 0.26 0.40 0.34 0.11 0.01 0.01 0.00 0.00 0.01 0.03 0.01 0.01 0.01 0.00 0.00 0.00 0.00 0.00 0.00 0.00 0.00 0.00 0.00 0.00 0.00 0.00 0.00 0.00 0.00 0.00 0.00 0.00
0.08 0.11 0.07 0.04 0.05 0.09 0.07 0.05 0.07 0.03 0.04 0.05 0.16 0.48 0.58 0.37 0.08 0.05 0.03 0.00 0.03 0.05 0.03 0.02 0.00 0.00 0.00 0.00 0.00 0.00 0.00 0.00 0.00 0.00 0.00 0.00 0.00 0.00 0.00 0.00 0.00 0.00 0.00 0.00 0.00
0.10 0.11 0.07 0.07 0.12 0.10 0.04 0.08 0.09 0.04 0.04 0.04 0.18 0.44 0.48 0.22 0.03 0.05 0.02 0.05 0.05 0.06 0.03 0.02 0.00 0.00 0.00 0.00 0.00 0.00 0.00 0.00 0.00 0.00 0.00 0.00 0.00 0.00 0.00 0.00 0.00 0.00 0.00 0.00 0.00
0.12 0.11 0.06 0.08 0.12 0.12 0.06 0.09 0.12 0.06 0.03 0.03 0.23 0.48 0.32 0.08 0.02 0.04 0.04 0.13 0.11 0.07 0.02 0.02 0.00 0.00 0.00 0.00 0.00 0.00 0.00 0.00 0.00 0.00 0.00 0.00 0.00 0.00 0.00 0.00 0.00 0.00 0.00 0.00 0.00
0.13 0.12 0.09 0.09 0.08 0.12 0.11 0.21 0.23 0.21 0.19 0.11 0.36 0.48 0.20 0.02 0.05 0.04 0.06 0.16 0.25 0.34 0.13 0.10 0.05 0.00 0.00 0.00 0.00 0.00 0.00 0.00 0.00 0.00 0.00 0.00 0.00 0.00 0.00 0.00 0.00 0.00 0.00 0.00 0.00
0.13 0.11 0.10 0.08 0.08 0.10 0.15 0.07 0.09 0.10 0.16 0.09 0.46 0.36 0.16 0.02 0.03 0.02 0.06 0.21 0.17 0.34 0.44 0.36 0.17 0.03 0.00 0.00 0.00 0.00 0.00 0.00 0.00 0.00 0.00 0.00 0.00 0.00 0.00 0.00 0.00 0.00 0.00 0.00 0.00
0.13 0.09 0.07 0.05 0.09 0.18 0.27 0.10 0.05 0.01 0.01 0.13 0.52 0.46 0.09 0.02 0.02 0.02 0.05 0.21 0.14 0.30 0.40 0.31 0.27 0.08 0.01 0.00 0.00 0.00 0.00 0.00 0.00 0.00 0.00 0.00 0.00 0.00 0.00 0.00 0.00 0.00 0.00 0.00 0.00
0.12 0.09 0.10 0.08 0.09 0.11 0.15 0.03 0.01 0.02 0.04 0.22 0.22 0.21 0.06 0.05 0.04 0.04 0.06 0.19 0.37 0.40 0.47 0.26 0.12 0.14 0.05 0.01 0.00 0.00 0.00 0.00 0.00 0.00 0.00 0.00 0.00 0.00 0.00 0.00 0.00 0.00 0.00 0.00 0.00
0.09 0.11 0.14 0.16 0.11 0.15 0.15 0.10 0.03 0.02 0.04 0.16 0.10 0.16 0.03 0.05 0.13 0.04 0.07 0.21 0.27 0.32 0.60 0.46 0.11 0.06 0.11 0.04 0.01 0.00 0.00 0.00 0.00 0.00 0.00 0.00 0.00 0.00 0.00 0.00 0.00 0.00 0.00 0.00 0.00
0.11 0.11 0.14 0.16 0.08 0.02 0.03 0.02 0.01 0.01 0.15 0.21 0.19 0.25 0.05 0.04 0.20 0.01 0.10 0.13 0.15 0.29 0.44 0.53 0.17 0.07 0.13 0.09 0.03 0.01 0.00 0.00 0.00 0.00 0.00 0.00 0.00 0.00 0.00 0.00 0.00 0.00 0.00 0.00 0.00
0.08 0.08 0.11 0.16 0.04 0.01 0.01 0.06 0.00 0.01 0.20 0.43 0.33 0.22 0.10 0.06 0.25 0.01 0.04 0.07 0.07 0.24 0.22 0.34 0.23 0.12 0.10 0.12 0.05 0.02 0.00 0.00 0.00 0.00 0.00 0.00 0.00 0.00 0.00 0.00 0.00 0.00 0.00 0.00 0.00
0.05 0.06 0.08 0.21 0.06 0.02 0.04 0.03 0.00 0.05 0.28 0.49 0.50 0.34 0.19 0.04 0.12 0.06 0.05 0.03 0.03 0.03 0.05 0.06 0.08 0.09 0.09 0.06 0.05 0.02 0.00 0.00 0.00 0.00 0.00 0.00 0.00 0.00 0.00 0.00 0.00 0.00 0.00 0.00 0.00
0.04 0.06 0.09 0.04 0.02 0.03 0.03 0.00 0.01 0.12 0.56 0.86 0.57 0.41 0.13 0.05 0.04 0.04 0.09 0.02 0.02 0.04 0.03 0.03 0.01 0.04 0.10 0.03 0.03 0.01 0.00 0.00 0.00 0.00 0.00 0.00 0.00 0.00 0.00 0.00 0.00 0.00 0.00 0.00 0.00
0.02 0.04 0.05 0.02 0.04 0.01 0.01 0.00 0.02 0.16 0.42 0.64 0.48 0.18 0.03 0.05 0.05 0.07 0.23 0.02 0.03 0.08 0.13 0.11 0.05 0.00 0.04 0.03 0.02 0.00 0.00 0.00 0.00 0.00 0.00 0.00 0.00 0.00 0.00 0.00 0.00 0.00 0.00 0.00 0.00
0.00 0.00 0.02 0.02 0.01 0.01 0.01 0.01 0.09 0.22 0.56 0.55 0.16 0.06 0.05 0.06 0.04 0.13 0.15 0.02 0.00 0.00 0.02 0.04 0.06 0.01 0.00 0.00 0.00 0.00 0.00 0.00 0.00 0.00 0.00 0.00 0.00 0.00 0.00 0.00 0.00 0.00 0.00 0.00 0.00
0.00 0.00 0.02 0.03 0.00 0.00 0.03 0.06 0.22 0.53 0.77 0.30 0.05 0.04 0.05 0.01 0.05 0.16 0.13 0.02 0.00 0.00 0.00 0.00 0.00 0.00 0.00 0.00 0.00 0.00 0.00 0.00 0.00 0.00 0.00 0.00 0.00 0.00 0.00 0.00 0.00 0.00 0.00 0.00 0.00
0.00 0.00 0.01 0.02 0.00 0.00 0.06 0.14 0.17 0.21 0.07 0.00 0.07 0.04 0.01 0.01 0.03 0.04 0.03 0.01 0.00 0.00 0.00 0.00 0.00 0.00 0.00 0.00 0.00 0.00 0.00 0.00 0.00 0.00 0.00 0.00 0.00 0.00 0.00 0.00 0.00 0.00 0.00 0.00 0.00
0.00 0.00 0.00 0.00 0.01 0.04 0.15 0.20 0.14 0.08 0.01 0.00 0.00 0.00 0.00 0.00 0.00 0.00 0.00 0.00 0.00 0.00 0.00 0.00 0.00 0.00 0.00 0.00 0.00 0.00 0.00 0.00 0.00 0.00 0.00 0.00 0.00 0.00 0.00 0.00 0.00 0.00 0.00 0.00 0.00
0.00 0.00 0.00 0.00 0.08 0.19 0.23 0.15 0.10 0.02 0.00 0.00 0.00 0.00 0.00 0.00 0.00 0.00 0.00 0.00 0.00 0.00 0.00 0.00 0.00 0.00 0.00 0.00 0.00 0.00 0.00 0.00 0.00 0.00 0.00 0.00 0.00 0.00 0.00 0.00 0.00 0.00 0.00 0.00 0.00
0.00 0.00 0.00 0.00 0.02 0.02 0.02 0.01 0.01 0.00 0.00 0.00 0.00 0.00 0.00 0.00 0.00 0.00 0.00 0.00 0.00 0.00 0.00 0.00 0.00 0.00 0.00 0.00 0.00 0.00 0.00 0.00 0.00 0.00 0.00 0.00 0.00 0.00 0.00 0.00 0.00 0.00 0.00 0.00 0.00
0.00 0.00 0.00 0.00 0.00 0.00 0.00 0.00 0.00 0.00 0.00 0.00 0.00 0.00 0.00 0.00 0.00 0.00 0.00 0.00 0.00 0.00 0.00 0.00 0.00 0.00 0.00 0.00 0.00 0.00 0.00 0.00 0.00 0.00 0.00 0.00 0.00 0.00 0.00 0.00 0.00 0.01 0.01 0.00 0.00
0.00 0.00 0.00 0.00 0.00 0.00 0.00 0.00 0.00 0.00 0.00 0.00 0.00 0.00 0.00 0.00 0.00 0.00 0.00 0.00 0.00 0.00 0.00 0.00 0.00 0.00 0.00 0.00 0.00 0.00 0.00 0.00 0.00 0.00 0.01 0.00 0.00 0.00 0.00 0.02 0.05 0.02 0.01 0.01 0.02
0.00 0.00 0.00 0.00 0.00 0.00 0.00 0.00 0.00 0.00 0.00 0.00 0.00 0.00 0.00 0.00 0.00 0.00 0.00 0.00 0.00 0.00 0.00 0.00 0.00 0.00 0.00 0.00 0.00 0.00 0.00 0.00 0.00 0.00 0.00 0.00 0.00 0.00 0.00 0.02 0.03 0.00 0.00 0.01 0.01
0.00 0.00 0.00 0.00 0.00 0.00 0.00 0.00 0.00 0.00 0.00 0.00 0.00 0.00 0.00 0.00 0.00 0.00 0.00 0.00 0.00 0.00 0.00 0.00 0.00 0.00 0.00 0.00 0.00 0.00 0.00 0.00 0.00 0.00 0.00 0.00 0.00 0.00 0.00 0.02 0.01 0.00 0.00 0.01 0.00

GFSSW_prec_precacc12_048.txt.gz
Total_Precipitation_Accumulation
0.04 0.05 0.05 0.05 0.05 0.04 0.04 0.05 0.07 0.06 0.06 0.12 0.16 0.14 0.14 0.12 0.11 0.09 0.04 0.00 0.00 0.00 0.00 0.00 0.01 0.01 0.00 0.00 0.00 0.00 0.00 0.00 0.00 0.00 0.00 0.00 0.00 0.00 0.00 0.00 0.00 0.00 0.00 0.00 0.00
0.05 0.06 0.05 0.05 0.05 0.06 0.06 0.06 0.06 0.05 0.05 0.06 0.17 0.19 0.15 0.19 0.13 0.03 0.01 0.00 0.00 0.00 0.01 0.00 0.02 0.01 0.00 0.00 0.00 0.00 0.00 0.00 0.00 0.00 0.00 0.00 0.00 0.00 0.00 0.00 0.00 0.00 0.00 0.00 0.00
0.05 0.05 0.06 0.08 0.05 0.05 0.05 0.06 0.04 0.04 0.04 0.02 0.12 0.23 0.24 0.25 0.12 0.01 0.00 0.00 0.00 0.00 0.01 0.00 0.02 0.01 0.00 0.00 0.00 0.00 0.00 0.00 0.00 0.00 0.00 0.00 0.00 0.00 0.00 0.00 0.00 0.00 0.00 0.00 0.00
0.05 0.07 0.08 0.06 0.07 0.07 0.07 0.05 0.08 0.07 0.05 0.05 0.07 0.26 0.40 0.35 0.13 0.02 0.01 0.01 0.00 0.00 0.04 0.02 0.02 0.02 0.00 0.00 0.00 0.00 0.00 0.00 0.00 0.00 0.00 0.00 0.00 0.00 0.00 0.00 0.00 0.00 0.00 0.00 0.00
0.06 0.10 0.07 0.06 0.06 0.11 0.08 0.07 0.10 0.05 0.05 0.03 0.06 0.46 0.58 0.38 0.08 0.07 0.03 0.01 0.05 0.04 0.03 0.02 0.01 0.01 0.00 0.00 0.00 0.00 0.00 0.00 0.00 0.00 0.00 0.00 0.00 0.00 0.00 0.00 0.00 0.00 0.00 0.00 0.00
0.07 0.09 0.06 0.07 0.12 0.11 0.06 0.11 0.11 0.06 0.07 0.03 0.06 0.36 0.49 0.23 0.04 0.06 0.03 0.03 0.03 0.04 0.03 0.03 0.01 0.01 0.00 0.00 0.00 0.00 0.00 0.00 0.00 0.00 0.00 0.00 0.00 0.00 0.00 0.00 0.00 0.00 0.00 0.00 0.00
0.11 0.10 0.08 0.08 0.09 0.12 0.07 0.10 0.13 0.07 0.04 0.05 0.13 0.29 0.32 0.08 0.03 0.07 0.04 0.11 0.10 0.05 0.02 0.02 0.00 0.00 0.00 0.00 0.00 0.00 0.00 0.00 0.00 0.00 0.00 0.00 0.00 0.00 0.00 0.00 0.00 0.00 0.00 0.00 0.00
0.14 0.14 0.14 0.09 0.06 0.10 0.07 0.20 0.26 0.25 0.23 0.13 0.18 0.29 0.20 0.02 0.05 0.08 0.08 0.18 0.29 0.35 0.16 0.12 0.03 0.00 0.00 0.00 0.00 0.00 0.00 0.00 0.00 0.00 0.00 0.00 0.00 0.00 0.00 0.00 0.00 0.00 0.00 0.00 0.00
0.17 0.17 0.15 0.10 0.06 0.06 0.10 0.07 0.13 0.13 0.23 0.11 0.13 0.20 0.16 0.05 0.04 0.05 0.08 0.23 0.20 0.39 0.47 0.49 0.19 0.05 0.00 0.00 0.00 0.00 0.00 0.00 0.00 0.00 0.00 0.00 0.00 0.00 0.00 0.00 0.00 0.00 0.00 0.00 0.00
0.19 0.14 0.11 0.11 0.11 0.14 0.24 0.09 0.05 0.01 0.01 0.06 0.07 0.25 0.08 0.05 0.02 0.03 0.06 0.27 0.16 0.35 0.53 0.47 0.31 0.09 0.01 0.00 0.00 0.00 0.00 0.00 0.00 0.00 0.00 0.00 0.00 0.00 0.00 0.00 0.00 0.00 0.00 0.00 0.00
0.14 0.12 0.13 0.15 0.18 0.07 0.10 0.01 0.01 0.01 0.04 0.01 0.02 0.15 0.11 0.15 0.06 0.06 0.08 0.31 0.41 0.42 0.50 0.35 0.17 0.06 0.01 0.00 0.00 0.00 0.00 0.00 0.00 0.00 0.00 0.00 0.00 0.00 0.00 0.00 0.00 0.00 0.00 0.00 0.00
0.09 0.12 0.15 0.18 0.17 0.08 0.04 0.02 0.02 0.01 0.00 0.00 0.01 0.14 0.07 0.08 0.15 0.08 0.13 0.59 0.33 0.33 0.63 0.50 0.12 0.04 0.08 0.02 0.00 0.00 0.00 0.00 0.00 0.00 0.00 0.00 0.00 0.00 0.00 0.00 0.00 0.00 0.00 0.00 0.00
0.11 0.11 0.14 0.17 0.08 0.01 0.00 0.00 0.00 0.00 0.00 0.00 0.03 0.18 0.12 0.05 0.22 0.05 0.24 0.54 0.39 0.35 0.47 0.53 0.17 0.07 0.11 0.09 0.03 0.01 0.00 0.00 0.00 0.00 0.00 0.00 0.00 0.00 0.00 0.00 0.00 0.00 0.00 0.00 0.00
0.08 0.08 0.11 0.16 0.04 0.01 0.01 0.03 0.00 0.00 0.03 0.11 0.18 0.18 0.14 0.07 0.30 0.02 0.45 0.47 0.51 0.46 0.38 0.47 0.29 0.15 0.09 0.12 0.05 0.02 0.00 0.00 0.00 0.00 0.00 0.00 0.00 0.00 0.00 0.00 0.00 0.00 0.00 0.00 0.00
0.05 0.06 0.08 0.16 0.04 0.02 0.04 0.01 0.00 0.03 0.20 0.25 0.41 0.37 0.24 0.10 0.19 0.09 0.37 0.28 0.27 0.28 0.30 0.26 0.29 0.29 0.13 0.09 0.06 0.03 0.00 0.00 0.00 0.00 0.00 0.00 0.00 0.00 0.00 0.00 0.00 0.00 0.00 0.00 0.00
0.03 0.04 0.03 0.02 0.01 0.02 0.01 0.00 0.00 0.09 0.37 0.55 0.52 0.50 0.13 0.09 0.05 0.06 0.16 0.07 0.07 0.06 0.09 0.17 0.18 0.27 0.17 0.12 0.05 0.02 0.00 0.00 0.00 0.00 0.00 0.00 0.00 0.00 0.00 0.00 0.00 0.00 0.00 0.00 0.00
0.00 0.01 0.01 0.00 0.01 0.00 0.00 0.00 0.02 0.14 0.30 0.45 0.50 0.18 0.03 0.07 0.06 0.07 0.24 0.03 0.03 0.08 0.12 0.16 0.13 0.07 0.12 0.12 0.07 0.01 0.02 0.01 0.00 0.00 0.00 0.00 0.00 0.00 0.00 0.00 0.00 0.00 0.00 0.00 0.00
0.00 0.00 0.01 0.00 0.00 0.00 0.01 0.01 0.09 0.17 0.42 0.45 0.17 0.06 0.06 0.07 0.05 0.15 0.20 0.02 0.00 0.00 0.03 0.10 0.12 0.02 0.04 0.02 0.01 0.01 0.01 0.00 0.00 0.00 0.00 0.00 0.00 0.00 0.00 0.00 0.00 0.00 0.00 0.00 0.00
0.00 0.00 0.00 0.00 0.00 0.00 0.02 0.05 0.18 0.36 0.53 0.27 0.04 0.04 0.04 0.01 0.05 0.18 0.15 0.02 0.00 0.00 0.01 0.02 0.02 0.00 0.00 0.00 0.00 0.00 0.00 0.00 0.00 0.00 0.00 0.00 0.00 0.00 0.00 0.00 0.00 0.00 0.00 0.00 0.00
0.00 0.00 0.00 0.00 0.00 0.00 0.01 0.09 0.11 0.11 0.05 0.00 0.05 0.03 0.01 0.01 0.03 0.04 0.06 0.01 0.00 0.00 0.00 0.00 0.00 0.00 0.00 0.00 0.00 0.00 0.00 0.00 0.00 0.00 0.00 0.00 0.00 0.00 0.00 0.00 0.00 0.00 0.00 0.00 0.00
0.00 0.00 0.00 0.00 0.00 0.01 0.02 0.02 0.02 0.01 0.00 0.00 0.00 0.00 0.00 0.00 0.00 0.00 0.00 0.00 0.00 0.00 0.00 0.00 0.00 0.00 0.00 0.00 0.00 0.00 0.00 0.00 0.00 0.00 0.00 0.00 0.00 0.00 0.00 0.00 0.00 0.00 0.00 0.00 0.00
0.00 0.00 0.00 0.00 0.00 0.01 0.01 0.01 0.01 0.00 0.00 0.00 0.00 0.00 0.00 0.00 0.00 0.00 0.00 0.00 0.00 0.00 0.00 0.00 0.00 0.00 0.00 0.00 0.00 0.00 0.00 0.00 0.00 0.00 0.00 0.00 0.00 0.00 0.00 0.00 0.00 0.00 0.00 0.00 0.00
0.00 0.00 0.00 0.00 0.00 0.00 0.00 0.00 0.00 0.00 0.00 0.00 0.00 0.00 0.00 0.00 0.00 0.00 0.00 0.00 0.00 0.00 0.00 0.00 0.00 0.00 0.00 0.00 0.00 0.00 0.00 0.00 0.00 0.00 0.00 0.00 0.00 0.00 0.00 0.00 0.00 0.00 0.00 0.00 0.00
0.00 0.00 0.00 0.00 0.00 0.00 0.00 0.00 0.00 0.00 0.00 0.00 0.00 0.00 0.00 0.00 0.00 0.00 0.00 0.00 0.00 0.00 0.00 0.00 0.00 0.00 0.00 0.00 0.00 0.00 0.00 0.00 0.00 0.00 0.00 0.00 0.00 0.00 0.00 0.00 0.00 0.00 0.00 0.00 0.00
0.00 0.00 0.00 0.00 0.00 0.00 0.00 0.00 0.00 0.00 0.00 0.00 0.00 0.00 0.00 0.00 0.00 0.00 0.00 0.00 0.00 0.00 0.00 0.00 0.00 0.00 0.00 0.00 0.00 0.00 0.00 0.00 0.00 0.00 0.00 0.00 0.00 0.00 0.00 0.00 0.02 0.01 0.00 0.00 0.00
0.00 0.00 0.00 0.00 0.00 0.00 0.00 0.00 0.00 0.00 0.00 0.00 0.00 0.00 0.00 0.00 0.00 0.00 0.00 0.00 0.00 0.00 0.00 0.00 0.00 0.00 0.00 0.00 0.00 0.00 0.00 0.00 0.00 0.00 0.00 0.00 0.00 0.00 0.00 0.00 0.01 0.00 0.00 0.00 0.00
0.00 0.00 0.00 0.00 0.00 0.00 0.00 0.00 0.00 0.00 0.00 0.00 0.00 0.00 0.00 0.00 0.00 0.00 0.00 0.00 0.00 0.00 0.00 0.00 0.00 0.00 0.00 0.00 0.00 0.00 0.00 0.00 0.00 0.00 0.00 0.00 0.00 0.00 0.00 0.00 0.00 0.00 0.00 0.00 0.00

GFSSW_prec_precacc12_051.txt.gz
Total_Precipitation_Accumulation
0.04 0.06 0.07 0.06 0.06 0.04 0.04 0.05 0.07 0.07 0.07 0.06 0.06 0.12 0.14 0.12 0.10 0.09 0.07 0.01 0.00 0.01 0.01 0.00 0.01 0.01 0.00 0.00 0.00 0.00 0.00 0.00 0.00 0.00 0.00 0.00 0.00 0.00 0.00 0.00 0.00 0.00 0.00 0.00 0.00
0.03 0.06 0.06 0.06 0.05 0.05 0.06 0.06 0.06 0.05 0.05 0.06 0.05 0.11 0.15 0.18 0.12 0.02 0.02 0.02 0.00 0.00 0.01 0.00 0.02 0.03 0.00 0.00 0.00 0.00 0.00 0.00 0.00 0.00 0.00 0.00 0.00 0.00 0.00 0.00 0.00 0.00 0.00 0.00 0.00
0.04 0.04 0.06 0.06 0.05 0.05 0.05 0.06 0.04 0.04 0.05 0.04 0.02 0.06 0.20 0.25 0.12 0.01 0.00 0.00 0.02 0.00 0.01 0.00 0.03 0.03 0.00 0.00 0.00 0.00 0.00 0.00 0.00 0.00 0.00 0.00 0.00 0.00 0.00 0.00 0.00 0.00 0.00 0.00 0.00
0.04 0.06 0.07 0.05 0.06 0.08 0.07 0.05 0.08 0.07 0.05 0.06 0.05 0.08 0.31 0.35 0.13 0.03 0.01 0.01 0.04 0.02 0.04 0.02 0.03 0.04 0.00 0.00 0.00 0.00 0.00 0.00 0.00 0.00 0.00 0.00 0.00 0.00 0.00 0.00 0.00 0.00 0.00 0.00 0.00
0.05 0.08 0.04 0.06 0.07 0.10 0.08 0.06 0.12 0.07 0.05 0.03 0.07 0.14 0.35 0.39 0.09 0.10 0.05 0.05 0.15 0.09 0.03 0.03 0.02 0.02 0.01 0.00 0.00 0.00 0.00 0.00 0.00 0.00 0.00 0.00 0.00 0.00 0.00 0.00 0.00 0.00 0.00 0.00 0.00
0.09 0.11 0.07 0.09 0.10 0.09 0.06 0.10 0.13 0.11 0.15 0.04 0.12 0.16 0.25 0.24 0.04 0.07 0.05 0.01 0.07 0.08 0.04 0.03 0.01 0.01 0.01 0.00 0.00 0.00 0.00 0.00 0.00 0.00 0.00 0.00 0.00 0.00 0.00 0.00 0.00 0.00 0.00 0.00 0.00
0.14 0.15 0.15 0.17 0.10 0.08 0.05 0.09 0.15 0.10 0.07 0.06 0.21 0.17 0.15 0.07 0.06 0.10 0.04 0.03 0.05 0.07 0.02 0.03 0.00 0.02 0.01 0.00 0.00 0.00 0.00 0.00 0.00 0.00 0.00 0.00 0.00 0.00 0.00 0.00 0.00 0.00 0.00 0.00 0.00
0.17 0.18 0.17 0.18 0.07 0.04 0.05 0.12 0.21 0.25 0.26 0.14 0.23 0.18 0.08 0.02 0.06 0.11 0.09 0.13 0.20 0.30 0.12 0.13 0.01 0.02 0.01 0.00 0.00 0.00 0.00 0.00 0.00 0.00 0.00 0.00 0.00 0.00 0.00 0.00 0.00 0.00 0.00 0.00 0.00
0.21 0.19 0.15 0.14 0.09 0.03 0.08 0.05 0.12 0.14 0.27 0.11 0.14 0.15 0.10 0.06 0.05 0.07 0.10 0.22 0.24 0.39 0.40 0.53 0.26 0.08 0.01 0.00 0.00 0.00 0.00 0.00 0.00 0.00 0.00 0.00 0.00 0.00 0.00 0.00 0.00 0.00 0.00 0.00 0.00
0.21 0.16 0.12 0.12 0.13 0.10 0.17 0.08 0.04 0.01 0.02 0.06 0.07 0.10 0.04 0.07 0.06 0.10 0.09 0.29 0.21 0.33 0.57 0.56 0.42 0.15 0.04 0.00 0.00 0.00 0.00 0.00 0.00 0.00 0.00 0.00 0.00 0.00 0.00 0.00 0.00 0.00 0.00 0.00 0.00
0.15 0.13 0.13 0.15 0.18 0.04 0.03 0.00 0.01 0.03 0.06 0.02 0.01 0.09 0.15 0.21 0.16 0.16 0.14 0.36 0.38 0.38 0.52 0.41 0.28 0.07 0.01 0.00 0.00 0.00 0.00 0.00 0.00 0.00 0.00 0.00 0.00 0.00 0.00 0.00 0.00 0.00 0.00 0.00 0.00
0.10 0.12 0.15 0.17 0.13 0.05 0.00 0.00 0.01 0.02 0.01 0.00 0.00 0.11 0.09 0.14 0.32 0.18 0.25 0.67 0.31 0.32 0.64 0.56 0.22 0.02 0.01 0.00 0.00 0.00 0.00 0.00 0.00 0.00 0.00 0.00 0.00 0.00 0.00 0.00 0.00 0.00 0.00 0.00 0.00
0.11 0.11 0.14 0.17 0.07 0.01 0.00 0.00 0.00 0.00 0.01 0.00 0.02 0.17 0.25 0.10 0.27 0.08 0.39 0.67 0.38 0.34 0.48 0.55 0.21 0.05 0.06 0.03 0.02 0.01 0.00 0.00 0.00 0.00 0.00 0.00 0.00 0.00 0.00 0.00 0.00 0.00 0.00 0.00 0.00
0.06 0.07 0.09 0.13 0.03 0.00 0.01 0.01 0.00 0.00 0.04 0.06 0.17 0.37 0.25 0.20 0.38 0.08 0.64 0.60 0.53 0.45 0.40 0.53 0.36 0.16 0.10 0.09 0.04 0.02 0.00 0.00 0.00 0.00 0.00 0.00 0.00 0.00 0.00 0.00 0.00 0.00 0.00 0.00 0.00
0.02 0.03 0.03 0.07 0.01 0.02 0.02 0.00 0.00 0.01 0.19 0.15 0.29 0.38 0.40 0.17 0.27 0.21 0.63 0.43 0.31 0.29 0.37 0.36 0.34 0.31 0.14 0.09 0.06 0.03 0.00 0.00 0.00 0.00 0.00 0.00 0.00 0.00 0.00 0.00 0.00 0.00 0.00 0.00 0.00
0.01 0.03 0.00 0.00 0.00 0.00 0.00 0.00 0.00 0.04 0.20 0.22 0.32 0.49 0.16 0.19 0.12 0.30 0.52 0.24 0.22 0.16 0.25 0.25 0.27 0.35 0.18 0.12 0.06 0.02 0.00 0.00 0.00 0.00 0.00 0.00 0.00 0.00 0.00 0.00 0.00 0.00 0.00 0.00 0.00
0.00 0.00 0.00 0.00 0.00 0.00 0.00 0.00 0.01 0.06 0.12 0.21 0.39 0.18 0.11 0.13 0.12 0.26 0.48 0.24 0.23 0.21 0.22 0.33 0.35 0.23 0.18 0.17 0.09 0.01 0.02 0.03 0.01 0.00 0.00 0.00 0.00 0.00 0.00 0.00 0.00 0.00 0.00 0.00 0.00
0.00 0.00 0.00 0.00 0.00 0.00 0.01 0.01 0.06 0.09 0.20 0.32 0.17 0.07 0.07 0.06 0.04 0.14 0.21 0.05 0.02 0.01 0.05 0.28 0.35 0.25 0.16 0.12 0.07 0.01 0.02 0.02 0.00 0.00 0.00 0.00 0.00 0.00 0.00 0.00 0.00 0.00 0.00 0.00 0.00
0.00 0.00 0.00 0.00 0.00 0.00 0.02 0.03 0.10 0.18 0.27 0.21 0.03 0.03 0.04 0.01 0.03 0.19 0.15 0.02 0.00 0.00 0.01 0.03 0.07 0.05 0.08 0.07 0.05 0.02 0.02 0.00 0.00 0.00 0.00 0.00 0.00 0.00 0.00 0.00 0.00 0.00 0.00 0.00 0.00
0.00 0.00 0.00 0.00 0.00 0.00 0.00 0.05 0.04 0.03 0.02 0.00 0.03 0.01 0.01 0.00 0.03 0.02 0.06 0.01 0.00 0.00 0.00 0.00 0.01 0.00 0.00 0.00 0.00 0.00 0.00 0.01 0.00 0.00 0.00 0.00 0.00 0.00 0.00 0.00 0.00 0.00 0.00 0.00 0.00
0.00 0.00 0.00 0.00 0.00 0.00 0.00 0.00 0.00 0.00 0.00 0.00 0.00 0.00 0.00 0.00 0.00 0.00 0.00 0.00 0.00 0.00 0.00 0.00 0.00 0.00 0.00 0.00 0.00 0.00 0.00 0.00 0.00 0.00 0.00 0.00 0.00 0.00 0.00 0.00 0.00 0.00 0.00 0.00 0.00
0.00 0.00 0.00 0.00 0.00 0.00 0.00 0.00 0.00 0.00 0.00 0.00 0.00 0.00 0.00 0.00 0.00 0.00 0.00 0.00 0.00 0.00 0.00 0.00 0.00 0.00 0.00 0.00 0.00 0.00 0.00 0.00 0.00 0.00 0.00 0.00 0.00 0.00 0.00 0.00 0.00 0.00 0.00 0.00 0.00
0.00 0.00 0.00 0.00 0.00 0.00 0.00 0.00 0.00 0.00 0.00 0.00 0.00 0.00 0.00 0.00 0.00 0.00 0.00 0.00 0.00 0.00 0.00 0.00 0.00 0.00 0.00 0.00 0.00 0.00 0.00 0.00 0.00 0.00 0.00 0.00 0.00 0.00 0.00 0.00 0.00 0.00 0.00 0.00 0.00
0.00 0.00 0.00 0.00 0.00 0.00 0.00 0.00 0.00 0.00 0.00 0.00 0.00 0.00 0.00 0.00 0.00 0.00 0.00 0.00 0.00 0.00 0.00 0.00 0.00 0.00 0.00 0.00 0.00 0.00 0.00 0.00 0.00 0.00 0.00 0.00 0.00 0.00 0.00 0.00 0.00 0.00 0.00 0.00 0.00
0.00 0.00 0.00 0.00 0.00 0.00 0.00 0.00 0.00 0.00 0.00 0.00 0.00 0.00 0.00 0.00 0.00 0.00 0.00 0.00 0.00 0.00 0.00 0.00 0.00 0.00 0.00 0.00 0.00 0.00 0.00 0.00 0.00 0.00 0.00 0.00 0.00 0.00 0.00 0.00 0.00 0.00 0.00 0.00 0.00
0.00 0.01 0.00 0.00 0.00 0.00 0.00 0.00 0.00 0.00 0.00 0.00 0.00 0.00 0.00 0.00 0.00 0.00 0.00 0.00 0.00 0.00 0.00 0.00 0.00 0.00 0.00 0.00 0.00 0.00 0.00 0.00 0.00 0.00 0.00 0.00 0.00 0.00 0.00 0.00 0.00 0.00 0.00 0.00 0.00
0.00 0.00 0.01 0.00 0.00 0.00 0.00 0.00 0.00 0.00 0.00 0.00 0.00 0.00 0.00 0.00 0.00 0.00 0.00 0.00 0.00 0.00 0.00 0.00 0.00 0.00 0.00 0.00 0.00 0.00 0.00 0.00 0.00 0.00 0.00 0.00 0.00 0.00 0.00 0.00 0.00 0.00 0.00 0.00 0.00

GFSSW_prec_precacc12_054.txt.gz
Total_Precipitation_Accumulation
0.02 0.03 0.05 0.05 0.04 0.04 0.04 0.05 0.07 0.07 0.08 0.07 0.05 0.06 0.09 0.10 0.09 0.08 0.06 0.02 0.01 0.01 0.01 0.00 0.01 0.02 0.00 0.00 0.00 0.00 0.06 0.11 0.00 0.00 0.00 0.00 0.00 0.00 0.00 0.00 0.00 0.00 0.00 0.00 0.00
0.03 0.05 0.06 0.04 0.03 0.04 0.05 0.05 0.06 0.05 0.06 0.07 0.06 0.07 0.07 0.13 0.11 0.02 0.02 0.04 0.04 0.02 0.01 0.00 0.02 0.03 0.00 0.00 0.00 0.00 0.00 0.01 0.00 0.00 0.00 0.00 0.00 0.00 0.00 0.00 0.00 0.00 0.00 0.00 0.00
0.04 0.05 0.05 0.06 0.05 0.04 0.04 0.05 0.05 0.04 0.05 0.05 0.03 0.07 0.09 0.07 0.10 0.01 0.00 0.00 0.07 0.06 0.00 0.00 0.03 0.04 0.00 0.00 0.00 0.00 0.00 0.00 0.00 0.00 0.00 0.00 0.00 0.00 0.00 0.00 0.00 0.00 0.00 0.00 0.00
0.03 0.05 0.08 0.07 0.09 0.08 0.06 0.04 0.05 0.07 0.06 0.07 0.05 0.11 0.11 0.16 0.12 0.04 0.01 0.01 0.07 0.08 0.03 0.02 0.03 0.04 0.01 0.00 0.00 0.00 0.00 0.00 0.00 0.00 0.00 0.00 0.00 0.00 0.00 0.00 0.00 0.00 0.00 0.00 0.00
0.04 0.11 0.09 0.11 0.12 0.11 0.08 0.05 0.10 0.07 0.06 0.04 0.10 0.20 0.13 0.15 0.07 0.10 0.08 0.08 0.22 0.17 0.03 0.02 0.02 0.03 0.01 0.00 0.00 0.00 0.00 0.00 0.00 0.00 0.00 0.00 0.00 0.00 0.00 0.00 0.00 0.00 0.00 0.00 0.00
0.10 0.15 0.12 0.15 0.15 0.11 0.05 0.07 0.11 0.11 0.21 0.08 0.20 0.18 0.17 0.13 0.02 0.07 0.08 0.14 0.19 0.13 0.05 0.02 0.00 0.01 0.01 0.00 0.00 0.00 0.00 0.00 0.00 0.00 0.00 0.00 0.00 0.00 0.00 0.00 0.00 0.00 0.00 0.00 0.00
0.16 0.17 0.17 0.21 0.11 0.05 0.04 0.05 0.11 0.09 0.09 0.05 0.23 0.15 0.12 0.03 0.04 0.11 0.06 0.07 0.20 0.09 0.04 0.03 0.00 0.03 0.02 0.01 0.00 0.00 0.00 0.00 0.00 0.00 0.00 0.00 0.00 0.00 0.00 0.00 0.00 0.00 0.00 0.00 0.00
0.18 0.18 0.16 0.21 0.09 0.03 0.03 0.04 0.12 0.16 0.22 0.09 0.18 0.19 0.07 0.01 0.03 0.11 0.14 0.09 0.15 0.26 0.09 0.12 0.01 0.03 0.05 0.02 0.00 0.00 0.00 0.00 0.00 0.00 0.00 0.00 0.00 0.00 0.00 0.00 0.00 0.00 0.00 0.00 0.00
0.19 0.18 0.15 0.17 0.11 0.05 0.05 0.02 0.10 0.09 0.21 0.10 0.12 0.15 0.08 0.05 0.03 0.08 0.18 0.18 0.22 0.37 0.36 0.44 0.26 0.11 0.04 0.03 0.01 0.00 0.00 0.00 0.00 0.00 0.00 0.00 0.00 0.00 0.00 0.00 0.00 0.00 0.00 0.00 0.00
0.18 0.15 0.12 0.12 0.14 0.07 0.06 0.01 0.01 0.00 0.02 0.05 0.08 0.09 0.04 0.07 0.07 0.13 0.17 0.27 0.28 0.35 0.51 0.55 0.45 0.20 0.08 0.03 0.01 0.00 0.00 0.00 0.00 0.00 0.00 0.00 0.00 0.00 0.00 0.00 0.00 0.00 0.00 0.00 0.00
0.15 0.13 0.12 0.15 0.18 0.03 0.01 0.01 0.03 0.08 0.08 0.06 0.03 0.08 0.16 0.23 0.24 0.27 0.29 0.37 0.51 0.33 0.20 0.31 0.30 0.08 0.01 0.00 0.00 0.00 0.00 0.00 0.00 0.00 0.00 0.00 0.00 0.00 0.00 0.00 0.00 0.00 0.00 0.00 0.00
0.09 0.11 0.13 0.17 0.12 0.02 0.01 0.00 0.00 0.03 0.04 0.00 0.00 0.02 0.09 0.14 0.42 0.36 0.35 0.79 0.63 0.34 0.43 0.31 0.20 0.01 0.01 0.00 0.00 0.00 0.00 0.00 0.00 0.00 0.00 0.00 0.00 0.00 0.00 0.00 0.00 0.00 0.00 0.00 0.00
0.06 0.07 0.08 0.15 0.06 0.02 0.01 0.00 0.00 0.00 0.03 0.01 0.02 0.10 0.24 0.26 0.48 0.30 0.61 0.80 0.52 0.33 0.46 0.45 0.16 0.04 0.03 0.02 0.00 0.00 0.00 0.00 0.00 0.00 0.00 0.00 0.00 0.00 0.00 0.00 0.00 0.00 0.00 0.00 0.00
0.03 0.04 0.02 0.06 0.02 0.00 0.01 0.01 0.00 0.00 0.08 0.08 0.19 0.38 0.29 0.70 0.69 0.24 0.84 0.62 0.52 0.44 0.40 0.53 0.39 0.17 0.09 0.04 0.01 0.01 0.00 0.00 0.00 0.00 0.00 0.00 0.00 0.00 0.00 0.00 0.00 0.00 0.00 0.00 0.00
0.01 0.00 0.00 0.01 0.00 0.01 0.01 0.00 0.00 0.01 0.25 0.17 0.32 0.41 0.55 0.40 0.34 0.37 0.70 0.43 0.30 0.30 0.37 0.39 0.39 0.38 0.16 0.09 0.02 0.02 0.00 0.00 0.00 0.00 0.00 0.00 0.00 0.00 0.00 0.00 0.00 0.00 0.00 0.00 0.00
0.01 0.00 0.00 0.00 0.00 0.00 0.00 0.00 0.00 0.04 0.24 0.26 0.32 0.44 0.16 0.21 0.14 0.35 0.58 0.26 0.22 0.13 0.27 0.32 0.29 0.46 0.25 0.16 0.06 0.02 0.00 0.00 0.00 0.00 0.00 0.00 0.00 0.00 0.00 0.00 0.00 0.00 0.00 0.00 0.00
0.00 0.00 0.00 0.00 0.00 0.00 0.00 0.00 0.00 0.04 0.10 0.20 0.36 0.21 0.19 0.20 0.28 0.41 0.50 0.28 0.22 0.20 0.19 0.43 0.46 0.30 0.20 0.19 0.10 0.01 0.03 0.04 0.02 0.01 0.00 0.00 0.00 0.00 0.00 0.00 0.00 0.00 0.00 0.00 0.00
0.00 0.00 0.00 0.00 0.00 0.00 0.00 0.00 0.02 0.05 0.08 0.17 0.15 0.07 0.08 0.10 0.13 0.23 0.37 0.15 0.05 0.03 0.10 0.36 0.52 0.37 0.21 0.12 0.08 0.01 0.02 0.03 0.01 0.00 0.00 0.00 0.00 0.00 0.00 0.00 0.00 0.00 0.00 0.00 0.00
0.00 0.00 0.00 0.00 0.00 0.00 0.01 0.00 0.02 0.02 0.06 0.09 0.02 0.02 0.02 0.01 0.01 0.15 0.18 0.05 0.03 0.02 0.09 0.10 0.14 0.15 0.15 0.10 0.07 0.02 0.02 0.00 0.00 0.00 0.00 0.00 0.00 0.00 0.00 0.00 0.00 0.00 0.00 0.00 0.00
0.00 0.00 0.00 0.00 0.00 0.00 0.00 0.01 0.01 0.01 0.00 0.00 0.01 0.00 0.00 0.00 0.01 0.02 0.06 0.01 0.00 0.00 0.01 0.00 0.03 0.07 0.08 0.09 0.08 0.01 0.00 0.02 0.00 0.00 0.00 0.00 0.00 0.00 0.00 0.00 0.00 0.00 0.00 0.00 0.00
0.00 0.00 0.00 0.00 0.00 0.00 0.00 0.00 0.00 0.00 0.00 0.00 0.00 0.00 0.00 0.00 0.00 0.00 0.00 0.00 0.00 0.00 0.00 0.00 0.00 0.02 0.02 0.02 0.04 0.02 0.00 0.00 0.01 0.00 0.00 0.00 0.00 0.00 0.00 0.00 0.00 0.00 0.00 0.00 0.00
0.00 0.00 0.00 0.00 0.00 0.00 0.00 0.00 0.00 0.00 0.00 0.00 0.00 0.00 0.00 0.00 0.00 0.00 0.00 0.00 0.00 0.00 0.00 0.00 0.00 0.00 0.00 0.00 0.00 0.00 0.00 0.00 0.01 0.00 0.00 0.00 0.00 0.00 0.00 0.00 0.00 0.00 0.00 0.00 0.00
0.00 0.00 0.00 0.00 0.01 0.00 0.00 0.00 0.00 0.00 0.00 0.00 0.00 0.00 0.00 0.00 0.00 0.00 0.00 0.00 0.00 0.00 0.00 0.00 0.00 0.00 0.00 0.00 0.00 0.00 0.00 0.00 0.00 0.00 0.00 0.00 0.00 0.00 0.00 0.00 0.00 0.00 0.00 0.00 0.00
0.00 0.00 0.00 0.00 0.00 0.00 0.00 0.00 0.00 0.00 0.00 0.00 0.00 0.00 0.00 0.00 0.00 0.00 0.00 0.00 0.00 0.00 0.00 0.00 0.00 0.00 0.00 0.00 0.00 0.00 0.00 0.00 0.00 0.00 0.00 0.00 0.00 0.00 0.00 0.00 0.00 0.00 0.00 0.00 0.00
0.00 0.00 0.00 0.00 0.00 0.00 0.00 0.00 0.00 0.00 0.00 0.00 0.00 0.00 0.00 0.00 0.00 0.00 0.00 0.00 0.00 0.00 0.00 0.00 0.00 0.00 0.00 0.00 0.00 0.00 0.00 0.00 0.00 0.00 0.00 0.00 0.00 0.00 0.00 0.00 0.00 0.00 0.00 0.00 0.00
0.00 0.00 0.00 0.00 0.00 0.00 0.00 0.00 0.00 0.00 0.00 0.00 0.00 0.00 0.00 0.00 0.00 0.00 0.00 0.00 0.00 0.00 0.00 0.00 0.00 0.00 0.00 0.00 0.00 0.00 0.00 0.00 0.00 0.00 0.00 0.00 0.00 0.00 0.00 0.00 0.00 0.00 0.00 0.00 0.00
0.00 0.00 0.01 0.00 0.00 0.00 0.00 0.00 0.00 0.00 0.00 0.00 0.00 0.00 0.00 0.00 0.00 0.00 0.00 0.00 0.00 0.00 0.00 0.00 0.00 0.00 0.00 0.00 0.00 0.00 0.00 0.00 0.00 0.00 0.00 0.00 0.00 0.00 0.00 0.00 0.00 0.00 0.00 0.00 0.00

GFSSW_prec_precacc12_057.txt.gz
Total_Precipitation_Accumulation
0.02 0.03 0.04 0.06 0.04 0.03 0.03 0.03 0.04 0.06 0.08 0.07 0.06 0.07 0.07 0.07 0.04 0.06 0.06 0.02 0.03 0.02 0.00 0.00 0.00 0.01 0.00 0.00 0.02 0.02 0.12 0.23 0.06 0.01 0.00 0.00 0.00 0.00 0.00 0.00 0.00 0.00 0.00 0.00 0.01
0.02 0.04 0.06 0.05 0.05 0.04 0.05 0.03 0.04 0.05 0.06 0.07 0.06 0.08 0.08 0.07 0.02 0.01 0.02 0.04 0.09 0.13 0.01 0.00 0.01 0.03 0.02 0.02 0.02 0.07 0.12 0.06 0.02 0.00 0.00 0.01 0.00 0.00 0.00 0.00 0.00 0.00 0.00 0.00 0.00
0.03 0.04 0.06 0.09 0.08 0.08 0.09 0.06 0.06 0.05 0.05 0.04 0.03 0.08 0.14 0.09 0.03 0.00 0.00 0.00 0.08 0.16 0.05 0.00 0.03 0.04 0.03 0.02 0.01 0.00 0.02 0.00 0.01 0.01 0.01 0.01 0.00 0.00 0.00 0.00 0.00 0.00 0.00 0.00 0.00
0.03 0.06 0.10 0.11 0.12 0.16 0.14 0.10 0.05 0.06 0.04 0.06 0.05 0.13 0.15 0.13 0.06 0.04 0.00 0.01 0.07 0.16 0.11 0.03 0.02 0.05 0.01 0.00 0.00 0.00 0.00 0.00 0.02 0.02 0.02 0.00 0.00 0.00 0.00 0.00 0.00 0.00 0.00 0.00 0.00
0.04 0.11 0.11 0.13 0.14 0.17 0.18 0.08 0.07 0.06 0.04 0.04 0.11 0.28 0.15 0.10 0.02 0.06 0.07 0.08 0.25 0.32 0.06 0.02 0.01 0.03 0.01 0.00 0.00 0.00 0.00 0.00 0.00 0.00 0.00 0.00 0.00 0.00 0.00 0.00 0.00 0.00 0.00 0.00 0.00
0.09 0.14 0.12 0.15 0.16 0.17 0.07 0.05 0.06 0.09 0.20 0.08 0.20 0.19 0.15 0.08 0.01 0.03 0.08 0.15 0.24 0.34 0.10 0.01 0.00 0.01 0.01 0.00 0.00 0.00 0.00 0.00 0.00 0.00 0.00 0.00 0.00 0.00 0.00 0.00 0.00 0.00 0.00 0.00 0.00
0.14 0.15 0.14 0.20 0.12 0.07 0.01 0.02 0.06 0.07 0.08 0.05 0.19 0.11 0.08 0.01 0.06 0.12 0.06 0.11 0.27 0.26 0.10 0.01 0.00 0.03 0.03 0.02 0.00 0.00 0.01 0.00 0.00 0.00 0.00 0.00 0.00 0.00 0.00 0.00 0.00 0.00 0.00 0.00 0.00
0.15 0.15 0.14 0.22 0.11 0.03 0.00 0.03 0.08 0.08 0.12 0.07 0.12 0.14 0.06 0.00 0.04 0.10 0.13 0.08 0.19 0.33 0.12 0.09 0.01 0.04 0.08 0.03 0.00 0.00 0.00 0.00 0.00 0.00 0.00 0.00 0.00 0.00 0.00 0.00 0.00 0.00 0.00 0.00 0.00
0.15 0.14 0.14 0.17 0.12 0.05 0.00 0.01 0.05 0.05 0.11 0.05 0.09 0.16 0.07 0.05 0.02 0.06 0.16 0.15 0.23 0.39 0.34 0.31 0.23 0.10 0.07 0.05 0.03 0.02 0.00 0.00 0.00 0.00 0.00 0.00 0.00 0.00 0.00 0.00 0.00 0.00 0.00 0.00 0.00
0.14 0.11 0.10 0.12 0.15 0.06 0.00 0.00 0.00 0.00 0.02 0.04 0.10 0.11 0.05 0.10 0.07 0.12 0.21 0.26 0.31 0.41 0.58 0.57 0.44 0.21 0.09 0.04 0.02 0.00 0.00 0.00 0.00 0.00 0.00 0.00 0.00 0.00 0.00 0.00 0.00 0.00 0.00 0.00 0.00
0.09 0.06 0.05 0.10 0.17 0.02 0.01 0.01 0.03 0.10 0.09 0.09 0.05 0.08 0.13 0.21 0.26 0.30 0.38 0.31 0.51 0.59 0.32 0.33 0.29 0.08 0.01 0.00 0.00 0.00 0.00 0.00 0.00 0.00 0.00 0.00 0.00 0.00 0.00 0.00 0.00 0.00 0.00 0.00 0.00
0.05 0.04 0.02 0.05 0.10 0.00 0.01 0.00 0.00 0.03 0.04 0.01 0.00 0.00 0.07 0.13 0.43 0.54 0.63 0.75 0.57 0.58 0.20 0.19 0.19 0.01 0.01 0.00 0.00 0.00 0.00 0.00 0.00 0.00 0.00 0.00 0.00 0.00 0.00 0.00 0.00 0.00 0.00 0.00 0.00
0.02 0.02 0.01 0.03 0.02 0.01 0.01 0.00 0.00 0.00 0.03 0.02 0.01 0.06 0.22 0.24 0.43 0.55 0.80 0.87 0.61 0.25 0.09 0.05 0.06 0.02 0.02 0.01 0.00 0.00 0.00 0.00 0.00 0.00 0.00 0.00 0.00 0.00 0.00 0.00 0.00 0.00 0.00 0.00 0.00
0.01 0.01 0.00 0.01 0.00 0.00 0.01 0.01 0.00 0.00 0.08 0.09 0.16 0.36 0.28 0.70 0.62 0.33 1.03 0.90 0.71 0.31 0.25 0.24 0.16 0.09 0.04 0.02 0.00 0.00 0.00 0.00 0.00 0.00 0.00 0.00 0.00 0.00 0.00 0.00 0.00 0.00 0.00 0.00 0.00
0.01 0.00 0.00 0.00 0.00 0.00 0.00 0.00 0.00 0.01 0.22 0.14 0.21 0.31 0.59 0.63 0.34 0.42 0.82 0.62 0.38 0.30 0.36 0.37 0.32 0.31 0.11 0.06 0.01 0.01 0.00 0.00 0.00 0.00 0.00 0.00 0.00 0.00 0.00 0.00 0.00 0.00 0.00 0.00 0.00
0.01 0.00 0.00 0.00 0.00 0.00 0.00 0.00 0.00 0.04 0.27 0.32 0.59 0.71 0.43 0.33 0.19 0.52 0.61 0.28 0.21 0.12 0.26 0.32 0.28 0.43 0.22 0.17 0.04 0.01 0.00 0.00 0.00 0.00 0.00 0.00 0.00 0.00 0.00 0.00 0.00 0.00 0.00 0.00 0.00
0.00 0.00 0.00 0.00 0.00 0.00 0.00 0.00 0.00 0.04 0.11 0.28 0.42 0.22 0.21 0.21 0.28 0.42 0.40 0.28 0.21 0.18 0.16 0.40 0.47 0.31 0.25 0.24 0.10 0.01 0.03 0.04 0.02 0.01 0.00 0.00 0.00 0.00 0.00 0.00 0.00 0.00 0.00 0.00 0.00
0.00 0.00 0.00 0.00 0.00 0.00 0.00 0.00 0.01 0.04 0.05 0.08 0.06 0.05 0.07 0.12 0.24 0.29 0.30 0.15 0.05 0.03 0.09 0.36 0.60 0.42 0.28 0.20 0.13 0.01 0.02 0.03 0.01 0.00 0.00 0.00 0.00 0.00 0.00 0.00 0.00 0.00 0.00 0.00 0.00
0.00 0.00 0.00 0.00 0.00 0.00 0.01 0.00 0.00 0.00 0.01 0.02 0.01 0.01 0.01 0.01 0.07 0.19 0.09 0.04 0.04 0.02 0.09 0.12 0.16 0.20 0.19 0.12 0.09 0.03 0.02 0.00 0.00 0.00 0.00 0.00 0.00 0.00 0.00 0.00 0.00 0.00 0.00 0.00 0.00
0.00 0.00 0.00 0.00 0.00 0.00 0.00 0.01 0.00 0.00 0.00 0.00 0.00 0.00 0.00 0.00 0.00 0.00 0.04 0.01 0.00 0.00 0.01 0.01 0.04 0.08 0.13 0.13 0.09 0.01 0.00 0.02 0.00 0.00 0.00 0.00 0.00 0.00 0.00 0.00 0.00 0.00 0.00 0.00 0.00
0.00 0.00 0.00 0.00 0.00 0.00 0.00 0.00 0.00 0.00 0.00 0.00 0.00 0.00 0.00 0.00 0.00 0.00 0.00 0.00 0.00 0.00 0.00 0.00 0.01 0.04 0.06 0.11 0.06 0.02 0.00 0.00 0.01 0.00 0.00 0.00 0.00 0.00 0.00 0.00 0.00 0.00 0.00 0.00 0.00
0.00 0.00 0.00 0.00 0.00 0.00 0.00 0.00 0.00 0.00 0.00 0.00 0.00 0.00 0.00 0.00 0.00 0.00 0.00 0.00 0.00 0.00 0.00 0.00 0.00 0.01 0.01 0.00 0.00 0.00 0.00 0.00 0.01 0.01 0.00 0.00 0.00 0.00 0.00 0.00 0.00 0.00 0.00 0.00 0.00
0.00 0.00 0.00 0.00 0.01 0.00 0.00 0.00 0.00 0.00 0.00 0.00 0.00 0.00 0.00 0.00 0.00 0.00 0.00 0.00 0.00 0.00 0.00 0.00 0.00 0.00 0.00 0.00 0.00 0.00 0.00 0.00 0.00 0.00 0.00 0.00 0.00 0.00 0.00 0.00 0.00 0.00 0.00 0.00 0.00
0.00 0.00 0.00 0.00 0.00 0.00 0.00 0.00 0.00 0.00 0.00 0.00 0.00 0.00 0.00 0.00 0.00 0.00 0.00 0.00 0.00 0.00 0.00 0.00 0.00 0.00 0.00 0.00 0.00 0.00 0.00 0.00 0.00 0.00 0.00 0.00 0.00 0.00 0.00 0.00 0.00 0.00 0.00 0.00 0.00
0.00 0.00 0.00 0.00 0.00 0.00 0.00 0.00 0.00 0.00 0.00 0.00 0.00 0.00 0.00 0.00 0.00 0.00 0.00 0.00 0.00 0.00 0.00 0.00 0.00 0.00 0.00 0.00 0.00 0.00 0.00 0.00 0.00 0.00 0.00 0.00 0.00 0.00 0.00 0.00 0.00 0.00 0.00 0.00 0.00
0.00 0.00 0.00 0.00 0.00 0.00 0.00 0.00 0.00 0.00 0.00 0.00 0.00 0.00 0.00 0.00 0.00 0.00 0.00 0.00 0.00 0.00 0.00 0.00 0.00 0.00 0.00 0.00 0.00 0.00 0.00 0.00 0.00 0.00 0.00 0.00 0.00 0.00 0.00 0.00 0.00 0.00 0.00 0.00 0.00
0.00 0.00 0.01 0.00 0.00 0.00 0.00 0.00 0.00 0.00 0.00 0.00 0.00 0.00 0.00 0.00 0.00 0.00 0.00 0.00 0.00 0.00 0.00 0.00 0.00 0.00 0.00 0.00 0.00 0.00 0.00 0.00 0.00 0.00 0.00 0.00 0.00 0.00 0.00 0.00 0.00 0.00 0.00 0.00 0.00

GFSSW_prec_precacc12_060.txt.gz
Total_Precipitation_Accumulation
0.03 0.02 0.04 0.06 0.05 0.05 0.05 0.05 0.05 0.04 0.03 0.05 0.06 0.07 0.07 0.07 0.07 0.04 0.04 0.02 0.03 0.03 0.01 0.00 0.00 0.01 0.01 0.02 0.08 0.07 0.13 0.23 0.07 0.01 0.00 0.00 0.00 0.00 0.00 0.00 0.00 0.00 0.00 0.00 0.01
0.02 0.03 0.06 0.07 0.08 0.06 0.08 0.09 0.13 0.10 0.04 0.05 0.06 0.08 0.09 0.10 0.04 0.01 0.01 0.04 0.09 0.21 0.06 0.00 0.00 0.01 0.02 0.06 0.08 0.18 0.20 0.06 0.02 0.01 0.01 0.02 0.00 0.00 0.00 0.00 0.00 0.00 0.00 0.00 0.01
0.03 0.05 0.08 0.09 0.09 0.11 0.13 0.17 0.20 0.14 0.06 0.05 0.03 0.08 0.14 0.12 0.05 0.00 0.00 0.00 0.08 0.22 0.14 0.00 0.01 0.03 0.05 0.05 0.03 0.04 0.11 0.00 0.01 0.02 0.12 0.07 0.00 0.00 0.00 0.00 0.00 0.00 0.00 0.00 0.00
0.03 0.06 0.10 0.10 0.12 0.18 0.17 0.21 0.14 0.09 0.07 0.04 0.03 0.12 0.17 0.14 0.05 0.03 0.00 0.01 0.08 0.20 0.24 0.03 0.01 0.04 0.02 0.01 0.00 0.00 0.00 0.00 0.02 0.04 0.14 0.09 0.02 0.00 0.00 0.00 0.00 0.00 0.00 0.00 0.00
0.04 0.10 0.10 0.11 0.13 0.18 0.20 0.09 0.06 0.06 0.03 0.03 0.08 0.26 0.15 0.09 0.02 0.06 0.06 0.07 0.22 0.32 0.17 0.02 0.00 0.01 0.00 0.00 0.00 0.00 0.00 0.00 0.01 0.01 0.03 0.09 0.06 0.00 0.00 0.00 0.00 0.00 0.00 0.00 0.00
0.10 0.13 0.11 0.13 0.15 0.17 0.05 0.01 0.03 0.06 0.16 0.08 0.18 0.15 0.13 0.06 0.00 0.01 0.06 0.15 0.24 0.36 0.17 0.01 0.00 0.01 0.01 0.00 0.00 0.00 0.00 0.01 0.02 0.00 0.01 0.04 0.04 0.01 0.00 0.00 0.00 0.00 0.00 0.00 0.00
0.13 0.13 0.12 0.18 0.11 0.06 0.00 0.00 0.03 0.05 0.08 0.02 0.14 0.07 0.08 0.01 0.05 0.09 0.06 0.11 0.27 0.34 0.16 0.02 0.00 0.03 0.03 0.02 0.00 0.00 0.03 0.01 0.00 0.00 0.00 0.00 0.00 0.01 0.00 0.00 0.00 0.00 0.00 0.00 0.00
0.11 0.10 0.08 0.19 0.10 0.03 0.00 0.00 0.03 0.04 0.08 0.05 0.06 0.11 0.05 0.00 0.03 0.08 0.13 0.07 0.19 0.50 0.24 0.13 0.01 0.06 0.08 0.03 0.01 0.00 0.03 0.01 0.00 0.00 0.00 0.00 0.00 0.00 0.00 0.00 0.00 0.00 0.00 0.00 0.00
0.09 0.06 0.06 0.12 0.12 0.04 0.00 0.00 0.01 0.01 0.04 0.01 0.05 0.13 0.06 0.05 0.01 0.03 0.14 0.14 0.27 0.55 0.42 0.23 0.20 0.08 0.07 0.05 0.04 0.03 0.01 0.00 0.00 0.00 0.00 0.00 0.00 0.00 0.00 0.00 0.00 0.00 0.00 0.00 0.00
0.06 0.04 0.03 0.03 0.10 0.05 0.00 0.00 0.00 0.00 0.02 0.01 0.09 0.12 0.07 0.10 0.07 0.12 0.21 0.22 0.39 0.64 0.72 0.60 0.36 0.17 0.08 0.04 0.03 0.00 0.00 0.00 0.00 0.00 0.00 0.00 0.00 0.00 0.00 0.00 0.00 0.00 0.00 0.00 0.00
0.05 0.03 0.01 0.01 0.06 0.01 0.00 0.01 0.03 0.10 0.08 0.09 0.05 0.10 0.09 0.11 0.28 0.31 0.39 0.32 0.57 0.87 0.61 0.33 0.21 0.06 0.01 0.00 0.00 0.00 0.00 0.00 0.00 0.00 0.00 0.00 0.00 0.00 0.00 0.00 0.00 0.00 0.00 0.00 0.00
0.03 0.03 0.01 0.00 0.00 0.00 0.01 0.00 0.00 0.03 0.04 0.01 0.00 0.01 0.04 0.09 0.43 0.53 0.65 0.64 0.69 0.81 0.24 0.19 0.17 0.01 0.00 0.00 0.00 0.00 0.00 0.00 0.00 0.00 0.00 0.00 0.00 0.00 0.00 0.00 0.00 0.00 0.00 0.00 0.00
0.02 0.02 0.01 0.00 0.00 0.01 0.01 0.00 0.00 0.00 0.03 0.02 0.01 0.05 0.15 0.23 0.46 0.59 0.87 0.81 0.56 0.45 0.11 0.04 0.06 0.02 0.02 0.01 0.00 0.00 0.00 0.00 0.00 0.00 0.00 0.00 0.00 0.00 0.00 0.00 0.00 0.00 0.00 0.00 0.00
0.01 0.01 0.00 0.00 0.00 0.00 0.00 0.00 0.00 0.00 0.08 0.07 0.11 0.33 0.24 0.69 0.62 0.50 1.06 0.85 0.54 0.28 0.10 0.11 0.10 0.06 0.04 0.02 0.00 0.00 0.00 0.00 0.00 0.00 0.00 0.00 0.00 0.00 0.00 0.00 0.00 0.00 0.00 0.00 0.00
0.01 0.01 0.00 0.00 0.00 0.00 0.00 0.00 0.00 0.01 0.19 0.12 0.16 0.26 0.54 0.58 0.30 0.47 0.64 0.53 0.33 0.13 0.11 0.18 0.11 0.12 0.07 0.02 0.00 0.01 0.00 0.00 0.00 0.00 0.00 0.00 0.00 0.00 0.00 0.00 0.00 0.00 0.00 0.00 0.00
0.00 0.00 0.00 0.00 0.00 0.00 0.00 0.00 0.00 0.04 0.40 0.52 0.64 0.65 0.44 0.31 0.23 0.57 0.73 0.36 0.20 0.10 0.20 0.18 0.13 0.21 0.15 0.08 0.02 0.01 0.00 0.00 0.00 0.00 0.00 0.00 0.00 0.00 0.00 0.00 0.00 0.00 0.00 0.00 0.00
0.00 0.00 0.00 0.00 0.00 0.00 0.00 0.00 0.00 0.03 0.15 0.34 0.37 0.22 0.21 0.22 0.35 0.50 0.48 0.30 0.23 0.18 0.15 0.34 0.40 0.25 0.17 0.15 0.06 0.01 0.01 0.03 0.03 0.01 0.00 0.00 0.00 0.00 0.00 0.00 0.00 0.00 0.00 0.00 0.00
0.00 0.00 0.00 0.00 0.00 0.00 0.00 0.00 0.00 0.03 0.05 0.06 0.08 0.07 0.10 0.14 0.24 0.26 0.26 0.15 0.05 0.03 0.08 0.31 0.55 0.40 0.24 0.19 0.13 0.01 0.01 0.03 0.01 0.00 0.00 0.00 0.00 0.00 0.00 0.00 0.00 0.00 0.00 0.00 0.00
0.00 0.00 0.00 0.00 0.00 0.00 0.01 0.00 0.00 0.00 0.00 0.00 0.00 0.01 0.02 0.04 0.10 0.16 0.07 0.04 0.04 0.02 0.08 0.10 0.15 0.20 0.21 0.16 0.12 0.03 0.02 0.00 0.00 0.00 0.00 0.00 0.00 0.00 0.00 0.00 0.00 0.00 0.00 0.00 0.00
0.00 0.00 0.00 0.00 0.00 0.00 0.00 0.01 0.00 0.00 0.00 0.00 0.00 0.00 0.00 0.01 0.01 0.01 0.01 0.00 0.00 0.00 0.01 0.01 0.04 0.08 0.16 0.16 0.14 0.02 0.00 0.02 0.00 0.00 0.00 0.00 0.00 0.00 0.00 0.00 0.00 0.00 0.00 0.00 0.00
0.00 0.00 0.00 0.00 0.00 0.00 0.00 0.00 0.00 0.00 0.00 0.00 0.00 0.00 0.00 0.00 0.00 0.00 0.00 0.00 0.00 0.00 0.00 0.00 0.01 0.05 0.07 0.13 0.09 0.03 0.00 0.00 0.01 0.00 0.00 0.00 0.00 0.00 0.00 0.00 0.00 0.00 0.00 0.00 0.00
0.00 0.00 0.00 0.00 0.00 0.00 0.00 0.00 0.00 0.00 0.00 0.00 0.00 0.00 0.00 0.00 0.00 0.00 0.00 0.00 0.00 0.00 0.00 0.00 0.00 0.02 0.02 0.00 0.00 0.01 0.00 0.00 0.01 0.01 0.00 0.00 0.00 0.00 0.00 0.00 0.00 0.00 0.00 0.00 0.00
0.00 0.00 0.00 0.00 0.01 0.00 0.00 0.00 0.00 0.00 0.00 0.00 0.00 0.00 0.00 0.00 0.00 0.00 0.00 0.00 0.00 0.00 0.00 0.00 0.00 0.01 0.03 0.01 0.00 0.01 0.00 0.00 0.00 0.00 0.00 0.00 0.00 0.00 0.00 0.00 0.00 0.00 0.00 0.00 0.00
0.00 0.00 0.00 0.00 0.00 0.00 0.00 0.00 0.00 0.00 0.00 0.00 0.00 0.00 0.00 0.00 0.00 0.00 0.00 0.00 0.00 0.00 0.00 0.00 0.00 0.00 0.00 0.00 0.00 0.00 0.00 0.00 0.00 0.01 0.00 0.00 0.00 0.00 0.00 0.00 0.00 0.00 0.00 0.00 0.00
0.00 0.00 0.00 0.00 0.00 0.00 0.00 0.00 0.00 0.00 0.00 0.00 0.00 0.00 0.00 0.00 0.00 0.00 0.00 0.00 0.00 0.00 0.00 0.00 0.00 0.00 0.00 0.00 0.00 0.00 0.00 0.00 0.00 0.00 0.00 0.00 0.00 0.00 0.00 0.00 0.00 0.00 0.00 0.00 0.00
0.00 0.00 0.00 0.00 0.00 0.00 0.00 0.00 0.00 0.00 0.00 0.00 0.00 0.00 0.00 0.00 0.00 0.00 0.00 0.00 0.00 0.00 0.00 0.00 0.00 0.00 0.00 0.00 0.00 0.00 0.00 0.00 0.00 0.00 0.00 0.00 0.00 0.00 0.00 0.00 0.00 0.00 0.00 0.00 0.00
0.00 0.00 0.01 0.00 0.00 0.00 0.00 0.00 0.00 0.00 0.00 0.00 0.00 0.00 0.00 0.00 0.00 0.00 0.00 0.00 0.00 0.00 0.00 0.00 0.00 0.00 0.00 0.00 0.00 0.00 0.00 0.00 0.00 0.00 0.00 0.00 0.00 0.00 0.00 0.00 0.00 0.00 0.00 0.00 0.00

GFSSW_prec_precacc12_063.txt.gz
Total_Precipitation_Accumulation
0.03 0.03 0.04 0.07 0.06 0.07 0.07 0.07 0.09 0.12 0.08 0.04 0.02 0.06 0.08 0.08 0.08 0.05 0.02 0.01 0.03 0.03 0.07 0.01 0.00 0.00 0.01 0.06 0.13 0.08 0.15 0.23 0.07 0.01 0.00 0.00 0.00 0.00 0.00 0.00 0.00 0.00 0.00 0.00 0.01
0.03 0.03 0.06 0.07 0.08 0.06 0.09 0.11 0.19 0.23 0.20 0.13 0.05 0.05 0.08 0.12 0.04 0.01 0.00 0.02 0.09 0.22 0.09 0.02 0.00 0.00 0.03 0.09 0.16 0.24 0.26 0.06 0.02 0.01 0.01 0.02 0.00 0.00 0.00 0.00 0.00 0.00 0.00 0.00 0.01
0.03 0.04 0.07 0.09 0.08 0.12 0.14 0.19 0.26 0.24 0.22 0.22 0.10 0.06 0.13 0.12 0.05 0.00 0.00 0.00 0.07 0.22 0.18 0.02 0.00 0.01 0.06 0.09 0.09 0.11 0.14 0.00 0.01 0.03 0.14 0.07 0.01 0.00 0.00 0.00 0.00 0.02 0.00 0.00 0.01
0.04 0.06 0.10 0.10 0.11 0.17 0.17 0.21 0.17 0.13 0.15 0.11 0.03 0.06 0.14 0.14 0.05 0.03 0.00 0.02 0.08 0.20 0.29 0.05 0.00 0.03 0.03 0.02 0.01 0.02 0.00 0.00 0.02 0.06 0.17 0.09 0.02 0.00 0.00 0.00 0.00 0.03 0.04 0.03 0.01
0.06 0.10 0.10 0.10 0.11 0.15 0.18 0.09 0.05 0.05 0.03 0.03 0.05 0.17 0.09 0.07 0.01 0.05 0.04 0.05 0.16 0.27 0.22 0.04 0.00 0.01 0.00 0.00 0.00 0.00 0.00 0.01 0.06 0.04 0.04 0.11 0.10 0.00 0.00 0.00 0.00 0.01 0.03 0.01 0.00
0.09 0.08 0.08 0.09 0.11 0.16 0.05 0.01 0.01 0.01 0.07 0.05 0.11 0.09 0.09 0.04 0.00 0.02 0.04 0.14 0.19 0.30 0.30 0.09 0.00 0.01 0.01 0.00 0.01 0.00 0.00 0.02 0.06 0.02 0.02 0.10 0.11 0.06 0.00 0.00 0.00 0.01 0.01 0.00 0.00
0.09 0.07 0.04 0.07 0.06 0.06 0.00 0.00 0.00 0.00 0.03 0.01 0.05 0.03 0.05 0.00 0.03 0.07 0.05 0.11 0.26 0.29 0.35 0.12 0.00 0.03 0.02 0.02 0.01 0.01 0.05 0.03 0.01 0.00 0.00 0.01 0.09 0.10 0.00 0.00 0.00 0.01 0.00 0.00 0.00
0.06 0.05 0.02 0.07 0.07 0.03 0.00 0.00 0.00 0.00 0.02 0.06 0.02 0.06 0.03 0.00 0.02 0.05 0.11 0.07 0.18 0.46 0.44 0.26 0.03 0.06 0.07 0.04 0.02 0.01 0.06 0.02 0.00 0.00 0.00 0.05 0.04 0.01 0.02 0.00 0.00 0.00 0.00 0.00 0.00
0.04 0.03 0.03 0.06 0.05 0.03 0.00 0.00 0.00 0.00 0.01 0.03 0.04 0.08 0.03 0.07 0.03 0.02 0.12 0.14 0.24 0.54 0.61 0.45 0.16 0.06 0.07 0.05 0.04 0.03 0.01 0.00 0.00 0.00 0.00 0.00 0.00 0.01 0.00 0.00 0.00 0.00 0.00 0.00 0.00
0.03 0.02 0.01 0.01 0.05 0.03 0.00 0.00 0.00 0.00 0.00 0.01 0.08 0.10 0.07 0.12 0.08 0.09 0.19 0.20 0.36 0.66 0.83 0.87 0.24 0.11 0.06 0.05 0.03 0.00 0.00 0.00 0.00 0.00 0.00 0.00 0.00 0.00 0.00 0.00 0.00 0.00 0.00 0.00 0.00
0.03 0.03 0.01 0.00 0.01 0.00 0.00 0.01 0.03 0.07 0.05 0.08 0.04 0.08 0.06 0.07 0.24 0.24 0.32 0.27 0.64 0.95 0.88 0.60 0.07 0.03 0.00 0.00 0.00 0.00 0.00 0.00 0.00 0.00 0.00 0.00 0.00 0.00 0.00 0.00 0.00 0.00 0.00 0.00 0.00
0.02 0.03 0.01 0.00 0.00 0.00 0.01 0.00 0.00 0.02 0.03 0.01 0.00 0.03 0.02 0.06 0.29 0.44 0.52 0.62 0.94 1.06 0.50 0.34 0.03 0.00 0.00 0.00 0.00 0.00 0.00 0.00 0.00 0.00 0.00 0.00 0.00 0.00 0.00 0.00 0.00 0.00 0.00 0.00 0.00
0.01 0.02 0.01 0.00 0.00 0.01 0.00 0.00 0.00 0.00 0.02 0.02 0.00 0.01 0.01 0.18 0.41 0.56 0.72 0.75 0.85 0.68 0.24 0.10 0.01 0.01 0.01 0.00 0.00 0.00 0.00 0.00 0.00 0.00 0.00 0.00 0.00 0.00 0.00 0.00 0.00 0.00 0.00 0.00 0.00
0.01 0.01 0.00 0.00 0.00 0.00 0.00 0.00 0.00 0.00 0.06 0.05 0.04 0.07 0.11 0.57 0.57 0.45 0.93 0.84 0.78 0.45 0.18 0.06 0.03 0.05 0.03 0.01 0.00 0.00 0.00 0.00 0.00 0.00 0.00 0.00 0.00 0.00 0.00 0.00 0.00 0.00 0.00 0.00 0.00
0.01 0.01 0.00 0.00 0.00 0.00 0.00 0.00 0.00 0.01 0.12 0.08 0.09 0.16 0.37 0.52 0.26 0.44 0.52 0.50 0.44 0.34 0.07 0.07 0.06 0.09 0.06 0.02 0.00 0.01 0.00 0.00 0.00 0.00 0.00 0.00 0.00 0.00 0.00 0.00 0.00 0.00 0.00 0.00 0.00
0.00 0.00 0.00 0.00 0.00 0.00 0.00 0.00 0.00 0.03 0.38 0.51 0.59 0.61 0.41 0.22 0.22 0.46 0.51 0.31 0.14 0.07 0.04 0.10 0.03 0.13 0.14 0.07 0.01 0.01 0.00 0.00 0.00 0.00 0.00 0.00 0.00 0.00 0.00 0.00 0.00 0.00 0.00 0.00 0.00
0.00 0.00 0.00 0.00 0.00 0.00 0.00 0.00 0.00 0.02 0.14 0.29 0.36 0.21 0.13 0.20 0.35 0.41 0.35 0.15 0.12 0.10 0.04 0.17 0.17 0.08 0.11 0.10 0.04 0.01 0.00 0.02 0.03 0.02 0.00 0.00 0.00 0.00 0.00 0.00 0.00 0.00 0.00 0.00 0.00
0.00 0.00 0.00 0.00 0.00 0.00 0.00 0.00 0.00 0.01 0.03 0.05 0.08 0.07 0.09 0.14 0.30 0.31 0.27 0.12 0.03 0.02 0.06 0.13 0.32 0.18 0.12 0.10 0.07 0.01 0.00 0.02 0.01 0.00 0.00 0.00 0.00 0.00 0.00 0.00 0.00 0.00 0.00 0.00 0.00
0.00 0.00 0.00 0.00 0.00 0.00 0.00 0.00 0.00 0.00 0.00 0.00 0.00 0.00 0.03 0.04 0.10 0.12 0.06 0.04 0.04 0.02 0.08 0.09 0.10 0.15 0.13 0.09 0.06 0.01 0.00 0.00 0.00 0.00 0.00 0.00 0.00 0.00 0.00 0.00 0.00 0.00 0.00 0.00 0.00
0.00 0.00 0.00 0.00 0.00 0.00 0.00 0.00 0.00 0.00 0.00 0.00 0.00 0.00 0.00 0.01 0.01 0.00 0.01 0.00 0.00 0.00 0.01 0.01 0.04 0.08 0.16 0.16 0.14 0.01 0.00 0.01 0.00 0.00 0.00 0.00 0.00 0.00 0.00 0.00 0.00 0.00 0.00 0.00 0.00
0.00 0.00 0.00 0.00 0.00 0.00 0.00 0.00 0.00 0.00 0.00 0.00 0.00 0.00 0.00 0.00 0.00 0.00 0.00 0.00 0.00 0.00 0.00 0.00 0.01 0.06 0.08 0.15 0.11 0.03 0.00 0.00 0.01 0.00 0.00 0.00 0.00 0.00 0.00 0.00 0.00 0.00 0.00 0.00 0.00
0.00 0.00 0.00 0.00 0.00 0.00 0.00 0.00 0.00 0.00 0.00 0.00 0.00 0.00 0.00 0.00 0.00 0.00 0.00 0.00 0.00 0.00 0.00 0.00 0.00 0.02 0.02 0.00 0.00 0.01 0.00 0.00 0.01 0.01 0.00 0.00 0.00 0.00 0.00 0.00 0.00 0.00 0.00 0.00 0.00
0.00 0.00 0.00 0.00 0.01 0.00 0.00 0.00 0.00 0.00 0.00 0.00 0.00 0.00 0.00 0.00 0.00 0.00 0.00 0.00 0.00 0.00 0.00 0.00 0.00 0.01 0.04 0.02 0.00 0.03 0.01 0.00 0.00 0.00 0.00 0.00 0.00 0.00 0.00 0.00 0.00 0.00 0.00 0.00 0.00
0.00 0.00 0.00 0.00 0.00 0.00 0.00 0.00 0.00 0.00 0.00 0.00 0.00 0.00 0.00 0.00 0.00 0.00 0.00 0.00 0.00 0.00 0.00 0.00 0.00 0.00 0.00 0.00 0.00 0.00 0.00 0.00 0.00 0.01 0.00 0.00 0.00 0.00 0.00 0.00 0.00 0.00 0.00 0.00 0.00
0.00 0.00 0.00 0.00 0.00 0.00 0.00 0.00 0.00 0.00 0.00 0.00 0.00 0.00 0.00 0.00 0.00 0.00 0.00 0.00 0.00 0.00 0.00 0.00 0.00 0.00 0.00 0.00 0.00 0.00 0.00 0.00 0.00 0.00 0.00 0.00 0.00 0.00 0.00 0.00 0.00 0.00 0.00 0.00 0.00
0.00 0.00 0.00 0.00 0.00 0.00 0.00 0.00 0.00 0.00 0.00 0.00 0.00 0.00 0.00 0.00 0.00 0.00 0.00 0.00 0.00 0.00 0.00 0.00 0.00 0.00 0.00 0.00 0.00 0.00 0.00 0.00 0.00 0.00 0.00 0.00 0.00 0.00 0.00 0.00 0.00 0.00 0.00 0.00 0.00
0.00 0.00 0.00 0.00 0.00 0.00 0.00 0.00 0.00 0.00 0.00 0.00 0.00 0.00 0.00 0.00 0.00 0.00 0.00 0.00 0.00 0.00 0.00 0.00 0.00 0.00 0.00 0.00 0.00 0.00 0.00 0.00 0.00 0.00 0.00 0.00 0.00 0.00 0.00 0.00 0.00 0.00 0.00 0.00 0.00

GFSSW_prec_precacc12_066.txt.gz
Total_Precipitation_Accumulation
0.04 0.03 0.04 0.05 0.06 0.06 0.06 0.07 0.10 0.14 0.15 0.17 0.11 0.08 0.07 0.08 0.08 0.05 0.01 0.01 0.02 0.03 0.12 0.04 0.00 0.00 0.01 0.09 0.18 0.15 0.14 0.13 0.07 0.01 0.00 0.00 0.00 0.00 0.00 0.00 0.00 0.00 0.00 0.00 0.01
0.03 0.04 0.05 0.06 0.08 0.06 0.08 0.10 0.19 0.25 0.31 0.27 0.22 0.15 0.10 0.11 0.04 0.01 0.00 0.00 0.05 0.21 0.10 0.04 0.00 0.00 0.04 0.14 0.23 0.36 0.40 0.06 0.02 0.01 0.01 0.02 0.00 0.00 0.00 0.00 0.01 0.02 0.02 0.01 0.01
0.04 0.05 0.07 0.08 0.07 0.10 0.13 0.17 0.26 0.27 0.24 0.27 0.30 0.20 0.10 0.10 0.04 0.00 0.00 0.00 0.04 0.19 0.19 0.04 0.02 0.01 0.06 0.13 0.14 0.20 0.23 0.01 0.00 0.02 0.14 0.07 0.01 0.00 0.00 0.00 0.00 0.03 0.07 0.07 0.01
0.05 0.07 0.08 0.06 0.07 0.14 0.14 0.19 0.16 0.13 0.15 0.14 0.12 0.12 0.12 0.12 0.04 0.02 0.00 0.03 0.11 0.22 0.30 0.08 0.03 0.02 0.02 0.03 0.02 0.04 0.03 0.00 0.02 0.06 0.17 0.09 0.02 0.00 0.00 0.00 0.00 0.03 0.09 0.12 0.12
0.07 0.08 0.04 0.04 0.05 0.10 0.15 0.07 0.04 0.04 0.01 0.01 0.01 0.10 0.05 0.04 0.01 0.05 0.00 0.04 0.18 0.26 0.22 0.08 0.02 0.00 0.00 0.00 0.02 0.00 0.00 0.02 0.08 0.06 0.04 0.12 0.10 0.01 0.00 0.00 0.00 0.01 0.04 0.04 0.07
0.07 0.06 0.02 0.03 0.05 0.09 0.03 0.00 0.00 0.00 0.01 0.01 0.02 0.03 0.03 0.01 0.00 0.02 0.02 0.02 0.07 0.25 0.28 0.13 0.02 0.01 0.01 0.00 0.02 0.00 0.01 0.06 0.14 0.04 0.03 0.11 0.11 0.06 0.00 0.00 0.00 0.01 0.03 0.01 0.03
0.06 0.04 0.01 0.03 0.03 0.03 0.00 0.00 0.00 0.00 0.00 0.00 0.00 0.01 0.01 0.00 0.02 0.05 0.03 0.05 0.10 0.26 0.33 0.16 0.01 0.02 0.01 0.02 0.03 0.02 0.08 0.11 0.10 0.08 0.03 0.03 0.16 0.11 0.00 0.00 0.00 0.01 0.02 0.01 0.00
0.04 0.04 0.02 0.02 0.02 0.00 0.00 0.00 0.00 0.00 0.01 0.07 0.03 0.01 0.01 0.00 0.02 0.03 0.04 0.04 0.11 0.34 0.43 0.35 0.06 0.06 0.04 0.03 0.03 0.03 0.09 0.05 0.03 0.07 0.05 0.10 0.09 0.02 0.03 0.00 0.00 0.00 0.00 0.00 0.00
0.03 0.03 0.02 0.01 0.01 0.00 0.00 0.00 0.00 0.00 0.01 0.05 0.05 0.05 0.02 0.09 0.04 0.01 0.01 0.10 0.20 0.45 0.54 0.70 0.31 0.04 0.07 0.04 0.04 0.04 0.02 0.00 0.00 0.01 0.01 0.02 0.00 0.02 0.03 0.01 0.00 0.00 0.00 0.00 0.00
0.02 0.02 0.01 0.01 0.01 0.00 0.00 0.00 0.00 0.00 0.00 0.01 0.06 0.08 0.06 0.13 0.09 0.06 0.09 0.18 0.31 0.62 0.87 1.27 0.45 0.06 0.03 0.02 0.01 0.00 0.00 0.00 0.00 0.00 0.00 0.00 0.00 0.00 0.01 0.02 0.00 0.00 0.00 0.00 0.00
0.01 0.01 0.01 0.00 0.00 0.00 0.00 0.00 0.00 0.01 0.01 0.03 0.02 0.06 0.04 0.07 0.18 0.18 0.21 0.25 0.50 0.96 1.11 1.09 0.23 0.01 0.00 0.00 0.00 0.00 0.00 0.00 0.00 0.00 0.00 0.00 0.00 0.00 0.00 0.02 0.01 0.00 0.00 0.00 0.00
0.01 0.01 0.01 0.00 0.00 0.00 0.00 0.00 0.00 0.00 0.00 0.01 0.01 0.02 0.02 0.06 0.19 0.26 0.41 0.51 0.70 1.07 0.73 0.73 0.07 0.00 0.00 0.00 0.00 0.00 0.00 0.00 0.00 0.00 0.00 0.00 0.00 0.00 0.00 0.00 0.00 0.00 0.00 0.00 0.00
0.01 0.01 0.01 0.00 0.00 0.00 0.00 0.00 0.00 0.00 0.00 0.01 0.01 0.00 0.00 0.01 0.13 0.33 0.49 0.61 0.71 0.77 0.42 0.27 0.01 0.00 0.01 0.00 0.00 0.00 0.00 0.00 0.00 0.00 0.00 0.00 0.00 0.00 0.00 0.00 0.00 0.00 0.00 0.00 0.00
0.01 0.01 0.01 0.00 0.00 0.00 0.00 0.00 0.00 0.00 0.01 0.03 0.01 0.04 0.05 0.06 0.16 0.29 0.72 0.78 0.81 0.47 0.31 0.23 0.01 0.00 0.01 0.01 0.00 0.00 0.00 0.00 0.00 0.00 0.00 0.00 0.00 0.00 0.00 0.00 0.00 0.00 0.00 0.00 0.00
0.00 0.01 0.00 0.00 0.00 0.00 0.00 0.00 0.00 0.00 0.06 0.04 0.03 0.05 0.15 0.29 0.15 0.28 0.45 0.53 0.58 0.44 0.25 0.14 0.01 0.00 0.01 0.01 0.00 0.00 0.00 0.00 0.00 0.00 0.00 0.00 0.00 0.00 0.00 0.00 0.00 0.00 0.00 0.00 0.00
0.00 0.00 0.00 0.00 0.00 0.00 0.00 0.00 0.00 0.01 0.27 0.39 0.47 0.44 0.32 0.17 0.19 0.44 0.45 0.37 0.35 0.13 0.05 0.02 0.01 0.01 0.06 0.03 0.01 0.01 0.00 0.00 0.00 0.00 0.00 0.00 0.00 0.00 0.00 0.00 0.00 0.00 0.00 0.00 0.00
0.00 0.00 0.00 0.00 0.00 0.00 0.00 0.00 0.00 0.01 0.11 0.25 0.23 0.09 0.04 0.13 0.20 0.26 0.27 0.19 0.36 0.17 0.15 0.06 0.04 0.02 0.09 0.08 0.03 0.01 0.00 0.01 0.03 0.02 0.00 0.00 0.00 0.00 0.00 0.00 0.00 0.00 0.00 0.00 0.00
0.00 0.00 0.00 0.00 0.00 0.00 0.00 0.00 0.00 0.00 0.03 0.04 0.06 0.05 0.07 0.11 0.23 0.21 0.10 0.03 0.02 0.00 0.02 0.05 0.15 0.06 0.07 0.10 0.07 0.01 0.00 0.00 0.00 0.00 0.00 0.00 0.00 0.00 0.00 0.00 0.00 0.00 0.00 0.00 0.00
0.00 0.00 0.00 0.00 0.00 0.00 0.00 0.00 0.00 0.00 0.00 0.00 0.00 0.00 0.03 0.04 0.10 0.10 0.03 0.01 0.00 0.00 0.01 0.01 0.04 0.05 0.07 0.06 0.05 0.02 0.00 0.00 0.00 0.00 0.00 0.00 0.00 0.00 0.00 0.00 0.00 0.00 0.00 0.00 0.00
0.00 0.00 0.00 0.00 0.00 0.00 0.00 0.00 0.00 0.00 0.00 0.00 0.00 0.00 0.00 0.01 0.01 0.00 0.01 0.00 0.00 0.00 0.00 0.01 0.01 0.01 0.07 0.07 0.07 0.00 0.00 0.01 0.00 0.00 0.00 0.00 0.00 0.00 0.00 0.00 0.00 0.00 0.00 0.00 0.00
0.00 0.00 0.00 0.00 0.00 0.00 0.00 0.00 0.00 0.00 0.00 0.00 0.00 0.00 0.00 0.00 0.00 0.00 0.00 0.00 0.00 0.00 0.00 0.00 0.00 0.03 0.06 0.12 0.07 0.01 0.00 0.00 0.00 0.00 0.00 0.00 0.00 0.00 0.00 0.00 0.00 0.00 0.00 0.00 0.00
0.00 0.00 0.00 0.00 0.00 0.00 0.00 0.00 0.00 0.00 0.00 0.00 0.00 0.00 0.00 0.00 0.00 0.00 0.00 0.00 0.00 0.00 0.00 0.00 0.00 0.02 0.02 0.00 0.00 0.01 0.00 0.00 0.00 0.00 0.00 0.00 0.00 0.00 0.00 0.00 0.00 0.00 0.00 0.00 0.00
0.00 0.00 0.00 0.00 0.00 0.00 0.00 0.00 0.00 0.00 0.00 0.00 0.00 0.00 0.00 0.00 0.00 0.00 0.00 0.00 0.00 0.00 0.00 0.00 0.00 0.01 0.05 0.02 0.00 0.04 0.02 0.00 0.00 0.00 0.00 0.00 0.00 0.00 0.00 0.00 0.00 0.00 0.00 0.00 0.00
0.00 0.00 0.00 0.00 0.00 0.00 0.00 0.00 0.00 0.00 0.00 0.00 0.00 0.00 0.00 0.00 0.00 0.00 0.00 0.00 0.00 0.00 0.00 0.00 0.00 0.00 0.00 0.00 0.00 0.00 0.00 0.00 0.00 0.02 0.00 0.00 0.00 0.00 0.00 0.00 0.00 0.00 0.00 0.00 0.00
0.00 0.00 0.00 0.00 0.00 0.00 0.00 0.00 0.00 0.00 0.00 0.00 0.00 0.00 0.00 0.00 0.00 0.00 0.00 0.00 0.00 0.00 0.00 0.00 0.00 0.00 0.00 0.00 0.00 0.00 0.00 0.00 0.00 0.00 0.00 0.00 0.00 0.00 0.00 0.00 0.00 0.00 0.00 0.00 0.00
0.00 0.00 0.00 0.00 0.00 0.00 0.00 0.00 0.00 0.00 0.00 0.00 0.00 0.00 0.00 0.00 0.00 0.00 0.00 0.00 0.00 0.00 0.00 0.00 0.00 0.00 0.00 0.00 0.00 0.00 0.00 0.00 0.00 0.00 0.00 0.00 0.00 0.00 0.00 0.00 0.00 0.00 0.00 0.00 0.00
0.00 0.00 0.00 0.00 0.00 0.00 0.00 0.00 0.00 0.00 0.00 0.00 0.00 0.00 0.00 0.00 0.00 0.00 0.00 0.00 0.00 0.00 0.00 0.00 0.00 0.00 0.00 0.00 0.00 0.00 0.00 0.00 0.00 0.00 0.00 0.00 0.00 0.00 0.00 0.00 0.00 0.00 0.00 0.00 0.00

GFSSW_prec_precacc12_069.txt.gz
Total_Precipitation_Accumulation
0.04 0.04 0.04 0.04 0.05 0.06 0.06 0.06 0.09 0.14 0.16 0.19 0.17 0.19 0.19 0.12 0.08 0.06 0.01 0.00 0.00 0.03 0.13 0.06 0.02 0.00 0.02 0.10 0.20 0.18 0.14 0.06 0.02 0.00 0.00 0.00 0.00 0.00 0.00 0.00 0.00 0.00 0.00 0.00 0.00
0.03 0.06 0.05 0.05 0.06 0.05 0.07 0.09 0.17 0.22 0.30 0.28 0.30 0.29 0.18 0.11 0.03 0.01 0.00 0.00 0.00 0.14 0.10 0.04 0.01 0.00 0.04 0.14 0.28 0.36 0.31 0.03 0.00 0.00 0.01 0.01 0.00 0.00 0.00 0.00 0.01 0.02 0.02 0.02 0.05
0.04 0.07 0.05 0.03 0.03 0.05 0.06 0.14 0.22 0.23 0.22 0.27 0.31 0.33 0.22 0.12 0.02 0.00 0.00 0.00 0.03 0.16 0.20 0.05 0.03 0.01 0.05 0.14 0.17 0.26 0.22 0.01 0.00 0.02 0.12 0.06 0.01 0.00 0.00 0.00 0.00 0.03 0.07 0.08 0.04
0.05 0.07 0.04 0.02 0.03 0.05 0.05 0.12 0.14 0.10 0.14 0.14 0.13 0.17 0.22 0.06 0.01 0.01 0.00 0.03 0.11 0.23 0.27 0.08 0.05 0.01 0.02 0.04 0.02 0.06 0.03 0.01 0.02 0.06 0.15 0.09 0.02 0.00 0.00 0.00 0.00 0.03 0.09 0.13 0.17
0.06 0.06 0.02 0.02 0.03 0.03 0.03 0.03 0.03 0.03 0.01 0.00 0.01 0.05 0.02 0.00 0.00 0.05 0.00 0.04 0.16 0.24 0.26 0.12 0.05 0.00 0.00 0.01 0.02 0.01 0.02 0.04 0.10 0.07 0.03 0.12 0.10 0.01 0.00 0.00 0.00 0.01 0.04 0.04 0.09
0.06 0.04 0.02 0.02 0.02 0.01 0.00 0.00 0.00 0.00 0.00 0.00 0.01 0.02 0.00 0.00 0.00 0.02 0.01 0.00 0.03 0.17 0.24 0.16 0.08 0.01 0.01 0.01 0.03 0.01 0.02 0.08 0.17 0.08 0.04 0.11 0.11 0.06 0.00 0.00 0.00 0.01 0.03 0.01 0.04
0.05 0.03 0.01 0.01 0.01 0.00 0.00 0.00 0.00 0.00 0.00 0.00 0.01 0.00 0.00 0.00 0.00 0.01 0.02 0.01 0.02 0.16 0.27 0.17 0.08 0.03 0.00 0.02 0.04 0.03 0.09 0.17 0.14 0.15 0.10 0.05 0.16 0.11 0.00 0.00 0.00 0.01 0.02 0.01 0.00
0.03 0.03 0.02 0.01 0.01 0.00 0.00 0.00 0.01 0.00 0.00 0.05 0.04 0.00 0.00 0.00 0.00 0.02 0.02 0.01 0.06 0.23 0.37 0.36 0.16 0.08 0.02 0.02 0.04 0.06 0.12 0.07 0.06 0.12 0.24 0.20 0.13 0.02 0.03 0.00 0.00 0.00 0.00 0.00 0.00
0.02 0.02 0.02 0.01 0.01 0.00 0.00 0.00 0.00 0.00 0.00 0.04 0.03 0.02 0.01 0.07 0.04 0.01 0.00 0.01 0.16 0.41 0.47 0.78 0.55 0.09 0.04 0.03 0.03 0.04 0.02 0.00 0.01 0.04 0.09 0.08 0.03 0.02 0.03 0.01 0.00 0.00 0.00 0.00 0.00
0.02 0.01 0.01 0.01 0.01 0.00 0.00 0.00 0.00 0.00 0.00 0.00 0.02 0.05 0.04 0.10 0.09 0.06 0.03 0.02 0.27 0.58 0.73 1.31 0.87 0.11 0.02 0.02 0.01 0.00 0.00 0.00 0.00 0.00 0.01 0.00 0.00 0.00 0.02 0.02 0.00 0.00 0.00 0.00 0.00
0.01 0.01 0.01 0.01 0.01 0.00 0.00 0.00 0.00 0.00 0.00 0.00 0.00 0.03 0.03 0.10 0.16 0.15 0.08 0.15 0.41 0.71 0.99 1.26 0.61 0.07 0.00 0.00 0.00 0.00 0.00 0.00 0.00 0.00 0.00 0.00 0.00 0.01 0.00 0.02 0.01 0.01 0.00 0.00 0.00
0.01 0.01 0.01 0.01 0.00 0.00 0.00 0.00 0.00 0.00 0.00 0.00 0.01 0.02 0.02 0.12 0.18 0.08 0.09 0.37 0.75 0.76 0.66 0.88 0.20 0.01 0.00 0.00 0.00 0.00 0.00 0.00 0.00 0.00 0.00 0.00 0.00 0.00 0.00 0.00 0.00 0.00 0.00 0.00 0.00
0.00 0.01 0.01 0.01 0.00 0.00 0.00 0.00 0.00 0.00 0.00 0.03 0.01 0.01 0.01 0.04 0.09 0.08 0.22 0.50 0.80 0.66 0.44 0.34 0.02 0.01 0.03 0.00 0.00 0.00 0.00 0.00 0.00 0.00 0.00 0.00 0.00 0.00 0.00 0.00 0.00 0.00 0.00 0.00 0.00
0.01 0.01 0.01 0.00 0.00 0.00 0.00 0.00 0.00 0.00 0.01 0.05 0.02 0.08 0.03 0.02 0.10 0.19 0.51 0.52 0.70 0.47 0.38 0.30 0.02 0.01 0.04 0.02 0.00 0.00 0.00 0.00 0.00 0.00 0.00 0.00 0.00 0.00 0.00 0.00 0.00 0.00 0.00 0.00 0.00
0.00 0.01 0.01 0.00 0.00 0.00 0.00 0.00 0.00 0.00 0.06 0.04 0.02 0.01 0.02 0.03 0.08 0.22 0.31 0.32 0.50 0.45 0.34 0.23 0.02 0.01 0.03 0.01 0.00 0.00 0.00 0.00 0.00 0.00 0.00 0.00 0.00 0.00 0.00 0.00 0.00 0.00 0.00 0.00 0.00
0.00 0.01 0.00 0.00 0.00 0.00 0.00 0.00 0.00 0.01 0.20 0.27 0.13 0.04 0.04 0.04 0.11 0.25 0.39 0.34 0.36 0.16 0.18 0.03 0.01 0.03 0.02 0.00 0.00 0.00 0.00 0.00 0.00 0.00 0.00 0.00 0.00 0.00 0.00 0.00 0.00 0.00 0.00 0.00 0.00
0.00 0.00 0.00 0.00 0.00 0.00 0.00 0.00 0.00 0.00 0.07 0.13 0.07 0.02 0.04 0.12 0.19 0.23 0.27 0.19 0.39 0.20 0.33 0.15 0.04 0.01 0.00 0.01 0.01 0.00 0.00 0.01 0.03 0.02 0.00 0.00 0.00 0.00 0.00 0.00 0.00 0.00 0.00 0.00 0.00
0.00 0.00 0.00 0.00 0.00 0.00 0.00 0.00 0.00 0.00 0.02 0.03 0.05 0.04 0.05 0.07 0.13 0.15 0.08 0.07 0.05 0.01 0.07 0.11 0.08 0.01 0.00 0.01 0.02 0.00 0.00 0.00 0.00 0.00 0.00 0.00 0.00 0.00 0.00 0.00 0.00 0.00 0.00 0.00 0.00
0.00 0.00 0.00 0.00 0.00 0.00 0.00 0.00 0.00 0.00 0.00 0.00 0.00 0.00 0.03 0.04 0.05 0.02 0.00 0.01 0.00 0.00 0.00 0.00 0.02 0.00 0.02 0.04 0.02 0.01 0.00 0.00 0.00 0.00 0.00 0.00 0.00 0.00 0.00 0.00 0.00 0.00 0.00 0.00 0.00
0.00 0.00 0.00 0.00 0.00 0.00 0.00 0.00 0.00 0.00 0.00 0.00 0.00 0.00 0.00 0.01 0.01 0.00 0.00 0.00 0.00 0.00 0.00 0.00 0.00 0.00 0.03 0.03 0.06 0.00 0.00 0.00 0.00 0.00 0.00 0.00 0.00 0.00 0.00 0.00 0.00 0.00 0.00 0.00 0.00
0.00 0.00 0.00 0.00 0.00 0.00 0.00 0.00 0.00 0.00 0.00 0.00 0.00 0.00 0.00 0.00 0.00 0.00 0.00 0.00 0.00 0.00 0.00 0.00 0.00 0.01 0.02 0.04 0.04 0.01 0.00 0.00 0.00 0.00 0.00 0.00 0.00 0.00 0.00 0.00 0.00 0.00 0.00 0.00 0.00
0.00 0.00 0.00 0.00 0.00 0.00 0.00 0.00 0.00 0.00 0.00 0.00 0.00 0.00 0.00 0.00 0.00 0.00 0.00 0.00 0.00 0.00 0.00 0.00 0.00 0.01 0.01 0.00 0.00 0.01 0.00 0.00 0.00 0.00 0.00 0.00 0.00 0.00 0.00 0.00 0.00 0.00 0.00 0.00 0.00
0.00 0.00 0.00 0.00 0.00 0.00 0.00 0.00 0.00 0.00 0.00 0.00 0.00 0.00 0.00 0.00 0.00 0.00 0.00 0.00 0.00 0.00 0.00 0.00 0.00 0.01 0.05 0.02 0.00 0.04 0.02 0.00 0.00 0.00 0.00 0.00 0.00 0.00 0.00 0.00 0.00 0.00 0.00 0.00 0.00
0.00 0.00 0.00 0.00 0.00 0.00 0.00 0.00 0.00 0.00 0.00 0.00 0.00 0.00 0.00 0.00 0.00 0.00 0.00 0.00 0.00 0.00 0.00 0.00 0.00 0.00 0.00 0.00 0.00 0.00 0.00 0.00 0.00 0.02 0.00 0.00 0.00 0.00 0.00 0.00 0.00 0.00 0.00 0.00 0.00
0.00 0.00 0.00 0.00 0.00 0.00 0.00 0.00 0.00 0.00 0.00 0.00 0.00 0.00 0.00 0.00 0.00 0.00 0.00 0.00 0.00 0.00 0.00 0.00 0.00 0.00 0.00 0.00 0.00 0.00 0.00 0.00 0.01 0.00 0.00 0.00 0.00 0.00 0.00 0.00 0.00 0.00 0.00 0.00 0.00
0.00 0.00 0.00 0.00 0.00 0.00 0.00 0.00 0.00 0.00 0.00 0.00 0.00 0.00 0.00 0.00 0.00 0.00 0.00 0.00 0.00 0.00 0.00 0.00 0.00 0.00 0.00 0.00 0.00 0.00 0.00 0.00 0.00 0.00 0.00 0.00 0.00 0.00 0.00 0.00 0.00 0.00 0.00 0.00 0.00
0.00 0.00 0.00 0.00 0.00 0.00 0.00 0.00 0.00 0.00 0.00 0.00 0.00 0.00 0.00 0.00 0.00 0.00 0.00 0.00 0.00 0.00 0.00 0.00 0.00 0.00 0.00 0.00 0.00 0.00 0.00 0.00 0.00 0.00 0.00 0.00 0.00 0.00 0.00 0.00 0.00 0.00 0.00 0.00 0.00

GFSSW_prec_precacc12_072.txt.gz
Total_Precipitation_Accumulation
0.03 0.05 0.05 0.04 0.03 0.03 0.03 0.03 0.07 0.12 0.15 0.18 0.17 0.22 0.24 0.24 0.16 0.07 0.02 0.00 0.00 0.03 0.14 0.06 0.02 0.00 0.03 0.10 0.17 0.21 0.18 0.07 0.00 0.00 0.00 0.00 0.00 0.00 0.00 0.00 0.00 0.00 0.00 0.00 0.00
0.04 0.08 0.04 0.02 0.02 0.02 0.02 0.02 0.07 0.16 0.29 0.26 0.30 0.33 0.27 0.18 0.09 0.06 0.00 0.00 0.00 0.09 0.07 0.05 0.01 0.01 0.04 0.13 0.28 0.31 0.27 0.03 0.00 0.00 0.00 0.00 0.00 0.00 0.00 0.00 0.01 0.02 0.02 0.03 0.05
0.03 0.07 0.03 0.01 0.02 0.02 0.02 0.02 0.08 0.14 0.19 0.25 0.31 0.35 0.31 0.24 0.05 0.02 0.02 0.01 0.03 0.11 0.20 0.07 0.05 0.02 0.04 0.15 0.20 0.28 0.15 0.01 0.00 0.01 0.02 0.00 0.00 0.00 0.00 0.00 0.00 0.03 0.07 0.09 0.05
0.04 0.06 0.03 0.01 0.02 0.02 0.01 0.01 0.04 0.04 0.09 0.12 0.13 0.17 0.23 0.09 0.08 0.02 0.00 0.02 0.11 0.19 0.20 0.15 0.10 0.03 0.02 0.05 0.04 0.08 0.05 0.02 0.02 0.05 0.04 0.00 0.00 0.00 0.00 0.00 0.00 0.03 0.09 0.15 0.20
0.05 0.04 0.02 0.02 0.01 0.01 0.00 0.00 0.01 0.01 0.00 0.00 0.00 0.05 0.02 0.01 0.01 0.03 0.00 0.03 0.15 0.23 0.17 0.18 0.09 0.01 0.00 0.01 0.04 0.02 0.04 0.05 0.12 0.06 0.00 0.03 0.03 0.00 0.00 0.00 0.00 0.01 0.04 0.06 0.16
0.05 0.03 0.02 0.01 0.01 0.00 0.00 0.00 0.01 0.00 0.00 0.00 0.00 0.03 0.00 0.00 0.00 0.02 0.01 0.00 0.03 0.16 0.21 0.26 0.15 0.01 0.01 0.02 0.05 0.02 0.06 0.11 0.19 0.10 0.04 0.07 0.07 0.05 0.00 0.00 0.00 0.01 0.03 0.02 0.05
0.03 0.02 0.02 0.02 0.01 0.00 0.00 0.00 0.01 0.01 0.00 0.00 0.01 0.00 0.00 0.00 0.00 0.00 0.01 0.00 0.01 0.10 0.21 0.23 0.17 0.04 0.01 0.02 0.05 0.05 0.09 0.21 0.21 0.22 0.13 0.05 0.17 0.10 0.00 0.00 0.00 0.01 0.02 0.01 0.00
0.02 0.02 0.02 0.01 0.01 0.00 0.00 0.00 0.01 0.00 0.00 0.05 0.03 0.00 0.00 0.00 0.00 0.00 0.00 0.00 0.02 0.05 0.21 0.29 0.24 0.11 0.03 0.03 0.05 0.12 0.14 0.09 0.08 0.18 0.28 0.22 0.15 0.02 0.03 0.00 0.00 0.00 0.00 0.00 0.00
0.02 0.02 0.02 0.01 0.01 0.00 0.00 0.00 0.00 0.00 0.00 0.04 0.02 0.00 0.00 0.05 0.04 0.00 0.00 0.01 0.10 0.23 0.31 0.72 0.67 0.22 0.07 0.05 0.03 0.06 0.03 0.01 0.02 0.06 0.10 0.09 0.03 0.02 0.04 0.01 0.00 0.00 0.00 0.00 0.00
0.02 0.01 0.01 0.01 0.01 0.00 0.00 0.00 0.00 0.00 0.00 0.00 0.00 0.01 0.02 0.06 0.08 0.05 0.03 0.02 0.18 0.33 0.53 1.14 1.06 0.37 0.05 0.03 0.00 0.00 0.00 0.00 0.00 0.02 0.01 0.00 0.00 0.01 0.02 0.02 0.00 0.00 0.00 0.00 0.00
0.01 0.01 0.01 0.01 0.01 0.01 0.00 0.00 0.00 0.00 0.00 0.00 0.00 0.01 0.06 0.14 0.12 0.12 0.06 0.03 0.34 0.48 0.79 1.25 0.79 0.23 0.01 0.00 0.00 0.00 0.00 0.00 0.00 0.00 0.00 0.00 0.01 0.01 0.00 0.02 0.01 0.01 0.00 0.00 0.00
0.01 0.01 0.01 0.01 0.00 0.00 0.00 0.00 0.00 0.00 0.00 0.00 0.00 0.02 0.05 0.20 0.17 0.06 0.02 0.11 0.64 0.77 0.63 0.87 0.32 0.07 0.01 0.00 0.00 0.00 0.00 0.00 0.00 0.00 0.01 0.00 0.00 0.00 0.00 0.00 0.00 0.00 0.00 0.00 0.00
0.01 0.01 0.01 0.01 0.00 0.00 0.00 0.00 0.00 0.00 0.00 0.04 0.03 0.01 0.04 0.11 0.09 0.05 0.02 0.16 0.64 0.48 0.39 0.36 0.07 0.03 0.04 0.01 0.00 0.00 0.00 0.00 0.00 0.00 0.00 0.00 0.00 0.00 0.00 0.00 0.00 0.00 0.00 0.00 0.00
0.01 0.01 0.01 0.00 0.00 0.00 0.00 0.00 0.00 0.00 0.01 0.05 0.05 0.12 0.04 0.02 0.07 0.03 0.09 0.22 0.54 0.32 0.37 0.33 0.03 0.01 0.06 0.02 0.00 0.00 0.00 0.00 0.00 0.00 0.00 0.00 0.00 0.00 0.00 0.00 0.00 0.00 0.00 0.00 0.00
0.00 0.02 0.01 0.00 0.00 0.00 0.00 0.00 0.00 0.00 0.02 0.01 0.00 0.01 0.02 0.05 0.06 0.13 0.20 0.24 0.36 0.38 0.35 0.25 0.03 0.02 0.05 0.02 0.00 0.00 0.00 0.00 0.00 0.00 0.00 0.00 0.00 0.00 0.00 0.00 0.00 0.00 0.00 0.00 0.00
0.00 0.01 0.00 0.00 0.00 0.00 0.00 0.00 0.00 0.00 0.02 0.02 0.01 0.01 0.04 0.03 0.06 0.19 0.22 0.25 0.37 0.18 0.21 0.03 0.01 0.04 0.05 0.01 0.00 0.00 0.00 0.00 0.00 0.00 0.00 0.00 0.00 0.00 0.00 0.00 0.00 0.00 0.00 0.00 0.00
0.00 0.00 0.00 0.00 0.00 0.00 0.00 0.00 0.00 0.00 0.00 0.01 0.02 0.03 0.04 0.09 0.11 0.16 0.18 0.17 0.38 0.29 0.42 0.17 0.05 0.02 0.02 0.01 0.01 0.00 0.00 0.01 0.02 0.02 0.00 0.00 0.00 0.00 0.00 0.00 0.00 0.00 0.00 0.00 0.00
0.00 0.00 0.00 0.00 0.00 0.00 0.00 0.00 0.00 0.00 0.00 0.01 0.02 0.02 0.03 0.05 0.12 0.15 0.07 0.07 0.06 0.02 0.08 0.14 0.11 0.03 0.01 0.01 0.01 0.01 0.00 0.00 0.00 0.00 0.00 0.00 0.00 0.00 0.00 0.00 0.00 0.00 0.00 0.00 0.00
0.00 0.00 0.00 0.00 0.00 0.00 0.00 0.00 0.00 0.00 0.00 0.00 0.00 0.01 0.01 0.01 0.02 0.01 0.00 0.01 0.00 0.00 0.00 0.01 0.03 0.01 0.00 0.00 0.00 0.01 0.00 0.00 0.00 0.00 0.00 0.00 0.00 0.00 0.00 0.00 0.00 0.00 0.00 0.00 0.00
0.00 0.00 0.00 0.00 0.00 0.00 0.00 0.00 0.00 0.00 0.00 0.00 0.00 0.00 0.00 0.00 0.00 0.00 0.00 0.00 0.00 0.00 0.00 0.00 0.01 0.00 0.00 0.01 0.01 0.00 0.00 0.00 0.00 0.00 0.00 0.00 0.00 0.00 0.00 0.00 0.00 0.00 0.00 0.00 0.00
0.00 0.00 0.00 0.00 0.00 0.00 0.00 0.00 0.00 0.00 0.00 0.00 0.00 0.00 0.00 0.00 0.00 0.00 0.00 0.00 0.00 0.00 0.00 0.00 0.00 0.01 0.02 0.02 0.02 0.01 0.00 0.00 0.00 0.00 0.00 0.00 0.00 0.00 0.00 0.00 0.00 0.00 0.00 0.00 0.00
0.00 0.00 0.00 0.00 0.00 0.00 0.00 0.00 0.00 0.00 0.00 0.00 0.00 0.00 0.00 0.00 0.00 0.00 0.00 0.00 0.00 0.00 0.00 0.00 0.00 0.01 0.01 0.00 0.00 0.01 0.00 0.00 0.00 0.00 0.00 0.00 0.00 0.00 0.00 0.00 0.00 0.00 0.00 0.00 0.00
0.00 0.00 0.00 0.00 0.00 0.00 0.00 0.00 0.00 0.00 0.00 0.00 0.00 0.00 0.00 0.00 0.00 0.00 0.00 0.00 0.00 0.00 0.00 0.00 0.00 0.01 0.03 0.02 0.00 0.03 0.02 0.00 0.00 0.00 0.00 0.00 0.00 0.00 0.00 0.00 0.00 0.00 0.00 0.00 0.00
0.00 0.00 0.00 0.00 0.00 0.00 0.00 0.00 0.00 0.00 0.00 0.00 0.00 0.00 0.00 0.00 0.00 0.00 0.00 0.00 0.00 0.00 0.00 0.00 0.00 0.00 0.00 0.00 0.00 0.00 0.00 0.00 0.00 0.01 0.00 0.00 0.00 0.00 0.00 0.00 0.00 0.00 0.00 0.00 0.00
0.00 0.00 0.00 0.00 0.00 0.00 0.00 0.00 0.00 0.00 0.00 0.00 0.00 0.00 0.00 0.00 0.00 0.00 0.00 0.00 0.00 0.00 0.00 0.00 0.00 0.00 0.00 0.00 0.00 0.00 0.00 0.00 0.01 0.00 0.00 0.00 0.00 0.00 0.00 0.00 0.00 0.00 0.00 0.00 0.00
0.00 0.00 0.00 0.00 0.00 0.00 0.00 0.00 0.00 0.00 0.00 0.00 0.00 0.00 0.00 0.00 0.00 0.00 0.00 0.00 0.00 0.00 0.00 0.00 0.00 0.00 0.00 0.00 0.00 0.00 0.00 0.00 0.00 0.00 0.00 0.00 0.00 0.00 0.00 0.00 0.00 0.00 0.00 0.00 0.00
0.00 0.00 0.00 0.00 0.00 0.00 0.00 0.00 0.00 0.00 0.00 0.00 0.00 0.00 0.00 0.00 0.00 0.00 0.00 0.00 0.00 0.00 0.00 0.00 0.00 0.00 0.00 0.00 0.00 0.00 0.00 0.00 0.00 0.00 0.00 0.00 0.00 0.00 0.00 0.00 0.00 0.00 0.00 0.00 0.00

GFSSW_prec_precacc12_075.txt.gz
Total_Precipitation_Accumulation
0.03 0.06 0.05 0.01 0.01 0.01 0.01 0.01 0.01 0.02 0.08 0.15 0.16 0.20 0.24 0.25 0.22 0.16 0.05 0.01 0.00 0.06 0.13 0.05 0.03 0.00 0.04 0.09 0.17 0.24 0.24 0.09 0.00 0.00 0.00 0.00 0.00 0.00 0.00 0.00 0.00 0.00 0.02 0.02 0.02
0.03 0.07 0.03 0.00 0.01 0.01 0.01 0.01 0.01 0.03 0.11 0.16 0.26 0.32 0.28 0.18 0.13 0.18 0.12 0.05 0.00 0.08 0.06 0.04 0.02 0.01 0.05 0.12 0.26 0.42 0.35 0.03 0.00 0.00 0.00 0.00 0.00 0.00 0.00 0.00 0.00 0.02 0.02 0.03 0.06
0.03 0.06 0.02 0.01 0.01 0.01 0.00 0.00 0.01 0.03 0.01 0.05 0.22 0.34 0.31 0.28 0.11 0.05 0.11 0.09 0.04 0.11 0.19 0.08 0.06 0.04 0.02 0.11 0.18 0.29 0.31 0.03 0.00 0.01 0.00 0.00 0.00 0.00 0.00 0.00 0.00 0.01 0.06 0.10 0.07
0.03 0.05 0.02 0.02 0.02 0.00 0.00 0.00 0.00 0.00 0.00 0.05 0.11 0.17 0.23 0.13 0.17 0.04 0.10 0.06 0.08 0.17 0.16 0.17 0.16 0.06 0.01 0.04 0.03 0.08 0.09 0.08 0.05 0.03 0.00 0.00 0.00 0.00 0.00 0.00 0.00 0.00 0.05 0.14 0.23
0.04 0.04 0.01 0.02 0.02 0.01 0.00 0.00 0.01 0.01 0.00 0.00 0.00 0.05 0.02 0.01 0.01 0.01 0.00 0.01 0.11 0.22 0.14 0.21 0.14 0.05 0.00 0.01 0.04 0.04 0.07 0.06 0.17 0.04 0.00 0.00 0.00 0.00 0.00 0.00 0.00 0.00 0.01 0.07 0.23
0.03 0.03 0.02 0.01 0.01 0.01 0.00 0.00 0.01 0.01 0.00 0.00 0.00 0.03 0.00 0.00 0.00 0.00 0.00 0.00 0.02 0.16 0.10 0.26 0.22 0.02 0.01 0.02 0.04 0.02 0.07 0.12 0.20 0.16 0.03 0.01 0.00 0.00 0.00 0.00 0.00 0.00 0.02 0.03 0.07
0.03 0.02 0.01 0.02 0.02 0.01 0.01 0.01 0.01 0.01 0.00 0.00 0.01 0.00 0.00 0.00 0.00 0.00 0.00 0.00 0.01 0.12 0.07 0.19 0.32 0.13 0.01 0.02 0.04 0.04 0.10 0.23 0.24 0.36 0.16 0.05 0.12 0.01 0.00 0.00 0.00 0.00 0.01 0.01 0.01
0.02 0.02 0.02 0.02 0.01 0.01 0.00 0.01 0.01 0.00 0.00 0.03 0.03 0.00 0.00 0.00 0.00 0.00 0.00 0.00 0.00 0.03 0.03 0.15 0.28 0.23 0.04 0.02 0.05 0.13 0.16 0.13 0.10 0.24 0.34 0.20 0.11 0.01 0.01 0.00 0.00 0.00 0.00 0.00 0.01
0.02 0.02 0.02 0.01 0.01 0.01 0.00 0.00 0.00 0.00 0.00 0.03 0.02 0.00 0.00 0.01 0.02 0.00 0.00 0.00 0.06 0.18 0.09 0.42 0.66 0.29 0.15 0.07 0.05 0.09 0.04 0.01 0.04 0.09 0.15 0.09 0.04 0.01 0.04 0.01 0.00 0.00 0.00 0.00 0.00
0.02 0.01 0.01 0.01 0.01 0.01 0.00 0.00 0.00 0.00 0.00 0.00 0.00 0.01 0.01 0.02 0.04 0.01 0.01 0.01 0.16 0.28 0.33 0.86 1.06 0.39 0.09 0.07 0.01 0.00 0.00 0.00 0.01 0.04 0.05 0.04 0.03 0.01 0.02 0.02 0.00 0.00 0.00 0.00 0.00
0.02 0.01 0.01 0.01 0.01 0.01 0.00 0.00 0.00 0.00 0.00 0.00 0.00 0.00 0.05 0.11 0.06 0.09 0.06 0.03 0.26 0.38 0.56 1.03 0.82 0.30 0.02 0.00 0.00 0.00 0.01 0.01 0.00 0.01 0.02 0.02 0.02 0.02 0.00 0.02 0.01 0.01 0.00 0.00 0.00
0.01 0.01 0.01 0.02 0.01 0.00 0.00 0.00 0.00 0.00 0.00 0.00 0.01 0.00 0.05 0.18 0.14 0.06 0.02 0.05 0.39 0.55 0.47 0.73 0.36 0.10 0.02 0.01 0.01 0.00 0.01 0.02 0.02 0.02 0.02 0.01 0.00 0.00 0.00 0.00 0.00 0.00 0.00 0.00 0.00
0.01 0.00 0.01 0.01 0.00 0.00 0.00 0.00 0.00 0.00 0.00 0.04 0.03 0.02 0.07 0.15 0.11 0.06 0.02 0.09 0.35 0.42 0.31 0.31 0.09 0.09 0.09 0.03 0.01 0.00 0.00 0.01 0.01 0.02 0.02 0.00 0.00 0.00 0.00 0.00 0.00 0.00 0.00 0.00 0.00
0.01 0.01 0.02 0.00 0.00 0.00 0.00 0.00 0.00 0.00 0.01 0.04 0.05 0.11 0.06 0.07 0.15 0.03 0.05 0.12 0.31 0.38 0.32 0.33 0.05 0.10 0.08 0.03 0.01 0.00 0.00 0.00 0.00 0.01 0.00 0.00 0.00 0.00 0.00 0.00 0.00 0.00 0.00 0.00 0.00
0.00 0.02 0.01 0.00 0.00 0.00 0.00 0.00 0.00 0.00 0.01 0.00 0.00 0.01 0.02 0.05 0.05 0.08 0.10 0.13 0.24 0.26 0.31 0.23 0.03 0.07 0.08 0.03 0.00 0.00 0.00 0.00 0.00 0.00 0.00 0.00 0.00 0.00 0.00 0.00 0.00 0.00 0.00 0.00 0.00
0.00 0.01 0.00 0.00 0.00 0.00 0.00 0.00 0.00 0.00 0.00 0.00 0.01 0.01 0.04 0.03 0.02 0.07 0.15 0.23 0.32 0.13 0.21 0.04 0.01 0.08 0.09 0.01 0.00 0.00 0.00 0.00 0.00 0.00 0.00 0.00 0.00 0.00 0.00 0.00 0.00 0.00 0.00 0.00 0.00
0.00 0.00 0.00 0.00 0.00 0.00 0.00 0.00 0.00 0.00 0.00 0.00 0.02 0.03 0.04 0.04 0.04 0.08 0.13 0.18 0.33 0.24 0.42 0.19 0.06 0.05 0.05 0.03 0.01 0.01 0.00 0.01 0.01 0.01 0.00 0.00 0.00 0.00 0.00 0.00 0.00 0.00 0.00 0.00 0.00
0.00 0.00 0.00 0.00 0.00 0.00 0.00 0.00 0.00 0.00 0.00 0.00 0.02 0.02 0.03 0.05 0.07 0.12 0.07 0.10 0.07 0.02 0.09 0.16 0.16 0.08 0.03 0.02 0.02 0.02 0.00 0.00 0.00 0.00 0.00 0.00 0.00 0.00 0.00 0.00 0.00 0.00 0.00 0.00 0.00
0.00 0.00 0.00 0.00 0.00 0.00 0.00 0.00 0.00 0.00 0.00 0.00 0.01 0.02 0.01 0.01 0.03 0.03 0.02 0.02 0.01 0.00 0.02 0.02 0.04 0.02 0.01 0.02 0.01 0.02 0.00 0.00 0.00 0.00 0.00 0.00 0.00 0.00 0.00 0.00 0.00 0.00 0.00 0.00 0.00
0.00 0.00 0.00 0.00 0.00 0.00 0.00 0.00 0.00 0.00 0.00 0.00 0.00 0.00 0.00 0.00 0.00 0.01 0.01 0.00 0.00 0.00 0.00 0.00 0.02 0.01 0.00 0.02 0.01 0.00 0.00 0.00 0.00 0.00 0.00 0.00 0.00 0.00 0.00 0.00 0.00 0.00 0.00 0.00 0.00
0.00 0.00 0.00 0.00 0.00 0.00 0.00 0.00 0.00 0.00 0.00 0.00 0.00 0.00 0.00 0.00 0.00 0.00 0.01 0.00 0.00 0.00 0.00 0.00 0.01 0.01 0.02 0.03 0.03 0.01 0.00 0.00 0.00 0.00 0.00 0.00 0.00 0.00 0.00 0.00 0.00 0.00 0.00 0.00 0.00
0.00 0.00 0.00 0.00 0.01 0.00 0.00 0.00 0.00 0.00 0.00 0.00 0.00 0.00 0.00 0.00 0.00 0.00 0.00 0.00 0.00 0.00 0.00 0.00 0.00 0.01 0.01 0.00 0.00 0.01 0.00 0.00 0.00 0.00 0.00 0.00 0.00 0.00 0.00 0.00 0.00 0.00 0.00 0.00 0.00
0.00 0.00 0.00 0.00 0.00 0.00 0.00 0.00 0.00 0.00 0.00 0.00 0.00 0.00 0.00 0.00 0.00 0.00 0.00 0.00 0.00 0.00 0.00 0.00 0.00 0.01 0.02 0.01 0.00 0.01 0.01 0.00 0.00 0.01 0.00 0.00 0.00 0.00 0.00 0.00 0.00 0.00 0.00 0.00 0.00
0.00 0.00 0.00 0.00 0.00 0.00 0.00 0.00 0.00 0.00 0.00 0.00 0.00 0.00 0.00 0.00 0.00 0.00 0.00 0.00 0.00 0.00 0.00 0.00 0.00 0.00 0.00 0.00 0.00 0.00 0.00 0.00 0.00 0.02 0.00 0.00 0.00 0.00 0.00 0.00 0.00 0.00 0.00 0.00 0.00
0.00 0.00 0.00 0.00 0.00 0.00 0.00 0.00 0.00 0.00 0.00 0.00 0.00 0.00 0.00 0.00 0.00 0.00 0.00 0.00 0.00 0.00 0.00 0.00 0.00 0.00 0.00 0.00 0.00 0.00 0.00 0.00 0.01 0.00 0.00 0.00 0.00 0.00 0.00 0.00 0.00 0.00 0.00 0.00 0.00
0.00 0.00 0.00 0.00 0.00 0.00 0.00 0.00 0.00 0.00 0.00 0.00 0.00 0.00 0.00 0.00 0.00 0.00 0.00 0.00 0.00 0.00 0.00 0.00 0.00 0.00 0.00 0.00 0.00 0.00 0.00 0.00 0.00 0.00 0.00 0.00 0.00 0.00 0.00 0.00 0.00 0.00 0.00 0.00 0.00
0.00 0.00 0.00 0.00 0.00 0.00 0.00 0.00 0.00 0.00 0.00 0.00 0.00 0.00 0.00 0.00 0.00 0.00 0.00 0.00 0.00 0.00 0.00 0.01 0.00 0.00 0.00 0.00 0.00 0.00 0.00 0.00 0.00 0.00 0.00 0.00 0.00 0.00 0.00 0.00 0.00 0.00 0.00 0.00 0.00

GFSSW_prec_precacc12_078.txt.gz
Total_Precipitation_Accumulation
0.02 0.05 0.04 0.02 0.00 0.01 0.01 0.01 0.01 0.00 0.01 0.02 0.07 0.15 0.19 0.24 0.21 0.18 0.07 0.04 0.04 0.07 0.09 0.03 0.02 0.00 0.04 0.09 0.16 0.25 0.27 0.11 0.00 0.02 0.01 0.00 0.00 0.00 0.00 0.00 0.00 0.00 0.11 0.06 0.03
0.03 0.05 0.03 0.02 0.01 0.00 0.00 0.00 0.00 0.00 0.00 0.01 0.08 0.19 0.21 0.17 0.13 0.22 0.18 0.16 0.05 0.10 0.06 0.03 0.03 0.02 0.05 0.10 0.30 0.42 0.29 0.03 0.00 0.00 0.00 0.00 0.00 0.00 0.00 0.00 0.00 0.00 0.01 0.02 0.07
0.02 0.04 0.02 0.01 0.02 0.01 0.00 0.00 0.00 0.00 0.00 0.00 0.02 0.16 0.26 0.27 0.13 0.08 0.16 0.16 0.05 0.10 0.18 0.07 0.07 0.07 0.02 0.11 0.19 0.32 0.33 0.05 0.06 0.07 0.02 0.00 0.00 0.00 0.00 0.00 0.00 0.00 0.00 0.03 0.08
0.02 0.04 0.02 0.01 0.02 0.01 0.00 0.01 0.00 0.00 0.01 0.00 0.02 0.07 0.19 0.13 0.20 0.06 0.12 0.20 0.11 0.14 0.16 0.18 0.17 0.12 0.02 0.05 0.07 0.13 0.14 0.12 0.10 0.08 0.03 0.01 0.00 0.00 0.00 0.00 0.00 0.00 0.00 0.06 0.16
0.02 0.03 0.02 0.01 0.01 0.02 0.01 0.01 0.01 0.02 0.01 0.00 0.00 0.04 0.01 0.02 0.01 0.00 0.01 0.04 0.04 0.14 0.13 0.19 0.18 0.08 0.01 0.01 0.06 0.10 0.10 0.07 0.20 0.11 0.02 0.01 0.00 0.00 0.00 0.00 0.00 0.00 0.00 0.06 0.22
0.02 0.02 0.02 0.01 0.01 0.02 0.01 0.01 0.02 0.01 0.00 0.00 0.00 0.02 0.00 0.00 0.00 0.00 0.00 0.00 0.03 0.16 0.10 0.25 0.24 0.04 0.02 0.01 0.04 0.02 0.08 0.12 0.16 0.24 0.15 0.04 0.00 0.00 0.00 0.00 0.00 0.00 0.00 0.03 0.08
0.02 0.01 0.01 0.02 0.02 0.01 0.01 0.01 0.01 0.01 0.00 0.00 0.01 0.00 0.00 0.00 0.00 0.00 0.00 0.00 0.03 0.13 0.12 0.24 0.36 0.17 0.04 0.02 0.02 0.03 0.08 0.31 0.22 0.33 0.23 0.19 0.14 0.01 0.00 0.00 0.00 0.00 0.00 0.00 0.04
0.02 0.02 0.02 0.01 0.01 0.01 0.01 0.00 0.01 0.00 0.00 0.00 0.01 0.00 0.00 0.00 0.00 0.00 0.00 0.00 0.00 0.05 0.08 0.16 0.29 0.26 0.06 0.02 0.04 0.13 0.14 0.16 0.21 0.29 0.51 0.27 0.10 0.00 0.00 0.00 0.00 0.00 0.00 0.00 0.01
0.02 0.01 0.01 0.01 0.01 0.01 0.01 0.00 0.00 0.00 0.00 0.00 0.00 0.00 0.01 0.00 0.00 0.00 0.00 0.00 0.03 0.12 0.10 0.20 0.51 0.41 0.16 0.09 0.09 0.11 0.05 0.02 0.05 0.11 0.34 0.28 0.14 0.01 0.01 0.01 0.00 0.00 0.00 0.00 0.00
0.02 0.01 0.01 0.01 0.01 0.01 0.00 0.00 0.00 0.00 0.00 0.00 0.00 0.03 0.02 0.00 0.01 0.00 0.00 0.00 0.11 0.20 0.20 0.41 0.81 0.49 0.21 0.12 0.04 0.01 0.00 0.00 0.01 0.06 0.09 0.13 0.10 0.02 0.01 0.00 0.00 0.00 0.00 0.00 0.00
0.01 0.01 0.01 0.01 0.01 0.01 0.00 0.00 0.00 0.00 0.00 0.00 0.00 0.00 0.05 0.08 0.02 0.03 0.01 0.01 0.20 0.28 0.32 0.51 0.65 0.34 0.12 0.04 0.00 0.00 0.01 0.01 0.00 0.02 0.03 0.04 0.05 0.04 0.00 0.00 0.00 0.00 0.00 0.00 0.00
0.01 0.01 0.01 0.02 0.01 0.00 0.00 0.00 0.00 0.00 0.00 0.00 0.00 0.00 0.05 0.15 0.08 0.04 0.02 0.03 0.29 0.47 0.24 0.36 0.32 0.11 0.06 0.05 0.06 0.04 0.01 0.03 0.03 0.04 0.06 0.02 0.00 0.00 0.00 0.00 0.00 0.00 0.00 0.00 0.00
0.01 0.01 0.01 0.02 0.00 0.00 0.00 0.00 0.00 0.00 0.00 0.03 0.03 0.02 0.07 0.15 0.10 0.06 0.02 0.09 0.33 0.32 0.13 0.19 0.10 0.09 0.08 0.03 0.08 0.01 0.00 0.01 0.04 0.04 0.05 0.02 0.00 0.00 0.00 0.00 0.00 0.00 0.00 0.00 0.00
0.00 0.01 0.01 0.00 0.00 0.00 0.00 0.00 0.00 0.00 0.01 0.04 0.05 0.11 0.05 0.10 0.15 0.02 0.05 0.11 0.26 0.35 0.18 0.19 0.06 0.10 0.07 0.03 0.02 0.02 0.00 0.00 0.02 0.04 0.01 0.00 0.00 0.00 0.00 0.00 0.00 0.00 0.00 0.00 0.00
0.00 0.01 0.01 0.00 0.00 0.00 0.00 0.00 0.00 0.00 0.01 0.01 0.01 0.01 0.02 0.06 0.06 0.08 0.11 0.12 0.11 0.24 0.19 0.15 0.03 0.10 0.10 0.03 0.01 0.02 0.00 0.01 0.02 0.02 0.01 0.01 0.00 0.00 0.00 0.00 0.00 0.00 0.00 0.00 0.00
0.00 0.01 0.00 0.00 0.00 0.00 0.00 0.00 0.00 0.00 0.00 0.00 0.01 0.01 0.04 0.04 0.03 0.06 0.16 0.22 0.14 0.22 0.23 0.03 0.01 0.12 0.12 0.03 0.01 0.00 0.02 0.01 0.01 0.01 0.01 0.00 0.00 0.00 0.00 0.00 0.00 0.00 0.00 0.00 0.00
0.00 0.00 0.00 0.00 0.00 0.00 0.00 0.00 0.00 0.00 0.00 0.00 0.02 0.03 0.03 0.02 0.02 0.20 0.14 0.12 0.11 0.27 0.32 0.17 0.09 0.14 0.07 0.05 0.02 0.01 0.02 0.01 0.01 0.01 0.00 0.00 0.00 0.00 0.00 0.00 0.00 0.00 0.00 0.00 0.00
0.00 0.00 0.00 0.00 0.00 0.00 0.00 0.00 0.00 0.00 0.00 0.00 0.02 0.02 0.03 0.03 0.04 0.07 0.08 0.11 0.06 0.04 0.07 0.16 0.18 0.17 0.06 0.03 0.03 0.03 0.00 0.00 0.00 0.00 0.00 0.00 0.00 0.00 0.00 0.00 0.00 0.00 0.00 0.00 0.00
0.00 0.00 0.00 0.00 0.00 0.00 0.00 0.00 0.00 0.00 0.00 0.00 0.02 0.02 0.01 0.01 0.03 0.04 0.02 0.03 0.01 0.00 0.03 0.02 0.04 0.02 0.03 0.02 0.02 0.03 0.01 0.00 0.00 0.00 0.00 0.00 0.00 0.00 0.00 0.00 0.00 0.00 0.00 0.00 0.00
0.00 0.00 0.00 0.00 0.00 0.00 0.00 0.00 0.00 0.00 0.00 0.00 0.01 0.01 0.00 0.00 0.01 0.01 0.02 0.00 0.00 0.00 0.00 0.00 0.03 0.01 0.01 0.04 0.02 0.02 0.01 0.00 0.00 0.00 0.00 0.00 0.00 0.00 0.00 0.00 0.00 0.00 0.00 0.00 0.00
0.00 0.00 0.00 0.00 0.00 0.00 0.00 0.00 0.00 0.00 0.00 0.00 0.00 0.00 0.00 0.00 0.01 0.01 0.02 0.00 0.00 0.00 0.00 0.01 0.01 0.02 0.04 0.05 0.04 0.01 0.01 0.01 0.00 0.00 0.00 0.00 0.00 0.00 0.00 0.00 0.00 0.00 0.00 0.00 0.00
0.00 0.00 0.00 0.00 0.01 0.00 0.00 0.00 0.00 0.00 0.00 0.00 0.00 0.00 0.00 0.01 0.00 0.01 0.01 0.00 0.00 0.00 0.00 0.00 0.02 0.01 0.03 0.01 0.01 0.02 0.01 0.00 0.00 0.00 0.00 0.00 0.00 0.00 0.00 0.00 0.00 0.00 0.00 0.00 0.00
0.00 0.00 0.00 0.00 0.00 0.00 0.00 0.00 0.00 0.00 0.00 0.00 0.00 0.00 0.00 0.01 0.01 0.00 0.00 0.00 0.00 0.00 0.00 0.00 0.00 0.01 0.02 0.01 0.00 0.00 0.00 0.00 0.00 0.00 0.01 0.00 0.00 0.00 0.00 0.00 0.00 0.00 0.00 0.00 0.00
0.00 0.00 0.00 0.00 0.00 0.00 0.00 0.00 0.00 0.00 0.00 0.00 0.00 0.00 0.00 0.00 0.00 0.00 0.00 0.00 0.00 0.00 0.00 0.00 0.00 0.00 0.01 0.00 0.00 0.00 0.00 0.00 0.00 0.01 0.00 0.00 0.00 0.00 0.00 0.00 0.00 0.00 0.00 0.00 0.00
0.00 0.00 0.00 0.00 0.00 0.00 0.00 0.00 0.00 0.00 0.00 0.00 0.00 0.00 0.00 0.00 0.00 0.00 0.00 0.00 0.00 0.00 0.00 0.00 0.00 0.00 0.00 0.00 0.00 0.00 0.00 0.00 0.01 0.00 0.00 0.00 0.00 0.00 0.00 0.00 0.00 0.00 0.00 0.00 0.00
0.00 0.00 0.00 0.00 0.00 0.00 0.00 0.00 0.00 0.00 0.00 0.00 0.00 0.00 0.00 0.00 0.00 0.00 0.00 0.00 0.00 0.00 0.00 0.00 0.00 0.00 0.00 0.00 0.00 0.00 0.00 0.00 0.00 0.00 0.00 0.00 0.00 0.00 0.00 0.00 0.00 0.00 0.00 0.00 0.00
0.00 0.00 0.00 0.00 0.00 0.00 0.00 0.00 0.00 0.00 0.00 0.00 0.00 0.00 0.00 0.00 0.00 0.00 0.00 0.00 0.00 0.00 0.00 0.02 0.00 0.00 0.01 0.00 0.00 0.00 0.00 0.00 0.00 0.00 0.00 0.00 0.00 0.00 0.00 0.00 0.00 0.00 0.00 0.00 0.00

GFSSW_prec_precacc12_081.txt.gz
Total_Precipitation_Accumulation
0.02 0.04 0.03 0.02 0.01 0.01 0.00 0.00 0.00 0.00 0.00 0.00 0.00 0.03 0.06 0.14 0.20 0.18 0.08 0.05 0.06 0.11 0.12 0.02 0.01 0.01 0.04 0.09 0.18 0.29 0.29 0.05 0.00 0.02 0.02 0.00 0.00 0.00 0.00 0.00 0.00 0.01 0.12 0.08 0.04
0.02 0.03 0.03 0.02 0.02 0.01 0.00 0.00 0.00 0.00 0.00 0.00 0.00 0.05 0.10 0.12 0.13 0.22 0.23 0.28 0.19 0.16 0.14 0.06 0.04 0.03 0.06 0.09 0.34 0.45 0.38 0.02 0.02 0.04 0.00 0.00 0.00 0.00 0.00 0.00 0.00 0.01 0.01 0.01 0.03
0.02 0.02 0.02 0.01 0.02 0.02 0.01 0.01 0.00 0.00 0.01 0.00 0.00 0.02 0.10 0.18 0.13 0.08 0.20 0.26 0.19 0.09 0.14 0.08 0.10 0.12 0.03 0.09 0.20 0.35 0.43 0.09 0.16 0.12 0.03 0.00 0.00 0.00 0.00 0.00 0.00 0.00 0.00 0.02 0.06
0.02 0.02 0.02 0.01 0.02 0.02 0.02 0.02 0.00 0.00 0.02 0.00 0.00 0.00 0.04 0.10 0.20 0.06 0.13 0.20 0.12 0.11 0.14 0.20 0.18 0.16 0.03 0.05 0.08 0.16 0.17 0.18 0.17 0.13 0.05 0.01 0.00 0.00 0.00 0.00 0.00 0.00 0.00 0.07 0.11
0.02 0.02 0.01 0.01 0.01 0.02 0.02 0.02 0.01 0.02 0.01 0.00 0.00 0.01 0.00 0.01 0.01 0.00 0.01 0.05 0.05 0.04 0.08 0.18 0.19 0.12 0.01 0.00 0.06 0.12 0.12 0.10 0.24 0.19 0.07 0.02 0.00 0.00 0.00 0.00 0.00 0.00 0.00 0.09 0.26
0.02 0.01 0.01 0.01 0.01 0.02 0.01 0.01 0.02 0.02 0.00 0.00 0.00 0.00 0.00 0.00 0.00 0.00 0.00 0.10 0.17 0.05 0.10 0.24 0.20 0.09 0.03 0.01 0.04 0.03 0.10 0.15 0.18 0.27 0.32 0.07 0.02 0.00 0.00 0.00 0.00 0.00 0.00 0.03 0.10
0.02 0.01 0.01 0.02 0.01 0.01 0.01 0.01 0.01 0.01 0.00 0.00 0.00 0.00 0.00 0.00 0.00 0.00 0.00 0.06 0.23 0.09 0.13 0.26 0.35 0.23 0.08 0.03 0.01 0.05 0.12 0.34 0.29 0.38 0.31 0.24 0.23 0.01 0.00 0.00 0.00 0.00 0.00 0.00 0.04
0.02 0.01 0.01 0.01 0.01 0.01 0.01 0.01 0.00 0.00 0.00 0.00 0.00 0.00 0.00 0.00 0.00 0.00 0.00 0.01 0.07 0.08 0.13 0.22 0.25 0.27 0.07 0.03 0.03 0.13 0.18 0.24 0.29 0.39 0.45 0.31 0.16 0.03 0.00 0.00 0.00 0.00 0.00 0.00 0.01
0.01 0.01 0.01 0.01 0.01 0.01 0.01 0.00 0.00 0.00 0.00 0.00 0.00 0.01 0.01 0.00 0.00 0.00 0.00 0.00 0.02 0.08 0.10 0.20 0.31 0.40 0.17 0.10 0.11 0.13 0.12 0.12 0.13 0.17 0.36 0.30 0.16 0.04 0.02 0.00 0.00 0.00 0.00 0.00 0.00
0.01 0.01 0.01 0.01 0.01 0.01 0.00 0.00 0.00 0.00 0.00 0.00 0.00 0.03 0.02 0.00 0.00 0.00 0.00 0.00 0.04 0.10 0.16 0.28 0.50 0.44 0.22 0.14 0.06 0.02 0.01 0.01 0.03 0.10 0.10 0.15 0.15 0.07 0.04 0.00 0.00 0.00 0.00 0.00 0.00
0.01 0.01 0.00 0.01 0.01 0.01 0.00 0.00 0.00 0.00 0.00 0.00 0.00 0.01 0.05 0.04 0.00 0.02 0.00 0.01 0.11 0.16 0.26 0.31 0.47 0.32 0.13 0.04 0.02 0.01 0.01 0.01 0.01 0.04 0.04 0.04 0.06 0.05 0.03 0.00 0.00 0.00 0.00 0.00 0.00
0.01 0.01 0.00 0.01 0.01 0.00 0.00 0.00 0.00 0.00 0.00 0.00 0.00 0.00 0.04 0.08 0.01 0.02 0.00 0.03 0.10 0.35 0.22 0.20 0.27 0.15 0.14 0.07 0.10 0.05 0.01 0.03 0.05 0.08 0.10 0.03 0.01 0.00 0.00 0.00 0.00 0.00 0.00 0.00 0.00
0.01 0.00 0.01 0.01 0.00 0.00 0.00 0.00 0.00 0.00 0.00 0.02 0.02 0.02 0.06 0.12 0.08 0.06 0.02 0.03 0.04 0.28 0.10 0.13 0.11 0.11 0.15 0.10 0.10 0.03 0.00 0.01 0.05 0.09 0.10 0.07 0.04 0.00 0.00 0.00 0.00 0.00 0.00 0.00 0.00
0.00 0.00 0.01 0.00 0.00 0.00 0.00 0.00 0.00 0.00 0.01 0.02 0.03 0.04 0.04 0.09 0.14 0.02 0.06 0.07 0.15 0.29 0.10 0.15 0.07 0.09 0.06 0.05 0.03 0.03 0.00 0.00 0.02 0.06 0.02 0.02 0.03 0.00 0.00 0.00 0.00 0.00 0.00 0.00 0.00
0.00 0.00 0.00 0.00 0.00 0.00 0.00 0.00 0.00 0.00 0.01 0.01 0.01 0.00 0.02 0.05 0.05 0.07 0.11 0.13 0.10 0.22 0.10 0.06 0.02 0.09 0.07 0.03 0.02 0.04 0.01 0.02 0.04 0.04 0.02 0.02 0.00 0.00 0.00 0.00 0.00 0.00 0.00 0.00 0.00
0.00 0.00 0.00 0.00 0.00 0.00 0.00 0.00 0.00 0.00 0.00 0.00 0.01 0.01 0.03 0.03 0.04 0.06 0.17 0.23 0.13 0.19 0.13 0.05 0.01 0.11 0.12 0.05 0.02 0.03 0.04 0.04 0.04 0.04 0.01 0.00 0.00 0.00 0.00 0.00 0.00 0.00 0.00 0.00 0.00
0.00 0.00 0.00 0.00 0.00 0.00 0.00 0.00 0.00 0.00 0.00 0.00 0.02 0.02 0.02 0.01 0.07 0.27 0.14 0.12 0.16 0.38 0.16 0.08 0.10 0.15 0.07 0.06 0.03 0.03 0.04 0.12 0.09 0.02 0.00 0.00 0.00 0.00 0.00 0.00 0.00 0.00 0.00 0.00 0.00
0.00 0.00 0.00 0.00 0.00 0.00 0.00 0.00 0.00 0.00 0.00 0.00 0.02 0.02 0.02 0.02 0.03 0.07 0.10 0.08 0.08 0.07 0.03 0.08 0.28 0.23 0.06 0.04 0.03 0.04 0.01 0.01 0.01 0.00 0.00 0.00 0.00 0.00 0.00 0.00 0.00 0.00 0.00 0.00 0.00
0.00 0.00 0.00 0.00 0.00 0.00 0.00 0.00 0.00 0.00 0.00 0.00 0.02 0.03 0.01 0.01 0.02 0.04 0.03 0.03 0.03 0.01 0.04 0.02 0.14 0.07 0.03 0.02 0.02 0.04 0.02 0.00 0.00 0.00 0.00 0.00 0.00 0.00 0.00 0.00 0.00 0.00 0.00 0.00 0.00
0.00 0.00 0.00 0.00 0.00 0.00 0.00 0.00 0.00 0.00 0.00 0.00 0.02 0.02 0.01 0.00 0.01 0.02 0.03 0.01 0.01 0.00 0.00 0.00 0.03 0.02 0.01 0.04 0.02 0.02 0.01 0.00 0.00 0.00 0.00 0.00 0.00 0.00 0.00 0.00 0.00 0.00 0.00 0.00 0.00
0.00 0.01 0.01 0.00 0.00 0.01 0.00 0.00 0.00 0.00 0.00 0.00 0.01 0.01 0.00 0.00 0.01 0.01 0.02 0.00 0.00 0.00 0.00 0.01 0.01 0.02 0.04 0.05 0.05 0.01 0.01 0.01 0.00 0.00 0.00 0.00 0.00 0.00 0.00 0.00 0.00 0.00 0.00 0.00 0.00
0.00 0.00 0.00 0.00 0.02 0.01 0.00 0.00 0.00 0.00 0.00 0.00 0.00 0.00 0.00 0.01 0.01 0.01 0.01 0.00 0.00 0.00 0.00 0.00 0.02 0.01 0.03 0.01 0.01 0.02 0.01 0.00 0.00 0.00 0.00 0.00 0.00 0.00 0.00 0.00 0.00 0.00 0.00 0.00 0.00
0.00 0.00 0.00 0.01 0.00 0.00 0.00 0.00 0.00 0.00 0.00 0.00 0.00 0.00 0.00 0.01 0.01 0.00 0.00 0.00 0.00 0.00 0.00 0.00 0.00 0.01 0.02 0.01 0.00 0.00 0.00 0.00 0.00 0.00 0.00 0.00 0.00 0.00 0.00 0.00 0.00 0.00 0.00 0.00 0.00
0.00 0.00 0.00 0.00 0.00 0.00 0.00 0.00 0.00 0.00 0.00 0.00 0.00 0.00 0.00 0.01 0.00 0.00 0.00 0.00 0.00 0.00 0.00 0.00 0.00 0.00 0.01 0.00 0.00 0.00 0.00 0.00 0.01 0.01 0.00 0.00 0.00 0.00 0.00 0.00 0.00 0.00 0.00 0.00 0.00
0.00 0.00 0.00 0.00 0.00 0.00 0.00 0.00 0.00 0.00 0.00 0.00 0.00 0.00 0.00 0.00 0.01 0.01 0.00 0.00 0.00 0.00 0.00 0.00 0.00 0.00 0.00 0.00 0.00 0.00 0.00 0.00 0.00 0.00 0.00 0.00 0.00 0.00 0.00 0.00 0.00 0.00 0.00 0.00 0.00
0.00 0.00 0.00 0.00 0.00 0.00 0.00 0.00 0.00 0.00 0.00 0.00 0.00 0.00 0.00 0.00 0.00 0.01 0.00 0.00 0.00 0.00 0.00 0.00 0.00 0.00 0.00 0.00 0.00 0.00 0.00 0.00 0.00 0.00 0.00 0.00 0.00 0.00 0.00 0.00 0.00 0.00 0.00 0.00 0.00
0.00 0.00 0.00 0.00 0.00 0.00 0.00 0.00 0.00 0.00 0.00 0.00 0.00 0.00 0.00 0.00 0.00 0.00 0.00 0.00 0.00 0.00 0.00 0.01 0.00 0.00 0.01 0.00 0.00 0.00 0.00 0.00 0.00 0.00 0.00 0.00 0.00 0.00 0.00 0.00 0.00 0.00 0.00 0.00 0.00

GFSSW_prec_precacc12_084.txt.gz
Total_Precipitation_Accumulation
0.01 0.02 0.03 0.02 0.01 0.01 0.01 0.01 0.00 0.00 0.00 0.00 0.00 0.00 0.00 0.02 0.07 0.14 0.07 0.05 0.06 0.11 0.15 0.05 0.04 0.03 0.03 0.08 0.25 0.32 0.33 0.07 0.00 0.02 0.02 0.00 0.00 0.00 0.00 0.00 0.00 0.01 0.12 0.09 0.05
0.01 0.01 0.03 0.03 0.02 0.01 0.01 0.01 0.00 0.00 0.00 0.01 0.00 0.00 0.01 0.01 0.04 0.17 0.24 0.30 0.23 0.17 0.16 0.12 0.06 0.06 0.06 0.08 0.37 0.54 0.42 0.05 0.02 0.05 0.01 0.01 0.00 0.00 0.00 0.00 0.00 0.02 0.02 0.01 0.02
0.01 0.01 0.02 0.02 0.02 0.02 0.01 0.02 0.01 0.00 0.01 0.01 0.00 0.00 0.00 0.04 0.08 0.06 0.18 0.27 0.29 0.19 0.09 0.12 0.13 0.13 0.04 0.10 0.22 0.41 0.47 0.11 0.19 0.14 0.05 0.02 0.00 0.00 0.00 0.00 0.00 0.01 0.01 0.01 0.04
0.01 0.01 0.01 0.02 0.02 0.02 0.02 0.02 0.01 0.01 0.02 0.00 0.00 0.00 0.00 0.04 0.12 0.06 0.12 0.20 0.15 0.19 0.11 0.22 0.23 0.18 0.04 0.05 0.09 0.27 0.19 0.25 0.25 0.21 0.10 0.02 0.01 0.00 0.00 0.00 0.00 0.00 0.03 0.06 0.09
0.01 0.02 0.01 0.01 0.02 0.02 0.02 0.02 0.02 0.03 0.02 0.00 0.00 0.00 0.00 0.00 0.00 0.00 0.02 0.05 0.06 0.04 0.06 0.17 0.23 0.16 0.02 0.00 0.06 0.22 0.14 0.22 0.32 0.29 0.13 0.03 0.00 0.00 0.00 0.00 0.00 0.00 0.00 0.09 0.23
0.01 0.01 0.01 0.01 0.02 0.01 0.01 0.01 0.02 0.02 0.01 0.00 0.00 0.00 0.00 0.00 0.00 0.00 0.00 0.18 0.23 0.03 0.05 0.17 0.19 0.16 0.06 0.00 0.03 0.07 0.18 0.20 0.35 0.31 0.39 0.08 0.02 0.00 0.00 0.00 0.00 0.00 0.00 0.04 0.12
0.01 0.01 0.01 0.01 0.01 0.01 0.01 0.01 0.01 0.01 0.00 0.00 0.00 0.00 0.00 0.00 0.00 0.00 0.00 0.18 0.43 0.06 0.12 0.21 0.32 0.29 0.12 0.04 0.01 0.08 0.17 0.40 0.38 0.43 0.48 0.31 0.22 0.01 0.00 0.00 0.00 0.00 0.00 0.02 0.10
0.01 0.01 0.01 0.01 0.00 0.01 0.01 0.01 0.00 0.00 0.00 0.00 0.00 0.00 0.00 0.00 0.00 0.00 0.00 0.08 0.18 0.10 0.19 0.29 0.28 0.31 0.11 0.04 0.03 0.11 0.21 0.33 0.38 0.47 0.62 0.54 0.19 0.05 0.00 0.00 0.00 0.00 0.00 0.01 0.05
0.00 0.01 0.01 0.01 0.01 0.01 0.01 0.01 0.00 0.00 0.00 0.00 0.00 0.01 0.01 0.00 0.00 0.00 0.00 0.01 0.06 0.14 0.24 0.20 0.23 0.30 0.16 0.10 0.13 0.15 0.15 0.15 0.15 0.21 0.63 0.61 0.32 0.08 0.03 0.00 0.00 0.00 0.00 0.00 0.00
0.00 0.01 0.01 0.01 0.01 0.01 0.00 0.00 0.00 0.00 0.00 0.00 0.00 0.04 0.02 0.00 0.00 0.00 0.00 0.00 0.03 0.06 0.06 0.21 0.29 0.23 0.20 0.17 0.08 0.02 0.04 0.05 0.08 0.12 0.30 0.45 0.28 0.13 0.06 0.00 0.00 0.00 0.00 0.00 0.00
0.01 0.00 0.00 0.00 0.01 0.01 0.00 0.00 0.00 0.00 0.00 0.00 0.00 0.01 0.01 0.00 0.00 0.01 0.00 0.00 0.03 0.01 0.10 0.24 0.32 0.21 0.14 0.08 0.03 0.02 0.02 0.02 0.03 0.05 0.09 0.13 0.09 0.08 0.04 0.00 0.00 0.00 0.00 0.00 0.00
0.01 0.00 0.00 0.01 0.01 0.00 0.00 0.00 0.00 0.00 0.00 0.00 0.00 0.00 0.01 0.00 0.00 0.01 0.00 0.01 0.02 0.06 0.14 0.18 0.25 0.11 0.15 0.11 0.12 0.05 0.03 0.06 0.10 0.13 0.11 0.04 0.02 0.01 0.02 0.00 0.00 0.00 0.00 0.00 0.00
0.02 0.00 0.00 0.01 0.00 0.00 0.00 0.00 0.00 0.00 0.00 0.00 0.00 0.01 0.03 0.05 0.04 0.01 0.00 0.02 0.02 0.19 0.08 0.12 0.25 0.10 0.14 0.13 0.13 0.04 0.01 0.01 0.07 0.13 0.15 0.10 0.04 0.00 0.00 0.00 0.00 0.00 0.00 0.00 0.00
0.02 0.00 0.00 0.00 0.00 0.00 0.00 0.00 0.00 0.00 0.01 0.01 0.00 0.00 0.02 0.08 0.11 0.01 0.02 0.03 0.05 0.25 0.09 0.13 0.18 0.11 0.04 0.06 0.04 0.04 0.00 0.01 0.06 0.08 0.06 0.10 0.05 0.00 0.00 0.00 0.00 0.00 0.00 0.00 0.00
0.03 0.00 0.00 0.00 0.00 0.00 0.00 0.00 0.00 0.00 0.01 0.01 0.00 0.00 0.01 0.03 0.04 0.05 0.07 0.06 0.04 0.21 0.09 0.04 0.04 0.10 0.06 0.02 0.02 0.05 0.01 0.02 0.07 0.09 0.03 0.05 0.01 0.00 0.00 0.00 0.00 0.00 0.00 0.00 0.00
0.03 0.00 0.00 0.00 0.00 0.00 0.00 0.00 0.00 0.00 0.00 0.00 0.01 0.00 0.01 0.02 0.06 0.06 0.15 0.19 0.09 0.18 0.10 0.06 0.01 0.11 0.11 0.05 0.03 0.04 0.04 0.05 0.06 0.10 0.04 0.00 0.00 0.00 0.00 0.00 0.00 0.00 0.00 0.00 0.00
0.03 0.00 0.00 0.00 0.00 0.00 0.00 0.00 0.00 0.00 0.00 0.00 0.01 0.00 0.01 0.01 0.12 0.26 0.13 0.11 0.14 0.29 0.11 0.09 0.09 0.15 0.08 0.10 0.07 0.05 0.05 0.17 0.17 0.15 0.01 0.00 0.00 0.00 0.00 0.00 0.00 0.00 0.00 0.00 0.00
0.03 0.00 0.00 0.00 0.00 0.00 0.00 0.00 0.00 0.00 0.00 0.00 0.01 0.00 0.01 0.01 0.02 0.06 0.10 0.07 0.07 0.07 0.04 0.06 0.25 0.22 0.07 0.06 0.05 0.04 0.01 0.03 0.04 0.02 0.00 0.00 0.00 0.00 0.00 0.00 0.00 0.00 0.00 0.00 0.00
0.02 0.00 0.00 0.00 0.00 0.00 0.00 0.00 0.00 0.00 0.00 0.00 0.02 0.02 0.01 0.01 0.01 0.04 0.03 0.03 0.04 0.01 0.04 0.02 0.16 0.06 0.03 0.03 0.02 0.05 0.02 0.00 0.00 0.00 0.00 0.00 0.00 0.00 0.00 0.00 0.00 0.00 0.00 0.00 0.00
0.01 0.01 0.01 0.00 0.00 0.00 0.00 0.00 0.00 0.00 0.00 0.00 0.02 0.02 0.01 0.00 0.01 0.01 0.03 0.01 0.01 0.00 0.01 0.01 0.05 0.03 0.01 0.03 0.02 0.02 0.01 0.00 0.00 0.00 0.00 0.00 0.00 0.00 0.00 0.00 0.00 0.00 0.00 0.00 0.00
0.01 0.02 0.01 0.00 0.00 0.01 0.00 0.00 0.00 0.00 0.00 0.00 0.01 0.02 0.01 0.00 0.01 0.01 0.01 0.00 0.00 0.00 0.00 0.01 0.01 0.01 0.03 0.05 0.04 0.01 0.01 0.01 0.00 0.00 0.00 0.00 0.00 0.00 0.00 0.00 0.00 0.00 0.00 0.00 0.00
0.00 0.02 0.01 0.00 0.01 0.01 0.00 0.00 0.00 0.00 0.00 0.00 0.00 0.00 0.00 0.01 0.01 0.01 0.01 0.00 0.00 0.00 0.00 0.00 0.02 0.01 0.02 0.01 0.01 0.02 0.01 0.00 0.00 0.00 0.00 0.00 0.00 0.00 0.00 0.00 0.00 0.00 0.00 0.00 0.00
0.02 0.02 0.00 0.01 0.00 0.00 0.00 0.00 0.00 0.00 0.00 0.00 0.00 0.00 0.00 0.01 0.01 0.01 0.00 0.00 0.00 0.00 0.00 0.00 0.00 0.01 0.02 0.01 0.00 0.00 0.00 0.00 0.00 0.00 0.00 0.00 0.00 0.00 0.00 0.00 0.00 0.00 0.00 0.00 0.00
0.03 0.01 0.01 0.01 0.00 0.00 0.00 0.00 0.00 0.00 0.00 0.00 0.00 0.00 0.00 0.01 0.00 0.00 0.00 0.00 0.00 0.00 0.00 0.00 0.00 0.00 0.01 0.00 0.00 0.00 0.00 0.00 0.01 0.01 0.00 0.00 0.00 0.00 0.00 0.00 0.00 0.00 0.00 0.00 0.00
0.02 0.00 0.00 0.00 0.00 0.00 0.00 0.00 0.00 0.00 0.00 0.00 0.00 0.00 0.00 0.00 0.01 0.01 0.00 0.00 0.00 0.00 0.00 0.00 0.00 0.00 0.00 0.00 0.00 0.00 0.00 0.00 0.00 0.00 0.00 0.00 0.00 0.00 0.00 0.00 0.00 0.00 0.00 0.00 0.00
0.01 0.00 0.00 0.00 0.00 0.00 0.00 0.00 0.00 0.00 0.00 0.00 0.00 0.00 0.00 0.00 0.00 0.01 0.00 0.00 0.00 0.00 0.00 0.00 0.00 0.00 0.00 0.00 0.00 0.00 0.00 0.00 0.00 0.00 0.00 0.00 0.00 0.00 0.00 0.00 0.00 0.00 0.00 0.00 0.00
0.00 0.00 0.00 0.00 0.00 0.00 0.00 0.00 0.00 0.00 0.00 0.00 0.00 0.00 0.00 0.00 0.00 0.00 0.00 0.00 0.00 0.00 0.00 0.01 0.00 0.00 0.01 0.00 0.00 0.00 0.00 0.00 0.00 0.00 0.00 0.00 0.00 0.00 0.00 0.00 0.00 0.00 0.00 0.00 0.00

GFSSW_prec_precacc12_087.txt.gz
Total_Precipitation_Accumulation
0.01 0.01 0.02 0.03 0.02 0.01 0.01 0.02 0.01 0.00 0.00 0.00 0.00 0.00 0.00 0.00 0.00 0.02 0.02 0.04 0.06 0.09 0.12 0.04 0.07 0.07 0.07 0.06 0.23 0.47 0.59 0.23 0.00 0.02 0.02 0.00 0.00 0.00 0.00 0.00 0.00 0.01 0.10 0.07 0.05
0.01 0.01 0.01 0.03 0.02 0.01 0.01 0.02 0.02 0.01 0.00 0.01 0.01 0.00 0.00 0.00 0.01 0.04 0.12 0.24 0.24 0.20 0.15 0.15 0.11 0.15 0.12 0.06 0.33 0.61 0.63 0.28 0.03 0.05 0.01 0.01 0.00 0.00 0.00 0.00 0.00 0.02 0.02 0.00 0.01
0.01 0.01 0.01 0.01 0.02 0.02 0.02 0.02 0.01 0.01 0.01 0.01 0.00 0.00 0.00 0.00 0.02 0.04 0.10 0.18 0.29 0.24 0.06 0.09 0.15 0.23 0.10 0.11 0.21 0.54 0.58 0.24 0.23 0.16 0.05 0.03 0.01 0.00 0.00 0.00 0.00 0.01 0.01 0.00 0.02
0.00 0.01 0.01 0.01 0.01 0.02 0.02 0.03 0.01 0.02 0.03 0.01 0.00 0.00 0.00 0.00 0.03 0.03 0.03 0.15 0.14 0.21 0.12 0.19 0.23 0.25 0.06 0.06 0.10 0.35 0.50 0.34 0.33 0.26 0.13 0.03 0.01 0.00 0.00 0.00 0.00 0.01 0.04 0.04 0.04
0.01 0.01 0.01 0.00 0.01 0.02 0.02 0.02 0.02 0.03 0.03 0.01 0.00 0.00 0.00 0.00 0.00 0.00 0.01 0.05 0.06 0.04 0.06 0.14 0.23 0.20 0.04 0.00 0.07 0.24 0.38 0.46 0.32 0.33 0.18 0.05 0.01 0.01 0.00 0.00 0.00 0.01 0.03 0.09 0.16
0.03 0.01 0.01 0.01 0.01 0.01 0.01 0.01 0.01 0.02 0.01 0.01 0.01 0.00 0.00 0.00 0.00 0.00 0.00 0.19 0.27 0.04 0.03 0.10 0.19 0.21 0.08 0.02 0.04 0.09 0.34 0.43 0.41 0.32 0.44 0.12 0.04 0.01 0.00 0.00 0.01 0.03 0.10 0.09 0.13
0.05 0.02 0.01 0.01 0.01 0.00 0.01 0.01 0.01 0.01 0.00 0.00 0.01 0.00 0.00 0.00 0.00 0.00 0.00 0.30 0.55 0.06 0.07 0.15 0.29 0.32 0.17 0.05 0.01 0.09 0.34 0.59 0.43 0.42 0.50 0.34 0.23 0.02 0.00 0.00 0.01 0.01 0.03 0.11 0.20
0.07 0.02 0.01 0.01 0.00 0.01 0.01 0.00 0.01 0.00 0.00 0.00 0.00 0.00 0.00 0.00 0.00 0.00 0.00 0.11 0.27 0.10 0.17 0.27 0.30 0.34 0.12 0.05 0.02 0.11 0.34 0.57 0.52 0.62 0.78 0.60 0.28 0.06 0.00 0.00 0.00 0.00 0.01 0.08 0.14
0.09 0.04 0.02 0.00 0.00 0.00 0.01 0.00 0.00 0.00 0.00 0.00 0.00 0.01 0.01 0.00 0.00 0.00 0.00 0.01 0.11 0.21 0.36 0.25 0.38 0.54 0.12 0.11 0.12 0.15 0.26 0.38 0.34 0.37 0.97 0.84 0.48 0.11 0.03 0.00 0.00 0.00 0.00 0.01 0.05
0.08 0.07 0.02 0.01 0.01 0.00 0.00 0.00 0.00 0.00 0.00 0.00 0.00 0.02 0.02 0.00 0.00 0.00 0.00 0.00 0.03 0.15 0.39 0.19 0.42 0.49 0.18 0.14 0.09 0.02 0.10 0.15 0.29 0.26 0.54 0.75 0.41 0.27 0.07 0.00 0.00 0.00 0.00 0.00 0.00
0.11 0.08 0.04 0.01 0.00 0.01 0.00 0.00 0.00 0.00 0.00 0.00 0.00 0.00 0.00 0.00 0.00 0.00 0.00 0.00 0.01 0.02 0.07 0.08 0.29 0.23 0.14 0.09 0.05 0.02 0.02 0.05 0.10 0.13 0.18 0.29 0.33 0.25 0.07 0.00 0.00 0.00 0.00 0.00 0.00
0.12 0.08 0.04 0.01 0.01 0.00 0.00 0.00 0.00 0.00 0.00 0.00 0.00 0.00 0.00 0.00 0.00 0.00 0.00 0.00 0.00 0.00 0.00 0.07 0.20 0.11 0.17 0.12 0.12 0.07 0.02 0.04 0.11 0.16 0.13 0.11 0.11 0.17 0.08 0.01 0.00 0.00 0.00 0.00 0.00
0.15 0.10 0.06 0.02 0.00 0.00 0.00 0.00 0.00 0.00 0.00 0.00 0.00 0.00 0.00 0.00 0.00 0.00 0.00 0.00 0.00 0.00 0.00 0.10 0.23 0.06 0.15 0.15 0.14 0.06 0.01 0.01 0.07 0.13 0.16 0.15 0.07 0.02 0.05 0.01 0.00 0.00 0.00 0.00 0.00
0.18 0.13 0.07 0.01 0.00 0.00 0.00 0.00 0.00 0.00 0.00 0.01 0.00 0.00 0.01 0.02 0.00 0.00 0.00 0.01 0.00 0.01 0.01 0.10 0.21 0.04 0.03 0.13 0.08 0.06 0.01 0.02 0.08 0.08 0.10 0.19 0.10 0.00 0.00 0.01 0.00 0.00 0.00 0.00 0.00
0.19 0.15 0.09 0.02 0.00 0.00 0.00 0.00 0.00 0.00 0.00 0.00 0.00 0.00 0.01 0.02 0.01 0.01 0.01 0.04 0.01 0.09 0.08 0.04 0.09 0.06 0.03 0.07 0.05 0.05 0.02 0.04 0.10 0.12 0.04 0.10 0.09 0.00 0.00 0.00 0.00 0.00 0.00 0.00 0.00
0.19 0.15 0.07 0.02 0.00 0.00 0.00 0.00 0.00 0.00 0.00 0.00 0.01 0.00 0.00 0.02 0.09 0.04 0.05 0.08 0.05 0.16 0.10 0.07 0.02 0.08 0.09 0.06 0.04 0.08 0.05 0.07 0.13 0.16 0.05 0.00 0.00 0.00 0.00 0.00 0.00 0.00 0.00 0.00 0.00
0.22 0.15 0.05 0.03 0.00 0.00 0.00 0.00 0.00 0.00 0.00 0.00 0.00 0.00 0.00 0.04 0.18 0.23 0.06 0.03 0.11 0.28 0.11 0.09 0.09 0.15 0.09 0.09 0.10 0.10 0.05 0.22 0.25 0.27 0.02 0.00 0.00 0.00 0.00 0.00 0.00 0.00 0.00 0.00 0.00
0.25 0.15 0.08 0.05 0.00 0.00 0.00 0.00 0.00 0.00 0.00 0.00 0.00 0.00 0.00 0.00 0.02 0.05 0.08 0.04 0.06 0.06 0.04 0.04 0.22 0.25 0.08 0.07 0.09 0.05 0.01 0.03 0.07 0.04 0.00 0.00 0.00 0.00 0.00 0.00 0.00 0.00 0.00 0.00 0.00
0.29 0.13 0.07 0.03 0.00 0.00 0.00 0.00 0.00 0.00 0.00 0.00 0.01 0.01 0.01 0.00 0.00 0.03 0.02 0.02 0.03 0.01 0.03 0.01 0.16 0.06 0.10 0.03 0.06 0.04 0.01 0.00 0.00 0.00 0.00 0.00 0.00 0.00 0.00 0.00 0.00 0.00 0.00 0.00 0.00
0.25 0.13 0.07 0.02 0.00 0.00 0.00 0.00 0.00 0.00 0.00 0.00 0.02 0.02 0.01 0.00 0.00 0.01 0.02 0.01 0.01 0.01 0.01 0.01 0.05 0.03 0.03 0.02 0.02 0.02 0.00 0.00 0.00 0.00 0.00 0.00 0.00 0.00 0.00 0.00 0.00 0.00 0.00 0.00 0.00
0.27 0.17 0.07 0.01 0.00 0.01 0.00 0.00 0.00 0.00 0.00 0.00 0.01 0.01 0.01 0.00 0.01 0.01 0.00 0.00 0.00 0.00 0.00 0.00 0.01 0.01 0.02 0.02 0.02 0.00 0.01 0.01 0.00 0.00 0.00 0.00 0.00 0.00 0.00 0.00 0.00 0.00 0.00 0.00 0.00
0.23 0.16 0.06 0.00 0.01 0.01 0.00 0.00 0.00 0.00 0.00 0.00 0.00 0.00 0.00 0.00 0.00 0.01 0.00 0.00 0.00 0.00 0.00 0.00 0.01 0.00 0.01 0.01 0.01 0.02 0.00 0.00 0.00 0.00 0.00 0.00 0.00 0.00 0.00 0.00 0.00 0.00 0.00 0.00 0.00
0.17 0.16 0.06 0.01 0.00 0.00 0.00 0.00 0.00 0.00 0.00 0.00 0.00 0.00 0.00 0.01 0.01 0.01 0.00 0.00 0.00 0.00 0.00 0.00 0.00 0.00 0.01 0.01 0.00 0.00 0.00 0.00 0.00 0.00 0.00 0.00 0.00 0.00 0.00 0.00 0.00 0.00 0.00 0.00 0.00
0.12 0.13 0.10 0.03 0.00 0.00 0.00 0.00 0.00 0.00 0.00 0.00 0.00 0.00 0.00 0.01 0.00 0.00 0.00 0.00 0.00 0.00 0.00 0.00 0.00 0.00 0.01 0.00 0.00 0.00 0.00 0.00 0.01 0.00 0.00 0.00 0.00 0.00 0.00 0.00 0.00 0.00 0.00 0.00 0.00
0.10 0.04 0.01 0.02 0.00 0.00 0.00 0.00 0.00 0.00 0.00 0.00 0.00 0.00 0.00 0.00 0.01 0.01 0.00 0.00 0.00 0.00 0.00 0.00 0.00 0.00 0.00 0.00 0.00 0.00 0.00 0.00 0.00 0.00 0.00 0.00 0.00 0.00 0.00 0.00 0.00 0.00 0.00 0.00 0.00
0.08 0.01 0.00 0.00 0.00 0.00 0.00 0.00 0.00 0.00 0.00 0.00 0.00 0.00 0.00 0.00 0.00 0.01 0.00 0.00 0.00 0.00 0.00 0.00 0.00 0.00 0.00 0.00 0.00 0.00 0.00 0.00 0.00 0.00 0.00 0.00 0.00 0.00 0.00 0.00 0.00 0.00 0.00 0.00 0.00
0.04 0.01 0.00 0.00 0.00 0.00 0.00 0.00 0.00 0.00 0.00 0.00 0.00 0.00 0.00 0.00 0.00 0.00 0.00 0.00 0.00 0.00 0.00 0.01 0.00 0.00 0.00 0.00 0.00 0.00 0.00 0.00 0.00 0.00 0.00 0.00 0.00 0.00 0.00 0.00 0.00 0.00 0.00 0.00 0.00

GFSSW_prec_precacc12_090.txt.gz
Total_Precipitation_Accumulation
0.01 0.01 0.01 0.01 0.02 0.01 0.02 0.02 0.01 0.01 0.01 0.00 0.01 0.02 0.01 0.00 0.00 0.00 0.00 0.00 0.02 0.07 0.11 0.04 0.07 0.07 0.08 0.06 0.21 0.45 0.57 0.32 0.05 0.00 0.01 0.00 0.00 0.00 0.00 0.00 0.01 0.01 0.00 0.03 0.13
0.01 0.01 0.02 0.01 0.01 0.02 0.02 0.02 0.01 0.01 0.01 0.02 0.01 0.01 0.00 0.00 0.00 0.00 0.05 0.13 0.19 0.18 0.15 0.14 0.10 0.17 0.16 0.08 0.28 0.53 0.60 0.30 0.07 0.05 0.01 0.02 0.00 0.00 0.00 0.01 0.04 0.04 0.01 0.01 0.08
0.04 0.02 0.02 0.01 0.01 0.01 0.02 0.02 0.02 0.01 0.02 0.02 0.01 0.01 0.00 0.00 0.00 0.00 0.05 0.12 0.25 0.21 0.06 0.09 0.13 0.23 0.16 0.16 0.22 0.47 0.49 0.23 0.22 0.16 0.06 0.04 0.02 0.00 0.00 0.01 0.00 0.01 0.01 0.00 0.01
0.05 0.03 0.04 0.02 0.01 0.01 0.02 0.02 0.02 0.01 0.03 0.03 0.02 0.01 0.00 0.00 0.00 0.00 0.00 0.00 0.05 0.17 0.13 0.19 0.21 0.26 0.13 0.11 0.15 0.33 0.43 0.30 0.35 0.32 0.22 0.04 0.03 0.00 0.00 0.00 0.00 0.01 0.04 0.03 0.01
0.08 0.05 0.04 0.03 0.01 0.01 0.01 0.02 0.01 0.02 0.03 0.02 0.01 0.01 0.00 0.00 0.00 0.00 0.01 0.02 0.03 0.03 0.05 0.13 0.17 0.18 0.07 0.06 0.09 0.21 0.35 0.46 0.42 0.45 0.36 0.10 0.05 0.02 0.01 0.00 0.02 0.02 0.04 0.08 0.11
0.10 0.05 0.04 0.04 0.02 0.01 0.00 0.01 0.01 0.02 0.02 0.01 0.02 0.01 0.00 0.00 0.00 0.00 0.00 0.18 0.26 0.05 0.03 0.07 0.18 0.23 0.12 0.06 0.09 0.09 0.32 0.47 0.64 0.49 0.63 0.18 0.08 0.03 0.02 0.02 0.10 0.15 0.15 0.09 0.09
0.12 0.07 0.05 0.04 0.03 0.01 0.00 0.01 0.01 0.01 0.00 0.00 0.02 0.00 0.00 0.00 0.00 0.00 0.00 0.30 0.54 0.07 0.04 0.05 0.25 0.31 0.22 0.08 0.04 0.10 0.36 0.49 0.74 0.80 0.83 0.30 0.19 0.06 0.03 0.04 0.10 0.12 0.16 0.21 0.25
0.14 0.10 0.06 0.05 0.04 0.02 0.00 0.01 0.00 0.01 0.00 0.00 0.00 0.00 0.00 0.00 0.00 0.00 0.00 0.11 0.28 0.08 0.13 0.17 0.31 0.44 0.29 0.15 0.08 0.13 0.37 0.59 0.65 0.91 1.14 0.55 0.29 0.09 0.04 0.06 0.06 0.14 0.21 0.23 0.23
0.16 0.13 0.08 0.07 0.03 0.01 0.00 0.00 0.00 0.00 0.00 0.00 0.00 0.00 0.00 0.00 0.00 0.00 0.00 0.01 0.14 0.21 0.34 0.28 0.39 0.54 0.23 0.16 0.15 0.15 0.27 0.43 0.49 0.63 1.23 0.79 0.42 0.13 0.05 0.03 0.01 0.05 0.12 0.20 0.28
0.16 0.16 0.11 0.08 0.05 0.03 0.00 0.00 0.00 0.00 0.00 0.00 0.00 0.00 0.00 0.00 0.00 0.00 0.00 0.00 0.02 0.16 0.39 0.22 0.57 0.55 0.12 0.13 0.08 0.02 0.10 0.20 0.40 0.42 0.79 0.94 0.41 0.32 0.08 0.01 0.00 0.00 0.02 0.02 0.08
0.17 0.15 0.14 0.10 0.04 0.01 0.01 0.00 0.00 0.00 0.00 0.00 0.00 0.00 0.00 0.00 0.00 0.00 0.00 0.00 0.00 0.04 0.15 0.14 0.52 0.53 0.08 0.07 0.05 0.02 0.02 0.06 0.26 0.38 0.37 0.49 0.41 0.39 0.14 0.00 0.00 0.00 0.00 0.00 0.01
0.16 0.15 0.15 0.09 0.05 0.02 0.01 0.00 0.00 0.00 0.00 0.00 0.00 0.00 0.00 0.00 0.00 0.00 0.00 0.00 0.00 0.00 0.00 0.03 0.21 0.29 0.20 0.14 0.10 0.03 0.02 0.05 0.21 0.40 0.28 0.25 0.21 0.23 0.30 0.03 0.00 0.00 0.00 0.00 0.00
0.16 0.16 0.19 0.11 0.03 0.02 0.01 0.00 0.00 0.00 0.00 0.00 0.00 0.00 0.00 0.00 0.00 0.00 0.00 0.00 0.00 0.00 0.00 0.04 0.22 0.06 0.18 0.18 0.12 0.06 0.02 0.01 0.07 0.18 0.21 0.22 0.11 0.04 0.15 0.11 0.01 0.00 0.00 0.00 0.00
0.19 0.21 0.21 0.10 0.02 0.01 0.02 0.00 0.00 0.00 0.00 0.00 0.00 0.00 0.00 0.00 0.00 0.00 0.00 0.00 0.00 0.00 0.00 0.06 0.20 0.03 0.04 0.15 0.09 0.05 0.03 0.04 0.09 0.06 0.12 0.22 0.14 0.00 0.02 0.06 0.04 0.00 0.00 0.00 0.00
0.20 0.24 0.24 0.09 0.06 0.04 0.02 0.00 0.00 0.00 0.00 0.00 0.00 0.00 0.00 0.00 0.00 0.00 0.00 0.01 0.00 0.00 0.00 0.02 0.09 0.04 0.03 0.14 0.06 0.05 0.02 0.06 0.11 0.11 0.04 0.11 0.12 0.00 0.00 0.01 0.00 0.00 0.00 0.00 0.00
0.20 0.23 0.23 0.11 0.05 0.03 0.01 0.00 0.00 0.00 0.00 0.00 0.00 0.00 0.00 0.01 0.09 0.01 0.02 0.01 0.00 0.00 0.05 0.07 0.02 0.04 0.07 0.10 0.07 0.08 0.05 0.09 0.12 0.16 0.05 0.00 0.00 0.00 0.00 0.00 0.00 0.00 0.00 0.00 0.00
0.23 0.21 0.17 0.07 0.05 0.03 0.01 0.00 0.00 0.00 0.00 0.00 0.00 0.00 0.00 0.04 0.20 0.08 0.01 0.00 0.08 0.15 0.11 0.10 0.06 0.07 0.10 0.08 0.09 0.12 0.07 0.30 0.34 0.35 0.03 0.00 0.00 0.00 0.00 0.00 0.00 0.00 0.00 0.00 0.00
0.27 0.24 0.18 0.09 0.05 0.03 0.01 0.00 0.00 0.00 0.00 0.00 0.00 0.00 0.00 0.00 0.02 0.03 0.03 0.00 0.05 0.04 0.04 0.03 0.19 0.19 0.07 0.07 0.11 0.07 0.02 0.05 0.08 0.06 0.00 0.00 0.00 0.00 0.00 0.00 0.00 0.00 0.00 0.00 0.00
0.35 0.26 0.15 0.09 0.09 0.06 0.01 0.00 0.00 0.00 0.00 0.00 0.00 0.00 0.00 0.00 0.01 0.02 0.01 0.01 0.03 0.01 0.02 0.01 0.16 0.08 0.15 0.03 0.07 0.03 0.00 0.00 0.00 0.00 0.00 0.00 0.00 0.00 0.00 0.00 0.00 0.00 0.00 0.00 0.00
0.42 0.32 0.15 0.10 0.10 0.07 0.01 0.00 0.00 0.00 0.00 0.00 0.01 0.01 0.01 0.00 0.00 0.00 0.01 0.01 0.01 0.01 0.00 0.00 0.05 0.14 0.12 0.04 0.02 0.00 0.00 0.00 0.00 0.00 0.00 0.00 0.00 0.00 0.00 0.00 0.00 0.00 0.00 0.00 0.00
0.44 0.38 0.16 0.14 0.10 0.07 0.01 0.00 0.00 0.00 0.00 0.00 0.01 0.01 0.00 0.00 0.00 0.00 0.00 0.00 0.00 0.00 0.00 0.00 0.00 0.02 0.00 0.01 0.00 0.00 0.00 0.00 0.00 0.00 0.00 0.00 0.00 0.00 0.00 0.00 0.00 0.00 0.00 0.00 0.00
0.45 0.32 0.11 0.14 0.11 0.03 0.00 0.00 0.00 0.00 0.00 0.00 0.00 0.00 0.00 0.00 0.00 0.01 0.00 0.00 0.00 0.00 0.00 0.00 0.00 0.00 0.00 0.00 0.00 0.00 0.00 0.00 0.00 0.00 0.00 0.00 0.00 0.00 0.00 0.00 0.00 0.00 0.00 0.00 0.00
0.35 0.28 0.24 0.12 0.05 0.01 0.00 0.00 0.00 0.00 0.00 0.00 0.00 0.00 0.00 0.00 0.01 0.00 0.00 0.00 0.00 0.00 0.00 0.00 0.00 0.00 0.01 0.00 0.00 0.00 0.00 0.00 0.00 0.00 0.00 0.00 0.00 0.00 0.00 0.00 0.00 0.00 0.00 0.00 0.00
0.20 0.29 0.33 0.16 0.02 0.00 0.00 0.00 0.00 0.00 0.00 0.00 0.00 0.00 0.00 0.01 0.00 0.00 0.00 0.00 0.00 0.00 0.00 0.00 0.00 0.00 0.00 0.00 0.00 0.00 0.00 0.00 0.01 0.00 0.00 0.00 0.00 0.00 0.00 0.00 0.00 0.00 0.00 0.00 0.00
0.15 0.08 0.06 0.06 0.01 0.00 0.00 0.00 0.00 0.00 0.00 0.00 0.00 0.00 0.00 0.00 0.00 0.00 0.00 0.00 0.00 0.00 0.00 0.00 0.00 0.00 0.00 0.00 0.00 0.00 0.00 0.00 0.00 0.00 0.00 0.00 0.00 0.00 0.00 0.00 0.00 0.00 0.00 0.00 0.00
0.09 0.02 0.00 0.00 0.00 0.00 0.00 0.00 0.00 0.00 0.00 0.00 0.00 0.00 0.00 0.00 0.00 0.00 0.00 0.00 0.00 0.00 0.00 0.00 0.00 0.00 0.00 0.00 0.00 0.00 0.00 0.00 0.00 0.00 0.00 0.00 0.00 0.00 0.00 0.00 0.00 0.00 0.00 0.00 0.00
0.07 0.01 0.01 0.01 0.00 0.00 0.00 0.00 0.00 0.00 0.00 0.00 0.00 0.00 0.00 0.00 0.00 0.00 0.00 0.00 0.00 0.00 0.00 0.00 0.00 0.00 0.00 0.00 0.00 0.00 0.00 0.00 0.00 0.00 0.00 0.00 0.00 0.00 0.00 0.00 0.00 0.00 0.00 0.00 0.00

GFSSW_prec_precacc12_093.txt.gz
Total_Precipitation_Accumulation
0.01 0.00 0.01 0.01 0.01 0.01 0.02 0.02 0.01 0.01 0.01 0.01 0.02 0.02 0.01 0.00 0.00 0.00 0.00 0.00 0.00 0.02 0.06 0.03 0.06 0.07 0.07 0.05 0.17 0.41 0.55 0.32 0.06 0.00 0.00 0.01 0.01 0.01 0.00 0.00 0.00 0.00 0.00 0.02 0.19
0.02 0.02 0.02 0.01 0.01 0.01 0.02 0.02 0.02 0.01 0.01 0.03 0.03 0.02 0.01 0.00 0.00 0.00 0.00 0.01 0.05 0.09 0.05 0.11 0.09 0.16 0.14 0.08 0.20 0.49 0.51 0.30 0.05 0.02 0.01 0.02 0.01 0.01 0.01 0.01 0.05 0.04 0.02 0.01 0.11
0.09 0.05 0.02 0.03 0.02 0.01 0.00 0.01 0.02 0.01 0.02 0.03 0.04 0.02 0.01 0.00 0.00 0.00 0.00 0.02 0.12 0.15 0.04 0.07 0.10 0.19 0.15 0.15 0.17 0.43 0.41 0.19 0.12 0.11 0.06 0.05 0.02 0.01 0.04 0.04 0.01 0.01 0.01 0.00 0.02
0.10 0.09 0.07 0.03 0.02 0.01 0.01 0.02 0.02 0.02 0.02 0.04 0.04 0.01 0.00 0.00 0.00 0.00 0.00 0.00 0.04 0.11 0.08 0.16 0.19 0.23 0.12 0.10 0.14 0.32 0.40 0.25 0.26 0.26 0.23 0.07 0.06 0.04 0.04 0.01 0.01 0.02 0.05 0.03 0.02
0.12 0.10 0.09 0.04 0.03 0.02 0.01 0.01 0.01 0.02 0.03 0.04 0.04 0.01 0.00 0.00 0.00 0.00 0.00 0.00 0.00 0.00 0.03 0.10 0.16 0.17 0.07 0.07 0.11 0.24 0.32 0.42 0.36 0.36 0.35 0.14 0.07 0.05 0.03 0.02 0.04 0.13 0.18 0.12 0.08
0.12 0.09 0.10 0.08 0.05 0.02 0.01 0.01 0.01 0.01 0.03 0.03 0.03 0.02 0.00 0.00 0.00 0.00 0.00 0.08 0.11 0.02 0.02 0.07 0.17 0.21 0.11 0.07 0.14 0.13 0.31 0.45 0.60 0.43 0.48 0.28 0.09 0.06 0.03 0.06 0.17 0.33 0.21 0.14 0.08
0.13 0.12 0.10 0.07 0.05 0.03 0.02 0.01 0.01 0.01 0.01 0.01 0.04 0.02 0.00 0.00 0.00 0.00 0.00 0.24 0.34 0.06 0.04 0.06 0.21 0.27 0.20 0.09 0.07 0.13 0.39 0.44 0.63 0.68 0.77 0.53 0.29 0.08 0.04 0.11 0.24 0.31 0.31 0.27 0.26
0.15 0.12 0.09 0.09 0.08 0.04 0.01 0.01 0.00 0.01 0.00 0.01 0.03 0.00 0.00 0.00 0.00 0.00 0.00 0.11 0.22 0.03 0.08 0.10 0.25 0.42 0.30 0.24 0.15 0.14 0.36 0.54 0.56 0.77 1.20 0.92 0.50 0.14 0.05 0.13 0.18 0.35 0.50 0.37 0.24
0.16 0.15 0.16 0.18 0.10 0.05 0.02 0.01 0.00 0.01 0.01 0.02 0.02 0.00 0.00 0.00 0.00 0.00 0.00 0.01 0.13 0.17 0.29 0.22 0.35 0.50 0.25 0.32 0.23 0.16 0.24 0.38 0.43 0.54 1.37 1.30 0.79 0.29 0.06 0.07 0.08 0.15 0.27 0.43 0.48
0.16 0.16 0.16 0.16 0.10 0.06 0.02 0.01 0.01 0.00 0.00 0.01 0.00 0.00 0.00 0.00 0.00 0.00 0.00 0.00 0.02 0.14 0.37 0.19 0.42 0.54 0.16 0.27 0.17 0.02 0.11 0.20 0.40 0.40 0.92 1.39 0.81 0.42 0.08 0.03 0.04 0.06 0.11 0.13 0.31
0.17 0.15 0.17 0.18 0.08 0.03 0.02 0.01 0.02 0.01 0.00 0.00 0.00 0.00 0.00 0.00 0.00 0.00 0.00 0.00 0.01 0.04 0.15 0.15 0.40 0.56 0.10 0.09 0.06 0.01 0.04 0.08 0.27 0.39 0.44 0.82 0.77 0.52 0.14 0.02 0.02 0.04 0.05 0.08 0.14
0.16 0.15 0.16 0.16 0.09 0.05 0.03 0.03 0.01 0.00 0.00 0.00 0.00 0.00 0.00 0.00 0.00 0.00 0.00 0.00 0.00 0.00 0.00 0.03 0.18 0.42 0.21 0.14 0.09 0.05 0.04 0.06 0.21 0.42 0.41 0.51 0.59 0.34 0.32 0.05 0.02 0.03 0.02 0.02 0.04
0.16 0.16 0.20 0.19 0.06 0.03 0.03 0.03 0.01 0.00 0.00 0.00 0.00 0.00 0.00 0.00 0.00 0.00 0.00 0.00 0.00 0.00 0.00 0.04 0.19 0.09 0.13 0.15 0.14 0.06 0.03 0.01 0.10 0.18 0.20 0.28 0.36 0.20 0.17 0.13 0.03 0.01 0.00 0.00 0.00
0.19 0.21 0.24 0.16 0.04 0.02 0.04 0.03 0.02 0.00 0.00 0.00 0.00 0.00 0.00 0.00 0.00 0.00 0.00 0.00 0.00 0.00 0.00 0.03 0.19 0.04 0.05 0.14 0.11 0.06 0.03 0.05 0.09 0.04 0.10 0.23 0.21 0.11 0.06 0.10 0.07 0.01 0.00 0.00 0.00
0.20 0.24 0.27 0.14 0.08 0.06 0.05 0.05 0.03 0.00 0.01 0.00 0.00 0.00 0.00 0.00 0.00 0.00 0.00 0.00 0.00 0.00 0.00 0.02 0.10 0.04 0.05 0.14 0.06 0.05 0.03 0.06 0.09 0.08 0.03 0.10 0.14 0.04 0.02 0.02 0.03 0.01 0.01 0.00 0.00
0.20 0.23 0.25 0.17 0.06 0.06 0.05 0.03 0.01 0.02 0.01 0.00 0.00 0.00 0.00 0.01 0.08 0.00 0.01 0.00 0.00 0.00 0.04 0.06 0.02 0.04 0.07 0.12 0.06 0.08 0.06 0.08 0.09 0.13 0.05 0.00 0.01 0.00 0.00 0.00 0.00 0.01 0.00 0.02 0.00
0.23 0.22 0.18 0.09 0.06 0.07 0.06 0.02 0.04 0.01 0.00 0.00 0.00 0.00 0.00 0.04 0.15 0.01 0.00 0.00 0.00 0.02 0.10 0.08 0.02 0.06 0.12 0.16 0.13 0.12 0.15 0.24 0.30 0.35 0.03 0.00 0.00 0.00 0.00 0.00 0.00 0.00 0.00 0.01 0.01
0.27 0.24 0.18 0.10 0.07 0.09 0.08 0.04 0.03 0.01 0.00 0.00 0.00 0.00 0.00 0.00 0.01 0.01 0.01 0.00 0.00 0.00 0.04 0.03 0.05 0.14 0.07 0.07 0.14 0.12 0.05 0.05 0.08 0.07 0.00 0.00 0.00 0.00 0.00 0.00 0.00 0.00 0.00 0.00 0.00
0.36 0.26 0.16 0.10 0.13 0.14 0.10 0.05 0.01 0.01 0.00 0.00 0.00 0.00 0.00 0.00 0.01 0.00 0.00 0.00 0.01 0.00 0.01 0.01 0.09 0.05 0.16 0.03 0.07 0.03 0.00 0.00 0.00 0.00 0.00 0.00 0.00 0.00 0.00 0.00 0.00 0.00 0.00 0.00 0.00
0.44 0.37 0.24 0.15 0.18 0.21 0.12 0.02 0.01 0.00 0.00 0.00 0.00 0.00 0.00 0.00 0.00 0.00 0.00 0.00 0.01 0.01 0.00 0.00 0.07 0.25 0.13 0.04 0.03 0.00 0.00 0.00 0.00 0.00 0.00 0.00 0.00 0.00 0.00 0.00 0.00 0.00 0.00 0.00 0.00
0.46 0.41 0.25 0.31 0.21 0.22 0.08 0.02 0.01 0.00 0.00 0.00 0.00 0.00 0.00 0.00 0.00 0.00 0.00 0.00 0.01 0.00 0.00 0.00 0.02 0.05 0.00 0.01 0.00 0.00 0.00 0.00 0.00 0.00 0.00 0.00 0.00 0.00 0.00 0.00 0.00 0.00 0.00 0.00 0.00
0.52 0.36 0.17 0.31 0.23 0.09 0.01 0.01 0.00 0.00 0.00 0.00 0.00 0.00 0.00 0.00 0.00 0.00 0.00 0.00 0.00 0.00 0.00 0.00 0.00 0.00 0.00 0.00 0.00 0.00 0.00 0.00 0.00 0.00 0.00 0.00 0.00 0.00 0.00 0.00 0.00 0.00 0.00 0.00 0.00
0.45 0.31 0.36 0.20 0.08 0.01 0.01 0.02 0.00 0.00 0.00 0.00 0.00 0.00 0.00 0.00 0.00 0.00 0.00 0.00 0.00 0.00 0.00 0.00 0.00 0.00 0.00 0.00 0.00 0.00 0.00 0.00 0.00 0.00 0.00 0.00 0.00 0.00 0.00 0.00 0.00 0.00 0.00 0.00 0.00
0.32 0.36 0.55 0.33 0.04 0.01 0.04 0.02 0.00 0.00 0.00 0.00 0.00 0.00 0.00 0.00 0.00 0.00 0.00 0.00 0.00 0.00 0.00 0.00 0.00 0.00 0.00 0.00 0.00 0.00 0.00 0.00 0.00 0.00 0.00 0.00 0.00 0.00 0.00 0.00 0.00 0.00 0.00 0.00 0.00
0.25 0.11 0.10 0.11 0.04 0.01 0.02 0.00 0.00 0.00 0.00 0.00 0.00 0.00 0.00 0.00 0.00 0.00 0.00 0.00 0.00 0.00 0.00 0.00 0.00 0.00 0.00 0.00 0.00 0.00 0.00 0.00 0.00 0.00 0.00 0.00 0.00 0.00 0.00 0.00 0.00 0.00 0.00 0.00 0.00
0.11 0.02 0.00 0.01 0.02 0.04 0.01 0.00 0.00 0.00 0.00 0.00 0.00 0.00 0.00 0.00 0.00 0.00 0.00 0.00 0.00 0.00 0.00 0.00 0.00 0.00 0.00 0.00 0.00 0.00 0.00 0.00 0.00 0.00 0.00 0.00 0.00 0.00 0.00 0.00 0.00 0.00 0.00 0.00 0.00
0.07 0.01 0.01 0.02 0.02 0.02 0.01 0.00 0.00 0.00 0.00 0.00 0.00 0.00 0.00 0.00 0.00 0.00 0.00 0.00 0.00 0.00 0.00 0.00 0.00 0.00 0.00 0.00 0.00 0.00 0.00 0.00 0.00 0.00 0.00 0.00 0.00 0.00 0.00 0.00 0.00 0.00 0.00 0.00 0.00

GFSSW_prec_precacc12_096.txt.gz
Total_Precipitation_Accumulation
0.05 0.04 0.03 0.01 0.01 0.01 0.01 0.01 0.01 0.01 0.01 0.01 0.03 0.03 0.01 0.00 0.00 0.00 0.00 0.00 0.00 0.01 0.02 0.00 0.02 0.05 0.07 0.04 0.07 0.32 0.49 0.30 0.06 0.00 0.00 0.01 0.01 0.01 0.01 0.00 0.01 0.00 0.00 0.01 0.19
0.05 0.07 0.08 0.04 0.01 0.01 0.01 0.01 0.01 0.01 0.01 0.02 0.04 0.04 0.02 0.00 0.00 0.00 0.00 0.00 0.01 0.04 0.02 0.04 0.06 0.12 0.13 0.06 0.11 0.36 0.46 0.26 0.05 0.00 0.00 0.01 0.01 0.01 0.02 0.01 0.05 0.06 0.04 0.02 0.11
0.09 0.07 0.05 0.05 0.02 0.01 0.00 0.00 0.01 0.02 0.01 0.02 0.04 0.04 0.01 0.00 0.00 0.00 0.00 0.00 0.01 0.04 0.01 0.01 0.04 0.17 0.14 0.11 0.11 0.32 0.36 0.17 0.09 0.09 0.05 0.05 0.02 0.01 0.05 0.05 0.01 0.01 0.03 0.01 0.04
0.10 0.09 0.10 0.09 0.07 0.04 0.01 0.01 0.01 0.01 0.02 0.03 0.05 0.03 0.00 0.00 0.00 0.00 0.00 0.00 0.00 0.02 0.05 0.06 0.11 0.19 0.11 0.09 0.11 0.20 0.36 0.17 0.18 0.16 0.20 0.07 0.07 0.07 0.05 0.02 0.01 0.02 0.15 0.10 0.03
0.12 0.10 0.10 0.09 0.08 0.03 0.02 0.01 0.00 0.01 0.02 0.03 0.04 0.02 0.00 0.00 0.00 0.00 0.00 0.00 0.00 0.00 0.02 0.04 0.08 0.12 0.07 0.07 0.10 0.12 0.27 0.29 0.26 0.26 0.30 0.16 0.09 0.10 0.05 0.02 0.04 0.18 0.34 0.29 0.10
0.12 0.09 0.10 0.09 0.08 0.04 0.02 0.01 0.01 0.01 0.02 0.03 0.04 0.02 0.00 0.00 0.00 0.00 0.00 0.01 0.04 0.02 0.02 0.03 0.12 0.16 0.13 0.08 0.13 0.08 0.20 0.37 0.42 0.38 0.43 0.28 0.11 0.10 0.06 0.09 0.18 0.38 0.34 0.32 0.18
0.13 0.12 0.10 0.08 0.08 0.07 0.05 0.03 0.01 0.01 0.01 0.01 0.04 0.02 0.00 0.00 0.00 0.00 0.00 0.12 0.13 0.05 0.04 0.04 0.18 0.27 0.23 0.09 0.07 0.08 0.31 0.35 0.48 0.59 0.60 0.49 0.29 0.08 0.04 0.11 0.25 0.33 0.38 0.49 0.33
0.15 0.12 0.09 0.10 0.13 0.12 0.06 0.03 0.01 0.01 0.00 0.01 0.03 0.00 0.00 0.00 0.00 0.00 0.00 0.03 0.11 0.01 0.01 0.02 0.16 0.37 0.28 0.23 0.17 0.18 0.44 0.53 0.47 0.64 1.01 0.72 0.45 0.12 0.05 0.13 0.19 0.39 0.60 0.54 0.33
0.16 0.15 0.16 0.19 0.18 0.14 0.08 0.03 0.01 0.01 0.01 0.03 0.02 0.00 0.00 0.00 0.00 0.00 0.00 0.00 0.08 0.08 0.13 0.19 0.29 0.48 0.24 0.30 0.24 0.16 0.30 0.48 0.46 0.50 1.11 1.00 0.62 0.28 0.11 0.09 0.09 0.18 0.36 0.62 0.66
0.16 0.16 0.16 0.17 0.19 0.14 0.04 0.02 0.02 0.01 0.00 0.01 0.01 0.00 0.00 0.00 0.00 0.00 0.00 0.00 0.01 0.11 0.35 0.19 0.41 0.49 0.16 0.25 0.20 0.06 0.10 0.20 0.40 0.38 0.72 1.09 0.70 0.48 0.23 0.14 0.06 0.07 0.15 0.27 0.56
0.17 0.15 0.17 0.19 0.16 0.07 0.03 0.02 0.03 0.02 0.00 0.00 0.00 0.00 0.00 0.00 0.00 0.00 0.00 0.00 0.01 0.04 0.15 0.13 0.36 0.51 0.09 0.06 0.12 0.06 0.09 0.10 0.32 0.42 0.39 0.75 0.79 0.62 0.29 0.23 0.07 0.05 0.08 0.17 0.42
0.16 0.15 0.16 0.17 0.15 0.06 0.04 0.05 0.04 0.01 0.00 0.00 0.00 0.00 0.00 0.00 0.00 0.00 0.00 0.00 0.00 0.00 0.00 0.01 0.08 0.45 0.27 0.10 0.08 0.07 0.06 0.09 0.19 0.39 0.41 0.51 0.63 0.49 0.46 0.21 0.14 0.05 0.06 0.10 0.19
0.15 0.16 0.20 0.23 0.14 0.07 0.05 0.05 0.01 0.00 0.00 0.00 0.00 0.00 0.00 0.00 0.00 0.00 0.00 0.00 0.00 0.00 0.00 0.01 0.01 0.12 0.16 0.15 0.14 0.08 0.04 0.02 0.11 0.15 0.16 0.26 0.48 0.42 0.35 0.27 0.12 0.04 0.04 0.06 0.07
0.17 0.21 0.24 0.21 0.07 0.04 0.05 0.03 0.02 0.00 0.01 0.00 0.00 0.00 0.00 0.00 0.00 0.00 0.00 0.00 0.00 0.00 0.00 0.01 0.07 0.03 0.05 0.15 0.14 0.08 0.05 0.05 0.08 0.03 0.07 0.15 0.34 0.33 0.27 0.24 0.10 0.04 0.03 0.04 0.03
0.21 0.24 0.27 0.16 0.09 0.07 0.06 0.05 0.04 0.01 0.04 0.00 0.00 0.00 0.00 0.00 0.00 0.00 0.00 0.00 0.00 0.00 0.00 0.02 0.08 0.05 0.05 0.15 0.12 0.09 0.04 0.06 0.06 0.04 0.02 0.07 0.24 0.22 0.15 0.09 0.06 0.03 0.03 0.02 0.01
0.21 0.24 0.25 0.19 0.08 0.07 0.05 0.04 0.01 0.04 0.04 0.01 0.00 0.00 0.01 0.01 0.06 0.00 0.00 0.00 0.00 0.01 0.06 0.04 0.02 0.03 0.07 0.13 0.15 0.10 0.11 0.10 0.08 0.08 0.02 0.02 0.11 0.11 0.04 0.03 0.05 0.02 0.01 0.02 0.00
0.24 0.23 0.19 0.10 0.09 0.08 0.06 0.03 0.06 0.03 0.01 0.01 0.00 0.00 0.00 0.04 0.09 0.00 0.00 0.00 0.00 0.03 0.08 0.04 0.02 0.06 0.12 0.15 0.19 0.13 0.15 0.21 0.21 0.22 0.02 0.02 0.03 0.03 0.00 0.00 0.01 0.02 0.00 0.01 0.02
0.27 0.25 0.19 0.10 0.09 0.11 0.09 0.07 0.06 0.03 0.01 0.00 0.00 0.00 0.00 0.01 0.01 0.01 0.00 0.00 0.00 0.01 0.02 0.01 0.04 0.21 0.12 0.10 0.24 0.20 0.05 0.04 0.06 0.05 0.01 0.00 0.01 0.00 0.00 0.00 0.00 0.01 0.00 0.00 0.01
0.38 0.27 0.17 0.11 0.14 0.15 0.12 0.08 0.03 0.03 0.00 0.00 0.00 0.00 0.00 0.01 0.00 0.00 0.00 0.00 0.00 0.00 0.01 0.00 0.06 0.07 0.17 0.08 0.16 0.04 0.00 0.00 0.00 0.00 0.00 0.01 0.00 0.00 0.00 0.00 0.00 0.00 0.00 0.00 0.00
0.44 0.37 0.25 0.17 0.19 0.23 0.15 0.04 0.03 0.01 0.00 0.00 0.00 0.00 0.00 0.00 0.00 0.00 0.00 0.00 0.00 0.00 0.00 0.00 0.08 0.26 0.15 0.05 0.03 0.00 0.00 0.00 0.00 0.00 0.00 0.00 0.00 0.00 0.00 0.00 0.00 0.00 0.00 0.00 0.00
0.46 0.40 0.35 0.49 0.30 0.31 0.12 0.04 0.06 0.00 0.00 0.00 0.00 0.00 0.00 0.00 0.00 0.00 0.00 0.00 0.01 0.00 0.00 0.00 0.03 0.07 0.02 0.02 0.00 0.00 0.00 0.00 0.00 0.00 0.00 0.00 0.00 0.00 0.00 0.00 0.00 0.00 0.00 0.00 0.00
0.53 0.36 0.40 0.66 0.40 0.17 0.03 0.08 0.05 0.00 0.00 0.00 0.00 0.00 0.00 0.00 0.00 0.00 0.00 0.00 0.00 0.00 0.00 0.00 0.00 0.00 0.00 0.00 0.00 0.00 0.00 0.00 0.00 0.00 0.00 0.00 0.00 0.00 0.00 0.00 0.00 0.00 0.00 0.00 0.00
0.45 0.31 0.52 0.36 0.15 0.04 0.05 0.10 0.03 0.00 0.00 0.00 0.00 0.00 0.00 0.00 0.00 0.00 0.00 0.00 0.00 0.00 0.00 0.00 0.00 0.00 0.00 0.00 0.00 0.00 0.00 0.00 0.00 0.00 0.00 0.00 0.00 0.00 0.00 0.00 0.00 0.00 0.00 0.00 0.00
0.30 0.35 0.76 0.48 0.07 0.01 0.09 0.08 0.02 0.00 0.00 0.00 0.00 0.00 0.00 0.00 0.00 0.00 0.00 0.00 0.00 0.00 0.00 0.00 0.00 0.00 0.00 0.00 0.00 0.00 0.00 0.00 0.00 0.00 0.00 0.00 0.00 0.00 0.00 0.00 0.00 0.00 0.00 0.00 0.00
0.25 0.11 0.14 0.14 0.06 0.03 0.06 0.03 0.00 0.00 0.00 0.00 0.00 0.00 0.00 0.00 0.00 0.00 0.00 0.00 0.00 0.00 0.00 0.00 0.00 0.00 0.00 0.00 0.00 0.00 0.00 0.00 0.00 0.00 0.00 0.00 0.00 0.00 0.00 0.00 0.00 0.00 0.00 0.00 0.00
0.11 0.02 0.00 0.02 0.03 0.10 0.04 0.01 0.00 0.00 0.00 0.00 0.00 0.00 0.00 0.00 0.00 0.00 0.00 0.00 0.00 0.00 0.00 0.00 0.00 0.00 0.00 0.00 0.00 0.00 0.00 0.00 0.00 0.00 0.00 0.00 0.00 0.00 0.00 0.00 0.00 0.00 0.00 0.00 0.00
0.07 0.01 0.01 0.05 0.07 0.04 0.01 0.00 0.00 0.00 0.00 0.00 0.00 0.00 0.00 0.00 0.00 0.00 0.00 0.00 0.00 0.00 0.00 0.00 0.00 0.00 0.00 0.00 0.00 0.00 0.00 0.00 0.00 0.00 0.00 0.00 0.00 0.00 0.00 0.00 0.00 0.00 0.00 0.00 0.00

GFSSW_prec_precacc12_099.txt.gz
Total_Precipitation_Accumulation
0.05 0.05 0.05 0.08 0.09 0.02 0.01 0.00 0.00 0.01 0.01 0.01 0.02 0.03 0.02 0.00 0.00 0.00 0.00 0.00 0.00 0.00 0.00 0.00 0.00 0.00 0.03 0.03 0.04 0.12 0.16 0.12 0.05 0.00 0.00 0.01 0.01 0.01 0.01 0.00 0.01 0.00 0.00 0.01 0.17
0.05 0.08 0.09 0.07 0.05 0.03 0.01 0.00 0.00 0.00 0.01 0.02 0.03 0.04 0.02 0.00 0.00 0.00 0.00 0.00 0.00 0.00 0.00 0.00 0.00 0.03 0.06 0.05 0.09 0.12 0.09 0.03 0.04 0.00 0.00 0.01 0.01 0.01 0.02 0.01 0.05 0.06 0.05 0.03 0.12
0.09 0.08 0.06 0.05 0.04 0.04 0.03 0.02 0.01 0.01 0.01 0.02 0.04 0.04 0.01 0.00 0.00 0.00 0.00 0.00 0.00 0.00 0.00 0.01 0.01 0.04 0.07 0.09 0.08 0.10 0.05 0.01 0.04 0.06 0.05 0.03 0.01 0.01 0.05 0.05 0.01 0.01 0.03 0.11 0.15
0.10 0.09 0.10 0.09 0.09 0.09 0.09 0.06 0.01 0.00 0.01 0.02 0.05 0.02 0.00 0.00 0.00 0.00 0.00 0.00 0.00 0.00 0.02 0.05 0.04 0.09 0.08 0.07 0.10 0.10 0.01 0.01 0.06 0.12 0.16 0.05 0.07 0.06 0.05 0.02 0.01 0.02 0.14 0.19 0.25
0.12 0.10 0.10 0.09 0.08 0.06 0.07 0.04 0.01 0.00 0.01 0.03 0.04 0.02 0.00 0.00 0.00 0.00 0.00 0.00 0.00 0.00 0.00 0.02 0.04 0.06 0.06 0.07 0.09 0.08 0.01 0.03 0.16 0.22 0.25 0.15 0.09 0.09 0.05 0.02 0.04 0.18 0.32 0.31 0.35
0.09 0.08 0.10 0.09 0.07 0.06 0.08 0.06 0.03 0.01 0.02 0.03 0.04 0.02 0.00 0.00 0.00 0.00 0.00 0.00 0.00 0.01 0.02 0.03 0.04 0.10 0.11 0.08 0.15 0.07 0.03 0.11 0.31 0.30 0.37 0.25 0.08 0.11 0.06 0.10 0.17 0.35 0.25 0.27 0.25
0.08 0.11 0.10 0.08 0.08 0.09 0.14 0.10 0.05 0.03 0.02 0.01 0.04 0.02 0.00 0.00 0.00 0.00 0.00 0.00 0.01 0.03 0.04 0.04 0.07 0.15 0.19 0.11 0.07 0.07 0.13 0.13 0.39 0.45 0.54 0.47 0.27 0.08 0.04 0.11 0.25 0.32 0.35 0.39 0.28
0.07 0.10 0.09 0.10 0.13 0.14 0.14 0.07 0.03 0.01 0.01 0.01 0.03 0.01 0.00 0.00 0.00 0.00 0.00 0.00 0.03 0.00 0.00 0.01 0.08 0.22 0.25 0.22 0.17 0.16 0.28 0.25 0.30 0.43 0.79 0.69 0.38 0.11 0.06 0.16 0.20 0.39 0.59 0.48 0.28
0.07 0.11 0.14 0.19 0.18 0.24 0.19 0.07 0.05 0.03 0.03 0.04 0.02 0.00 0.00 0.00 0.00 0.00 0.00 0.00 0.03 0.00 0.01 0.11 0.10 0.18 0.20 0.28 0.23 0.13 0.20 0.31 0.34 0.31 0.75 0.80 0.49 0.27 0.12 0.11 0.10 0.19 0.37 0.62 0.66
0.08 0.10 0.15 0.17 0.20 0.22 0.17 0.13 0.07 0.02 0.03 0.02 0.02 0.01 0.00 0.00 0.00 0.00 0.00 0.00 0.01 0.02 0.03 0.10 0.24 0.21 0.14 0.22 0.19 0.08 0.06 0.15 0.28 0.24 0.47 0.81 0.55 0.41 0.24 0.14 0.06 0.07 0.15 0.29 0.61
0.10 0.08 0.14 0.18 0.16 0.13 0.08 0.08 0.08 0.04 0.01 0.01 0.01 0.00 0.00 0.00 0.00 0.00 0.00 0.00 0.01 0.05 0.11 0.13 0.37 0.43 0.07 0.04 0.10 0.06 0.10 0.13 0.36 0.46 0.29 0.58 0.54 0.45 0.26 0.23 0.07 0.05 0.08 0.20 0.49
0.11 0.08 0.13 0.16 0.16 0.11 0.06 0.06 0.05 0.03 0.01 0.00 0.00 0.00 0.00 0.00 0.00 0.00 0.00 0.00 0.00 0.01 0.02 0.02 0.08 0.41 0.25 0.09 0.06 0.06 0.07 0.13 0.21 0.40 0.40 0.44 0.55 0.33 0.40 0.21 0.14 0.08 0.06 0.16 0.34
0.13 0.09 0.15 0.25 0.20 0.18 0.11 0.06 0.02 0.00 0.01 0.00 0.00 0.00 0.00 0.00 0.00 0.00 0.00 0.00 0.00 0.00 0.01 0.01 0.00 0.11 0.11 0.11 0.12 0.08 0.05 0.08 0.17 0.18 0.16 0.22 0.48 0.41 0.30 0.26 0.13 0.07 0.06 0.11 0.15
0.13 0.12 0.18 0.21 0.09 0.09 0.22 0.05 0.03 0.00 0.02 0.00 0.01 0.00 0.00 0.00 0.00 0.00 0.00 0.00 0.00 0.00 0.00 0.01 0.01 0.02 0.05 0.08 0.12 0.09 0.05 0.07 0.13 0.09 0.08 0.07 0.39 0.44 0.28 0.27 0.15 0.06 0.04 0.10 0.10
0.19 0.14 0.18 0.15 0.11 0.08 0.07 0.06 0.04 0.01 0.09 0.02 0.00 0.00 0.00 0.00 0.00 0.00 0.00 0.00 0.00 0.00 0.01 0.03 0.04 0.05 0.06 0.15 0.16 0.14 0.06 0.08 0.03 0.01 0.05 0.03 0.25 0.42 0.34 0.30 0.15 0.05 0.03 0.06 0.09
0.10 0.12 0.17 0.18 0.09 0.09 0.06 0.05 0.02 0.08 0.08 0.01 0.00 0.00 0.01 0.01 0.03 0.00 0.00 0.00 0.00 0.01 0.06 0.04 0.01 0.04 0.08 0.14 0.24 0.12 0.13 0.08 0.04 0.03 0.06 0.06 0.25 0.32 0.29 0.30 0.20 0.02 0.02 0.05 0.04
0.11 0.13 0.13 0.07 0.11 0.10 0.07 0.06 0.08 0.07 0.02 0.02 0.00 0.00 0.01 0.02 0.03 0.00 0.00 0.00 0.00 0.06 0.07 0.02 0.01 0.03 0.10 0.24 0.24 0.11 0.18 0.20 0.16 0.14 0.08 0.09 0.11 0.21 0.11 0.11 0.06 0.02 0.02 0.03 0.04
0.08 0.11 0.12 0.05 0.10 0.11 0.10 0.14 0.12 0.04 0.01 0.01 0.00 0.00 0.01 0.01 0.01 0.01 0.00 0.00 0.00 0.01 0.03 0.01 0.04 0.16 0.13 0.18 0.26 0.20 0.09 0.07 0.03 0.04 0.04 0.03 0.09 0.12 0.03 0.02 0.02 0.03 0.02 0.01 0.03
0.13 0.20 0.13 0.08 0.15 0.17 0.14 0.11 0.07 0.04 0.00 0.00 0.00 0.01 0.01 0.01 0.00 0.00 0.00 0.00 0.00 0.01 0.02 0.01 0.11 0.08 0.20 0.25 0.19 0.03 0.00 0.00 0.00 0.00 0.01 0.03 0.07 0.08 0.03 0.01 0.02 0.04 0.04 0.00 0.00
0.27 0.27 0.20 0.18 0.20 0.25 0.20 0.06 0.07 0.02 0.00 0.00 0.01 0.00 0.00 0.00 0.00 0.00 0.00 0.00 0.01 0.00 0.00 0.03 0.14 0.32 0.19 0.19 0.06 0.01 0.00 0.00 0.00 0.00 0.00 0.00 0.01 0.04 0.04 0.05 0.04 0.08 0.03 0.00 0.00
0.20 0.26 0.30 0.54 0.33 0.37 0.16 0.06 0.11 0.00 0.00 0.00 0.00 0.00 0.00 0.00 0.00 0.00 0.00 0.00 0.01 0.01 0.01 0.03 0.10 0.13 0.05 0.03 0.01 0.00 0.00 0.00 0.00 0.00 0.00 0.00 0.01 0.00 0.00 0.01 0.00 0.01 0.00 0.00 0.00
0.31 0.26 0.42 0.71 0.48 0.23 0.06 0.09 0.12 0.00 0.00 0.00 0.00 0.00 0.00 0.00 0.00 0.00 0.00 0.00 0.00 0.00 0.02 0.01 0.01 0.04 0.02 0.00 0.00 0.00 0.00 0.00 0.00 0.00 0.00 0.00 0.00 0.00 0.00 0.00 0.00 0.00 0.00 0.00 0.00
0.31 0.30 0.66 0.45 0.19 0.06 0.08 0.14 0.05 0.00 0.01 0.03 0.02 0.00 0.00 0.00 0.00 0.00 0.00 0.00 0.00 0.00 0.00 0.00 0.00 0.02 0.00 0.00 0.00 0.00 0.00 0.00 0.00 0.00 0.00 0.00 0.00 0.00 0.00 0.00 0.00 0.00 0.00 0.00 0.00
0.22 0.31 0.79 0.52 0.08 0.02 0.13 0.12 0.03 0.00 0.00 0.00 0.01 0.00 0.00 0.00 0.00 0.00 0.00 0.00 0.00 0.00 0.00 0.00 0.00 0.00 0.00 0.00 0.00 0.00 0.00 0.00 0.00 0.00 0.00 0.00 0.00 0.00 0.00 0.00 0.00 0.00 0.00 0.00 0.00
0.17 0.08 0.14 0.14 0.06 0.04 0.09 0.04 0.00 0.00 0.01 0.00 0.01 0.00 0.00 0.00 0.00 0.00 0.00 0.00 0.00 0.00 0.00 0.00 0.00 0.00 0.00 0.00 0.00 0.00 0.00 0.00 0.00 0.00 0.00 0.00 0.00 0.00 0.00 0.00 0.00 0.00 0.00 0.00 0.00
0.04 0.02 0.01 0.02 0.03 0.14 0.06 0.01 0.00 0.00 0.01 0.01 0.01 0.00 0.00 0.00 0.00 0.00 0.00 0.00 0.00 0.00 0.00 0.00 0.00 0.00 0.00 0.00 0.00 0.00 0.00 0.00 0.00 0.00 0.00 0.00 0.00 0.00 0.00 0.00 0.00 0.00 0.00 0.00 0.00
0.02 0.00 0.01 0.06 0.09 0.06 0.01 0.00 0.00 0.00 0.00 0.00 0.00 0.00 0.00 0.00 0.00 0.00 0.00 0.00 0.00 0.00 0.00 0.00 0.00 0.00 0.00 0.00 0.00 0.00 0.00 0.00 0.00 0.00 0.00 0.00 0.00 0.00 0.00 0.00 0.00 0.00 0.00 0.00 0.00

GFSSW_prec_precacc12_102.txt.gz
Total_Precipitation_Accumulation
0.05 0.04 0.05 0.08 0.10 0.10 0.10 0.07 0.02 0.00 0.00 0.01 0.02 0.02 0.02 0.00 0.00 0.00 0.00 0.00 0.00 0.00 0.00 0.00 0.00 0.00 0.00 0.00 0.02 0.07 0.09 0.01 0.00 0.00 0.00 0.00 0.01 0.01 0.01 0.00 0.00 0.00 0.00 0.00 0.08
0.04 0.07 0.08 0.08 0.06 0.05 0.05 0.06 0.02 0.00 0.00 0.01 0.03 0.03 0.01 0.00 0.00 0.00 0.00 0.00 0.00 0.00 0.00 0.00 0.00 0.00 0.00 0.00 0.03 0.08 0.05 0.00 0.00 0.00 0.00 0.00 0.00 0.01 0.02 0.01 0.01 0.04 0.04 0.02 0.05
0.06 0.06 0.05 0.05 0.04 0.04 0.05 0.06 0.05 0.01 0.00 0.01 0.03 0.03 0.00 0.00 0.00 0.00 0.00 0.00 0.00 0.00 0.00 0.00 0.00 0.01 0.00 0.00 0.01 0.05 0.03 0.00 0.00 0.00 0.02 0.02 0.01 0.01 0.05 0.03 0.00 0.00 0.03 0.11 0.18
0.05 0.07 0.07 0.08 0.09 0.09 0.11 0.15 0.14 0.05 0.02 0.01 0.03 0.02 0.00 0.00 0.00 0.00 0.00 0.00 0.00 0.00 0.00 0.01 0.03 0.03 0.01 0.00 0.01 0.04 0.01 0.00 0.00 0.00 0.04 0.03 0.05 0.06 0.05 0.02 0.01 0.02 0.14 0.19 0.25
0.05 0.06 0.07 0.07 0.08 0.06 0.07 0.11 0.14 0.04 0.01 0.02 0.03 0.01 0.00 0.00 0.00 0.00 0.00 0.00 0.00 0.00 0.00 0.01 0.03 0.05 0.02 0.01 0.04 0.04 0.01 0.02 0.00 0.00 0.04 0.09 0.05 0.08 0.04 0.02 0.02 0.17 0.31 0.31 0.36
0.02 0.04 0.06 0.05 0.06 0.06 0.08 0.13 0.13 0.06 0.02 0.03 0.03 0.02 0.00 0.00 0.00 0.00 0.00 0.00 0.00 0.00 0.01 0.03 0.02 0.06 0.06 0.04 0.09 0.05 0.03 0.02 0.03 0.02 0.04 0.15 0.05 0.09 0.04 0.08 0.08 0.24 0.20 0.27 0.26
0.01 0.05 0.06 0.04 0.06 0.08 0.14 0.17 0.19 0.11 0.03 0.02 0.05 0.03 0.00 0.00 0.00 0.00 0.00 0.00 0.00 0.01 0.03 0.04 0.06 0.12 0.11 0.06 0.05 0.06 0.10 0.07 0.02 0.02 0.12 0.35 0.21 0.05 0.01 0.07 0.15 0.23 0.23 0.31 0.22
0.02 0.03 0.04 0.06 0.09 0.13 0.14 0.12 0.08 0.05 0.04 0.03 0.05 0.01 0.00 0.00 0.00 0.00 0.00 0.00 0.01 0.00 0.00 0.01 0.04 0.09 0.06 0.12 0.10 0.13 0.23 0.17 0.03 0.03 0.21 0.63 0.33 0.08 0.03 0.11 0.14 0.26 0.41 0.34 0.19
0.03 0.02 0.09 0.12 0.15 0.23 0.36 0.17 0.10 0.06 0.07 0.05 0.04 0.02 0.00 0.00 0.00 0.00 0.00 0.00 0.01 0.00 0.01 0.05 0.04 0.04 0.07 0.21 0.17 0.10 0.18 0.26 0.17 0.03 0.29 0.66 0.46 0.24 0.10 0.08 0.11 0.15 0.29 0.43 0.44
0.08 0.05 0.07 0.09 0.15 0.20 0.25 0.32 0.24 0.09 0.08 0.05 0.04 0.02 0.00 0.00 0.00 0.00 0.00 0.00 0.00 0.01 0.02 0.06 0.05 0.05 0.07 0.21 0.19 0.08 0.07 0.11 0.19 0.12 0.21 0.54 0.48 0.37 0.28 0.15 0.06 0.10 0.15 0.26 0.52
0.19 0.10 0.06 0.09 0.13 0.13 0.14 0.15 0.22 0.23 0.08 0.02 0.01 0.00 0.00 0.00 0.00 0.00 0.00 0.00 0.01 0.04 0.02 0.04 0.11 0.09 0.03 0.03 0.10 0.06 0.10 0.11 0.22 0.28 0.11 0.36 0.44 0.30 0.34 0.38 0.10 0.09 0.12 0.20 0.48
0.16 0.08 0.05 0.08 0.13 0.13 0.06 0.10 0.08 0.09 0.05 0.03 0.01 0.00 0.00 0.00 0.00 0.00 0.00 0.00 0.00 0.01 0.03 0.03 0.06 0.24 0.19 0.05 0.05 0.07 0.07 0.11 0.13 0.21 0.22 0.30 0.44 0.27 0.18 0.23 0.16 0.08 0.07 0.18 0.36
0.22 0.11 0.07 0.16 0.19 0.27 0.15 0.08 0.02 0.00 0.01 0.00 0.00 0.00 0.00 0.00 0.00 0.00 0.00 0.00 0.00 0.00 0.02 0.03 0.01 0.11 0.09 0.08 0.09 0.07 0.04 0.08 0.22 0.16 0.11 0.17 0.45 0.40 0.22 0.17 0.12 0.07 0.06 0.11 0.20
0.25 0.23 0.12 0.13 0.09 0.12 0.36 0.27 0.05 0.01 0.05 0.02 0.01 0.00 0.00 0.00 0.00 0.00 0.00 0.00 0.00 0.00 0.01 0.01 0.01 0.03 0.06 0.08 0.10 0.08 0.04 0.08 0.19 0.24 0.29 0.05 0.38 0.46 0.27 0.22 0.12 0.06 0.04 0.14 0.16
0.26 0.11 0.07 0.07 0.10 0.08 0.07 0.10 0.05 0.02 0.14 0.05 0.01 0.01 0.01 0.00 0.00 0.00 0.00 0.00 0.00 0.00 0.01 0.04 0.05 0.06 0.05 0.09 0.16 0.15 0.07 0.06 0.03 0.05 0.42 0.09 0.25 0.51 0.40 0.30 0.15 0.05 0.06 0.14 0.16
0.12 0.05 0.02 0.09 0.05 0.09 0.06 0.05 0.02 0.11 0.14 0.04 0.01 0.01 0.01 0.01 0.01 0.00 0.00 0.00 0.00 0.01 0.05 0.03 0.03 0.04 0.08 0.08 0.20 0.11 0.11 0.05 0.04 0.08 0.31 0.10 0.36 0.51 0.45 0.40 0.29 0.04 0.08 0.15 0.16
0.12 0.09 0.02 0.04 0.10 0.09 0.06 0.06 0.10 0.15 0.07 0.05 0.01 0.01 0.02 0.02 0.01 0.00 0.00 0.00 0.01 0.08 0.07 0.02 0.03 0.03 0.07 0.26 0.24 0.10 0.18 0.18 0.12 0.15 0.20 0.24 0.22 0.41 0.33 0.23 0.22 0.06 0.11 0.23 0.23
0.07 0.02 0.01 0.01 0.08 0.10 0.09 0.17 0.20 0.09 0.07 0.02 0.00 0.01 0.02 0.01 0.01 0.00 0.00 0.00 0.00 0.02 0.05 0.04 0.07 0.12 0.13 0.21 0.24 0.25 0.23 0.18 0.11 0.14 0.21 0.14 0.24 0.42 0.26 0.29 0.15 0.06 0.12 0.13 0.14
0.06 0.07 0.05 0.03 0.08 0.12 0.13 0.20 0.21 0.09 0.02 0.01 0.01 0.02 0.01 0.01 0.00 0.00 0.00 0.01 0.03 0.02 0.05 0.04 0.12 0.07 0.18 0.27 0.16 0.05 0.02 0.00 0.06 0.03 0.08 0.19 0.35 0.38 0.38 0.34 0.06 0.06 0.07 0.10 0.15
0.13 0.10 0.14 0.13 0.10 0.18 0.20 0.15 0.14 0.03 0.00 0.00 0.02 0.01 0.00 0.00 0.00 0.00 0.01 0.02 0.04 0.01 0.01 0.05 0.18 0.27 0.19 0.22 0.04 0.01 0.00 0.00 0.01 0.03 0.05 0.06 0.05 0.22 0.30 0.18 0.08 0.10 0.09 0.03 0.02
0.05 0.06 0.23 0.44 0.24 0.31 0.18 0.13 0.15 0.01 0.00 0.00 0.02 0.00 0.00 0.00 0.00 0.02 0.02 0.01 0.02 0.02 0.03 0.07 0.30 0.24 0.09 0.05 0.01 0.00 0.00 0.00 0.00 0.00 0.00 0.01 0.06 0.03 0.05 0.04 0.02 0.04 0.03 0.01 0.00
0.09 0.10 0.39 0.60 0.38 0.21 0.08 0.11 0.13 0.00 0.00 0.00 0.01 0.00 0.00 0.00 0.01 0.01 0.02 0.02 0.01 0.03 0.10 0.04 0.08 0.07 0.02 0.00 0.00 0.00 0.00 0.00 0.00 0.00 0.00 0.00 0.04 0.00 0.00 0.00 0.00 0.01 0.00 0.00 0.00
0.14 0.19 0.49 0.34 0.15 0.06 0.10 0.15 0.05 0.00 0.02 0.04 0.04 0.00 0.00 0.01 0.01 0.01 0.01 0.00 0.00 0.00 0.00 0.00 0.01 0.03 0.01 0.00 0.00 0.00 0.00 0.00 0.00 0.00 0.00 0.00 0.01 0.00 0.00 0.00 0.00 0.00 0.00 0.00 0.00
0.15 0.16 0.55 0.39 0.06 0.01 0.13 0.13 0.03 0.00 0.00 0.01 0.01 0.00 0.01 0.00 0.00 0.00 0.00 0.00 0.00 0.00 0.00 0.00 0.00 0.01 0.01 0.00 0.00 0.00 0.00 0.00 0.00 0.00 0.00 0.00 0.00 0.00 0.00 0.00 0.00 0.00 0.00 0.00 0.00
0.13 0.04 0.09 0.10 0.06 0.04 0.09 0.05 0.00 0.00 0.01 0.00 0.01 0.00 0.01 0.00 0.00 0.00 0.00 0.00 0.00 0.00 0.00 0.00 0.00 0.00 0.00 0.00 0.00 0.00 0.00 0.00 0.00 0.00 0.00 0.00 0.00 0.00 0.00 0.00 0.00 0.00 0.00 0.00 0.00
0.03 0.01 0.00 0.02 0.03 0.13 0.06 0.01 0.00 0.00 0.01 0.01 0.01 0.00 0.00 0.00 0.00 0.00 0.00 0.00 0.00 0.00 0.00 0.00 0.00 0.00 0.00 0.00 0.00 0.00 0.00 0.00 0.00 0.00 0.00 0.00 0.00 0.00 0.00 0.00 0.00 0.00 0.00 0.00 0.00
0.00 0.00 0.00 0.05 0.09 0.06 0.01 0.00 0.00 0.00 0.00 0.00 0.00 0.00 0.00 0.00 0.00 0.00 0.00 0.00 0.00 0.00 0.00 0.00 0.00 0.00 0.00 0.00 0.00 0.00 0.00 0.00 0.00 0.00 0.00 0.00 0.00 0.00 0.00 0.00 0.00 0.00 0.00 0.00 0.00

GFSSW_prec_precacc12_105.txt.gz
Total_Precipitation_Accumulation
0.05 0.04 0.05 0.08 0.10 0.10 0.11 0.13 0.16 0.07 0.02 0.00 0.01 0.02 0.01 0.01 0.00 0.00 0.00 0.00 0.00 0.00 0.00 0.00 0.00 0.00 0.00 0.00 0.00 0.02 0.04 0.00 0.00 0.00 0.00 0.00 0.00 0.00 0.01 0.00 0.00 0.00 0.00 0.00 0.00
0.03 0.06 0.08 0.07 0.05 0.04 0.05 0.08 0.10 0.09 0.02 0.00 0.01 0.02 0.01 0.00 0.00 0.00 0.00 0.00 0.00 0.00 0.00 0.00 0.00 0.00 0.00 0.00 0.00 0.02 0.01 0.00 0.00 0.00 0.00 0.00 0.00 0.00 0.01 0.00 0.00 0.03 0.03 0.01 0.02
0.01 0.03 0.05 0.04 0.04 0.04 0.05 0.06 0.07 0.07 0.02 0.00 0.00 0.02 0.00 0.00 0.00 0.00 0.00 0.00 0.00 0.00 0.00 0.00 0.00 0.00 0.00 0.00 0.00 0.00 0.01 0.00 0.00 0.00 0.00 0.01 0.00 0.00 0.01 0.00 0.00 0.00 0.03 0.11 0.16
0.01 0.01 0.04 0.07 0.07 0.08 0.10 0.15 0.18 0.16 0.07 0.02 0.02 0.01 0.00 0.00 0.00 0.00 0.00 0.00 0.00 0.00 0.00 0.00 0.00 0.01 0.01 0.00 0.00 0.00 0.00 0.00 0.00 0.00 0.01 0.01 0.01 0.03 0.01 0.01 0.00 0.01 0.13 0.18 0.24
0.02 0.02 0.01 0.06 0.06 0.05 0.07 0.11 0.16 0.20 0.16 0.04 0.02 0.01 0.00 0.00 0.00 0.00 0.00 0.00 0.00 0.00 0.00 0.00 0.01 0.02 0.02 0.00 0.00 0.00 0.00 0.00 0.00 0.00 0.01 0.04 0.03 0.05 0.02 0.01 0.00 0.07 0.17 0.24 0.33
0.02 0.01 0.01 0.02 0.04 0.04 0.08 0.12 0.13 0.12 0.09 0.08 0.02 0.00 0.00 0.00 0.00 0.00 0.00 0.00 0.00 0.00 0.00 0.00 0.00 0.03 0.05 0.02 0.03 0.01 0.01 0.00 0.02 0.01 0.01 0.02 0.01 0.06 0.03 0.03 0.01 0.05 0.14 0.21 0.24
0.04 0.04 0.04 0.02 0.03 0.06 0.12 0.16 0.20 0.20 0.10 0.07 0.06 0.03 0.02 0.00 0.00 0.00 0.00 0.00 0.00 0.00 0.00 0.01 0.04 0.09 0.10 0.04 0.01 0.01 0.02 0.03 0.01 0.01 0.03 0.06 0.03 0.02 0.00 0.01 0.01 0.03 0.08 0.25 0.20
0.08 0.06 0.03 0.03 0.05 0.10 0.13 0.12 0.12 0.11 0.17 0.26 0.16 0.04 0.05 0.02 0.00 0.00 0.00 0.00 0.00 0.00 0.00 0.00 0.03 0.07 0.03 0.01 0.03 0.09 0.17 0.12 0.01 0.02 0.03 0.13 0.03 0.00 0.02 0.03 0.02 0.05 0.12 0.20 0.17
0.13 0.08 0.06 0.05 0.11 0.20 0.38 0.39 0.15 0.16 0.10 0.16 0.12 0.05 0.01 0.00 0.00 0.00 0.00 0.00 0.00 0.00 0.01 0.01 0.02 0.03 0.03 0.03 0.06 0.05 0.14 0.21 0.15 0.02 0.05 0.08 0.04 0.05 0.08 0.04 0.04 0.04 0.14 0.20 0.23
0.32 0.29 0.15 0.06 0.14 0.16 0.26 0.63 0.47 0.18 0.13 0.09 0.05 0.06 0.02 0.00 0.00 0.00 0.00 0.00 0.00 0.02 0.03 0.05 0.04 0.05 0.03 0.04 0.07 0.08 0.08 0.10 0.18 0.09 0.06 0.07 0.03 0.21 0.25 0.14 0.02 0.04 0.06 0.16 0.29
0.33 0.33 0.14 0.06 0.09 0.13 0.15 0.18 0.36 0.54 0.17 0.07 0.02 0.01 0.01 0.00 0.00 0.00 0.00 0.00 0.00 0.04 0.03 0.03 0.04 0.01 0.01 0.00 0.08 0.06 0.08 0.10 0.20 0.25 0.03 0.03 0.06 0.15 0.32 0.42 0.10 0.07 0.09 0.14 0.37
0.24 0.21 0.10 0.04 0.10 0.14 0.04 0.08 0.12 0.26 0.19 0.13 0.09 0.02 0.00 0.00 0.00 0.00 0.00 0.00 0.00 0.01 0.03 0.04 0.01 0.05 0.10 0.03 0.03 0.05 0.08 0.11 0.11 0.18 0.06 0.02 0.05 0.16 0.16 0.26 0.18 0.07 0.05 0.17 0.35
0.25 0.15 0.06 0.08 0.17 0.30 0.15 0.07 0.12 0.02 0.02 0.04 0.03 0.03 0.01 0.00 0.00 0.00 0.00 0.00 0.00 0.00 0.02 0.03 0.01 0.06 0.06 0.05 0.06 0.06 0.04 0.08 0.18 0.13 0.07 0.07 0.16 0.24 0.20 0.15 0.10 0.06 0.05 0.11 0.23
0.25 0.24 0.11 0.07 0.09 0.15 0.43 0.28 0.05 0.02 0.10 0.03 0.01 0.01 0.00 0.00 0.00 0.00 0.00 0.00 0.00 0.00 0.01 0.01 0.00 0.03 0.04 0.08 0.10 0.07 0.04 0.08 0.21 0.30 0.35 0.12 0.32 0.37 0.24 0.17 0.09 0.05 0.04 0.14 0.22
0.26 0.12 0.05 0.04 0.11 0.13 0.11 0.17 0.03 0.03 0.16 0.09 0.02 0.01 0.01 0.00 0.00 0.00 0.00 0.00 0.00 0.00 0.01 0.03 0.05 0.06 0.03 0.09 0.15 0.13 0.07 0.05 0.03 0.11 0.54 0.22 0.32 0.49 0.39 0.29 0.12 0.04 0.05 0.16 0.24
0.12 0.05 0.01 0.02 0.04 0.08 0.02 0.03 0.01 0.11 0.21 0.10 0.02 0.02 0.01 0.01 0.01 0.00 0.00 0.00 0.00 0.01 0.03 0.01 0.03 0.04 0.06 0.06 0.20 0.09 0.09 0.04 0.05 0.13 0.51 0.19 0.41 0.63 0.55 0.42 0.29 0.04 0.11 0.21 0.25
0.11 0.10 0.01 0.02 0.10 0.05 0.01 0.04 0.07 0.20 0.14 0.06 0.01 0.01 0.02 0.02 0.01 0.00 0.00 0.00 0.01 0.08 0.05 0.02 0.02 0.03 0.05 0.17 0.19 0.09 0.11 0.19 0.19 0.28 0.34 0.32 0.31 0.62 0.49 0.27 0.25 0.17 0.26 0.30 0.27
0.06 0.02 0.01 0.01 0.08 0.04 0.02 0.15 0.27 0.18 0.11 0.02 0.00 0.01 0.03 0.02 0.01 0.00 0.00 0.00 0.00 0.02 0.06 0.04 0.08 0.11 0.12 0.21 0.20 0.20 0.23 0.33 0.26 0.28 0.37 0.26 0.45 0.73 0.47 0.41 0.35 0.32 0.36 0.31 0.30
0.06 0.07 0.04 0.02 0.04 0.04 0.04 0.20 0.28 0.13 0.03 0.01 0.01 0.02 0.01 0.01 0.00 0.00 0.00 0.02 0.04 0.02 0.09 0.04 0.09 0.05 0.17 0.27 0.16 0.05 0.06 0.14 0.27 0.18 0.15 0.33 0.62 0.71 0.59 0.57 0.32 0.47 0.31 0.34 0.32
0.11 0.05 0.05 0.08 0.02 0.05 0.10 0.19 0.16 0.03 0.00 0.01 0.03 0.01 0.00 0.00 0.00 0.00 0.01 0.02 0.05 0.01 0.01 0.06 0.18 0.15 0.18 0.21 0.04 0.01 0.01 0.03 0.06 0.08 0.19 0.16 0.21 0.78 0.81 0.43 0.22 0.25 0.22 0.16 0.08
0.03 0.02 0.13 0.26 0.12 0.16 0.13 0.15 0.14 0.01 0.00 0.01 0.02 0.00 0.00 0.00 0.00 0.03 0.03 0.01 0.02 0.06 0.05 0.16 0.38 0.24 0.09 0.05 0.01 0.00 0.00 0.00 0.00 0.00 0.03 0.03 0.26 0.47 0.38 0.16 0.07 0.07 0.06 0.03 0.06
0.01 0.06 0.33 0.42 0.25 0.15 0.07 0.10 0.13 0.00 0.00 0.00 0.01 0.00 0.00 0.00 0.01 0.03 0.04 0.03 0.03 0.08 0.15 0.08 0.11 0.07 0.02 0.00 0.00 0.00 0.00 0.00 0.00 0.00 0.00 0.01 0.19 0.14 0.08 0.08 0.02 0.06 0.02 0.00 0.01
0.04 0.16 0.37 0.26 0.12 0.05 0.09 0.13 0.05 0.00 0.02 0.04 0.04 0.00 0.00 0.02 0.02 0.01 0.01 0.01 0.00 0.00 0.00 0.00 0.01 0.03 0.01 0.00 0.00 0.00 0.00 0.00 0.00 0.00 0.00 0.00 0.08 0.01 0.00 0.00 0.00 0.00 0.00 0.00 0.00
0.03 0.09 0.33 0.22 0.04 0.01 0.09 0.10 0.03 0.00 0.00 0.01 0.01 0.00 0.01 0.00 0.00 0.00 0.00 0.00 0.00 0.00 0.00 0.00 0.00 0.01 0.01 0.00 0.00 0.00 0.00 0.00 0.00 0.00 0.00 0.00 0.02 0.00 0.00 0.00 0.00 0.00 0.00 0.00 0.00
0.02 0.01 0.05 0.05 0.02 0.03 0.07 0.04 0.00 0.00 0.01 0.00 0.01 0.00 0.01 0.00 0.00 0.00 0.00 0.00 0.00 0.00 0.00 0.00 0.00 0.00 0.00 0.00 0.00 0.00 0.00 0.00 0.00 0.00 0.00 0.00 0.00 0.00 0.00 0.00 0.00 0.00 0.00 0.00 0.00
0.01 0.01 0.00 0.01 0.01 0.09 0.05 0.01 0.00 0.00 0.01 0.01 0.01 0.00 0.00 0.00 0.00 0.00 0.00 0.00 0.00 0.00 0.00 0.00 0.00 0.00 0.00 0.00 0.00 0.00 0.00 0.00 0.00 0.00 0.00 0.00 0.00 0.00 0.00 0.00 0.00 0.00 0.00 0.00 0.00
0.00 0.00 0.00 0.03 0.06 0.04 0.01 0.00 0.00 0.00 0.00 0.00 0.00 0.00 0.00 0.00 0.00 0.00 0.00 0.00 0.00 0.00 0.00 0.00 0.00 0.00 0.00 0.00 0.00 0.00 0.00 0.00 0.00 0.00 0.00 0.00 0.00 0.00 0.00 0.00 0.00 0.00 0.00 0.00 0.00

GFSSW_prec_precacc12_108.txt.gz
Total_Precipitation_Accumulation
0.01 0.01 0.03 0.08 0.10 0.10 0.11 0.13 0.18 0.21 0.14 0.01 0.00 0.00 0.01 0.00 0.00 0.00 0.00 0.00 0.00 0.00 0.00 0.00 0.00 0.00 0.00 0.00 0.00 0.00 0.00 0.00 0.00 0.00 0.00 0.00 0.00 0.00 0.00 0.00 0.00 0.00 0.00 0.00 0.01
0.05 0.05 0.03 0.05 0.06 0.05 0.05 0.08 0.10 0.14 0.16 0.05 0.03 0.01 0.00 0.00 0.00 0.00 0.00 0.00 0.00 0.00 0.00 0.00 0.00 0.00 0.00 0.00 0.00 0.00 0.00 0.00 0.00 0.00 0.00 0.00 0.00 0.00 0.00 0.00 0.00 0.00 0.00 0.00 0.02
0.09 0.08 0.06 0.05 0.05 0.04 0.05 0.06 0.07 0.08 0.13 0.11 0.01 0.01 0.00 0.00 0.00 0.00 0.00 0.00 0.00 0.00 0.00 0.00 0.00 0.00 0.00 0.00 0.00 0.00 0.00 0.00 0.00 0.00 0.00 0.00 0.00 0.00 0.00 0.00 0.00 0.00 0.01 0.10 0.14
0.07 0.04 0.03 0.03 0.06 0.07 0.10 0.16 0.18 0.16 0.12 0.09 0.02 0.01 0.00 0.00 0.00 0.00 0.00 0.00 0.00 0.00 0.00 0.00 0.00 0.00 0.00 0.00 0.00 0.00 0.00 0.00 0.00 0.00 0.00 0.00 0.00 0.00 0.00 0.00 0.00 0.00 0.01 0.10 0.22
0.06 0.08 0.05 0.04 0.03 0.04 0.06 0.10 0.16 0.20 0.23 0.16 0.05 0.03 0.03 0.00 0.00 0.00 0.00 0.00 0.00 0.00 0.00 0.00 0.00 0.01 0.01 0.00 0.00 0.00 0.00 0.00 0.00 0.00 0.00 0.00 0.00 0.00 0.00 0.00 0.00 0.01 0.01 0.06 0.28
0.06 0.08 0.08 0.09 0.06 0.03 0.06 0.12 0.12 0.12 0.17 0.30 0.23 0.08 0.01 0.01 0.00 0.00 0.00 0.00 0.00 0.00 0.00 0.00 0.00 0.01 0.01 0.01 0.02 0.01 0.00 0.00 0.00 0.00 0.00 0.00 0.00 0.02 0.00 0.00 0.00 0.00 0.01 0.02 0.11
0.09 0.11 0.14 0.12 0.07 0.05 0.09 0.14 0.19 0.20 0.20 0.28 0.23 0.20 0.08 0.01 0.00 0.00 0.00 0.00 0.00 0.00 0.00 0.00 0.01 0.01 0.02 0.03 0.01 0.01 0.01 0.00 0.00 0.00 0.00 0.02 0.02 0.01 0.00 0.00 0.01 0.01 0.01 0.01 0.07
0.13 0.11 0.12 0.14 0.07 0.04 0.09 0.10 0.11 0.12 0.31 0.38 0.32 0.24 0.16 0.02 0.00 0.00 0.00 0.00 0.00 0.00 0.00 0.00 0.01 0.02 0.01 0.01 0.01 0.01 0.02 0.01 0.00 0.00 0.00 0.07 0.02 0.00 0.02 0.03 0.01 0.01 0.02 0.02 0.06
0.15 0.17 0.18 0.16 0.07 0.12 0.32 0.54 0.27 0.22 0.27 0.34 0.33 0.25 0.14 0.00 0.00 0.00 0.00 0.00 0.00 0.00 0.01 0.00 0.01 0.02 0.02 0.02 0.01 0.00 0.02 0.06 0.09 0.00 0.03 0.06 0.04 0.02 0.01 0.02 0.02 0.01 0.05 0.01 0.05
0.34 0.48 0.35 0.11 0.10 0.09 0.25 1.08 0.91 0.30 0.35 0.19 0.20 0.16 0.06 0.00 0.00 0.00 0.00 0.00 0.00 0.03 0.04 0.03 0.03 0.04 0.03 0.03 0.02 0.03 0.06 0.06 0.12 0.08 0.06 0.06 0.02 0.09 0.07 0.03 0.00 0.03 0.02 0.03 0.04
0.40 0.51 0.27 0.09 0.04 0.11 0.18 0.33 0.69 0.75 0.45 0.13 0.06 0.02 0.01 0.00 0.00 0.00 0.00 0.00 0.00 0.04 0.03 0.04 0.03 0.01 0.00 0.00 0.00 0.00 0.03 0.06 0.13 0.21 0.03 0.02 0.00 0.02 0.16 0.22 0.05 0.05 0.05 0.05 0.09
0.26 0.27 0.15 0.06 0.09 0.17 0.05 0.10 0.26 0.49 0.42 0.22 0.11 0.02 0.00 0.00 0.00 0.00 0.00 0.00 0.00 0.01 0.04 0.04 0.01 0.00 0.03 0.03 0.02 0.02 0.04 0.06 0.08 0.16 0.05 0.02 0.01 0.00 0.01 0.10 0.06 0.05 0.01 0.09 0.19
0.24 0.16 0.08 0.04 0.11 0.27 0.13 0.06 0.17 0.08 0.17 0.17 0.12 0.06 0.01 0.00 0.00 0.00 0.00 0.00 0.00 0.00 0.02 0.03 0.01 0.01 0.03 0.03 0.04 0.03 0.02 0.06 0.16 0.12 0.07 0.06 0.04 0.02 0.01 0.00 0.01 0.03 0.01 0.05 0.16
0.24 0.25 0.11 0.03 0.06 0.12 0.43 0.28 0.06 0.02 0.10 0.10 0.06 0.05 0.01 0.00 0.00 0.00 0.00 0.00 0.00 0.00 0.01 0.01 0.00 0.02 0.04 0.05 0.07 0.04 0.02 0.07 0.19 0.31 0.36 0.12 0.19 0.15 0.03 0.04 0.05 0.02 0.01 0.10 0.19
0.23 0.12 0.05 0.02 0.10 0.14 0.11 0.17 0.02 0.02 0.16 0.13 0.04 0.02 0.01 0.00 0.00 0.00 0.00 0.00 0.00 0.00 0.01 0.03 0.04 0.03 0.02 0.08 0.09 0.08 0.04 0.04 0.03 0.12 0.57 0.22 0.30 0.32 0.27 0.23 0.09 0.02 0.03 0.15 0.24
0.10 0.05 0.01 0.01 0.02 0.06 0.02 0.02 0.00 0.08 0.23 0.13 0.05 0.06 0.01 0.00 0.00 0.00 0.00 0.00 0.00 0.01 0.01 0.01 0.02 0.02 0.04 0.04 0.10 0.06 0.04 0.01 0.04 0.16 0.58 0.20 0.37 0.57 0.53 0.40 0.24 0.03 0.10 0.21 0.28
0.08 0.08 0.00 0.02 0.08 0.04 0.01 0.03 0.06 0.22 0.17 0.08 0.03 0.01 0.02 0.01 0.01 0.00 0.00 0.00 0.01 0.07 0.04 0.02 0.02 0.01 0.02 0.14 0.09 0.05 0.09 0.19 0.25 0.40 0.38 0.33 0.32 0.62 0.50 0.28 0.23 0.16 0.28 0.37 0.34
0.03 0.01 0.01 0.01 0.06 0.03 0.00 0.11 0.29 0.23 0.11 0.02 0.00 0.01 0.02 0.02 0.01 0.00 0.00 0.00 0.00 0.02 0.06 0.04 0.07 0.03 0.05 0.15 0.08 0.12 0.24 0.40 0.33 0.37 0.43 0.28 0.50 0.89 0.66 0.52 0.49 0.39 0.64 0.68 0.41
0.02 0.06 0.02 0.01 0.03 0.02 0.03 0.18 0.31 0.13 0.03 0.01 0.01 0.02 0.01 0.00 0.00 0.00 0.00 0.02 0.04 0.02 0.09 0.05 0.08 0.03 0.15 0.22 0.08 0.04 0.13 0.29 0.44 0.33 0.21 0.40 0.74 0.96 0.97 1.01 0.63 0.92 0.81 0.66 0.50
0.10 0.04 0.04 0.06 0.01 0.03 0.07 0.18 0.14 0.02 0.00 0.01 0.03 0.01 0.00 0.00 0.00 0.00 0.01 0.03 0.07 0.01 0.01 0.06 0.14 0.13 0.16 0.21 0.04 0.01 0.06 0.11 0.13 0.18 0.25 0.18 0.32 1.15 1.22 0.83 0.61 0.55 0.44 0.38 0.32
0.03 0.02 0.03 0.08 0.03 0.06 0.08 0.14 0.09 0.01 0.00 0.01 0.02 0.00 0.00 0.00 0.00 0.04 0.06 0.03 0.03 0.10 0.06 0.18 0.38 0.22 0.07 0.04 0.01 0.01 0.05 0.01 0.00 0.01 0.07 0.07 0.50 0.87 0.78 0.43 0.19 0.17 0.21 0.22 0.23
0.01 0.05 0.10 0.07 0.08 0.06 0.06 0.03 0.08 0.00 0.00 0.00 0.01 0.00 0.00 0.00 0.01 0.05 0.08 0.05 0.02 0.09 0.16 0.09 0.11 0.07 0.02 0.00 0.00 0.00 0.00 0.00 0.00 0.00 0.00 0.04 0.42 0.48 0.34 0.24 0.10 0.09 0.06 0.04 0.05
0.02 0.15 0.21 0.10 0.05 0.03 0.04 0.05 0.03 0.00 0.01 0.04 0.04 0.00 0.00 0.02 0.02 0.02 0.01 0.01 0.00 0.00 0.00 0.00 0.01 0.03 0.01 0.00 0.00 0.00 0.00 0.00 0.00 0.00 0.00 0.02 0.17 0.05 0.03 0.05 0.04 0.01 0.00 0.01 0.00
0.01 0.09 0.12 0.06 0.01 0.01 0.04 0.04 0.01 0.00 0.00 0.01 0.01 0.00 0.01 0.00 0.00 0.00 0.00 0.00 0.00 0.00 0.00 0.00 0.00 0.01 0.01 0.00 0.00 0.00 0.00 0.00 0.00 0.00 0.00 0.00 0.02 0.00 0.00 0.00 0.00 0.00 0.00 0.00 0.00
0.00 0.01 0.02 0.01 0.01 0.01 0.03 0.02 0.00 0.00 0.01 0.00 0.01 0.00 0.01 0.00 0.00 0.00 0.00 0.00 0.00 0.00 0.00 0.00 0.00 0.00 0.00 0.00 0.00 0.00 0.00 0.00 0.00 0.00 0.00 0.00 0.00 0.00 0.00 0.00 0.00 0.00 0.00 0.00 0.00
0.00 0.00 0.00 0.01 0.00 0.03 0.02 0.00 0.00 0.00 0.01 0.01 0.01 0.00 0.00 0.00 0.00 0.00 0.00 0.00 0.00 0.00 0.00 0.00 0.00 0.00 0.00 0.00 0.00 0.00 0.00 0.00 0.00 0.00 0.00 0.00 0.00 0.00 0.00 0.00 0.00 0.00 0.00 0.00 0.00
0.00 0.00 0.00 0.01 0.02 0.02 0.00 0.00 0.00 0.00 0.00 0.00 0.00 0.00 0.00 0.00 0.00 0.00 0.00 0.00 0.00 0.00 0.00 0.00 0.00 0.00 0.00 0.00 0.00 0.00 0.00 0.00 0.00 0.00 0.00 0.00 0.00 0.00 0.00 0.00 0.00 0.00 0.00 0.00 0.00

GFSSW_prec_precacc12_111.txt.gz
Total_Precipitation_Accumulation
0.06 0.06 0.07 0.06 0.04 0.09 0.11 0.13 0.18 0.22 0.20 0.13 0.04 0.00 0.00 0.00 0.01 0.00 0.00 0.00 0.00 0.00 0.00 0.00 0.00 0.00 0.00 0.00 0.00 0.00 0.00 0.00 0.00 0.00 0.00 0.00 0.00 0.00 0.00 0.00 0.00 0.00 0.00 0.00 0.01
0.11 0.12 0.09 0.05 0.05 0.06 0.07 0.08 0.10 0.14 0.17 0.17 0.12 0.01 0.00 0.00 0.00 0.00 0.00 0.00 0.00 0.00 0.00 0.00 0.00 0.00 0.00 0.00 0.00 0.00 0.00 0.00 0.00 0.00 0.00 0.00 0.00 0.00 0.00 0.00 0.00 0.00 0.00 0.00 0.02
0.13 0.12 0.11 0.09 0.07 0.04 0.05 0.06 0.07 0.08 0.14 0.20 0.12 0.04 0.00 0.00 0.00 0.00 0.00 0.00 0.00 0.00 0.00 0.00 0.00 0.00 0.00 0.00 0.00 0.00 0.00 0.00 0.00 0.00 0.00 0.00 0.00 0.00 0.00 0.00 0.00 0.00 0.00 0.00 0.03
0.10 0.08 0.09 0.07 0.09 0.06 0.03 0.11 0.18 0.16 0.12 0.14 0.33 0.12 0.00 0.00 0.00 0.00 0.00 0.00 0.00 0.00 0.00 0.00 0.00 0.00 0.00 0.00 0.00 0.00 0.00 0.00 0.00 0.00 0.00 0.00 0.00 0.00 0.00 0.00 0.00 0.00 0.00 0.00 0.00
0.11 0.10 0.10 0.08 0.08 0.05 0.02 0.08 0.15 0.20 0.23 0.18 0.23 0.18 0.05 0.00 0.00 0.00 0.00 0.00 0.00 0.00 0.00 0.00 0.00 0.00 0.00 0.00 0.00 0.00 0.00 0.00 0.00 0.00 0.00 0.00 0.00 0.00 0.00 0.00 0.00 0.00 0.00 0.00 0.01
0.13 0.12 0.11 0.14 0.17 0.09 0.02 0.07 0.11 0.11 0.17 0.33 0.44 0.14 0.02 0.03 0.00 0.00 0.00 0.00 0.00 0.00 0.00 0.00 0.00 0.00 0.00 0.00 0.00 0.00 0.00 0.00 0.00 0.00 0.00 0.00 0.00 0.00 0.00 0.00 0.00 0.00 0.00 0.00 0.01
0.12 0.13 0.16 0.19 0.16 0.08 0.03 0.08 0.15 0.18 0.20 0.44 0.43 0.36 0.15 0.04 0.00 0.00 0.00 0.00 0.00 0.00 0.00 0.00 0.00 0.00 0.01 0.00 0.00 0.00 0.00 0.00 0.00 0.00 0.00 0.00 0.00 0.00 0.00 0.00 0.00 0.01 0.01 0.01 0.01
0.15 0.12 0.12 0.18 0.18 0.11 0.02 0.06 0.09 0.12 0.32 0.79 0.93 0.34 0.32 0.07 0.01 0.00 0.00 0.00 0.00 0.00 0.00 0.00 0.00 0.01 0.01 0.00 0.00 0.00 0.00 0.00 0.00 0.00 0.00 0.01 0.00 0.00 0.00 0.00 0.00 0.01 0.02 0.01 0.00
0.17 0.21 0.23 0.20 0.15 0.15 0.23 0.50 0.28 0.22 0.36 0.74 0.64 0.36 0.28 0.05 0.04 0.01 0.00 0.00 0.00 0.00 0.00 0.00 0.00 0.01 0.01 0.01 0.01 0.00 0.00 0.00 0.00 0.00 0.00 0.00 0.00 0.00 0.00 0.00 0.02 0.01 0.04 0.00 0.00
0.36 0.66 0.53 0.18 0.15 0.08 0.13 1.09 1.30 0.38 0.66 0.48 0.34 0.27 0.19 0.04 0.02 0.03 0.00 0.00 0.00 0.02 0.03 0.01 0.01 0.02 0.02 0.02 0.01 0.01 0.04 0.00 0.03 0.06 0.03 0.00 0.00 0.02 0.05 0.03 0.00 0.03 0.01 0.01 0.00
0.38 0.55 0.31 0.15 0.08 0.08 0.14 0.50 0.90 0.91 0.71 0.32 0.14 0.07 0.03 0.01 0.00 0.01 0.00 0.00 0.00 0.03 0.02 0.02 0.02 0.01 0.00 0.00 0.00 0.00 0.00 0.00 0.01 0.08 0.02 0.00 0.00 0.01 0.16 0.22 0.05 0.05 0.05 0.02 0.01
0.20 0.27 0.18 0.10 0.15 0.15 0.05 0.18 0.41 0.75 0.78 0.39 0.13 0.02 0.01 0.02 0.00 0.00 0.00 0.00 0.00 0.00 0.02 0.03 0.01 0.00 0.00 0.01 0.02 0.02 0.03 0.01 0.03 0.11 0.03 0.01 0.01 0.00 0.01 0.10 0.06 0.02 0.00 0.02 0.05
0.14 0.15 0.08 0.01 0.06 0.16 0.10 0.09 0.24 0.22 0.37 0.32 0.17 0.08 0.02 0.00 0.00 0.00 0.00 0.00 0.00 0.00 0.01 0.03 0.01 0.01 0.01 0.03 0.03 0.02 0.01 0.00 0.09 0.08 0.04 0.04 0.02 0.01 0.01 0.00 0.00 0.00 0.00 0.01 0.09
0.14 0.21 0.11 0.02 0.04 0.08 0.25 0.27 0.07 0.03 0.13 0.29 0.15 0.12 0.02 0.00 0.00 0.00 0.00 0.00 0.00 0.00 0.00 0.00 0.00 0.02 0.03 0.04 0.04 0.02 0.02 0.04 0.12 0.25 0.30 0.11 0.11 0.03 0.01 0.00 0.00 0.00 0.00 0.04 0.12
0.08 0.07 0.05 0.01 0.07 0.13 0.10 0.17 0.02 0.01 0.14 0.18 0.06 0.03 0.02 0.00 0.00 0.00 0.00 0.00 0.00 0.00 0.00 0.01 0.03 0.02 0.01 0.02 0.02 0.02 0.02 0.01 0.02 0.11 0.54 0.22 0.24 0.13 0.08 0.01 0.00 0.00 0.02 0.10 0.16
0.04 0.02 0.01 0.00 0.00 0.05 0.01 0.01 0.00 0.05 0.22 0.14 0.07 0.06 0.01 0.00 0.00 0.00 0.00 0.00 0.00 0.00 0.00 0.00 0.01 0.01 0.02 0.01 0.01 0.00 0.01 0.00 0.02 0.14 0.56 0.17 0.30 0.37 0.29 0.13 0.09 0.03 0.10 0.18 0.24
0.02 0.03 0.00 0.01 0.05 0.02 0.00 0.00 0.04 0.19 0.17 0.09 0.05 0.01 0.01 0.00 0.00 0.00 0.00 0.00 0.00 0.03 0.02 0.01 0.01 0.01 0.01 0.03 0.01 0.02 0.07 0.14 0.22 0.39 0.32 0.29 0.32 0.46 0.41 0.17 0.18 0.15 0.27 0.36 0.36
0.00 0.00 0.00 0.00 0.05 0.02 0.00 0.04 0.24 0.24 0.11 0.02 0.00 0.01 0.02 0.01 0.01 0.00 0.00 0.00 0.00 0.01 0.04 0.03 0.05 0.00 0.01 0.04 0.01 0.09 0.21 0.40 0.36 0.37 0.41 0.27 0.48 0.84 0.71 0.53 0.49 0.38 0.65 0.94 0.88
0.00 0.00 0.01 0.01 0.02 0.01 0.01 0.15 0.28 0.12 0.03 0.01 0.01 0.01 0.01 0.00 0.00 0.00 0.00 0.01 0.03 0.01 0.08 0.04 0.02 0.00 0.03 0.03 0.01 0.03 0.15 0.34 0.49 0.37 0.27 0.44 0.76 1.06 1.21 1.17 0.67 1.07 1.20 1.13 0.77
0.03 0.02 0.03 0.03 0.00 0.00 0.02 0.17 0.11 0.01 0.00 0.00 0.02 0.00 0.00 0.00 0.00 0.00 0.01 0.03 0.08 0.02 0.02 0.03 0.09 0.06 0.09 0.06 0.00 0.01 0.10 0.16 0.17 0.23 0.31 0.24 0.41 1.39 1.56 1.10 0.87 0.89 0.84 0.68 0.61
0.01 0.01 0.02 0.03 0.00 0.00 0.04 0.13 0.04 0.00 0.00 0.01 0.02 0.00 0.00 0.00 0.01 0.08 0.10 0.06 0.04 0.11 0.07 0.16 0.31 0.16 0.04 0.02 0.01 0.05 0.10 0.02 0.01 0.02 0.09 0.11 0.67 1.18 1.14 0.75 0.48 0.49 0.53 0.53 0.51
0.00 0.01 0.02 0.01 0.00 0.01 0.03 0.02 0.01 0.00 0.00 0.00 0.01 0.00 0.00 0.00 0.02 0.09 0.10 0.07 0.02 0.09 0.14 0.07 0.09 0.03 0.00 0.00 0.00 0.01 0.01 0.00 0.00 0.01 0.00 0.05 0.59 0.78 0.67 0.48 0.26 0.24 0.17 0.12 0.08
0.01 0.02 0.01 0.01 0.01 0.01 0.02 0.01 0.00 0.00 0.00 0.01 0.02 0.00 0.00 0.01 0.01 0.02 0.01 0.01 0.00 0.00 0.00 0.00 0.01 0.01 0.01 0.00 0.00 0.00 0.00 0.00 0.01 0.00 0.00 0.02 0.25 0.13 0.15 0.13 0.06 0.01 0.00 0.01 0.00
0.01 0.01 0.00 0.00 0.00 0.00 0.01 0.00 0.00 0.00 0.00 0.00 0.00 0.00 0.00 0.00 0.00 0.00 0.00 0.00 0.00 0.00 0.00 0.00 0.00 0.01 0.01 0.00 0.00 0.00 0.00 0.00 0.00 0.00 0.00 0.00 0.02 0.00 0.00 0.00 0.00 0.00 0.00 0.00 0.00
0.00 0.00 0.00 0.00 0.00 0.00 0.00 0.00 0.00 0.00 0.00 0.00 0.00 0.00 0.01 0.00 0.00 0.00 0.00 0.00 0.00 0.00 0.00 0.00 0.00 0.00 0.00 0.00 0.00 0.00 0.00 0.00 0.00 0.00 0.00 0.00 0.00 0.00 0.00 0.00 0.00 0.00 0.00 0.00 0.00
0.00 0.00 0.00 0.00 0.00 0.00 0.00 0.00 0.00 0.00 0.00 0.00 0.01 0.00 0.00 0.00 0.00 0.00 0.00 0.00 0.00 0.00 0.00 0.00 0.00 0.00 0.00 0.00 0.00 0.00 0.00 0.00 0.00 0.00 0.00 0.00 0.00 0.00 0.00 0.00 0.00 0.00 0.00 0.00 0.00
0.00 0.00 0.00 0.00 0.00 0.00 0.00 0.00 0.00 0.00 0.00 0.00 0.00 0.00 0.00 0.00 0.00 0.00 0.00 0.00 0.00 0.00 0.00 0.00 0.00 0.00 0.00 0.00 0.00 0.00 0.00 0.00 0.00 0.00 0.00 0.00 0.00 0.00 0.00 0.00 0.00 0.00 0.00 0.00 0.00

GFSSW_prec_precacc12_114.txt.gz
Total_Precipitation_Accumulation
0.07 0.08 0.10 0.12 0.10 0.07 0.06 0.08 0.16 0.22 0.21 0.14 0.13 0.12 0.00 0.00 0.01 0.00 0.00 0.00 0.00 0.00 0.00 0.00 0.00 0.00 0.00 0.00 0.00 0.00 0.00 0.00 0.00 0.00 0.00 0.00 0.00 0.00 0.00 0.00 0.00 0.00 0.00 0.00 0.01
0.16 0.15 0.13 0.10 0.08 0.07 0.04 0.03 0.09 0.14 0.17 0.18 0.18 0.16 0.03 0.00 0.00 0.00 0.00 0.00 0.00 0.00 0.00 0.00 0.00 0.00 0.00 0.00 0.00 0.00 0.00 0.00 0.00 0.00 0.00 0.00 0.00 0.00 0.00 0.00 0.00 0.00 0.00 0.00 0.01
0.29 0.21 0.18 0.15 0.13 0.10 0.05 0.01 0.03 0.07 0.14 0.20 0.16 0.23 0.03 0.00 0.00 0.00 0.00 0.00 0.00 0.00 0.00 0.00 0.00 0.00 0.00 0.00 0.00 0.00 0.00 0.00 0.00 0.00 0.00 0.00 0.00 0.00 0.00 0.00 0.00 0.00 0.00 0.00 0.00
0.32 0.23 0.14 0.11 0.12 0.12 0.06 0.03 0.05 0.12 0.10 0.14 0.39 0.26 0.11 0.03 0.00 0.00 0.00 0.00 0.00 0.00 0.00 0.00 0.00 0.00 0.00 0.00 0.00 0.00 0.00 0.00 0.00 0.00 0.00 0.00 0.00 0.00 0.00 0.00 0.00 0.00 0.00 0.00 0.00
0.24 0.19 0.11 0.09 0.09 0.08 0.06 0.08 0.05 0.16 0.22 0.18 0.51 0.55 0.13 0.11 0.03 0.00 0.00 0.00 0.00 0.00 0.00 0.00 0.00 0.00 0.00 0.00 0.00 0.00 0.00 0.00 0.00 0.00 0.00 0.00 0.00 0.00 0.00 0.00 0.00 0.00 0.00 0.00 0.00
0.21 0.18 0.13 0.14 0.17 0.11 0.03 0.05 0.04 0.07 0.16 0.33 0.64 0.67 0.19 0.16 0.03 0.00 0.00 0.00 0.00 0.00 0.00 0.00 0.00 0.00 0.00 0.00 0.00 0.00 0.00 0.00 0.00 0.00 0.00 0.00 0.00 0.00 0.00 0.00 0.00 0.00 0.00 0.00 0.00
0.14 0.14 0.16 0.19 0.16 0.10 0.07 0.04 0.02 0.10 0.18 0.43 0.52 0.67 0.31 0.11 0.01 0.01 0.00 0.00 0.00 0.00 0.00 0.00 0.00 0.00 0.00 0.00 0.00 0.00 0.00 0.00 0.00 0.00 0.00 0.00 0.00 0.00 0.00 0.00 0.00 0.00 0.00 0.00 0.00
0.15 0.11 0.13 0.19 0.18 0.14 0.07 0.01 0.04 0.07 0.28 0.87 1.08 0.49 0.54 0.13 0.03 0.03 0.00 0.00 0.00 0.00 0.00 0.00 0.00 0.00 0.00 0.00 0.00 0.00 0.00 0.00 0.00 0.00 0.00 0.00 0.00 0.00 0.00 0.00 0.00 0.00 0.00 0.00 0.00
0.15 0.23 0.27 0.25 0.15 0.17 0.09 0.41 0.27 0.21 0.38 0.96 0.91 0.52 0.45 0.15 0.15 0.05 0.00 0.00 0.00 0.00 0.00 0.00 0.00 0.00 0.00 0.00 0.00 0.00 0.00 0.00 0.00 0.00 0.00 0.00 0.00 0.00 0.00 0.00 0.00 0.00 0.00 0.00 0.00
0.29 0.62 0.56 0.25 0.19 0.16 0.06 0.92 1.17 0.33 0.78 0.68 0.57 0.40 0.33 0.17 0.09 0.03 0.00 0.00 0.00 0.02 0.02 0.01 0.01 0.00 0.00 0.00 0.00 0.00 0.02 0.00 0.00 0.00 0.00 0.00 0.00 0.00 0.00 0.01 0.00 0.00 0.00 0.01 0.00
0.23 0.46 0.29 0.18 0.10 0.11 0.08 0.50 0.80 0.76 0.85 0.59 0.26 0.10 0.09 0.11 0.01 0.02 0.00 0.00 0.00 0.02 0.01 0.01 0.00 0.00 0.00 0.00 0.00 0.00 0.00 0.00 0.00 0.00 0.00 0.00 0.00 0.00 0.00 0.06 0.02 0.01 0.02 0.01 0.01
0.11 0.19 0.15 0.11 0.15 0.12 0.05 0.26 0.43 0.83 1.12 0.67 0.23 0.08 0.11 0.06 0.01 0.00 0.00 0.00 0.00 0.00 0.01 0.02 0.00 0.00 0.00 0.00 0.00 0.01 0.03 0.01 0.00 0.04 0.01 0.00 0.00 0.00 0.00 0.06 0.04 0.02 0.00 0.00 0.03
0.04 0.05 0.03 0.01 0.04 0.06 0.11 0.20 0.43 0.31 0.54 0.61 0.37 0.18 0.08 0.02 0.00 0.00 0.00 0.00 0.00 0.00 0.00 0.00 0.00 0.00 0.00 0.01 0.03 0.01 0.01 0.00 0.01 0.02 0.00 0.00 0.00 0.00 0.00 0.00 0.00 0.00 0.00 0.00 0.03
0.01 0.03 0.02 0.01 0.01 0.04 0.15 0.14 0.13 0.04 0.16 0.49 0.24 0.16 0.03 0.00 0.00 0.00 0.00 0.00 0.00 0.00 0.00 0.00 0.00 0.00 0.00 0.01 0.03 0.01 0.00 0.01 0.02 0.10 0.08 0.09 0.09 0.01 0.00 0.00 0.00 0.00 0.00 0.00 0.06
0.01 0.01 0.01 0.01 0.03 0.09 0.08 0.12 0.01 0.01 0.10 0.18 0.08 0.03 0.01 0.00 0.00 0.00 0.00 0.00 0.00 0.00 0.00 0.00 0.01 0.00 0.00 0.00 0.01 0.00 0.00 0.00 0.01 0.08 0.19 0.15 0.25 0.04 0.02 0.00 0.00 0.00 0.00 0.03 0.09
0.02 0.01 0.01 0.00 0.00 0.02 0.00 0.01 0.00 0.02 0.19 0.13 0.06 0.06 0.00 0.00 0.00 0.00 0.00 0.00 0.00 0.00 0.00 0.00 0.00 0.00 0.00 0.00 0.01 0.00 0.00 0.00 0.01 0.10 0.33 0.13 0.23 0.18 0.14 0.06 0.01 0.01 0.04 0.08 0.12
0.00 0.00 0.00 0.01 0.02 0.00 0.00 0.00 0.02 0.12 0.14 0.07 0.04 0.00 0.00 0.00 0.00 0.00 0.00 0.00 0.00 0.00 0.00 0.00 0.00 0.00 0.00 0.00 0.00 0.01 0.04 0.07 0.16 0.31 0.20 0.16 0.27 0.28 0.25 0.07 0.04 0.12 0.19 0.16 0.17
0.00 0.00 0.00 0.00 0.02 0.00 0.00 0.01 0.17 0.20 0.06 0.00 0.00 0.00 0.01 0.01 0.00 0.00 0.00 0.00 0.00 0.00 0.01 0.01 0.02 0.00 0.00 0.00 0.01 0.01 0.07 0.29 0.28 0.25 0.25 0.16 0.36 0.56 0.58 0.32 0.40 0.37 0.56 0.84 0.92
0.00 0.00 0.00 0.00 0.00 0.00 0.00 0.06 0.15 0.07 0.02 0.00 0.00 0.00 0.00 0.00 0.00 0.00 0.00 0.00 0.00 0.00 0.04 0.02 0.00 0.00 0.00 0.00 0.00 0.01 0.15 0.38 0.48 0.35 0.24 0.31 0.52 0.78 0.91 0.87 0.66 1.11 1.20 1.24 1.18
0.00 0.00 0.00 0.00 0.00 0.00 0.01 0.08 0.04 0.00 0.00 0.00 0.01 0.00 0.00 0.00 0.00 0.00 0.00 0.01 0.04 0.01 0.01 0.01 0.03 0.01 0.00 0.00 0.00 0.01 0.12 0.19 0.19 0.24 0.31 0.26 0.43 1.30 1.43 1.10 0.97 1.03 1.09 1.03 1.04
0.00 0.00 0.00 0.00 0.00 0.00 0.01 0.05 0.00 0.00 0.00 0.01 0.01 0.00 0.00 0.00 0.02 0.08 0.09 0.06 0.04 0.11 0.06 0.13 0.12 0.04 0.00 0.00 0.01 0.06 0.13 0.04 0.02 0.03 0.14 0.14 0.69 1.31 1.30 0.97 0.73 0.73 0.79 0.78 0.76
0.00 0.00 0.00 0.00 0.00 0.00 0.00 0.00 0.00 0.00 0.00 0.00 0.00 0.00 0.00 0.01 0.03 0.10 0.09 0.06 0.02 0.06 0.06 0.05 0.03 0.00 0.00 0.00 0.00 0.01 0.01 0.00 0.01 0.01 0.00 0.06 0.66 0.93 0.89 0.69 0.44 0.36 0.24 0.16 0.10
0.00 0.00 0.00 0.00 0.00 0.00 0.00 0.00 0.00 0.00 0.00 0.00 0.00 0.00 0.00 0.00 0.00 0.01 0.01 0.01 0.00 0.00 0.00 0.00 0.00 0.00 0.00 0.00 0.00 0.00 0.00 0.00 0.01 0.00 0.00 0.03 0.34 0.22 0.22 0.17 0.08 0.01 0.01 0.01 0.00
0.00 0.00 0.00 0.00 0.00 0.00 0.00 0.00 0.00 0.00 0.00 0.00 0.00 0.00 0.00 0.00 0.00 0.00 0.00 0.00 0.00 0.00 0.00 0.00 0.00 0.00 0.00 0.00 0.00 0.00 0.00 0.00 0.00 0.00 0.00 0.01 0.03 0.00 0.00 0.00 0.00 0.00 0.00 0.00 0.00
0.00 0.00 0.00 0.00 0.00 0.00 0.00 0.00 0.00 0.00 0.00 0.00 0.00 0.00 0.00 0.00 0.00 0.00 0.00 0.00 0.00 0.00 0.00 0.00 0.00 0.00 0.00 0.00 0.00 0.00 0.00 0.00 0.00 0.00 0.00 0.00 0.00 0.00 0.00 0.00 0.00 0.00 0.00 0.00 0.00
0.00 0.00 0.00 0.00 0.00 0.00 0.00 0.00 0.00 0.00 0.00 0.00 0.00 0.00 0.00 0.00 0.00 0.00 0.00 0.00 0.00 0.00 0.00 0.00 0.00 0.00 0.00 0.00 0.00 0.00 0.00 0.00 0.00 0.00 0.00 0.00 0.00 0.00 0.00 0.00 0.00 0.00 0.00 0.00 0.00
0.00 0.00 0.00 0.00 0.00 0.00 0.00 0.00 0.00 0.00 0.00 0.00 0.00 0.00 0.00 0.00 0.00 0.00 0.00 0.00 0.00 0.00 0.00 0.00 0.00 0.00 0.00 0.00 0.00 0.00 0.00 0.00 0.00 0.00 0.00 0.00 0.00 0.00 0.00 0.00 0.00 0.00 0.00 0.00 0.00

GFSSW_prec_precacc12_117.txt.gz
Total_Precipitation_Accumulation
0.22 0.23 0.16 0.18 0.13 0.12 0.12 0.08 0.06 0.16 0.20 0.18 0.17 0.26 0.06 0.00 0.00 0.00 0.00 0.00 0.00 0.00 0.00 0.00 0.00 0.00 0.00 0.00 0.00 0.00 0.00 0.00 0.00 0.00 0.00 0.00 0.00 0.00 0.00 0.00 0.00 0.00 0.00 0.00 0.01
0.29 0.37 0.31 0.24 0.18 0.13 0.10 0.07 0.05 0.06 0.15 0.18 0.24 0.23 0.18 0.00 0.00 0.00 0.00 0.00 0.00 0.00 0.00 0.00 0.00 0.00 0.00 0.00 0.00 0.00 0.00 0.00 0.00 0.00 0.00 0.00 0.00 0.00 0.00 0.00 0.00 0.00 0.00 0.00 0.01
0.40 0.43 0.45 0.31 0.26 0.25 0.16 0.10 0.01 0.01 0.12 0.19 0.18 0.33 0.11 0.04 0.00 0.00 0.00 0.00 0.00 0.00 0.00 0.00 0.00 0.00 0.00 0.00 0.00 0.00 0.00 0.00 0.00 0.00 0.00 0.00 0.00 0.00 0.00 0.00 0.00 0.00 0.00 0.00 0.00
0.37 0.36 0.29 0.24 0.20 0.24 0.26 0.15 0.04 0.00 0.05 0.12 0.38 0.41 0.24 0.07 0.01 0.00 0.00 0.00 0.00 0.00 0.00 0.00 0.00 0.00 0.00 0.00 0.00 0.00 0.00 0.00 0.00 0.00 0.00 0.00 0.00 0.00 0.00 0.00 0.00 0.00 0.00 0.00 0.00
0.31 0.31 0.17 0.17 0.13 0.08 0.08 0.15 0.12 0.08 0.07 0.14 0.50 0.66 0.23 0.28 0.12 0.00 0.05 0.01 0.00 0.00 0.00 0.00 0.00 0.00 0.00 0.00 0.00 0.00 0.00 0.00 0.00 0.00 0.00 0.00 0.00 0.00 0.00 0.00 0.00 0.00 0.00 0.00 0.00
0.24 0.19 0.13 0.13 0.17 0.11 0.03 0.06 0.11 0.06 0.09 0.25 0.69 0.79 0.24 0.23 0.12 0.05 0.03 0.00 0.00 0.00 0.00 0.00 0.00 0.00 0.00 0.00 0.00 0.00 0.00 0.00 0.00 0.00 0.00 0.00 0.00 0.00 0.00 0.00 0.00 0.00 0.00 0.00 0.00
0.11 0.10 0.12 0.18 0.16 0.10 0.08 0.05 0.01 0.01 0.10 0.37 0.61 0.89 0.50 0.23 0.10 0.10 0.01 0.00 0.00 0.00 0.00 0.00 0.00 0.00 0.00 0.00 0.00 0.00 0.00 0.00 0.00 0.00 0.00 0.00 0.00 0.00 0.00 0.00 0.00 0.00 0.00 0.00 0.00
0.09 0.08 0.11 0.17 0.18 0.15 0.08 0.01 0.00 0.01 0.15 0.64 1.03 0.64 0.74 0.24 0.18 0.15 0.00 0.00 0.00 0.00 0.00 0.00 0.00 0.00 0.00 0.00 0.00 0.00 0.00 0.00 0.00 0.00 0.00 0.00 0.00 0.00 0.00 0.00 0.00 0.00 0.00 0.00 0.00
0.06 0.18 0.27 0.22 0.13 0.18 0.08 0.26 0.27 0.12 0.38 0.86 0.85 0.59 0.63 0.31 0.25 0.08 0.00 0.00 0.00 0.00 0.00 0.00 0.00 0.00 0.00 0.00 0.00 0.00 0.00 0.00 0.00 0.00 0.00 0.00 0.00 0.00 0.00 0.00 0.00 0.00 0.00 0.00 0.00
0.06 0.41 0.47 0.22 0.17 0.19 0.10 0.64 0.96 0.24 0.73 0.65 0.62 0.54 0.49 0.39 0.16 0.05 0.00 0.00 0.00 0.01 0.01 0.00 0.00 0.00 0.00 0.00 0.00 0.00 0.00 0.00 0.00 0.00 0.00 0.00 0.00 0.00 0.00 0.00 0.00 0.00 0.00 0.00 0.00
0.09 0.23 0.22 0.16 0.11 0.09 0.06 0.45 0.64 0.51 1.00 0.70 0.38 0.21 0.20 0.25 0.03 0.02 0.00 0.00 0.00 0.01 0.01 0.00 0.00 0.00 0.00 0.00 0.00 0.00 0.00 0.00 0.00 0.00 0.00 0.00 0.00 0.00 0.00 0.00 0.00 0.00 0.00 0.00 0.00
0.03 0.07 0.10 0.12 0.17 0.09 0.04 0.25 0.41 0.79 1.37 0.90 0.33 0.22 0.25 0.12 0.02 0.00 0.00 0.00 0.00 0.00 0.00 0.01 0.00 0.00 0.00 0.00 0.00 0.00 0.00 0.00 0.00 0.00 0.00 0.00 0.00 0.00 0.00 0.00 0.00 0.00 0.00 0.00 0.00
0.00 0.01 0.02 0.01 0.03 0.02 0.09 0.25 0.45 0.34 0.71 0.89 0.57 0.37 0.27 0.06 0.01 0.00 0.00 0.00 0.00 0.00 0.00 0.00 0.00 0.00 0.00 0.00 0.00 0.00 0.00 0.00 0.00 0.00 0.00 0.00 0.00 0.00 0.00 0.00 0.00 0.00 0.00 0.00 0.00
0.01 0.01 0.00 0.00 0.00 0.01 0.07 0.16 0.15 0.03 0.15 0.65 0.33 0.22 0.05 0.01 0.00 0.00 0.00 0.00 0.00 0.00 0.00 0.00 0.00 0.00 0.00 0.00 0.00 0.00 0.00 0.00 0.01 0.03 0.01 0.01 0.07 0.00 0.00 0.00 0.00 0.00 0.00 0.00 0.00
0.01 0.01 0.00 0.00 0.00 0.02 0.01 0.00 0.00 0.00 0.08 0.18 0.10 0.04 0.01 0.00 0.00 0.00 0.00 0.00 0.00 0.00 0.00 0.00 0.00 0.00 0.00 0.00 0.01 0.00 0.00 0.00 0.00 0.02 0.07 0.01 0.19 0.01 0.01 0.00 0.00 0.00 0.00 0.00 0.02
0.02 0.01 0.00 0.00 0.00 0.00 0.00 0.00 0.00 0.00 0.13 0.08 0.06 0.05 0.00 0.00 0.00 0.00 0.00 0.00 0.00 0.00 0.00 0.00 0.00 0.00 0.00 0.00 0.00 0.00 0.00 0.00 0.00 0.06 0.14 0.04 0.19 0.07 0.04 0.10 0.02 0.01 0.01 0.03 0.04
0.00 0.00 0.00 0.00 0.00 0.00 0.00 0.00 0.01 0.06 0.08 0.05 0.04 0.00 0.00 0.00 0.00 0.00 0.00 0.00 0.00 0.00 0.00 0.00 0.00 0.00 0.00 0.00 0.00 0.00 0.03 0.02 0.06 0.17 0.07 0.07 0.21 0.09 0.12 0.11 0.06 0.04 0.07 0.10 0.12
0.00 0.00 0.00 0.00 0.00 0.00 0.00 0.00 0.08 0.12 0.02 0.00 0.00 0.00 0.00 0.00 0.00 0.00 0.00 0.00 0.00 0.00 0.00 0.00 0.00 0.00 0.00 0.00 0.00 0.00 0.04 0.14 0.13 0.11 0.08 0.04 0.16 0.26 0.40 0.29 0.24 0.12 0.34 0.67 0.77
0.00 0.00 0.00 0.00 0.00 0.00 0.00 0.01 0.07 0.02 0.01 0.00 0.00 0.00 0.00 0.00 0.00 0.00 0.00 0.00 0.00 0.00 0.00 0.01 0.00 0.00 0.00 0.00 0.00 0.01 0.12 0.26 0.30 0.20 0.18 0.17 0.26 0.46 0.71 0.67 0.41 0.72 0.99 1.02 1.10
0.00 0.00 0.00 0.00 0.00 0.00 0.00 0.02 0.01 0.00 0.00 0.00 0.00 0.00 0.00 0.00 0.00 0.00 0.00 0.00 0.03 0.01 0.01 0.01 0.02 0.00 0.00 0.00 0.00 0.02 0.12 0.18 0.17 0.20 0.18 0.17 0.28 0.78 0.94 0.88 0.88 0.98 1.03 1.04 1.29
0.00 0.00 0.00 0.00 0.00 0.00 0.00 0.02 0.00 0.00 0.00 0.00 0.00 0.00 0.00 0.00 0.02 0.07 0.08 0.06 0.04 0.07 0.04 0.04 0.02 0.00 0.00 0.00 0.02 0.08 0.16 0.06 0.04 0.05 0.14 0.12 0.51 0.92 1.02 0.94 0.82 0.82 0.86 0.89 0.84
0.00 0.00 0.00 0.00 0.00 0.00 0.00 0.00 0.00 0.00 0.00 0.00 0.00 0.00 0.00 0.01 0.03 0.08 0.07 0.04 0.00 0.01 0.01 0.00 0.00 0.00 0.00 0.00 0.00 0.01 0.02 0.01 0.03 0.06 0.02 0.05 0.53 0.82 0.83 0.68 0.53 0.39 0.27 0.17 0.10
0.00 0.00 0.00 0.00 0.00 0.00 0.00 0.00 0.00 0.00 0.00 0.00 0.00 0.00 0.00 0.00 0.00 0.00 0.00 0.00 0.00 0.00 0.00 0.00 0.00 0.00 0.00 0.00 0.00 0.00 0.00 0.00 0.01 0.01 0.00 0.02 0.29 0.23 0.24 0.18 0.11 0.02 0.00 0.00 0.00
0.00 0.00 0.00 0.00 0.00 0.00 0.00 0.00 0.00 0.00 0.00 0.00 0.00 0.00 0.00 0.00 0.00 0.00 0.00 0.00 0.00 0.00 0.00 0.00 0.00 0.00 0.00 0.00 0.00 0.00 0.00 0.00 0.00 0.00 0.00 0.00 0.02 0.02 0.02 0.00 0.00 0.00 0.00 0.00 0.00
0.00 0.00 0.00 0.00 0.00 0.00 0.00 0.00 0.00 0.00 0.00 0.00 0.00 0.00 0.00 0.00 0.00 0.00 0.00 0.00 0.00 0.00 0.00 0.00 0.00 0.00 0.00 0.00 0.00 0.00 0.00 0.00 0.00 0.00 0.00 0.00 0.00 0.00 0.00 0.00 0.00 0.00 0.00 0.00 0.00
0.00 0.00 0.00 0.00 0.00 0.00 0.00 0.00 0.00 0.00 0.00 0.00 0.00 0.00 0.00 0.00 0.00 0.00 0.00 0.00 0.00 0.00 0.00 0.00 0.00 0.00 0.00 0.00 0.00 0.00 0.00 0.00 0.00 0.00 0.00 0.00 0.00 0.00 0.00 0.00 0.00 0.00 0.00 0.00 0.00
0.00 0.00 0.00 0.00 0.00 0.00 0.00 0.00 0.00 0.00 0.00 0.00 0.00 0.00 0.00 0.00 0.00 0.00 0.00 0.00 0.00 0.00 0.00 0.00 0.00 0.00 0.00 0.00 0.00 0.00 0.00 0.00 0.00 0.00 0.00 0.00 0.00 0.00 0.00 0.00 0.00 0.00 0.00 0.00 0.00

GFSSW_prec_precacc12_120.txt.gz
Total_Precipitation_Accumulation
0.24 0.33 0.41 0.47 0.28 0.16 0.18 0.12 0.05 0.02 0.08 0.18 0.20 0.46 0.47 0.02 0.00 0.00 0.00 0.00 0.00 0.00 0.00 0.00 0.00 0.00 0.00 0.00 0.00 0.00 0.00 0.00 0.00 0.00 0.00 0.00 0.00 0.00 0.00 0.00 0.00 0.00 0.00 0.00 0.00
0.27 0.42 0.67 0.69 0.65 0.25 0.13 0.09 0.06 0.00 0.01 0.14 0.27 0.27 0.47 0.05 0.00 0.00 0.00 0.00 0.00 0.00 0.00 0.00 0.00 0.00 0.00 0.00 0.00 0.00 0.00 0.00 0.00 0.00 0.00 0.00 0.00 0.00 0.00 0.00 0.00 0.00 0.00 0.00 0.00
0.36 0.38 0.55 0.65 0.66 0.51 0.26 0.22 0.08 0.03 0.01 0.09 0.19 0.47 0.39 0.10 0.00 0.00 0.00 0.00 0.00 0.00 0.00 0.00 0.00 0.00 0.00 0.00 0.00 0.00 0.00 0.00 0.00 0.00 0.00 0.00 0.00 0.00 0.00 0.00 0.00 0.00 0.00 0.00 0.00
0.40 0.36 0.30 0.36 0.44 0.45 0.36 0.25 0.14 0.03 0.00 0.05 0.37 0.53 0.48 0.18 0.13 0.00 0.00 0.01 0.00 0.00 0.00 0.00 0.00 0.00 0.00 0.00 0.00 0.00 0.00 0.00 0.00 0.00 0.00 0.00 0.00 0.00 0.00 0.00 0.00 0.00 0.00 0.00 0.00
0.31 0.29 0.17 0.28 0.31 0.15 0.16 0.36 0.26 0.15 0.00 0.02 0.47 0.69 0.31 0.40 0.22 0.01 0.07 0.02 0.00 0.00 0.00 0.00 0.00 0.00 0.00 0.00 0.00 0.00 0.00 0.00 0.00 0.00 0.00 0.00 0.00 0.00 0.00 0.00 0.00 0.00 0.00 0.00 0.00
0.20 0.13 0.07 0.05 0.12 0.09 0.04 0.14 0.18 0.09 0.00 0.03 0.49 0.74 0.34 0.42 0.19 0.06 0.07 0.00 0.00 0.00 0.00 0.00 0.00 0.00 0.00 0.00 0.00 0.00 0.00 0.00 0.00 0.00 0.00 0.00 0.00 0.00 0.00 0.00 0.00 0.00 0.00 0.00 0.00
0.07 0.04 0.03 0.08 0.12 0.08 0.08 0.08 0.03 0.02 0.00 0.19 0.47 0.74 0.50 0.37 0.20 0.20 0.05 0.00 0.00 0.00 0.00 0.00 0.00 0.00 0.00 0.00 0.00 0.00 0.00 0.00 0.00 0.00 0.00 0.00 0.00 0.00 0.00 0.00 0.00 0.00 0.00 0.00 0.00
0.06 0.05 0.03 0.07 0.15 0.14 0.09 0.01 0.00 0.00 0.01 0.53 0.89 0.49 0.76 0.34 0.23 0.22 0.00 0.00 0.00 0.00 0.00 0.00 0.00 0.00 0.00 0.00 0.00 0.00 0.00 0.00 0.00 0.00 0.00 0.00 0.00 0.00 0.00 0.00 0.00 0.00 0.00 0.00 0.00
0.05 0.11 0.14 0.11 0.08 0.21 0.12 0.12 0.16 0.07 0.21 0.68 0.64 0.46 0.74 0.58 0.36 0.13 0.00 0.00 0.00 0.00 0.00 0.00 0.00 0.00 0.00 0.00 0.00 0.00 0.00 0.00 0.00 0.00 0.00 0.00 0.00 0.00 0.00 0.00 0.00 0.00 0.00 0.00 0.00
0.04 0.23 0.27 0.17 0.12 0.22 0.13 0.19 0.51 0.13 0.50 0.54 0.47 0.51 0.71 0.59 0.24 0.06 0.00 0.00 0.00 0.00 0.00 0.00 0.00 0.00 0.00 0.00 0.00 0.00 0.00 0.00 0.00 0.00 0.00 0.00 0.00 0.00 0.00 0.00 0.00 0.00 0.00 0.00 0.00
0.03 0.06 0.10 0.13 0.08 0.08 0.02 0.29 0.30 0.32 0.74 0.64 0.34 0.26 0.32 0.33 0.05 0.02 0.00 0.00 0.00 0.00 0.00 0.00 0.00 0.00 0.00 0.00 0.00 0.00 0.00 0.00 0.00 0.00 0.00 0.00 0.00 0.00 0.00 0.00 0.00 0.00 0.00 0.00 0.00
0.01 0.02 0.04 0.10 0.12 0.05 0.03 0.22 0.28 0.57 1.28 0.93 0.38 0.29 0.35 0.15 0.04 0.00 0.00 0.00 0.00 0.00 0.00 0.00 0.00 0.00 0.00 0.00 0.00 0.00 0.00 0.00 0.00 0.00 0.00 0.00 0.00 0.00 0.00 0.00 0.00 0.00 0.00 0.00 0.00
0.00 0.00 0.00 0.01 0.02 0.02 0.10 0.30 0.46 0.29 0.67 1.02 0.64 0.48 0.39 0.10 0.02 0.00 0.00 0.00 0.00 0.00 0.00 0.00 0.00 0.00 0.00 0.00 0.00 0.00 0.00 0.00 0.00 0.00 0.00 0.00 0.00 0.00 0.00 0.00 0.00 0.00 0.00 0.00 0.00
0.00 0.00 0.00 0.00 0.00 0.01 0.07 0.16 0.14 0.03 0.16 0.74 0.37 0.27 0.10 0.02 0.00 0.00 0.00 0.00 0.00 0.00 0.00 0.00 0.00 0.00 0.00 0.00 0.00 0.00 0.00 0.00 0.00 0.02 0.01 0.01 0.05 0.00 0.00 0.00 0.00 0.00 0.00 0.00 0.00
0.00 0.00 0.00 0.00 0.00 0.01 0.01 0.00 0.00 0.00 0.07 0.23 0.12 0.04 0.01 0.00 0.00 0.00 0.00 0.00 0.00 0.00 0.00 0.00 0.00 0.00 0.00 0.00 0.00 0.00 0.00 0.00 0.00 0.02 0.05 0.01 0.11 0.00 0.00 0.00 0.00 0.00 0.00 0.00 0.01
0.00 0.00 0.00 0.00 0.00 0.00 0.00 0.00 0.00 0.00 0.12 0.04 0.03 0.01 0.00 0.00 0.00 0.00 0.00 0.00 0.00 0.00 0.00 0.00 0.00 0.00 0.00 0.00 0.00 0.00 0.00 0.00 0.00 0.03 0.08 0.01 0.14 0.03 0.02 0.11 0.03 0.02 0.02 0.02 0.01
0.00 0.00 0.00 0.00 0.00 0.00 0.00 0.00 0.00 0.03 0.04 0.03 0.02 0.00 0.00 0.00 0.00 0.00 0.00 0.00 0.00 0.00 0.00 0.00 0.00 0.00 0.00 0.00 0.00 0.00 0.02 0.01 0.01 0.05 0.02 0.04 0.18 0.06 0.12 0.13 0.11 0.10 0.07 0.04 0.06
0.00 0.00 0.00 0.00 0.00 0.00 0.00 0.00 0.03 0.06 0.01 0.00 0.00 0.00 0.00 0.00 0.00 0.00 0.00 0.00 0.00 0.00 0.00 0.00 0.00 0.00 0.00 0.00 0.00 0.00 0.02 0.07 0.05 0.02 0.02 0.02 0.10 0.12 0.21 0.19 0.15 0.08 0.08 0.31 0.66
0.00 0.00 0.00 0.00 0.00 0.00 0.00 0.00 0.03 0.01 0.00 0.00 0.00 0.00 0.00 0.00 0.00 0.00 0.00 0.00 0.00 0.00 0.00 0.00 0.00 0.00 0.00 0.00 0.00 0.01 0.05 0.11 0.15 0.06 0.13 0.10 0.14 0.21 0.33 0.22 0.10 0.30 0.52 0.71 1.00
0.00 0.00 0.00 0.00 0.00 0.00 0.00 0.01 0.00 0.00 0.00 0.00 0.00 0.00 0.00 0.00 0.00 0.00 0.00 0.00 0.02 0.01 0.01 0.01 0.01 0.00 0.00 0.00 0.00 0.02 0.08 0.14 0.13 0.12 0.13 0.15 0.18 0.43 0.52 0.49 0.52 0.71 0.84 0.87 1.20
0.00 0.00 0.00 0.00 0.00 0.00 0.00 0.00 0.00 0.00 0.00 0.00 0.00 0.00 0.00 0.00 0.02 0.06 0.06 0.04 0.02 0.03 0.03 0.02 0.01 0.00 0.00 0.00 0.02 0.08 0.12 0.07 0.06 0.06 0.11 0.08 0.26 0.54 0.63 0.69 0.71 0.72 0.71 0.71 0.73
0.00 0.00 0.00 0.00 0.00 0.00 0.00 0.00 0.00 0.00 0.00 0.00 0.00 0.00 0.00 0.01 0.02 0.06 0.03 0.02 0.00 0.00 0.00 0.00 0.01 0.00 0.00 0.00 0.00 0.01 0.01 0.01 0.03 0.07 0.03 0.03 0.30 0.48 0.57 0.54 0.48 0.36 0.22 0.13 0.06
0.00 0.00 0.00 0.00 0.00 0.00 0.00 0.00 0.00 0.00 0.00 0.00 0.00 0.00 0.00 0.00 0.00 0.00 0.00 0.00 0.00 0.00 0.00 0.00 0.00 0.00 0.00 0.00 0.00 0.00 0.00 0.00 0.01 0.01 0.01 0.01 0.20 0.20 0.20 0.15 0.09 0.02 0.00 0.00 0.00
0.00 0.00 0.00 0.00 0.00 0.00 0.00 0.00 0.00 0.00 0.00 0.00 0.00 0.00 0.00 0.00 0.00 0.00 0.00 0.00 0.00 0.00 0.00 0.00 0.00 0.00 0.00 0.00 0.00 0.00 0.00 0.00 0.00 0.00 0.00 0.00 0.01 0.03 0.02 0.00 0.00 0.00 0.00 0.00 0.00
0.00 0.00 0.00 0.00 0.00 0.00 0.00 0.00 0.00 0.00 0.00 0.00 0.00 0.00 0.00 0.00 0.00 0.00 0.00 0.00 0.00 0.00 0.00 0.00 0.00 0.00 0.00 0.00 0.00 0.00 0.00 0.00 0.00 0.00 0.00 0.00 0.00 0.00 0.00 0.00 0.00 0.00 0.00 0.00 0.00
0.00 0.00 0.00 0.00 0.00 0.00 0.00 0.00 0.00 0.00 0.00 0.00 0.00 0.00 0.00 0.00 0.00 0.00 0.00 0.00 0.00 0.00 0.00 0.00 0.00 0.00 0.00 0.00 0.00 0.00 0.00 0.00 0.00 0.00 0.00 0.00 0.00 0.00 0.00 0.00 0.00 0.00 0.00 0.00 0.00
0.00 0.00 0.00 0.00 0.00 0.00 0.00 0.00 0.00 0.00 0.00 0.00 0.00 0.00 0.00 0.00 0.00 0.00 0.00 0.00 0.00 0.00 0.00 0.00 0.00 0.00 0.00 0.00 0.00 0.00 0.00 0.00 0.00 0.00 0.00 0.00 0.00 0.00 0.00 0.00 0.00 0.00 0.00 0.00 0.00

GFSSW_prec_precacc12_123.txt.gz
Total_Precipitation_Accumulation
0.22 0.29 0.40 0.56 0.70 0.53 0.28 0.15 0.08 0.01 0.02 0.07 0.17 0.65 0.56 0.03 0.00 0.00 0.00 0.00 0.00 0.00 0.00 0.00 0.00 0.00 0.00 0.00 0.00 0.00 0.00 0.00 0.00 0.00 0.00 0.00 0.00 0.00 0.00 0.00 0.00 0.00 0.00 0.00 0.00
0.23 0.36 0.64 0.84 1.04 0.84 0.23 0.15 0.10 0.01 0.00 0.02 0.21 0.45 0.72 0.08 0.00 0.00 0.00 0.00 0.00 0.00 0.00 0.00 0.00 0.00 0.00 0.00 0.00 0.00 0.00 0.00 0.00 0.00 0.00 0.00 0.00 0.00 0.00 0.00 0.00 0.00 0.00 0.00 0.00
0.36 0.34 0.50 0.72 1.05 1.39 0.62 0.27 0.12 0.03 0.00 0.00 0.12 0.67 0.70 0.17 0.01 0.00 0.00 0.00 0.00 0.00 0.00 0.00 0.00 0.00 0.00 0.00 0.00 0.00 0.00 0.00 0.00 0.00 0.00 0.00 0.00 0.00 0.00 0.00 0.00 0.00 0.00 0.00 0.00
0.42 0.36 0.26 0.35 0.51 0.89 0.75 0.29 0.19 0.05 0.00 0.00 0.10 0.72 0.80 0.37 0.21 0.00 0.00 0.01 0.00 0.00 0.00 0.00 0.00 0.00 0.00 0.00 0.00 0.00 0.00 0.00 0.00 0.00 0.00 0.00 0.00 0.00 0.00 0.00 0.00 0.00 0.00 0.00 0.00
0.29 0.28 0.14 0.26 0.28 0.32 0.29 0.37 0.30 0.18 0.00 0.00 0.32 0.70 0.51 0.56 0.32 0.02 0.07 0.03 0.00 0.00 0.00 0.00 0.00 0.00 0.00 0.00 0.00 0.00 0.00 0.00 0.00 0.00 0.00 0.00 0.00 0.00 0.00 0.00 0.00 0.00 0.00 0.00 0.00
0.16 0.10 0.04 0.02 0.02 0.04 0.06 0.19 0.23 0.11 0.00 0.01 0.31 0.71 0.48 0.55 0.26 0.09 0.08 0.00 0.00 0.00 0.00 0.00 0.00 0.00 0.00 0.00 0.00 0.00 0.00 0.00 0.00 0.00 0.00 0.00 0.00 0.00 0.00 0.00 0.00 0.00 0.00 0.00 0.00
0.07 0.03 0.02 0.03 0.05 0.06 0.12 0.17 0.09 0.03 0.01 0.05 0.29 0.62 0.56 0.55 0.27 0.28 0.06 0.00 0.00 0.00 0.00 0.00 0.00 0.00 0.00 0.00 0.00 0.00 0.00 0.00 0.00 0.00 0.00 0.00 0.00 0.00 0.00 0.00 0.00 0.00 0.00 0.00 0.00
0.07 0.04 0.04 0.05 0.04 0.07 0.13 0.07 0.00 0.00 0.02 0.12 0.30 0.43 0.77 0.55 0.31 0.26 0.00 0.00 0.00 0.00 0.00 0.00 0.00 0.00 0.00 0.00 0.00 0.00 0.00 0.00 0.00 0.00 0.00 0.00 0.00 0.00 0.00 0.00 0.00 0.00 0.00 0.00 0.00
0.05 0.07 0.11 0.10 0.08 0.10 0.12 0.12 0.12 0.05 0.11 0.27 0.33 0.38 0.84 0.80 0.39 0.13 0.00 0.00 0.00 0.00 0.00 0.00 0.00 0.00 0.00 0.00 0.00 0.00 0.00 0.00 0.00 0.00 0.00 0.00 0.00 0.00 0.00 0.00 0.00 0.00 0.00 0.00 0.00
0.04 0.06 0.10 0.12 0.14 0.20 0.15 0.08 0.08 0.03 0.17 0.25 0.36 0.44 0.74 0.72 0.27 0.04 0.00 0.00 0.00 0.00 0.00 0.00 0.00 0.00 0.00 0.00 0.00 0.00 0.00 0.00 0.00 0.00 0.00 0.00 0.00 0.00 0.00 0.00 0.00 0.00 0.00 0.00 0.00
0.01 0.02 0.06 0.08 0.04 0.05 0.01 0.07 0.04 0.15 0.47 0.47 0.31 0.23 0.37 0.42 0.10 0.02 0.00 0.00 0.00 0.00 0.00 0.00 0.00 0.00 0.00 0.00 0.00 0.00 0.00 0.00 0.00 0.00 0.00 0.00 0.00 0.00 0.00 0.00 0.00 0.00 0.00 0.00 0.00
0.01 0.01 0.01 0.06 0.05 0.02 0.01 0.12 0.10 0.31 0.93 0.79 0.40 0.32 0.38 0.15 0.06 0.00 0.00 0.00 0.00 0.00 0.00 0.00 0.00 0.00 0.00 0.00 0.00 0.00 0.00 0.00 0.00 0.00 0.00 0.00 0.00 0.00 0.00 0.00 0.00 0.00 0.00 0.00 0.00
0.00 0.00 0.00 0.01 0.00 0.02 0.07 0.25 0.39 0.16 0.48 0.92 0.66 0.55 0.45 0.11 0.03 0.00 0.00 0.00 0.00 0.00 0.00 0.00 0.00 0.00 0.00 0.00 0.00 0.00 0.00 0.00 0.00 0.00 0.00 0.00 0.00 0.00 0.00 0.00 0.00 0.00 0.00 0.00 0.00
0.00 0.00 0.00 0.00 0.00 0.02 0.07 0.16 0.14 0.02 0.12 0.59 0.32 0.25 0.12 0.03 0.00 0.00 0.00 0.00 0.00 0.00 0.00 0.00 0.00 0.00 0.00 0.00 0.00 0.00 0.00 0.00 0.00 0.01 0.00 0.01 0.04 0.00 0.00 0.00 0.00 0.00 0.00 0.00 0.00
0.00 0.00 0.00 0.00 0.00 0.00 0.00 0.00 0.00 0.00 0.06 0.22 0.11 0.02 0.00 0.00 0.00 0.00 0.00 0.00 0.00 0.00 0.00 0.00 0.00 0.00 0.00 0.00 0.00 0.00 0.00 0.00 0.00 0.02 0.04 0.01 0.08 0.00 0.00 0.00 0.00 0.00 0.00 0.00 0.01
0.00 0.00 0.00 0.00 0.00 0.00 0.00 0.00 0.00 0.00 0.11 0.03 0.01 0.00 0.00 0.00 0.00 0.00 0.00 0.00 0.00 0.00 0.00 0.00 0.00 0.00 0.00 0.00 0.00 0.00 0.00 0.00 0.00 0.02 0.05 0.00 0.07 0.02 0.02 0.11 0.03 0.02 0.02 0.02 0.01
0.00 0.00 0.00 0.00 0.00 0.00 0.00 0.00 0.00 0.03 0.02 0.00 0.00 0.00 0.00 0.00 0.00 0.00 0.00 0.00 0.00 0.00 0.00 0.00 0.00 0.00 0.00 0.00 0.00 0.00 0.01 0.01 0.01 0.02 0.01 0.02 0.12 0.04 0.10 0.13 0.11 0.11 0.08 0.03 0.02
0.00 0.00 0.00 0.00 0.00 0.00 0.00 0.00 0.01 0.04 0.00 0.00 0.00 0.00 0.00 0.00 0.00 0.00 0.00 0.00 0.00 0.00 0.00 0.00 0.00 0.00 0.00 0.00 0.00 0.00 0.01 0.03 0.02 0.00 0.00 0.01 0.05 0.05 0.14 0.16 0.14 0.08 0.06 0.05 0.18
0.00 0.00 0.00 0.00 0.00 0.00 0.00 0.00 0.01 0.00 0.00 0.00 0.00 0.00 0.00 0.00 0.00 0.00 0.00 0.00 0.00 0.00 0.00 0.00 0.00 0.00 0.00 0.00 0.00 0.01 0.04 0.06 0.10 0.03 0.07 0.05 0.05 0.03 0.06 0.06 0.04 0.11 0.09 0.23 0.75
0.00 0.00 0.00 0.00 0.00 0.00 0.00 0.00 0.00 0.00 0.00 0.00 0.00 0.00 0.00 0.00 0.00 0.00 0.00 0.00 0.00 0.00 0.00 0.00 0.01 0.00 0.00 0.00 0.00 0.02 0.04 0.10 0.13 0.09 0.08 0.08 0.07 0.14 0.15 0.17 0.22 0.30 0.41 0.57 0.92
0.00 0.00 0.00 0.00 0.00 0.00 0.00 0.00 0.00 0.00 0.00 0.00 0.00 0.00 0.00 0.00 0.01 0.02 0.01 0.00 0.00 0.01 0.01 0.02 0.01 0.00 0.00 0.00 0.02 0.05 0.08 0.06 0.07 0.06 0.10 0.04 0.08 0.23 0.27 0.36 0.42 0.39 0.38 0.39 0.46
0.00 0.00 0.00 0.00 0.00 0.00 0.00 0.00 0.00 0.00 0.00 0.00 0.00 0.00 0.00 0.01 0.01 0.02 0.01 0.00 0.00 0.00 0.01 0.00 0.01 0.00 0.00 0.00 0.00 0.01 0.01 0.01 0.05 0.08 0.03 0.02 0.13 0.18 0.24 0.31 0.34 0.21 0.11 0.05 0.03
0.00 0.00 0.00 0.00 0.00 0.00 0.00 0.00 0.00 0.00 0.00 0.00 0.00 0.00 0.00 0.00 0.00 0.00 0.00 0.00 0.00 0.00 0.00 0.00 0.00 0.00 0.00 0.00 0.00 0.00 0.00 0.00 0.00 0.01 0.01 0.00 0.12 0.12 0.09 0.07 0.06 0.01 0.00 0.00 0.00
0.00 0.00 0.00 0.00 0.00 0.00 0.00 0.00 0.00 0.00 0.00 0.00 0.00 0.00 0.00 0.00 0.00 0.00 0.00 0.00 0.00 0.00 0.00 0.00 0.00 0.00 0.00 0.00 0.00 0.00 0.00 0.00 0.00 0.00 0.00 0.00 0.01 0.03 0.02 0.00 0.00 0.00 0.00 0.00 0.00
0.00 0.00 0.00 0.00 0.00 0.00 0.00 0.00 0.00 0.00 0.00 0.00 0.00 0.00 0.00 0.00 0.00 0.00 0.00 0.00 0.00 0.00 0.00 0.00 0.00 0.00 0.00 0.00 0.00 0.00 0.00 0.00 0.00 0.00 0.00 0.00 0.00 0.00 0.00 0.00 0.00 0.00 0.00 0.00 0.00
0.00 0.00 0.00 0.00 0.00 0.00 0.00 0.00 0.00 0.00 0.00 0.00 0.00 0.00 0.00 0.00 0.00 0.00 0.00 0.00 0.00 0.00 0.00 0.00 0.00 0.00 0.00 0.00 0.00 0.00 0.00 0.00 0.00 0.00 0.00 0.00 0.00 0.00 0.00 0.00 0.00 0.00 0.00 0.00 0.00
0.00 0.00 0.00 0.00 0.00 0.00 0.00 0.00 0.00 0.00 0.00 0.00 0.00 0.00 0.00 0.00 0.00 0.00 0.00 0.00 0.00 0.00 0.00 0.00 0.00 0.00 0.00 0.00 0.00 0.00 0.00 0.00 0.00 0.00 0.00 0.00 0.00 0.00 0.00 0.00 0.00 0.00 0.00 0.00 0.00

GFSSW_prec_precacc12_126.txt.gz
Total_Precipitation_Accumulation
0.24 0.29 0.39 0.58 0.72 0.59 0.54 0.40 0.23 0.05 0.01 0.05 0.08 0.58 0.62 0.03 0.00 0.00 0.00 0.00 0.00 0.00 0.00 0.00 0.00 0.00 0.00 0.00 0.00 0.00 0.00 0.00 0.00 0.00 0.00 0.00 0.00 0.00 0.00 0.00 0.00 0.00 0.00 0.00 0.00
0.23 0.37 0.65 0.93 1.16 1.07 0.74 0.27 0.16 0.03 0.00 0.01 0.15 0.38 0.78 0.08 0.00 0.00 0.00 0.00 0.00 0.00 0.00 0.00 0.00 0.00 0.00 0.00 0.00 0.00 0.00 0.00 0.00 0.00 0.00 0.00 0.00 0.00 0.00 0.00 0.00 0.00 0.00 0.00 0.00
0.26 0.29 0.48 0.74 1.19 1.87 1.38 0.33 0.14 0.03 0.00 0.00 0.09 0.58 0.91 0.22 0.01 0.00 0.00 0.00 0.00 0.00 0.00 0.00 0.00 0.00 0.00 0.00 0.00 0.00 0.00 0.00 0.00 0.00 0.00 0.00 0.00 0.00 0.00 0.00 0.00 0.00 0.00 0.00 0.00
0.22 0.24 0.29 0.35 0.60 1.17 1.32 0.35 0.22 0.05 0.00 0.00 0.07 0.78 1.14 0.51 0.22 0.00 0.00 0.01 0.00 0.00 0.00 0.00 0.00 0.00 0.00 0.00 0.00 0.00 0.00 0.00 0.00 0.00 0.00 0.00 0.00 0.00 0.00 0.00 0.00 0.00 0.00 0.00 0.00
0.17 0.23 0.18 0.34 0.40 0.65 0.45 0.33 0.27 0.18 0.00 0.02 0.16 0.73 0.82 0.74 0.35 0.02 0.07 0.02 0.00 0.00 0.00 0.00 0.00 0.00 0.00 0.00 0.00 0.00 0.00 0.00 0.00 0.00 0.00 0.00 0.00 0.00 0.00 0.00 0.00 0.00 0.00 0.00 0.00
0.11 0.07 0.05 0.06 0.17 0.15 0.07 0.17 0.21 0.11 0.01 0.06 0.27 0.55 0.48 0.62 0.36 0.08 0.08 0.00 0.00 0.00 0.00 0.00 0.00 0.00 0.00 0.00 0.00 0.00 0.00 0.00 0.00 0.00 0.00 0.00 0.00 0.00 0.00 0.00 0.00 0.00 0.00 0.00 0.00
0.06 0.06 0.04 0.05 0.11 0.10 0.11 0.15 0.09 0.03 0.02 0.10 0.25 0.37 0.57 0.72 0.40 0.34 0.06 0.00 0.00 0.00 0.00 0.00 0.00 0.00 0.00 0.00 0.00 0.00 0.00 0.00 0.00 0.00 0.00 0.00 0.00 0.00 0.00 0.00 0.00 0.00 0.00 0.00 0.00
0.07 0.05 0.05 0.06 0.10 0.12 0.13 0.08 0.01 0.02 0.04 0.04 0.14 0.29 0.71 0.69 0.41 0.31 0.00 0.00 0.00 0.00 0.00 0.00 0.00 0.00 0.00 0.00 0.00 0.00 0.00 0.00 0.00 0.00 0.00 0.00 0.00 0.00 0.00 0.00 0.00 0.00 0.00 0.00 0.00
0.04 0.05 0.06 0.06 0.08 0.08 0.09 0.12 0.08 0.03 0.07 0.05 0.06 0.25 0.82 0.82 0.33 0.09 0.00 0.00 0.00 0.00 0.00 0.00 0.00 0.00 0.00 0.00 0.00 0.00 0.00 0.00 0.00 0.00 0.00 0.00 0.00 0.00 0.00 0.00 0.00 0.00 0.00 0.00 0.00
0.04 0.06 0.05 0.05 0.11 0.13 0.14 0.06 0.03 0.01 0.00 0.02 0.11 0.34 0.75 0.65 0.22 0.03 0.00 0.00 0.00 0.00 0.00 0.00 0.00 0.00 0.00 0.00 0.00 0.00 0.00 0.00 0.00 0.00 0.00 0.00 0.00 0.00 0.00 0.00 0.00 0.00 0.00 0.00 0.00
0.01 0.02 0.05 0.04 0.01 0.01 0.01 0.00 0.00 0.11 0.27 0.21 0.20 0.23 0.42 0.38 0.09 0.01 0.00 0.00 0.00 0.00 0.00 0.00 0.00 0.00 0.00 0.00 0.00 0.00 0.00 0.00 0.00 0.00 0.00 0.00 0.00 0.00 0.00 0.00 0.00 0.00 0.00 0.00 0.00
0.01 0.01 0.01 0.04 0.03 0.00 0.00 0.01 0.06 0.18 0.58 0.52 0.32 0.30 0.34 0.13 0.05 0.00 0.00 0.00 0.00 0.00 0.00 0.00 0.00 0.00 0.00 0.00 0.00 0.00 0.00 0.00 0.00 0.00 0.00 0.00 0.00 0.00 0.00 0.00 0.00 0.00 0.00 0.00 0.00
0.00 0.00 0.00 0.00 0.00 0.00 0.01 0.12 0.19 0.06 0.32 0.70 0.51 0.48 0.40 0.09 0.03 0.00 0.00 0.00 0.00 0.00 0.00 0.00 0.00 0.00 0.00 0.00 0.00 0.00 0.00 0.00 0.00 0.00 0.00 0.00 0.00 0.00 0.00 0.00 0.00 0.00 0.00 0.00 0.00
0.00 0.00 0.00 0.00 0.00 0.01 0.02 0.06 0.04 0.00 0.07 0.39 0.23 0.21 0.11 0.02 0.00 0.00 0.00 0.00 0.00 0.00 0.00 0.00 0.00 0.00 0.00 0.00 0.00 0.00 0.00 0.00 0.00 0.01 0.00 0.00 0.03 0.00 0.00 0.00 0.00 0.00 0.00 0.00 0.00
0.00 0.00 0.00 0.00 0.00 0.00 0.00 0.00 0.00 0.00 0.05 0.19 0.09 0.01 0.00 0.00 0.00 0.00 0.00 0.00 0.00 0.00 0.00 0.00 0.00 0.00 0.00 0.00 0.00 0.00 0.00 0.00 0.00 0.01 0.02 0.00 0.05 0.00 0.00 0.00 0.00 0.00 0.00 0.00 0.01
0.00 0.00 0.00 0.00 0.00 0.00 0.00 0.00 0.00 0.00 0.08 0.02 0.01 0.00 0.00 0.00 0.00 0.00 0.00 0.00 0.00 0.00 0.00 0.00 0.00 0.00 0.00 0.00 0.00 0.00 0.00 0.00 0.00 0.01 0.02 0.00 0.03 0.01 0.01 0.09 0.02 0.02 0.02 0.02 0.01
0.00 0.00 0.00 0.00 0.00 0.00 0.00 0.00 0.00 0.02 0.01 0.00 0.00 0.00 0.00 0.00 0.00 0.00 0.00 0.00 0.00 0.00 0.00 0.00 0.00 0.00 0.00 0.00 0.00 0.00 0.00 0.00 0.00 0.01 0.00 0.00 0.05 0.02 0.03 0.10 0.10 0.10 0.07 0.03 0.02
0.00 0.00 0.00 0.00 0.00 0.00 0.00 0.00 0.01 0.03 0.00 0.00 0.00 0.00 0.00 0.00 0.00 0.00 0.00 0.00 0.00 0.00 0.00 0.00 0.00 0.00 0.00 0.00 0.00 0.00 0.01 0.02 0.01 0.00 0.00 0.00 0.02 0.02 0.04 0.10 0.11 0.08 0.05 0.03 0.02
0.00 0.00 0.00 0.00 0.00 0.00 0.00 0.00 0.01 0.00 0.00 0.00 0.00 0.00 0.00 0.00 0.00 0.00 0.00 0.00 0.00 0.00 0.00 0.00 0.00 0.00 0.00 0.00 0.00 0.01 0.03 0.03 0.06 0.01 0.03 0.01 0.01 0.01 0.00 0.03 0.02 0.05 0.06 0.02 0.19
0.00 0.00 0.00 0.00 0.00 0.00 0.00 0.00 0.00 0.00 0.00 0.00 0.00 0.00 0.00 0.00 0.00 0.00 0.00 0.00 0.00 0.00 0.00 0.00 0.00 0.00 0.00 0.00 0.00 0.01 0.02 0.07 0.10 0.06 0.04 0.01 0.02 0.05 0.02 0.05 0.08 0.13 0.11 0.20 0.47
0.00 0.00 0.00 0.00 0.00 0.00 0.00 0.00 0.00 0.00 0.00 0.00 0.00 0.00 0.00 0.00 0.00 0.00 0.00 0.00 0.00 0.00 0.00 0.01 0.01 0.00 0.00 0.00 0.02 0.04 0.05 0.05 0.06 0.05 0.06 0.01 0.01 0.06 0.07 0.11 0.16 0.12 0.10 0.13 0.21
0.00 0.00 0.00 0.00 0.00 0.00 0.00 0.00 0.00 0.00 0.00 0.00 0.00 0.00 0.00 0.00 0.00 0.00 0.00 0.00 0.00 0.00 0.00 0.00 0.01 0.00 0.00 0.00 0.00 0.00 0.01 0.02 0.05 0.09 0.04 0.02 0.03 0.02 0.02 0.09 0.16 0.09 0.04 0.01 0.01
0.00 0.00 0.00 0.00 0.00 0.00 0.00 0.00 0.00 0.00 0.00 0.00 0.00 0.00 0.00 0.00 0.00 0.00 0.00 0.00 0.00 0.00 0.00 0.00 0.00 0.00 0.00 0.00 0.00 0.00 0.00 0.00 0.00 0.01 0.01 0.01 0.03 0.03 0.02 0.03 0.05 0.01 0.00 0.00 0.00
0.00 0.00 0.00 0.00 0.00 0.00 0.00 0.00 0.00 0.00 0.00 0.00 0.00 0.00 0.00 0.00 0.00 0.00 0.00 0.00 0.00 0.00 0.00 0.00 0.00 0.00 0.00 0.00 0.00 0.00 0.00 0.00 0.00 0.00 0.00 0.00 0.00 0.02 0.02 0.00 0.00 0.00 0.00 0.00 0.00
0.00 0.00 0.00 0.00 0.00 0.00 0.00 0.00 0.00 0.00 0.00 0.00 0.00 0.00 0.00 0.00 0.00 0.00 0.00 0.00 0.00 0.00 0.00 0.00 0.00 0.00 0.00 0.00 0.00 0.00 0.00 0.00 0.00 0.00 0.00 0.00 0.00 0.00 0.00 0.00 0.00 0.00 0.00 0.00 0.00
0.00 0.00 0.00 0.00 0.00 0.00 0.00 0.00 0.00 0.00 0.00 0.00 0.00 0.00 0.00 0.00 0.00 0.00 0.00 0.00 0.00 0.00 0.00 0.00 0.00 0.00 0.00 0.00 0.00 0.00 0.00 0.00 0.00 0.00 0.00 0.00 0.00 0.00 0.00 0.00 0.00 0.00 0.00 0.00 0.00
0.00 0.00 0.00 0.00 0.00 0.00 0.00 0.00 0.00 0.00 0.00 0.00 0.00 0.00 0.00 0.00 0.00 0.00 0.00 0.00 0.00 0.00 0.00 0.00 0.00 0.00 0.00 0.00 0.00 0.00 0.00 0.00 0.00 0.00 0.00 0.00 0.00 0.00 0.00 0.00 0.00 0.00 0.00 0.00 0.00

GFSSW_prec_precacc12_129.txt.gz
Total_Precipitation_Accumulation
0.14 0.18 0.36 0.54 0.75 0.61 0.59 0.56 0.46 0.13 0.05 0.03 0.11 0.56 0.73 0.04 0.00 0.00 0.00 0.00 0.00 0.00 0.00 0.00 0.00 0.00 0.00 0.00 0.00 0.00 0.00 0.00 0.00 0.00 0.00 0.00 0.00 0.00 0.00 0.00 0.00 0.00 0.00 0.00 0.00
0.14 0.19 0.51 0.82 1.20 1.27 0.93 0.70 0.33 0.10 0.00 0.00 0.11 0.37 0.71 0.12 0.00 0.00 0.00 0.00 0.00 0.00 0.00 0.00 0.00 0.00 0.00 0.00 0.00 0.00 0.00 0.00 0.00 0.00 0.00 0.00 0.00 0.00 0.00 0.00 0.00 0.00 0.00 0.00 0.00
0.17 0.13 0.30 0.82 1.51 2.25 1.92 0.53 0.15 0.04 0.00 0.00 0.08 0.55 0.87 0.25 0.02 0.00 0.00 0.00 0.00 0.00 0.00 0.00 0.00 0.00 0.00 0.00 0.00 0.00 0.00 0.00 0.00 0.00 0.00 0.00 0.00 0.00 0.00 0.00 0.00 0.00 0.00 0.00 0.00
0.21 0.17 0.28 0.53 1.05 1.67 1.45 0.24 0.18 0.05 0.00 0.02 0.11 0.79 1.10 0.49 0.21 0.00 0.00 0.01 0.00 0.00 0.00 0.00 0.00 0.00 0.00 0.00 0.00 0.00 0.00 0.00 0.00 0.00 0.00 0.00 0.00 0.00 0.00 0.00 0.00 0.00 0.00 0.00 0.00
0.13 0.20 0.26 0.54 0.75 0.93 0.48 0.26 0.18 0.11 0.05 0.12 0.23 0.89 0.92 0.60 0.29 0.02 0.02 0.01 0.00 0.00 0.00 0.00 0.00 0.00 0.00 0.00 0.00 0.00 0.00 0.00 0.00 0.00 0.00 0.00 0.00 0.00 0.00 0.00 0.00 0.00 0.00 0.00 0.00
0.10 0.10 0.14 0.15 0.23 0.19 0.10 0.17 0.15 0.10 0.05 0.08 0.26 0.73 0.60 0.63 0.34 0.05 0.05 0.00 0.00 0.00 0.00 0.00 0.00 0.00 0.00 0.00 0.00 0.00 0.00 0.00 0.00 0.00 0.00 0.00 0.00 0.00 0.00 0.00 0.00 0.00 0.00 0.00 0.00
0.08 0.09 0.04 0.05 0.11 0.11 0.12 0.16 0.10 0.07 0.08 0.16 0.24 0.24 0.55 0.81 0.57 0.30 0.05 0.00 0.00 0.00 0.00 0.00 0.00 0.00 0.00 0.00 0.00 0.00 0.00 0.00 0.00 0.00 0.00 0.00 0.00 0.00 0.00 0.00 0.00 0.00 0.00 0.00 0.00
0.07 0.04 0.04 0.06 0.09 0.12 0.12 0.09 0.03 0.05 0.07 0.11 0.16 0.21 0.71 0.80 0.44 0.21 0.00 0.00 0.00 0.00 0.00 0.00 0.00 0.00 0.00 0.00 0.00 0.00 0.00 0.00 0.00 0.00 0.00 0.00 0.00 0.00 0.00 0.00 0.00 0.00 0.00 0.00 0.00
0.03 0.02 0.02 0.05 0.08 0.08 0.06 0.04 0.03 0.03 0.03 0.02 0.07 0.21 0.80 0.86 0.33 0.07 0.00 0.00 0.00 0.00 0.00 0.00 0.00 0.00 0.00 0.00 0.00 0.00 0.00 0.00 0.00 0.00 0.00 0.00 0.00 0.00 0.00 0.00 0.00 0.00 0.00 0.00 0.00
0.02 0.03 0.01 0.03 0.09 0.10 0.09 0.03 0.01 0.00 0.00 0.00 0.05 0.20 0.66 0.53 0.19 0.02 0.00 0.00 0.00 0.00 0.00 0.00 0.00 0.00 0.00 0.00 0.00 0.00 0.00 0.00 0.00 0.00 0.00 0.00 0.00 0.00 0.00 0.00 0.00 0.00 0.00 0.00 0.00
0.01 0.01 0.01 0.00 0.00 0.00 0.00 0.00 0.00 0.04 0.05 0.08 0.10 0.13 0.33 0.25 0.07 0.01 0.00 0.00 0.00 0.00 0.00 0.00 0.00 0.00 0.00 0.00 0.00 0.00 0.00 0.00 0.00 0.00 0.00 0.00 0.00 0.00 0.00 0.00 0.00 0.00 0.00 0.00 0.00
0.01 0.01 0.00 0.00 0.00 0.00 0.00 0.00 0.02 0.05 0.23 0.23 0.19 0.16 0.20 0.07 0.05 0.00 0.00 0.00 0.00 0.00 0.00 0.00 0.00 0.00 0.00 0.00 0.00 0.00 0.00 0.00 0.00 0.00 0.00 0.00 0.00 0.00 0.00 0.00 0.00 0.00 0.00 0.00 0.00
0.00 0.00 0.00 0.00 0.00 0.00 0.00 0.06 0.07 0.01 0.15 0.42 0.31 0.28 0.20 0.05 0.01 0.00 0.00 0.00 0.00 0.00 0.00 0.00 0.00 0.00 0.00 0.00 0.00 0.00 0.00 0.00 0.00 0.00 0.00 0.00 0.00 0.00 0.00 0.00 0.00 0.00 0.00 0.00 0.00
0.00 0.00 0.00 0.00 0.00 0.01 0.00 0.01 0.01 0.00 0.03 0.22 0.15 0.15 0.09 0.02 0.00 0.00 0.00 0.00 0.00 0.00 0.00 0.00 0.00 0.00 0.00 0.00 0.00 0.00 0.00 0.00 0.00 0.00 0.00 0.00 0.00 0.00 0.00 0.00 0.00 0.00 0.00 0.00 0.00
0.00 0.00 0.00 0.00 0.00 0.00 0.00 0.00 0.00 0.00 0.04 0.15 0.06 0.00 0.00 0.00 0.00 0.00 0.00 0.00 0.00 0.00 0.00 0.00 0.00 0.00 0.00 0.00 0.00 0.00 0.00 0.00 0.00 0.00 0.01 0.00 0.01 0.00 0.00 0.00 0.00 0.00 0.00 0.00 0.00
0.00 0.00 0.00 0.00 0.00 0.00 0.00 0.00 0.00 0.00 0.06 0.01 0.00 0.00 0.00 0.00 0.00 0.00 0.00 0.00 0.00 0.00 0.00 0.00 0.00 0.00 0.00 0.00 0.00 0.00 0.00 0.00 0.00 0.01 0.01 0.00 0.01 0.00 0.00 0.03 0.01 0.01 0.01 0.00 0.00
0.00 0.00 0.00 0.00 0.00 0.00 0.00 0.00 0.00 0.01 0.01 0.00 0.00 0.00 0.00 0.00 0.00 0.00 0.00 0.00 0.00 0.00 0.00 0.00 0.00 0.00 0.00 0.00 0.00 0.00 0.00 0.00 0.00 0.01 0.00 0.00 0.01 0.01 0.00 0.02 0.05 0.07 0.03 0.02 0.02
0.00 0.00 0.00 0.00 0.00 0.00 0.00 0.00 0.00 0.01 0.00 0.00 0.00 0.00 0.00 0.00 0.00 0.00 0.00 0.00 0.00 0.00 0.00 0.00 0.00 0.00 0.00 0.00 0.00 0.00 0.00 0.01 0.01 0.00 0.00 0.00 0.01 0.01 0.00 0.01 0.05 0.06 0.03 0.02 0.02
0.00 0.00 0.00 0.00 0.00 0.00 0.00 0.00 0.00 0.00 0.00 0.00 0.00 0.00 0.00 0.00 0.00 0.00 0.00 0.00 0.00 0.00 0.00 0.00 0.00 0.00 0.00 0.00 0.00 0.01 0.02 0.01 0.03 0.01 0.02 0.01 0.01 0.00 0.00 0.00 0.01 0.03 0.02 0.01 0.10
0.00 0.00 0.00 0.00 0.00 0.00 0.00 0.00 0.00 0.00 0.00 0.00 0.00 0.00 0.00 0.00 0.00 0.00 0.00 0.00 0.00 0.00 0.00 0.00 0.00 0.00 0.00 0.00 0.00 0.01 0.02 0.05 0.07 0.05 0.03 0.00 0.01 0.02 0.00 0.01 0.02 0.03 0.04 0.06 0.16
0.00 0.00 0.00 0.00 0.00 0.00 0.00 0.00 0.00 0.00 0.00 0.00 0.00 0.00 0.00 0.00 0.00 0.00 0.00 0.00 0.00 0.00 0.00 0.00 0.00 0.00 0.00 0.00 0.01 0.02 0.02 0.02 0.04 0.03 0.03 0.01 0.00 0.01 0.01 0.02 0.02 0.00 0.00 0.01 0.06
0.00 0.00 0.00 0.00 0.00 0.00 0.00 0.00 0.00 0.00 0.00 0.00 0.00 0.00 0.00 0.00 0.00 0.00 0.00 0.00 0.00 0.00 0.00 0.00 0.01 0.00 0.00 0.00 0.00 0.00 0.01 0.01 0.03 0.05 0.02 0.02 0.01 0.00 0.00 0.02 0.05 0.01 0.00 0.00 0.00
0.00 0.00 0.00 0.00 0.00 0.00 0.00 0.00 0.00 0.00 0.00 0.00 0.00 0.00 0.00 0.00 0.00 0.00 0.00 0.00 0.00 0.00 0.00 0.00 0.00 0.00 0.00 0.00 0.00 0.00 0.00 0.00 0.00 0.01 0.01 0.01 0.00 0.00 0.00 0.02 0.02 0.00 0.00 0.00 0.00
0.00 0.00 0.00 0.00 0.00 0.00 0.00 0.00 0.00 0.00 0.00 0.00 0.00 0.00 0.00 0.00 0.00 0.00 0.00 0.00 0.00 0.00 0.00 0.00 0.00 0.00 0.00 0.00 0.00 0.00 0.00 0.00 0.00 0.00 0.00 0.00 0.00 0.00 0.00 0.00 0.00 0.00 0.00 0.00 0.00
0.00 0.00 0.00 0.00 0.00 0.00 0.00 0.00 0.00 0.00 0.00 0.00 0.00 0.00 0.00 0.00 0.00 0.00 0.00 0.00 0.00 0.00 0.00 0.00 0.00 0.00 0.00 0.00 0.00 0.00 0.00 0.00 0.00 0.00 0.00 0.00 0.00 0.00 0.00 0.00 0.00 0.00 0.00 0.00 0.00
0.00 0.00 0.00 0.00 0.00 0.00 0.00 0.00 0.00 0.00 0.00 0.00 0.00 0.00 0.00 0.00 0.00 0.00 0.00 0.00 0.00 0.00 0.00 0.00 0.00 0.00 0.00 0.00 0.00 0.00 0.00 0.00 0.00 0.00 0.00 0.00 0.00 0.00 0.00 0.00 0.00 0.00 0.00 0.00 0.00
0.00 0.00 0.00 0.00 0.00 0.00 0.00 0.00 0.00 0.00 0.00 0.00 0.00 0.00 0.00 0.00 0.00 0.00 0.00 0.00 0.00 0.00 0.00 0.00 0.00 0.00 0.00 0.00 0.00 0.00 0.00 0.00 0.00 0.00 0.00 0.00 0.00 0.00 0.00 0.00 0.00 0.00 0.00 0.00 0.00

GFSSW_prec_precacc12_132.txt.gz
Total_Precipitation_Accumulation
0.15 0.11 0.14 0.26 0.62 0.59 0.56 0.57 0.45 0.15 0.05 0.05 0.20 0.86 0.71 0.03 0.00 0.00 0.00 0.00 0.00 0.00 0.00 0.00 0.00 0.00 0.00 0.00 0.00 0.00 0.00 0.00 0.00 0.00 0.00 0.00 0.00 0.00 0.00 0.00 0.00 0.00 0.00 0.00 0.00
0.21 0.29 0.38 0.59 0.92 1.43 1.08 0.82 0.40 0.15 0.03 0.04 0.21 0.81 0.87 0.08 0.00 0.00 0.00 0.00 0.00 0.00 0.00 0.00 0.00 0.00 0.00 0.00 0.00 0.00 0.00 0.00 0.00 0.00 0.00 0.00 0.00 0.00 0.00 0.00 0.00 0.00 0.00 0.00 0.00
0.30 0.50 0.62 1.22 1.75 2.62 2.43 0.82 0.18 0.06 0.03 0.02 0.20 1.02 0.95 0.24 0.01 0.00 0.01 0.00 0.00 0.00 0.00 0.00 0.00 0.00 0.00 0.00 0.00 0.00 0.00 0.00 0.00 0.00 0.00 0.00 0.00 0.00 0.00 0.00 0.00 0.00 0.00 0.00 0.00
0.17 0.39 0.66 0.66 0.96 1.56 1.41 0.17 0.09 0.02 0.00 0.05 0.30 1.22 1.01 0.46 0.09 0.00 0.00 0.00 0.00 0.00 0.00 0.00 0.00 0.00 0.00 0.00 0.00 0.00 0.00 0.00 0.00 0.00 0.00 0.00 0.00 0.00 0.00 0.00 0.00 0.00 0.00 0.00 0.00
0.12 0.20 0.32 0.51 0.59 0.85 0.40 0.05 0.05 0.07 0.14 0.20 0.48 1.06 0.83 0.57 0.20 0.01 0.01 0.00 0.00 0.00 0.00 0.00 0.00 0.00 0.00 0.00 0.00 0.00 0.00 0.00 0.00 0.00 0.00 0.00 0.00 0.00 0.00 0.00 0.00 0.00 0.00 0.00 0.00
0.09 0.10 0.15 0.16 0.24 0.21 0.12 0.14 0.13 0.11 0.08 0.13 0.34 0.74 0.49 0.47 0.27 0.04 0.01 0.00 0.00 0.00 0.00 0.00 0.00 0.00 0.00 0.00 0.00 0.00 0.00 0.00 0.00 0.00 0.00 0.00 0.00 0.00 0.00 0.00 0.00 0.00 0.00 0.00 0.00
0.07 0.08 0.04 0.06 0.11 0.14 0.17 0.19 0.13 0.06 0.08 0.14 0.22 0.24 0.50 0.69 0.49 0.20 0.01 0.00 0.00 0.00 0.00 0.00 0.00 0.00 0.00 0.00 0.00 0.00 0.00 0.00 0.00 0.00 0.00 0.00 0.00 0.00 0.00 0.00 0.00 0.00 0.00 0.00 0.00
0.04 0.02 0.03 0.04 0.07 0.13 0.14 0.14 0.10 0.09 0.07 0.12 0.18 0.25 0.74 0.76 0.41 0.13 0.00 0.00 0.00 0.00 0.00 0.00 0.00 0.00 0.00 0.00 0.00 0.00 0.00 0.00 0.00 0.00 0.00 0.00 0.00 0.00 0.00 0.00 0.00 0.00 0.00 0.00 0.00
0.02 0.00 0.01 0.05 0.07 0.03 0.02 0.01 0.04 0.07 0.04 0.07 0.13 0.26 0.81 0.71 0.24 0.02 0.00 0.00 0.00 0.00 0.00 0.00 0.00 0.00 0.00 0.00 0.00 0.00 0.00 0.00 0.00 0.00 0.00 0.00 0.00 0.00 0.00 0.00 0.00 0.00 0.00 0.00 0.00
0.02 0.01 0.00 0.02 0.09 0.06 0.04 0.02 0.00 0.00 0.00 0.01 0.07 0.22 0.61 0.48 0.14 0.00 0.00 0.00 0.00 0.00 0.00 0.00 0.00 0.00 0.00 0.00 0.00 0.00 0.00 0.00 0.00 0.00 0.00 0.00 0.00 0.00 0.00 0.00 0.00 0.00 0.00 0.00 0.00
0.00 0.00 0.00 0.00 0.00 0.00 0.00 0.00 0.00 0.04 0.04 0.09 0.12 0.09 0.29 0.19 0.06 0.01 0.00 0.00 0.00 0.00 0.00 0.00 0.00 0.00 0.00 0.00 0.00 0.00 0.00 0.00 0.00 0.00 0.00 0.00 0.00 0.00 0.00 0.00 0.00 0.00 0.00 0.00 0.00
0.00 0.00 0.00 0.00 0.00 0.00 0.00 0.00 0.00 0.03 0.12 0.12 0.14 0.09 0.11 0.04 0.03 0.00 0.00 0.00 0.00 0.00 0.00 0.00 0.00 0.00 0.00 0.00 0.00 0.00 0.00 0.00 0.00 0.00 0.00 0.00 0.00 0.00 0.00 0.00 0.00 0.00 0.00 0.00 0.00
0.00 0.00 0.00 0.00 0.00 0.00 0.00 0.00 0.00 0.00 0.04 0.16 0.16 0.16 0.09 0.01 0.01 0.00 0.00 0.00 0.00 0.00 0.00 0.00 0.00 0.00 0.00 0.00 0.00 0.00 0.00 0.00 0.00 0.00 0.00 0.00 0.00 0.00 0.00 0.00 0.00 0.00 0.00 0.00 0.00
0.00 0.00 0.00 0.00 0.00 0.00 0.00 0.00 0.00 0.00 0.01 0.06 0.04 0.06 0.02 0.00 0.00 0.00 0.00 0.00 0.00 0.00 0.00 0.00 0.00 0.00 0.00 0.00 0.00 0.00 0.00 0.00 0.00 0.00 0.00 0.00 0.00 0.00 0.00 0.00 0.00 0.00 0.00 0.00 0.00
0.00 0.00 0.00 0.00 0.00 0.00 0.00 0.00 0.00 0.00 0.02 0.06 0.02 0.00 0.00 0.00 0.00 0.00 0.00 0.00 0.00 0.00 0.00 0.00 0.00 0.00 0.00 0.00 0.00 0.00 0.00 0.00 0.00 0.00 0.00 0.00 0.00 0.00 0.00 0.00 0.00 0.00 0.00 0.00 0.00
0.00 0.00 0.00 0.00 0.00 0.00 0.00 0.00 0.00 0.00 0.03 0.00 0.00 0.00 0.00 0.00 0.00 0.00 0.00 0.00 0.00 0.00 0.00 0.00 0.00 0.00 0.00 0.00 0.00 0.00 0.00 0.00 0.00 0.00 0.00 0.00 0.00 0.00 0.00 0.00 0.00 0.00 0.00 0.00 0.00
0.00 0.00 0.00 0.00 0.00 0.00 0.00 0.00 0.00 0.00 0.00 0.00 0.00 0.00 0.00 0.00 0.00 0.00 0.00 0.00 0.00 0.00 0.00 0.00 0.00 0.00 0.00 0.00 0.00 0.00 0.00 0.00 0.00 0.00 0.00 0.00 0.00 0.00 0.00 0.00 0.00 0.01 0.01 0.00 0.00
0.00 0.00 0.00 0.00 0.00 0.00 0.00 0.00 0.00 0.00 0.00 0.00 0.00 0.00 0.00 0.00 0.00 0.00 0.00 0.00 0.00 0.00 0.00 0.00 0.00 0.00 0.00 0.00 0.00 0.00 0.00 0.01 0.00 0.00 0.00 0.00 0.00 0.00 0.00 0.00 0.01 0.01 0.01 0.00 0.00
0.00 0.00 0.00 0.00 0.00 0.00 0.00 0.00 0.00 0.00 0.00 0.00 0.00 0.00 0.00 0.00 0.00 0.00 0.00 0.00 0.00 0.00 0.00 0.00 0.00 0.00 0.00 0.00 0.00 0.00 0.01 0.01 0.01 0.00 0.01 0.00 0.00 0.00 0.00 0.00 0.00 0.00 0.00 0.00 0.02
0.00 0.00 0.00 0.00 0.00 0.00 0.00 0.00 0.00 0.00 0.00 0.00 0.00 0.00 0.00 0.00 0.00 0.00 0.00 0.00 0.00 0.00 0.00 0.00 0.00 0.00 0.00 0.00 0.00 0.00 0.01 0.02 0.04 0.02 0.02 0.00 0.00 0.00 0.00 0.00 0.00 0.00 0.00 0.00 0.02
0.00 0.00 0.00 0.00 0.00 0.00 0.00 0.00 0.00 0.00 0.00 0.00 0.00 0.00 0.00 0.00 0.00 0.00 0.00 0.00 0.00 0.00 0.00 0.00 0.00 0.00 0.00 0.00 0.00 0.01 0.01 0.01 0.02 0.01 0.02 0.01 0.00 0.00 0.00 0.00 0.00 0.00 0.00 0.00 0.00
0.00 0.00 0.00 0.00 0.00 0.00 0.00 0.00 0.00 0.00 0.00 0.00 0.00 0.00 0.00 0.00 0.00 0.00 0.00 0.00 0.00 0.00 0.00 0.00 0.00 0.00 0.00 0.00 0.00 0.00 0.01 0.01 0.03 0.04 0.01 0.02 0.01 0.00 0.00 0.00 0.01 0.00 0.00 0.00 0.00
0.00 0.00 0.00 0.00 0.00 0.00 0.00 0.00 0.00 0.00 0.00 0.00 0.00 0.00 0.00 0.00 0.00 0.00 0.00 0.00 0.00 0.00 0.00 0.00 0.00 0.00 0.00 0.00 0.00 0.00 0.00 0.00 0.00 0.01 0.01 0.01 0.00 0.00 0.00 0.00 0.00 0.00 0.00 0.00 0.00
0.00 0.00 0.00 0.00 0.00 0.00 0.00 0.00 0.00 0.00 0.00 0.00 0.00 0.00 0.00 0.00 0.00 0.00 0.00 0.00 0.00 0.00 0.00 0.00 0.00 0.00 0.00 0.00 0.00 0.00 0.00 0.00 0.00 0.00 0.00 0.00 0.00 0.00 0.00 0.00 0.00 0.00 0.00 0.00 0.00
0.00 0.00 0.00 0.00 0.00 0.00 0.00 0.00 0.00 0.00 0.00 0.00 0.00 0.00 0.00 0.00 0.00 0.00 0.00 0.00 0.00 0.00 0.00 0.00 0.00 0.00 0.00 0.00 0.00 0.00 0.00 0.00 0.00 0.00 0.00 0.00 0.00 0.00 0.00 0.00 0.00 0.00 0.00 0.00 0.00
0.00 0.00 0.00 0.00 0.00 0.00 0.00 0.00 0.00 0.00 0.00 0.00 0.00 0.00 0.00 0.00 0.00 0.00 0.00 0.00 0.00 0.00 0.00 0.00 0.00 0.00 0.00 0.00 0.00 0.00 0.00 0.00 0.00 0.00 0.00 0.00 0.00 0.00 0.00 0.00 0.00 0.00 0.00 0.00 0.00
0.00 0.00 0.00 0.00 0.00 0.00 0.00 0.00 0.00 0.00 0.00 0.00 0.00 0.00 0.00 0.00 0.00 0.00 0.00 0.00 0.00 0.00 0.00 0.00 0.00 0.00 0.00 0.00 0.00 0.00 0.00 0.00 0.00 0.00 0.00 0.00 0.00 0.00 0.00 0.00 0.00 0.00 0.00 0.00 0.00